<?xml version="1.0" encoding="UTF-8" standalone="no" ?>
<gpx xmlns="http://www.topografix.com/GPX/1/1" xmlns:xsi="http://www.w3.org/2001/XMLSchema-instance" xsi:schemaLocation="http://www.topografix.com/GPX/1/1 http://www.topografix.com/GPX/1/1/gpx.xsd" version="1.1" creator="VisuGPX - https://www.visugpx.com">
  <metadata>
    <name>Lacs de la Tempête - col de la Louze (Beaufortain)</name>
    <desc><![CDATA[Superbes lacs d'altitude au pied du Grand Mont.]]></desc>
  </metadata>
  <trk>
    <name><![CDATA[13-SEP-20 16:41:22]]></name>
    <trkseg>
      <trkpt lat="45.62695" lon="6.47925">
        <ele>1207.07</ele>
        <time>2020-09-13T06:46:51Z</time>
      </trkpt>
      <trkpt lat="45.62695" lon="6.47925">
        <ele>1210.92</ele>
        <time>2020-09-13T06:46:52Z</time>
      </trkpt>
      <trkpt lat="45.62694" lon="6.47925">
        <ele>1207.55</ele>
        <time>2020-09-13T06:46:55Z</time>
      </trkpt>
      <trkpt lat="45.62693" lon="6.47925">
        <ele>1209</ele>
        <time>2020-09-13T06:47:18Z</time>
      </trkpt>
      <trkpt lat="45.62696" lon="6.47925">
        <ele>1208.51</ele>
        <time>2020-09-13T06:47:27Z</time>
      </trkpt>
      <trkpt lat="45.62704" lon="6.47929">
        <ele>1208.51</ele>
        <time>2020-09-13T06:47:34Z</time>
      </trkpt>
      <trkpt lat="45.62708" lon="6.47934">
        <ele>1208.51</ele>
        <time>2020-09-13T06:47:38Z</time>
      </trkpt>
      <trkpt lat="45.6271" lon="6.47937">
        <ele>1212.84</ele>
        <time>2020-09-13T06:47:40Z</time>
      </trkpt>
      <trkpt lat="45.6271" lon="6.47938">
        <ele>1209</ele>
        <time>2020-09-13T06:47:41Z</time>
      </trkpt>
      <trkpt lat="45.62711" lon="6.47947">
        <ele>1209.48</ele>
        <time>2020-09-13T06:47:46Z</time>
      </trkpt>
      <trkpt lat="45.62712" lon="6.47951">
        <ele>1209.48</ele>
        <time>2020-09-13T06:47:49Z</time>
      </trkpt>
      <trkpt lat="45.62712" lon="6.47956">
        <ele>1209.96</ele>
        <time>2020-09-13T06:47:52Z</time>
      </trkpt>
      <trkpt lat="45.62711" lon="6.4798">
        <ele>1211.88</ele>
        <time>2020-09-13T06:48:07Z</time>
      </trkpt>
      <trkpt lat="45.62708" lon="6.47995">
        <ele>1212.36</ele>
        <time>2020-09-13T06:48:19Z</time>
      </trkpt>
      <trkpt lat="45.62706" lon="6.4801">
        <ele>1211.4</ele>
        <time>2020-09-13T06:48:27Z</time>
      </trkpt>
      <trkpt lat="45.62708" lon="6.48029">
        <ele>1209.48</ele>
        <time>2020-09-13T06:48:39Z</time>
      </trkpt>
      <trkpt lat="45.62711" lon="6.48035">
        <ele>1209</ele>
        <time>2020-09-13T06:48:42Z</time>
      </trkpt>
      <trkpt lat="45.62713" lon="6.4805">
        <ele>1207.55</ele>
        <time>2020-09-13T06:48:52Z</time>
      </trkpt>
      <trkpt lat="45.62715" lon="6.48069">
        <ele>1205.63</ele>
        <time>2020-09-13T06:49:02Z</time>
      </trkpt>
      <trkpt lat="45.62729" lon="6.48092">
        <ele>1203.23</ele>
        <time>2020-09-13T06:49:19Z</time>
      </trkpt>
      <trkpt lat="45.62743" lon="6.48103">
        <ele>1203.71</ele>
        <time>2020-09-13T06:49:33Z</time>
      </trkpt>
      <trkpt lat="45.62754" lon="6.48107">
        <ele>1205.15</ele>
        <time>2020-09-13T06:49:49Z</time>
      </trkpt>
      <trkpt lat="45.62758" lon="6.48117">
        <ele>1205.63</ele>
        <time>2020-09-13T06:49:55Z</time>
      </trkpt>
      <trkpt lat="45.6277" lon="6.48138">
        <ele>1206.59</ele>
        <time>2020-09-13T06:50:11Z</time>
      </trkpt>
      <trkpt lat="45.62773" lon="6.48162">
        <ele>1209.96</ele>
        <time>2020-09-13T06:50:27Z</time>
      </trkpt>
      <trkpt lat="45.62776" lon="6.48184">
        <ele>1211.88</ele>
        <time>2020-09-13T06:50:44Z</time>
      </trkpt>
      <trkpt lat="45.62782" lon="6.48197">
        <ele>1211.88</ele>
        <time>2020-09-13T06:50:59Z</time>
      </trkpt>
      <trkpt lat="45.62784" lon="6.48202">
        <ele>1212.36</ele>
        <time>2020-09-13T06:51:18Z</time>
      </trkpt>
      <trkpt lat="45.628" lon="6.48242">
        <ele>1214.28</ele>
        <time>2020-09-13T06:51:40Z</time>
      </trkpt>
      <trkpt lat="45.62804" lon="6.48264">
        <ele>1212.84</ele>
        <time>2020-09-13T06:51:55Z</time>
      </trkpt>
      <trkpt lat="45.62811" lon="6.48297">
        <ele>1212.84</ele>
        <time>2020-09-13T06:52:11Z</time>
      </trkpt>
      <trkpt lat="45.62818" lon="6.48316">
        <ele>1209.48</ele>
        <time>2020-09-13T06:52:24Z</time>
      </trkpt>
      <trkpt lat="45.62818" lon="6.48316">
        <ele>1214.76</ele>
        <time>2020-09-13T06:52:25Z</time>
      </trkpt>
      <trkpt lat="45.62819" lon="6.48318">
        <ele>1211.88</ele>
        <time>2020-09-13T06:52:29Z</time>
      </trkpt>
      <trkpt lat="45.62821" lon="6.48329">
        <ele>1209</ele>
        <time>2020-09-13T06:52:39Z</time>
      </trkpt>
      <trkpt lat="45.62824" lon="6.48343">
        <ele>1205.63</ele>
        <time>2020-09-13T06:52:49Z</time>
      </trkpt>
      <trkpt lat="45.62827" lon="6.48351">
        <ele>1205.63</ele>
        <time>2020-09-13T06:52:55Z</time>
      </trkpt>
      <trkpt lat="45.62837" lon="6.48367">
        <ele>1205.15</ele>
        <time>2020-09-13T06:53:05Z</time>
      </trkpt>
      <trkpt lat="45.62844" lon="6.48391">
        <ele>1202.75</ele>
        <time>2020-09-13T06:53:16Z</time>
      </trkpt>
      <trkpt lat="45.62852" lon="6.48411">
        <ele>1201.3</ele>
        <time>2020-09-13T06:53:26Z</time>
      </trkpt>
      <trkpt lat="45.62855" lon="6.48438">
        <ele>1198.42</ele>
        <time>2020-09-13T06:53:41Z</time>
      </trkpt>
      <trkpt lat="45.62857" lon="6.48456">
        <ele>1195.54</ele>
        <time>2020-09-13T06:53:52Z</time>
      </trkpt>
      <trkpt lat="45.62858" lon="6.48464">
        <ele>1193.61</ele>
        <time>2020-09-13T06:53:59Z</time>
      </trkpt>
      <trkpt lat="45.62867" lon="6.48485">
        <ele>1190.25</ele>
        <time>2020-09-13T06:54:13Z</time>
      </trkpt>
      <trkpt lat="45.62867" lon="6.48486">
        <ele>1189.77</ele>
        <time>2020-09-13T06:54:14Z</time>
      </trkpt>
      <trkpt lat="45.62877" lon="6.48518">
        <ele>1187.85</ele>
        <time>2020-09-13T06:54:31Z</time>
      </trkpt>
      <trkpt lat="45.62876" lon="6.48546">
        <ele>1184.48</ele>
        <time>2020-09-13T06:54:44Z</time>
      </trkpt>
      <trkpt lat="45.62877" lon="6.48565">
        <ele>1183.04</ele>
        <time>2020-09-13T06:54:55Z</time>
      </trkpt>
      <trkpt lat="45.62891" lon="6.48585">
        <ele>1180.16</ele>
        <time>2020-09-13T06:55:09Z</time>
      </trkpt>
      <trkpt lat="45.629" lon="6.48593">
        <ele>1178.23</ele>
        <time>2020-09-13T06:55:17Z</time>
      </trkpt>
      <trkpt lat="45.62911" lon="6.48631">
        <ele>1176.31</ele>
        <time>2020-09-13T06:55:34Z</time>
      </trkpt>
      <trkpt lat="45.62919" lon="6.48631">
        <ele>1175.35</ele>
        <time>2020-09-13T06:55:43Z</time>
      </trkpt>
      <trkpt lat="45.62926" lon="6.48635">
        <ele>1174.87</ele>
        <time>2020-09-13T06:55:47Z</time>
      </trkpt>
      <trkpt lat="45.6294" lon="6.48647">
        <ele>1172.95</ele>
        <time>2020-09-13T06:55:57Z</time>
      </trkpt>
      <trkpt lat="45.6295" lon="6.48656">
        <ele>1171.5</ele>
        <time>2020-09-13T06:56:07Z</time>
      </trkpt>
      <trkpt lat="45.62958" lon="6.48667">
        <ele>1171.5</ele>
        <time>2020-09-13T06:56:24Z</time>
      </trkpt>
      <trkpt lat="45.6296" lon="6.48668">
        <ele>1171.02</ele>
        <time>2020-09-13T06:56:26Z</time>
      </trkpt>
      <trkpt lat="45.6297" lon="6.48681">
        <ele>1170.06</ele>
        <time>2020-09-13T06:56:38Z</time>
      </trkpt>
      <trkpt lat="45.6298" lon="6.48694">
        <ele>1169.1</ele>
        <time>2020-09-13T06:56:50Z</time>
      </trkpt>
      <trkpt lat="45.62989" lon="6.48702">
        <ele>1169.1</ele>
        <time>2020-09-13T06:56:58Z</time>
      </trkpt>
      <trkpt lat="45.62996" lon="6.48714">
        <ele>1169.1</ele>
        <time>2020-09-13T06:57:13Z</time>
      </trkpt>
      <trkpt lat="45.62989" lon="6.48719">
        <ele>1166.22</ele>
        <time>2020-09-13T06:57:28Z</time>
      </trkpt>
      <trkpt lat="45.62986" lon="6.48724">
        <ele>1163.81</ele>
        <time>2020-09-13T06:57:35Z</time>
      </trkpt>
      <trkpt lat="45.62982" lon="6.48724">
        <ele>1162.85</ele>
        <time>2020-09-13T06:57:41Z</time>
      </trkpt>
      <trkpt lat="45.62979" lon="6.48724">
        <ele>1163.81</ele>
        <time>2020-09-13T06:57:43Z</time>
      </trkpt>
      <trkpt lat="45.62953" lon="6.48727">
        <ele>1163.33</ele>
        <time>2020-09-13T06:58:00Z</time>
      </trkpt>
      <trkpt lat="45.62943" lon="6.48736">
        <ele>1163.81</ele>
        <time>2020-09-13T06:58:12Z</time>
      </trkpt>
      <trkpt lat="45.6294" lon="6.48749">
        <ele>1163.81</ele>
        <time>2020-09-13T06:58:18Z</time>
      </trkpt>
      <trkpt lat="45.62921" lon="6.48767">
        <ele>1164.29</ele>
        <time>2020-09-13T06:58:34Z</time>
      </trkpt>
      <trkpt lat="45.6291" lon="6.48775">
        <ele>1165.74</ele>
        <time>2020-09-13T06:58:46Z</time>
      </trkpt>
      <trkpt lat="45.62907" lon="6.48776">
        <ele>1166.7</ele>
        <time>2020-09-13T06:58:49Z</time>
      </trkpt>
      <trkpt lat="45.62882" lon="6.48784">
        <ele>1168.62</ele>
        <time>2020-09-13T06:59:09Z</time>
      </trkpt>
      <trkpt lat="45.6288" lon="6.48785">
        <ele>1169.1</ele>
        <time>2020-09-13T06:59:11Z</time>
      </trkpt>
      <trkpt lat="45.62868" lon="6.488">
        <ele>1172.47</ele>
        <time>2020-09-13T06:59:26Z</time>
      </trkpt>
      <trkpt lat="45.62861" lon="6.48809">
        <ele>1175.35</ele>
        <time>2020-09-13T06:59:36Z</time>
      </trkpt>
      <trkpt lat="45.62857" lon="6.48836">
        <ele>1178.23</ele>
        <time>2020-09-13T06:59:53Z</time>
      </trkpt>
      <trkpt lat="45.62855" lon="6.48842">
        <ele>1179.19</ele>
        <time>2020-09-13T06:59:57Z</time>
      </trkpt>
      <trkpt lat="45.62849" lon="6.48858">
        <ele>1182.08</ele>
        <time>2020-09-13T07:00:10Z</time>
      </trkpt>
      <trkpt lat="45.6284" lon="6.48874">
        <ele>1184.96</ele>
        <time>2020-09-13T07:00:24Z</time>
      </trkpt>
      <trkpt lat="45.62835" lon="6.48885">
        <ele>1187.85</ele>
        <time>2020-09-13T07:00:38Z</time>
      </trkpt>
      <trkpt lat="45.62834" lon="6.48896">
        <ele>1191.21</ele>
        <time>2020-09-13T07:00:51Z</time>
      </trkpt>
      <trkpt lat="45.62821" lon="6.48914">
        <ele>1194.58</ele>
        <time>2020-09-13T07:01:09Z</time>
      </trkpt>
      <trkpt lat="45.62813" lon="6.48937">
        <ele>1197.94</ele>
        <time>2020-09-13T07:01:27Z</time>
      </trkpt>
      <trkpt lat="45.62808" lon="6.48957">
        <ele>1200.34</ele>
        <time>2020-09-13T07:01:41Z</time>
      </trkpt>
      <trkpt lat="45.62806" lon="6.4896">
        <ele>1201.3</ele>
        <time>2020-09-13T07:01:47Z</time>
      </trkpt>
      <trkpt lat="45.628" lon="6.48968">
        <ele>1202.27</ele>
        <time>2020-09-13T07:01:55Z</time>
      </trkpt>
      <trkpt lat="45.628" lon="6.48983">
        <ele>1205.15</ele>
        <time>2020-09-13T07:02:09Z</time>
      </trkpt>
      <trkpt lat="45.62794" lon="6.48985">
        <ele>1205.15</ele>
        <time>2020-09-13T07:02:30Z</time>
      </trkpt>
      <trkpt lat="45.6279" lon="6.48996">
        <ele>1204.67</ele>
        <time>2020-09-13T07:02:44Z</time>
      </trkpt>
      <trkpt lat="45.62788" lon="6.49024">
        <ele>1204.67</ele>
        <time>2020-09-13T07:03:00Z</time>
      </trkpt>
      <trkpt lat="45.62789" lon="6.4905">
        <ele>1207.07</ele>
        <time>2020-09-13T07:03:16Z</time>
      </trkpt>
      <trkpt lat="45.62789" lon="6.49055">
        <ele>1208.03</ele>
        <time>2020-09-13T07:03:21Z</time>
      </trkpt>
      <trkpt lat="45.62789" lon="6.4908">
        <ele>1209.96</ele>
        <time>2020-09-13T07:03:35Z</time>
      </trkpt>
      <trkpt lat="45.62788" lon="6.49093">
        <ele>1206.11</ele>
        <time>2020-09-13T07:03:38Z</time>
      </trkpt>
      <trkpt lat="45.62787" lon="6.49095">
        <ele>1213.8</ele>
        <time>2020-09-13T07:03:39Z</time>
      </trkpt>
      <trkpt lat="45.62786" lon="6.49096">
        <ele>1210.44</ele>
        <time>2020-09-13T07:03:40Z</time>
      </trkpt>
      <trkpt lat="45.62786" lon="6.49106">
        <ele>1209.48</ele>
        <time>2020-09-13T07:03:46Z</time>
      </trkpt>
      <trkpt lat="45.62786" lon="6.4913">
        <ele>1209.48</ele>
        <time>2020-09-13T07:04:01Z</time>
      </trkpt>
      <trkpt lat="45.62777" lon="6.49153">
        <ele>1210.44</ele>
        <time>2020-09-13T07:04:12Z</time>
      </trkpt>
      <trkpt lat="45.62776" lon="6.49175">
        <ele>1212.84</ele>
        <time>2020-09-13T07:04:24Z</time>
      </trkpt>
      <trkpt lat="45.62772" lon="6.492">
        <ele>1215.72</ele>
        <time>2020-09-13T07:04:40Z</time>
      </trkpt>
      <trkpt lat="45.62763" lon="6.49229">
        <ele>1216.69</ele>
        <time>2020-09-13T07:04:54Z</time>
      </trkpt>
      <trkpt lat="45.62759" lon="6.49246">
        <ele>1217.65</ele>
        <time>2020-09-13T07:05:09Z</time>
      </trkpt>
      <trkpt lat="45.62756" lon="6.49257">
        <ele>1217.65</ele>
        <time>2020-09-13T07:05:20Z</time>
      </trkpt>
      <trkpt lat="45.62753" lon="6.49268">
        <ele>1218.13</ele>
        <time>2020-09-13T07:05:26Z</time>
      </trkpt>
      <trkpt lat="45.62749" lon="6.49283">
        <ele>1218.61</ele>
        <time>2020-09-13T07:05:42Z</time>
      </trkpt>
      <trkpt lat="45.62748" lon="6.49291">
        <ele>1218.13</ele>
        <time>2020-09-13T07:05:58Z</time>
      </trkpt>
      <trkpt lat="45.62747" lon="6.49294">
        <ele>1217.65</ele>
        <time>2020-09-13T07:06:13Z</time>
      </trkpt>
      <trkpt lat="45.62748" lon="6.49294">
        <ele>1217.65</ele>
        <time>2020-09-13T07:06:28Z</time>
      </trkpt>
      <trkpt lat="45.62743" lon="6.49296">
        <ele>1217.65</ele>
        <time>2020-09-13T07:06:50Z</time>
      </trkpt>
      <trkpt lat="45.62743" lon="6.49295">
        <ele>1218.13</ele>
        <time>2020-09-13T07:06:57Z</time>
      </trkpt>
      <trkpt lat="45.62748" lon="6.49291">
        <ele>1218.13</ele>
        <time>2020-09-13T07:07:02Z</time>
      </trkpt>
      <trkpt lat="45.62751" lon="6.49289">
        <ele>1218.61</ele>
        <time>2020-09-13T07:07:08Z</time>
      </trkpt>
      <trkpt lat="45.62745" lon="6.49286">
        <ele>1217.65</ele>
        <time>2020-09-13T07:07:14Z</time>
      </trkpt>
      <trkpt lat="45.62738" lon="6.49286">
        <ele>1215.72</ele>
        <time>2020-09-13T07:07:21Z</time>
      </trkpt>
      <trkpt lat="45.62723" lon="6.49298">
        <ele>1213.8</ele>
        <time>2020-09-13T07:07:34Z</time>
      </trkpt>
      <trkpt lat="45.62708" lon="6.49318">
        <ele>1212.84</ele>
        <time>2020-09-13T07:07:47Z</time>
      </trkpt>
      <trkpt lat="45.62706" lon="6.49328">
        <ele>1212.36</ele>
        <time>2020-09-13T07:07:59Z</time>
      </trkpt>
      <trkpt lat="45.62705" lon="6.49326">
        <ele>1210.44</ele>
        <time>2020-09-13T07:08:04Z</time>
      </trkpt>
      <trkpt lat="45.62701" lon="6.49319">
        <ele>1211.88</ele>
        <time>2020-09-13T07:08:09Z</time>
      </trkpt>
      <trkpt lat="45.62691" lon="6.49302">
        <ele>1211.88</ele>
        <time>2020-09-13T07:08:19Z</time>
      </trkpt>
      <trkpt lat="45.6269" lon="6.49276">
        <ele>1212.36</ele>
        <time>2020-09-13T07:08:34Z</time>
      </trkpt>
      <trkpt lat="45.6269" lon="6.4927">
        <ele>1212.36</ele>
        <time>2020-09-13T07:08:37Z</time>
      </trkpt>
      <trkpt lat="45.62687" lon="6.49245">
        <ele>1212.36</ele>
        <time>2020-09-13T07:08:49Z</time>
      </trkpt>
      <trkpt lat="45.62691" lon="6.49222">
        <ele>1212.36</ele>
        <time>2020-09-13T07:09:01Z</time>
      </trkpt>
      <trkpt lat="45.62697" lon="6.49186">
        <ele>1213.32</ele>
        <time>2020-09-13T07:09:17Z</time>
      </trkpt>
      <trkpt lat="45.62703" lon="6.49158">
        <ele>1212.84</ele>
        <time>2020-09-13T07:09:32Z</time>
      </trkpt>
      <trkpt lat="45.62703" lon="6.49153">
        <ele>1216.21</ele>
        <time>2020-09-13T07:09:35Z</time>
      </trkpt>
      <trkpt lat="45.62699" lon="6.49129">
        <ele>1214.76</ele>
        <time>2020-09-13T07:09:49Z</time>
      </trkpt>
      <trkpt lat="45.62696" lon="6.49107">
        <ele>1215.24</ele>
        <time>2020-09-13T07:10:01Z</time>
      </trkpt>
      <trkpt lat="45.62696" lon="6.49106">
        <ele>1215.72</ele>
        <time>2020-09-13T07:10:03Z</time>
      </trkpt>
      <trkpt lat="45.62697" lon="6.49097">
        <ele>1215.72</ele>
        <time>2020-09-13T07:10:07Z</time>
      </trkpt>
      <trkpt lat="45.6269" lon="6.49068">
        <ele>1217.17</ele>
        <time>2020-09-13T07:10:22Z</time>
      </trkpt>
      <trkpt lat="45.62687" lon="6.49066">
        <ele>1217.17</ele>
        <time>2020-09-13T07:10:26Z</time>
      </trkpt>
      <trkpt lat="45.62684" lon="6.49056">
        <ele>1217.65</ele>
        <time>2020-09-13T07:10:32Z</time>
      </trkpt>
      <trkpt lat="45.62671" lon="6.49039">
        <ele>1218.13</ele>
        <time>2020-09-13T07:10:45Z</time>
      </trkpt>
      <trkpt lat="45.62671" lon="6.49038">
        <ele>1218.13</ele>
        <time>2020-09-13T07:10:46Z</time>
      </trkpt>
      <trkpt lat="45.62668" lon="6.49034">
        <ele>1218.13</ele>
        <time>2020-09-13T07:10:50Z</time>
      </trkpt>
      <trkpt lat="45.62662" lon="6.4903">
        <ele>1218.13</ele>
        <time>2020-09-13T07:10:55Z</time>
      </trkpt>
      <trkpt lat="45.62656" lon="6.4902">
        <ele>1217.65</ele>
        <time>2020-09-13T07:11:12Z</time>
      </trkpt>
      <trkpt lat="45.62655" lon="6.49019">
        <ele>1217.65</ele>
        <time>2020-09-13T07:11:35Z</time>
      </trkpt>
      <trkpt lat="45.62655" lon="6.49019">
        <ele>1218.13</ele>
        <time>2020-09-13T07:11:50Z</time>
      </trkpt>
      <trkpt lat="45.62657" lon="6.4902">
        <ele>1219.09</ele>
        <time>2020-09-13T07:12:00Z</time>
      </trkpt>
      <trkpt lat="45.62668" lon="6.49034">
        <ele>1221.49</ele>
        <time>2020-09-13T07:12:17Z</time>
      </trkpt>
      <trkpt lat="45.62672" lon="6.49046">
        <ele>1222.93</ele>
        <time>2020-09-13T07:12:27Z</time>
      </trkpt>
      <trkpt lat="45.62678" lon="6.49075">
        <ele>1224.38</ele>
        <time>2020-09-13T07:12:41Z</time>
      </trkpt>
      <trkpt lat="45.62686" lon="6.491">
        <ele>1225.34</ele>
        <time>2020-09-13T07:12:57Z</time>
      </trkpt>
      <trkpt lat="45.62691" lon="6.49118">
        <ele>1227.74</ele>
        <time>2020-09-13T07:13:10Z</time>
      </trkpt>
      <trkpt lat="45.62692" lon="6.49141">
        <ele>1228.7</ele>
        <time>2020-09-13T07:13:23Z</time>
      </trkpt>
      <trkpt lat="45.62689" lon="6.49169">
        <ele>1230.14</ele>
        <time>2020-09-13T07:13:38Z</time>
      </trkpt>
      <trkpt lat="45.62687" lon="6.49189">
        <ele>1232.55</ele>
        <time>2020-09-13T07:13:49Z</time>
      </trkpt>
      <trkpt lat="45.62681" lon="6.49213">
        <ele>1233.99</ele>
        <time>2020-09-13T07:14:05Z</time>
      </trkpt>
      <trkpt lat="45.62677" lon="6.49229">
        <ele>1234.47</ele>
        <time>2020-09-13T07:14:13Z</time>
      </trkpt>
      <trkpt lat="45.62678" lon="6.49236">
        <ele>1234.47</ele>
        <time>2020-09-13T07:14:16Z</time>
      </trkpt>
      <trkpt lat="45.62678" lon="6.49245">
        <ele>1235.43</ele>
        <time>2020-09-13T07:14:22Z</time>
      </trkpt>
      <trkpt lat="45.6268" lon="6.49261">
        <ele>1237.35</ele>
        <time>2020-09-13T07:14:32Z</time>
      </trkpt>
      <trkpt lat="45.62675" lon="6.49273">
        <ele>1238.32</ele>
        <time>2020-09-13T07:14:40Z</time>
      </trkpt>
      <trkpt lat="45.62666" lon="6.49284">
        <ele>1238.8</ele>
        <time>2020-09-13T07:14:48Z</time>
      </trkpt>
      <trkpt lat="45.62654" lon="6.49295">
        <ele>1240.24</ele>
        <time>2020-09-13T07:14:57Z</time>
      </trkpt>
      <trkpt lat="45.62645" lon="6.4928">
        <ele>1242.64</ele>
        <time>2020-09-13T07:15:08Z</time>
      </trkpt>
      <trkpt lat="45.62646" lon="6.49271">
        <ele>1244.08</ele>
        <time>2020-09-13T07:15:16Z</time>
      </trkpt>
      <trkpt lat="45.62646" lon="6.49262">
        <ele>1245.53</ele>
        <time>2020-09-13T07:15:23Z</time>
      </trkpt>
      <trkpt lat="45.62645" lon="6.49243">
        <ele>1246.97</ele>
        <time>2020-09-13T07:15:35Z</time>
      </trkpt>
      <trkpt lat="45.62643" lon="6.4924">
        <ele>1247.45</ele>
        <time>2020-09-13T07:15:39Z</time>
      </trkpt>
      <trkpt lat="45.62636" lon="6.49231">
        <ele>1248.89</ele>
        <time>2020-09-13T07:15:48Z</time>
      </trkpt>
      <trkpt lat="45.6263" lon="6.49225">
        <ele>1250.33</ele>
        <time>2020-09-13T07:15:55Z</time>
      </trkpt>
      <trkpt lat="45.62629" lon="6.49223">
        <ele>1250.33</ele>
        <time>2020-09-13T07:15:57Z</time>
      </trkpt>
      <trkpt lat="45.62624" lon="6.49218">
        <ele>1251.77</ele>
        <time>2020-09-13T07:16:04Z</time>
      </trkpt>
      <trkpt lat="45.6262" lon="6.49209">
        <ele>1253.7</ele>
        <time>2020-09-13T07:16:13Z</time>
      </trkpt>
      <trkpt lat="45.62607" lon="6.49198">
        <ele>1254.66</ele>
        <time>2020-09-13T07:16:27Z</time>
      </trkpt>
      <trkpt lat="45.626" lon="6.49195">
        <ele>1255.14</ele>
        <time>2020-09-13T07:16:33Z</time>
      </trkpt>
      <trkpt lat="45.6259" lon="6.49191">
        <ele>1256.1</ele>
        <time>2020-09-13T07:16:41Z</time>
      </trkpt>
      <trkpt lat="45.62574" lon="6.49188">
        <ele>1258.02</ele>
        <time>2020-09-13T07:16:57Z</time>
      </trkpt>
      <trkpt lat="45.62563" lon="6.49185">
        <ele>1259.46</ele>
        <time>2020-09-13T07:17:06Z</time>
      </trkpt>
      <trkpt lat="45.62544" lon="6.49174">
        <ele>1262.35</ele>
        <time>2020-09-13T07:17:21Z</time>
      </trkpt>
      <trkpt lat="45.62542" lon="6.49172">
        <ele>1262.83</ele>
        <time>2020-09-13T07:17:23Z</time>
      </trkpt>
      <trkpt lat="45.62526" lon="6.49163">
        <ele>1266.19</ele>
        <time>2020-09-13T07:17:41Z</time>
      </trkpt>
      <trkpt lat="45.62525" lon="6.49163">
        <ele>1266.19</ele>
        <time>2020-09-13T07:17:43Z</time>
      </trkpt>
      <trkpt lat="45.62517" lon="6.4916">
        <ele>1267.16</ele>
        <time>2020-09-13T07:17:49Z</time>
      </trkpt>
      <trkpt lat="45.62514" lon="6.4916">
        <ele>1267.64</ele>
        <time>2020-09-13T07:17:52Z</time>
      </trkpt>
      <trkpt lat="45.6251" lon="6.49161">
        <ele>1268.6</ele>
        <time>2020-09-13T07:17:58Z</time>
      </trkpt>
      <trkpt lat="45.62499" lon="6.49159">
        <ele>1271</ele>
        <time>2020-09-13T07:18:12Z</time>
      </trkpt>
      <trkpt lat="45.62486" lon="6.49156">
        <ele>1272.92</ele>
        <time>2020-09-13T07:18:24Z</time>
      </trkpt>
      <trkpt lat="45.62477" lon="6.49155">
        <ele>1274.85</ele>
        <time>2020-09-13T07:18:35Z</time>
      </trkpt>
      <trkpt lat="45.62471" lon="6.49152">
        <ele>1275.81</ele>
        <time>2020-09-13T07:18:42Z</time>
      </trkpt>
      <trkpt lat="45.62453" lon="6.49143">
        <ele>1278.69</ele>
        <time>2020-09-13T07:18:56Z</time>
      </trkpt>
      <trkpt lat="45.62449" lon="6.4914">
        <ele>1279.65</ele>
        <time>2020-09-13T07:19:01Z</time>
      </trkpt>
      <trkpt lat="45.62442" lon="6.49132">
        <ele>1281.09</ele>
        <time>2020-09-13T07:19:08Z</time>
      </trkpt>
      <trkpt lat="45.62431" lon="6.49127">
        <ele>1283.5</ele>
        <time>2020-09-13T07:19:21Z</time>
      </trkpt>
      <trkpt lat="45.6243" lon="6.49125">
        <ele>1283.98</ele>
        <time>2020-09-13T07:19:23Z</time>
      </trkpt>
      <trkpt lat="45.62418" lon="6.49105">
        <ele>1286.38</ele>
        <time>2020-09-13T07:19:40Z</time>
      </trkpt>
      <trkpt lat="45.62417" lon="6.49102">
        <ele>1286.38</ele>
        <time>2020-09-13T07:19:43Z</time>
      </trkpt>
      <trkpt lat="45.62412" lon="6.49096">
        <ele>1287.82</ele>
        <time>2020-09-13T07:19:50Z</time>
      </trkpt>
      <trkpt lat="45.6241" lon="6.49085">
        <ele>1289.27</ele>
        <time>2020-09-13T07:19:58Z</time>
      </trkpt>
      <trkpt lat="45.62407" lon="6.49081">
        <ele>1289.75</ele>
        <time>2020-09-13T07:20:02Z</time>
      </trkpt>
      <trkpt lat="45.62398" lon="6.49068">
        <ele>1291.67</ele>
        <time>2020-09-13T07:20:15Z</time>
      </trkpt>
      <trkpt lat="45.62394" lon="6.4907">
        <ele>1292.63</ele>
        <time>2020-09-13T07:20:21Z</time>
      </trkpt>
      <trkpt lat="45.62376" lon="6.49064">
        <ele>1295.99</ele>
        <time>2020-09-13T07:20:38Z</time>
      </trkpt>
      <trkpt lat="45.62372" lon="6.49061">
        <ele>1296.48</ele>
        <time>2020-09-13T07:20:42Z</time>
      </trkpt>
      <trkpt lat="45.62369" lon="6.49059">
        <ele>1296.96</ele>
        <time>2020-09-13T07:20:44Z</time>
      </trkpt>
      <trkpt lat="45.62353" lon="6.49044">
        <ele>1299.36</ele>
        <time>2020-09-13T07:21:00Z</time>
      </trkpt>
      <trkpt lat="45.62343" lon="6.49032">
        <ele>1300.32</ele>
        <time>2020-09-13T07:21:12Z</time>
      </trkpt>
      <trkpt lat="45.62339" lon="6.49025">
        <ele>1302.24</ele>
        <time>2020-09-13T07:21:19Z</time>
      </trkpt>
      <trkpt lat="45.62331" lon="6.49015">
        <ele>1305.13</ele>
        <time>2020-09-13T07:21:32Z</time>
      </trkpt>
      <trkpt lat="45.62324" lon="6.49005">
        <ele>1307.05</ele>
        <time>2020-09-13T07:21:43Z</time>
      </trkpt>
      <trkpt lat="45.6232" lon="6.49">
        <ele>1308.01</ele>
        <time>2020-09-13T07:21:50Z</time>
      </trkpt>
      <trkpt lat="45.62311" lon="6.48981">
        <ele>1310.9</ele>
        <time>2020-09-13T07:22:07Z</time>
      </trkpt>
      <trkpt lat="45.62303" lon="6.48968">
        <ele>1313.78</ele>
        <time>2020-09-13T07:22:20Z</time>
      </trkpt>
      <trkpt lat="45.62288" lon="6.48945">
        <ele>1316.66</ele>
        <time>2020-09-13T07:22:36Z</time>
      </trkpt>
      <trkpt lat="45.62276" lon="6.48928">
        <ele>1319.07</ele>
        <time>2020-09-13T07:22:51Z</time>
      </trkpt>
      <trkpt lat="45.62271" lon="6.48926">
        <ele>1320.03</ele>
        <time>2020-09-13T07:22:56Z</time>
      </trkpt>
      <trkpt lat="45.6226" lon="6.48915">
        <ele>1323.39</ele>
        <time>2020-09-13T07:23:10Z</time>
      </trkpt>
      <trkpt lat="45.62252" lon="6.48898">
        <ele>1325.8</ele>
        <time>2020-09-13T07:23:27Z</time>
      </trkpt>
      <trkpt lat="45.62241" lon="6.48895">
        <ele>1328.2</ele>
        <time>2020-09-13T07:23:36Z</time>
      </trkpt>
      <trkpt lat="45.62234" lon="6.48885">
        <ele>1330.6</ele>
        <time>2020-09-13T07:23:51Z</time>
      </trkpt>
      <trkpt lat="45.62228" lon="6.4888">
        <ele>1331.56</ele>
        <time>2020-09-13T07:23:56Z</time>
      </trkpt>
      <trkpt lat="45.62219" lon="6.48865">
        <ele>1334.93</ele>
        <time>2020-09-13T07:24:12Z</time>
      </trkpt>
      <trkpt lat="45.62204" lon="6.48844">
        <ele>1337.81</ele>
        <time>2020-09-13T07:24:29Z</time>
      </trkpt>
      <trkpt lat="45.62193" lon="6.48835">
        <ele>1339.73</ele>
        <time>2020-09-13T07:24:42Z</time>
      </trkpt>
      <trkpt lat="45.62176" lon="6.48826">
        <ele>1342.62</ele>
        <time>2020-09-13T07:25:00Z</time>
      </trkpt>
      <trkpt lat="45.62173" lon="6.48824">
        <ele>1343.1</ele>
        <time>2020-09-13T07:25:03Z</time>
      </trkpt>
      <trkpt lat="45.62162" lon="6.4881">
        <ele>1346.46</ele>
        <time>2020-09-13T07:25:21Z</time>
      </trkpt>
      <trkpt lat="45.62153" lon="6.48804">
        <ele>1347.91</ele>
        <time>2020-09-13T07:25:28Z</time>
      </trkpt>
      <trkpt lat="45.62152" lon="6.48803">
        <ele>1347.91</ele>
        <time>2020-09-13T07:25:30Z</time>
      </trkpt>
      <trkpt lat="45.62142" lon="6.48791">
        <ele>1350.79</ele>
        <time>2020-09-13T07:25:47Z</time>
      </trkpt>
      <trkpt lat="45.62127" lon="6.48777">
        <ele>1353.67</ele>
        <time>2020-09-13T07:26:03Z</time>
      </trkpt>
      <trkpt lat="45.62121" lon="6.48767">
        <ele>1354.63</ele>
        <time>2020-09-13T07:26:09Z</time>
      </trkpt>
      <trkpt lat="45.62108" lon="6.48757">
        <ele>1357.52</ele>
        <time>2020-09-13T07:26:23Z</time>
      </trkpt>
      <trkpt lat="45.62096" lon="6.48751">
        <ele>1359.92</ele>
        <time>2020-09-13T07:26:37Z</time>
      </trkpt>
      <trkpt lat="45.62088" lon="6.48745">
        <ele>1360.88</ele>
        <time>2020-09-13T07:26:44Z</time>
      </trkpt>
      <trkpt lat="45.62069" lon="6.48734">
        <ele>1363.77</ele>
        <time>2020-09-13T07:26:59Z</time>
      </trkpt>
      <trkpt lat="45.62064" lon="6.48732">
        <ele>1364.25</ele>
        <time>2020-09-13T07:27:03Z</time>
      </trkpt>
      <trkpt lat="45.62058" lon="6.48734">
        <ele>1366.17</ele>
        <time>2020-09-13T07:27:11Z</time>
      </trkpt>
      <trkpt lat="45.62052" lon="6.48747">
        <ele>1369.05</ele>
        <time>2020-09-13T07:27:24Z</time>
      </trkpt>
      <trkpt lat="45.6204" lon="6.48755">
        <ele>1371.46</ele>
        <time>2020-09-13T07:27:37Z</time>
      </trkpt>
      <trkpt lat="45.62033" lon="6.48757">
        <ele>1372.9</ele>
        <time>2020-09-13T07:27:43Z</time>
      </trkpt>
      <trkpt lat="45.62021" lon="6.4876">
        <ele>1375.3</ele>
        <time>2020-09-13T07:27:58Z</time>
      </trkpt>
      <trkpt lat="45.62015" lon="6.4877">
        <ele>1376.75</ele>
        <time>2020-09-13T07:28:04Z</time>
      </trkpt>
      <trkpt lat="45.62012" lon="6.4878">
        <ele>1377.23</ele>
        <time>2020-09-13T07:28:09Z</time>
      </trkpt>
      <trkpt lat="45.62009" lon="6.48793">
        <ele>1378.67</ele>
        <time>2020-09-13T07:28:17Z</time>
      </trkpt>
      <trkpt lat="45.62004" lon="6.48798">
        <ele>1380.11</ele>
        <time>2020-09-13T07:28:24Z</time>
      </trkpt>
      <trkpt lat="45.62001" lon="6.48805">
        <ele>1381.07</ele>
        <time>2020-09-13T07:28:31Z</time>
      </trkpt>
      <trkpt lat="45.61997" lon="6.4881">
        <ele>1382.03</ele>
        <time>2020-09-13T07:28:36Z</time>
      </trkpt>
      <trkpt lat="45.61985" lon="6.48817">
        <ele>1384.44</ele>
        <time>2020-09-13T07:28:51Z</time>
      </trkpt>
      <trkpt lat="45.61984" lon="6.48817">
        <ele>1384.92</ele>
        <time>2020-09-13T07:28:53Z</time>
      </trkpt>
      <trkpt lat="45.61975" lon="6.48819">
        <ele>1385.88</ele>
        <time>2020-09-13T07:29:00Z</time>
      </trkpt>
      <trkpt lat="45.61961" lon="6.48821">
        <ele>1386.84</ele>
        <time>2020-09-13T07:29:06Z</time>
      </trkpt>
      <trkpt lat="45.6194" lon="6.48819">
        <ele>1390.2</ele>
        <time>2020-09-13T07:29:22Z</time>
      </trkpt>
      <trkpt lat="45.61929" lon="6.48824">
        <ele>1392.13</ele>
        <time>2020-09-13T07:29:33Z</time>
      </trkpt>
      <trkpt lat="45.61918" lon="6.48825">
        <ele>1394.05</ele>
        <time>2020-09-13T07:29:45Z</time>
      </trkpt>
      <trkpt lat="45.61908" lon="6.48825">
        <ele>1395.49</ele>
        <time>2020-09-13T07:29:54Z</time>
      </trkpt>
      <trkpt lat="45.61896" lon="6.48828">
        <ele>1397.89</ele>
        <time>2020-09-13T07:30:09Z</time>
      </trkpt>
      <trkpt lat="45.61894" lon="6.48828">
        <ele>1398.37</ele>
        <time>2020-09-13T07:30:12Z</time>
      </trkpt>
      <trkpt lat="45.61882" lon="6.48836">
        <ele>1401.26</ele>
        <time>2020-09-13T07:30:27Z</time>
      </trkpt>
      <trkpt lat="45.61866" lon="6.48841">
        <ele>1403.66</ele>
        <time>2020-09-13T07:30:41Z</time>
      </trkpt>
      <trkpt lat="45.61859" lon="6.48843">
        <ele>1404.62</ele>
        <time>2020-09-13T07:30:48Z</time>
      </trkpt>
      <trkpt lat="45.61852" lon="6.48842">
        <ele>1406.07</ele>
        <time>2020-09-13T07:30:55Z</time>
      </trkpt>
      <trkpt lat="45.61846" lon="6.48843">
        <ele>1407.03</ele>
        <time>2020-09-13T07:31:01Z</time>
      </trkpt>
      <trkpt lat="45.61835" lon="6.48847">
        <ele>1408.95</ele>
        <time>2020-09-13T07:31:13Z</time>
      </trkpt>
      <trkpt lat="45.61829" lon="6.48844">
        <ele>1409.43</ele>
        <time>2020-09-13T07:31:18Z</time>
      </trkpt>
      <trkpt lat="45.61818" lon="6.48852">
        <ele>1411.83</ele>
        <time>2020-09-13T07:31:33Z</time>
      </trkpt>
      <trkpt lat="45.61804" lon="6.48864">
        <ele>1414.72</ele>
        <time>2020-09-13T07:31:47Z</time>
      </trkpt>
      <trkpt lat="45.61787" lon="6.48865">
        <ele>1416.64</ele>
        <time>2020-09-13T07:32:01Z</time>
      </trkpt>
      <trkpt lat="45.61785" lon="6.48864">
        <ele>1416.64</ele>
        <time>2020-09-13T07:32:03Z</time>
      </trkpt>
      <trkpt lat="45.6178" lon="6.48865">
        <ele>1417.6</ele>
        <time>2020-09-13T07:32:09Z</time>
      </trkpt>
      <trkpt lat="45.61778" lon="6.48871">
        <ele>1418.56</ele>
        <time>2020-09-13T07:32:14Z</time>
      </trkpt>
      <trkpt lat="45.61777" lon="6.48874">
        <ele>1419.52</ele>
        <time>2020-09-13T07:32:16Z</time>
      </trkpt>
      <trkpt lat="45.61775" lon="6.48878">
        <ele>1420</ele>
        <time>2020-09-13T07:32:21Z</time>
      </trkpt>
      <trkpt lat="45.61762" lon="6.48884">
        <ele>1421.93</ele>
        <time>2020-09-13T07:32:34Z</time>
      </trkpt>
      <trkpt lat="45.61757" lon="6.48891">
        <ele>1422.89</ele>
        <time>2020-09-13T07:32:41Z</time>
      </trkpt>
      <trkpt lat="45.61745" lon="6.48903">
        <ele>1425.29</ele>
        <time>2020-09-13T07:32:56Z</time>
      </trkpt>
      <trkpt lat="45.61731" lon="6.4891">
        <ele>1425.29</ele>
        <time>2020-09-13T07:33:07Z</time>
      </trkpt>
      <trkpt lat="45.61714" lon="6.48916">
        <ele>1426.25</ele>
        <time>2020-09-13T07:33:20Z</time>
      </trkpt>
      <trkpt lat="45.61707" lon="6.48921">
        <ele>1426.25</ele>
        <time>2020-09-13T07:33:27Z</time>
      </trkpt>
      <trkpt lat="45.61698" lon="6.48934">
        <ele>1427.7</ele>
        <time>2020-09-13T07:33:39Z</time>
      </trkpt>
      <trkpt lat="45.61695" lon="6.4894">
        <ele>1428.66</ele>
        <time>2020-09-13T07:33:46Z</time>
      </trkpt>
      <trkpt lat="45.61689" lon="6.48942">
        <ele>1429.62</ele>
        <time>2020-09-13T07:33:50Z</time>
      </trkpt>
      <trkpt lat="45.61668" lon="6.48951">
        <ele>1428.66</ele>
        <time>2020-09-13T07:34:04Z</time>
      </trkpt>
      <trkpt lat="45.6166" lon="6.48952">
        <ele>1427.7</ele>
        <time>2020-09-13T07:34:12Z</time>
      </trkpt>
      <trkpt lat="45.61653" lon="6.48946">
        <ele>1427.7</ele>
        <time>2020-09-13T07:34:17Z</time>
      </trkpt>
      <trkpt lat="45.61632" lon="6.48932">
        <ele>1427.21</ele>
        <time>2020-09-13T07:34:33Z</time>
      </trkpt>
      <trkpt lat="45.61629" lon="6.48926">
        <ele>1425.77</ele>
        <time>2020-09-13T07:34:41Z</time>
      </trkpt>
      <trkpt lat="45.61629" lon="6.4892">
        <ele>1425.77</ele>
        <time>2020-09-13T07:34:45Z</time>
      </trkpt>
      <trkpt lat="45.61633" lon="6.48916">
        <ele>1426.25</ele>
        <time>2020-09-13T07:34:49Z</time>
      </trkpt>
      <trkpt lat="45.61642" lon="6.48905">
        <ele>1426.25</ele>
        <time>2020-09-13T07:34:56Z</time>
      </trkpt>
      <trkpt lat="45.61645" lon="6.489">
        <ele>1425.29</ele>
        <time>2020-09-13T07:35:00Z</time>
      </trkpt>
      <trkpt lat="45.61655" lon="6.48883">
        <ele>1423.85</ele>
        <time>2020-09-13T07:35:11Z</time>
      </trkpt>
      <trkpt lat="45.61662" lon="6.48866">
        <ele>1421.45</ele>
        <time>2020-09-13T07:35:23Z</time>
      </trkpt>
      <trkpt lat="45.61666" lon="6.48856">
        <ele>1420.49</ele>
        <time>2020-09-13T07:35:27Z</time>
      </trkpt>
      <trkpt lat="45.6167" lon="6.48843">
        <ele>1420</ele>
        <time>2020-09-13T07:35:32Z</time>
      </trkpt>
      <trkpt lat="45.61667" lon="6.48837">
        <ele>1420.49</ele>
        <time>2020-09-13T07:35:38Z</time>
      </trkpt>
      <trkpt lat="45.61666" lon="6.48834">
        <ele>1420.49</ele>
        <time>2020-09-13T07:35:40Z</time>
      </trkpt>
      <trkpt lat="45.61657" lon="6.48821">
        <ele>1421.45</ele>
        <time>2020-09-13T07:35:50Z</time>
      </trkpt>
      <trkpt lat="45.61643" lon="6.48806">
        <ele>1421.93</ele>
        <time>2020-09-13T07:36:03Z</time>
      </trkpt>
      <trkpt lat="45.61633" lon="6.48792">
        <ele>1422.89</ele>
        <time>2020-09-13T07:36:18Z</time>
      </trkpt>
      <trkpt lat="45.61631" lon="6.4879">
        <ele>1423.37</ele>
        <time>2020-09-13T07:36:21Z</time>
      </trkpt>
      <trkpt lat="45.61627" lon="6.48779">
        <ele>1424.81</ele>
        <time>2020-09-13T07:36:33Z</time>
      </trkpt>
      <trkpt lat="45.61622" lon="6.48763">
        <ele>1426.73</ele>
        <time>2020-09-13T07:36:45Z</time>
      </trkpt>
      <trkpt lat="45.61622" lon="6.48761">
        <ele>1427.7</ele>
        <time>2020-09-13T07:36:47Z</time>
      </trkpt>
      <trkpt lat="45.61619" lon="6.48748">
        <ele>1428.66</ele>
        <time>2020-09-13T07:36:55Z</time>
      </trkpt>
      <trkpt lat="45.61616" lon="6.48727">
        <ele>1432.5</ele>
        <time>2020-09-13T07:37:11Z</time>
      </trkpt>
      <trkpt lat="45.61613" lon="6.48711">
        <ele>1434.91</ele>
        <time>2020-09-13T07:37:25Z</time>
      </trkpt>
      <trkpt lat="45.616" lon="6.48684">
        <ele>1436.35</ele>
        <time>2020-09-13T07:37:41Z</time>
      </trkpt>
      <trkpt lat="45.61591" lon="6.48679">
        <ele>1436.83</ele>
        <time>2020-09-13T07:37:52Z</time>
      </trkpt>
      <trkpt lat="45.61589" lon="6.48677">
        <ele>1437.79</ele>
        <time>2020-09-13T07:37:56Z</time>
      </trkpt>
      <trkpt lat="45.61578" lon="6.4867">
        <ele>1438.75</ele>
        <time>2020-09-13T07:38:10Z</time>
      </trkpt>
      <trkpt lat="45.61578" lon="6.48667">
        <ele>1439.23</ele>
        <time>2020-09-13T07:38:13Z</time>
      </trkpt>
      <trkpt lat="45.61572" lon="6.48656">
        <ele>1439.71</ele>
        <time>2020-09-13T07:38:19Z</time>
      </trkpt>
      <trkpt lat="45.6157" lon="6.48652">
        <ele>1440.19</ele>
        <time>2020-09-13T07:38:23Z</time>
      </trkpt>
      <trkpt lat="45.61566" lon="6.48638">
        <ele>1440.67</ele>
        <time>2020-09-13T07:38:37Z</time>
      </trkpt>
      <trkpt lat="45.61558" lon="6.48632">
        <ele>1441.15</ele>
        <time>2020-09-13T07:38:49Z</time>
      </trkpt>
      <trkpt lat="45.61558" lon="6.48635">
        <ele>1441.15</ele>
        <time>2020-09-13T07:39:09Z</time>
      </trkpt>
      <trkpt lat="45.61559" lon="6.48628">
        <ele>1441.63</ele>
        <time>2020-09-13T07:39:30Z</time>
      </trkpt>
      <trkpt lat="45.61553" lon="6.486">
        <ele>1442.6</ele>
        <time>2020-09-13T07:39:44Z</time>
      </trkpt>
      <trkpt lat="45.61553" lon="6.48573">
        <ele>1444.04</ele>
        <time>2020-09-13T07:39:58Z</time>
      </trkpt>
      <trkpt lat="45.61553" lon="6.48569">
        <ele>1444.04</ele>
        <time>2020-09-13T07:40:01Z</time>
      </trkpt>
      <trkpt lat="45.61549" lon="6.48544">
        <ele>1445.48</ele>
        <time>2020-09-13T07:40:15Z</time>
      </trkpt>
      <trkpt lat="45.61545" lon="6.48523">
        <ele>1447.4</ele>
        <time>2020-09-13T07:40:27Z</time>
      </trkpt>
      <trkpt lat="45.61541" lon="6.48511">
        <ele>1448.84</ele>
        <time>2020-09-13T07:40:39Z</time>
      </trkpt>
      <trkpt lat="45.61539" lon="6.48507">
        <ele>1447.88</ele>
        <time>2020-09-13T07:40:45Z</time>
      </trkpt>
      <trkpt lat="45.6153" lon="6.4849">
        <ele>1446.92</ele>
        <time>2020-09-13T07:40:58Z</time>
      </trkpt>
      <trkpt lat="45.61532" lon="6.48486">
        <ele>1446.92</ele>
        <time>2020-09-13T07:41:13Z</time>
      </trkpt>
      <trkpt lat="45.61529" lon="6.48484">
        <ele>1445.96</ele>
        <time>2020-09-13T07:41:25Z</time>
      </trkpt>
      <trkpt lat="45.61527" lon="6.48475">
        <ele>1445.96</ele>
        <time>2020-09-13T07:41:41Z</time>
      </trkpt>
      <trkpt lat="45.61526" lon="6.48468">
        <ele>1446.44</ele>
        <time>2020-09-13T07:41:48Z</time>
      </trkpt>
      <trkpt lat="45.61525" lon="6.48452">
        <ele>1444.52</ele>
        <time>2020-09-13T07:42:02Z</time>
      </trkpt>
      <trkpt lat="45.61524" lon="6.4845">
        <ele>1444.04</ele>
        <time>2020-09-13T07:42:03Z</time>
      </trkpt>
      <trkpt lat="45.61519" lon="6.48446">
        <ele>1444.04</ele>
        <time>2020-09-13T07:42:07Z</time>
      </trkpt>
      <trkpt lat="45.61506" lon="6.48429">
        <ele>1442.11</ele>
        <time>2020-09-13T07:42:19Z</time>
      </trkpt>
      <trkpt lat="45.61502" lon="6.48409">
        <ele>1440.67</ele>
        <time>2020-09-13T07:42:30Z</time>
      </trkpt>
      <trkpt lat="45.61495" lon="6.48392">
        <ele>1438.75</ele>
        <time>2020-09-13T07:42:43Z</time>
      </trkpt>
      <trkpt lat="45.61492" lon="6.48376">
        <ele>1437.31</ele>
        <time>2020-09-13T07:42:52Z</time>
      </trkpt>
      <trkpt lat="45.61493" lon="6.48371">
        <ele>1436.83</ele>
        <time>2020-09-13T07:42:55Z</time>
      </trkpt>
      <trkpt lat="45.61495" lon="6.48365">
        <ele>1436.83</ele>
        <time>2020-09-13T07:42:58Z</time>
      </trkpt>
      <trkpt lat="45.61495" lon="6.48361">
        <ele>1436.83</ele>
        <time>2020-09-13T07:43:00Z</time>
      </trkpt>
      <trkpt lat="45.61493" lon="6.48357">
        <ele>1436.35</ele>
        <time>2020-09-13T07:43:02Z</time>
      </trkpt>
      <trkpt lat="45.61494" lon="6.48346">
        <ele>1435.87</ele>
        <time>2020-09-13T07:43:07Z</time>
      </trkpt>
      <trkpt lat="45.61493" lon="6.48333">
        <ele>1434.42</ele>
        <time>2020-09-13T07:43:14Z</time>
      </trkpt>
      <trkpt lat="45.61491" lon="6.48308">
        <ele>1432.5</ele>
        <time>2020-09-13T07:43:28Z</time>
      </trkpt>
      <trkpt lat="45.61492" lon="6.48303">
        <ele>1432.02</ele>
        <time>2020-09-13T07:43:31Z</time>
      </trkpt>
      <trkpt lat="45.61489" lon="6.48289">
        <ele>1429.62</ele>
        <time>2020-09-13T07:43:39Z</time>
      </trkpt>
      <trkpt lat="45.61479" lon="6.48262">
        <ele>1427.7</ele>
        <time>2020-09-13T07:43:52Z</time>
      </trkpt>
      <trkpt lat="45.61468" lon="6.48244">
        <ele>1425.77</ele>
        <time>2020-09-13T07:44:05Z</time>
      </trkpt>
      <trkpt lat="45.61458" lon="6.48227">
        <ele>1424.81</ele>
        <time>2020-09-13T07:44:13Z</time>
      </trkpt>
      <trkpt lat="45.61447" lon="6.48222">
        <ele>1423.85</ele>
        <time>2020-09-13T07:44:22Z</time>
      </trkpt>
      <trkpt lat="45.61437" lon="6.48217">
        <ele>1422.41</ele>
        <time>2020-09-13T07:44:33Z</time>
      </trkpt>
      <trkpt lat="45.61431" lon="6.48212">
        <ele>1420.97</ele>
        <time>2020-09-13T07:44:39Z</time>
      </trkpt>
      <trkpt lat="45.61428" lon="6.482">
        <ele>1420.49</ele>
        <time>2020-09-13T07:44:45Z</time>
      </trkpt>
      <trkpt lat="45.61432" lon="6.48181">
        <ele>1420</ele>
        <time>2020-09-13T07:44:56Z</time>
      </trkpt>
      <trkpt lat="45.61435" lon="6.48165">
        <ele>1420</ele>
        <time>2020-09-13T07:45:06Z</time>
      </trkpt>
      <trkpt lat="45.61436" lon="6.48157">
        <ele>1420</ele>
        <time>2020-09-13T07:45:08Z</time>
      </trkpt>
      <trkpt lat="45.61443" lon="6.48141">
        <ele>1419.52</ele>
        <time>2020-09-13T07:45:13Z</time>
      </trkpt>
      <trkpt lat="45.61446" lon="6.48129">
        <ele>1419.04</ele>
        <time>2020-09-13T07:45:23Z</time>
      </trkpt>
      <trkpt lat="45.61445" lon="6.48123">
        <ele>1418.56</ele>
        <time>2020-09-13T07:45:28Z</time>
      </trkpt>
      <trkpt lat="45.61461" lon="6.481">
        <ele>1418.56</ele>
        <time>2020-09-13T07:45:37Z</time>
      </trkpt>
      <trkpt lat="45.61463" lon="6.48095">
        <ele>1418.56</ele>
        <time>2020-09-13T07:45:40Z</time>
      </trkpt>
      <trkpt lat="45.6146" lon="6.4809">
        <ele>1417.6</ele>
        <time>2020-09-13T07:45:51Z</time>
      </trkpt>
      <trkpt lat="45.61459" lon="6.48087">
        <ele>1417.6</ele>
        <time>2020-09-13T07:45:55Z</time>
      </trkpt>
      <trkpt lat="45.61458" lon="6.4807">
        <ele>1417.12</ele>
        <time>2020-09-13T07:46:01Z</time>
      </trkpt>
      <trkpt lat="45.61448" lon="6.48046">
        <ele>1416.16</ele>
        <time>2020-09-13T07:46:10Z</time>
      </trkpt>
      <trkpt lat="45.61443" lon="6.48041">
        <ele>1415.2</ele>
        <time>2020-09-13T07:46:15Z</time>
      </trkpt>
      <trkpt lat="45.61442" lon="6.4804">
        <ele>1415.2</ele>
        <time>2020-09-13T07:46:17Z</time>
      </trkpt>
      <trkpt lat="45.61435" lon="6.4803">
        <ele>1413.76</ele>
        <time>2020-09-13T07:46:29Z</time>
      </trkpt>
      <trkpt lat="45.6142" lon="6.48004">
        <ele>1412.31</ele>
        <time>2020-09-13T07:46:41Z</time>
      </trkpt>
      <trkpt lat="45.61405" lon="6.47993">
        <ele>1411.35</ele>
        <time>2020-09-13T07:46:51Z</time>
      </trkpt>
      <trkpt lat="45.61404" lon="6.47992">
        <ele>1410.87</ele>
        <time>2020-09-13T07:46:52Z</time>
      </trkpt>
      <trkpt lat="45.614" lon="6.47988">
        <ele>1410.39</ele>
        <time>2020-09-13T07:46:56Z</time>
      </trkpt>
      <trkpt lat="45.61398" lon="6.47988">
        <ele>1409.91</ele>
        <time>2020-09-13T07:46:58Z</time>
      </trkpt>
      <trkpt lat="45.61392" lon="6.47977">
        <ele>1408.95</ele>
        <time>2020-09-13T07:47:07Z</time>
      </trkpt>
      <trkpt lat="45.6139" lon="6.47972">
        <ele>1407.99</ele>
        <time>2020-09-13T07:47:12Z</time>
      </trkpt>
      <trkpt lat="45.61381" lon="6.47962">
        <ele>1407.03</ele>
        <time>2020-09-13T07:47:21Z</time>
      </trkpt>
      <trkpt lat="45.6137" lon="6.4795">
        <ele>1404.62</ele>
        <time>2020-09-13T07:47:33Z</time>
      </trkpt>
      <trkpt lat="45.61361" lon="6.47936">
        <ele>1403.18</ele>
        <time>2020-09-13T07:47:45Z</time>
      </trkpt>
      <trkpt lat="45.61359" lon="6.47929">
        <ele>1402.22</ele>
        <time>2020-09-13T07:47:50Z</time>
      </trkpt>
      <trkpt lat="45.61351" lon="6.47914">
        <ele>1400.3</ele>
        <time>2020-09-13T07:48:02Z</time>
      </trkpt>
      <trkpt lat="45.61349" lon="6.47909">
        <ele>1399.34</ele>
        <time>2020-09-13T07:48:07Z</time>
      </trkpt>
      <trkpt lat="45.61335" lon="6.47883">
        <ele>1398.37</ele>
        <time>2020-09-13T07:48:17Z</time>
      </trkpt>
      <trkpt lat="45.61324" lon="6.47873">
        <ele>1396.93</ele>
        <time>2020-09-13T07:48:27Z</time>
      </trkpt>
      <trkpt lat="45.61324" lon="6.47874">
        <ele>1396.45</ele>
        <time>2020-09-13T07:48:29Z</time>
      </trkpt>
      <trkpt lat="45.61321" lon="6.47874">
        <ele>1395.97</ele>
        <time>2020-09-13T07:48:33Z</time>
      </trkpt>
      <trkpt lat="45.61315" lon="6.47857">
        <ele>1394.53</ele>
        <time>2020-09-13T07:48:41Z</time>
      </trkpt>
      <trkpt lat="45.61315" lon="6.47853">
        <ele>1394.53</ele>
        <time>2020-09-13T07:48:43Z</time>
      </trkpt>
      <trkpt lat="45.6131" lon="6.47839">
        <ele>1392.61</ele>
        <time>2020-09-13T07:48:55Z</time>
      </trkpt>
      <trkpt lat="45.61305" lon="6.4781">
        <ele>1392.13</ele>
        <time>2020-09-13T07:49:06Z</time>
      </trkpt>
      <trkpt lat="45.613" lon="6.478">
        <ele>1392.61</ele>
        <time>2020-09-13T07:49:16Z</time>
      </trkpt>
      <trkpt lat="45.61299" lon="6.47796">
        <ele>1392.61</ele>
        <time>2020-09-13T07:49:18Z</time>
      </trkpt>
      <trkpt lat="45.61301" lon="6.47789">
        <ele>1392.61</ele>
        <time>2020-09-13T07:49:21Z</time>
      </trkpt>
      <trkpt lat="45.61302" lon="6.47778">
        <ele>1392.13</ele>
        <time>2020-09-13T07:49:25Z</time>
      </trkpt>
      <trkpt lat="45.61302" lon="6.47773">
        <ele>1391.65</ele>
        <time>2020-09-13T07:49:27Z</time>
      </trkpt>
      <trkpt lat="45.61296" lon="6.47766">
        <ele>1391.65</ele>
        <time>2020-09-13T07:49:36Z</time>
      </trkpt>
      <trkpt lat="45.61289" lon="6.47772">
        <ele>1392.61</ele>
        <time>2020-09-13T07:49:46Z</time>
      </trkpt>
      <trkpt lat="45.61281" lon="6.47787">
        <ele>1395.49</ele>
        <time>2020-09-13T07:50:01Z</time>
      </trkpt>
      <trkpt lat="45.61279" lon="6.47804">
        <ele>1399.34</ele>
        <time>2020-09-13T07:50:14Z</time>
      </trkpt>
      <trkpt lat="45.6128" lon="6.47807">
        <ele>1399.82</ele>
        <time>2020-09-13T07:50:19Z</time>
      </trkpt>
      <trkpt lat="45.61282" lon="6.47813">
        <ele>1403.66</ele>
        <time>2020-09-13T07:50:33Z</time>
      </trkpt>
      <trkpt lat="45.61283" lon="6.47827">
        <ele>1405.1</ele>
        <time>2020-09-13T07:50:40Z</time>
      </trkpt>
      <trkpt lat="45.61286" lon="6.4785">
        <ele>1407.51</ele>
        <time>2020-09-13T07:50:54Z</time>
      </trkpt>
      <trkpt lat="45.61292" lon="6.47868">
        <ele>1410.87</ele>
        <time>2020-09-13T07:51:08Z</time>
      </trkpt>
      <trkpt lat="45.613" lon="6.47883">
        <ele>1413.28</ele>
        <time>2020-09-13T07:51:22Z</time>
      </trkpt>
      <trkpt lat="45.61303" lon="6.479">
        <ele>1416.64</ele>
        <time>2020-09-13T07:51:38Z</time>
      </trkpt>
      <trkpt lat="45.61312" lon="6.47909">
        <ele>1420</ele>
        <time>2020-09-13T07:51:52Z</time>
      </trkpt>
      <trkpt lat="45.61316" lon="6.47925">
        <ele>1422.89</ele>
        <time>2020-09-13T07:52:08Z</time>
      </trkpt>
      <trkpt lat="45.61323" lon="6.47945">
        <ele>1425.29</ele>
        <time>2020-09-13T07:52:22Z</time>
      </trkpt>
      <trkpt lat="45.61327" lon="6.47954">
        <ele>1426.25</ele>
        <time>2020-09-13T07:52:28Z</time>
      </trkpt>
      <trkpt lat="45.61333" lon="6.4797">
        <ele>1429.62</ele>
        <time>2020-09-13T07:52:42Z</time>
      </trkpt>
      <trkpt lat="45.61335" lon="6.47977">
        <ele>1431.54</ele>
        <time>2020-09-13T07:52:56Z</time>
      </trkpt>
      <trkpt lat="45.61338" lon="6.47982">
        <ele>1435.39</ele>
        <time>2020-09-13T07:53:09Z</time>
      </trkpt>
      <trkpt lat="45.61347" lon="6.47996">
        <ele>1437.79</ele>
        <time>2020-09-13T07:53:23Z</time>
      </trkpt>
      <trkpt lat="45.61358" lon="6.48013">
        <ele>1441.63</ele>
        <time>2020-09-13T07:53:38Z</time>
      </trkpt>
      <trkpt lat="45.61371" lon="6.4803">
        <ele>1443.56</ele>
        <time>2020-09-13T07:53:51Z</time>
      </trkpt>
      <trkpt lat="45.61378" lon="6.48043">
        <ele>1446.92</ele>
        <time>2020-09-13T07:54:06Z</time>
      </trkpt>
      <trkpt lat="45.61382" lon="6.48051">
        <ele>1449.81</ele>
        <time>2020-09-13T07:54:22Z</time>
      </trkpt>
      <trkpt lat="45.61388" lon="6.48068">
        <ele>1453.17</ele>
        <time>2020-09-13T07:54:35Z</time>
      </trkpt>
      <trkpt lat="45.614" lon="6.48087">
        <ele>1456.05</ele>
        <time>2020-09-13T07:54:50Z</time>
      </trkpt>
      <trkpt lat="45.61399" lon="6.4809">
        <ele>1457.02</ele>
        <time>2020-09-13T07:54:54Z</time>
      </trkpt>
      <trkpt lat="45.6139" lon="6.48111">
        <ele>1460.38</ele>
        <time>2020-09-13T07:55:09Z</time>
      </trkpt>
      <trkpt lat="45.61381" lon="6.48128">
        <ele>1463.26</ele>
        <time>2020-09-13T07:55:23Z</time>
      </trkpt>
      <trkpt lat="45.61381" lon="6.48136">
        <ele>1464.23</ele>
        <time>2020-09-13T07:55:32Z</time>
      </trkpt>
      <trkpt lat="45.61378" lon="6.48148">
        <ele>1466.63</ele>
        <time>2020-09-13T07:55:43Z</time>
      </trkpt>
      <trkpt lat="45.61372" lon="6.4816">
        <ele>1467.59</ele>
        <time>2020-09-13T07:55:50Z</time>
      </trkpt>
      <trkpt lat="45.61367" lon="6.48169">
        <ele>1469.03</ele>
        <time>2020-09-13T07:55:56Z</time>
      </trkpt>
      <trkpt lat="45.61365" lon="6.48174">
        <ele>1469.99</ele>
        <time>2020-09-13T07:56:01Z</time>
      </trkpt>
      <trkpt lat="45.61364" lon="6.48183">
        <ele>1471.92</ele>
        <time>2020-09-13T07:56:09Z</time>
      </trkpt>
      <trkpt lat="45.61359" lon="6.4819">
        <ele>1473.84</ele>
        <time>2020-09-13T07:56:20Z</time>
      </trkpt>
      <trkpt lat="45.61359" lon="6.48195">
        <ele>1474.8</ele>
        <time>2020-09-13T07:56:25Z</time>
      </trkpt>
      <trkpt lat="45.61357" lon="6.48203">
        <ele>1476.24</ele>
        <time>2020-09-13T07:56:31Z</time>
      </trkpt>
      <trkpt lat="45.61354" lon="6.48212">
        <ele>1478.16</ele>
        <time>2020-09-13T07:56:41Z</time>
      </trkpt>
      <trkpt lat="45.61353" lon="6.48214">
        <ele>1478.65</ele>
        <time>2020-09-13T07:56:42Z</time>
      </trkpt>
      <trkpt lat="45.61349" lon="6.48227">
        <ele>1481.53</ele>
        <time>2020-09-13T07:56:54Z</time>
      </trkpt>
      <trkpt lat="45.61349" lon="6.48231">
        <ele>1482.97</ele>
        <time>2020-09-13T07:56:58Z</time>
      </trkpt>
      <trkpt lat="45.61348" lon="6.48238">
        <ele>1483.45</ele>
        <time>2020-09-13T07:57:03Z</time>
      </trkpt>
      <trkpt lat="45.6135" lon="6.48245">
        <ele>1484.41</ele>
        <time>2020-09-13T07:57:08Z</time>
      </trkpt>
      <trkpt lat="45.6135" lon="6.48249">
        <ele>1485.85</ele>
        <time>2020-09-13T07:57:13Z</time>
      </trkpt>
      <trkpt lat="45.61348" lon="6.48257">
        <ele>1486.34</ele>
        <time>2020-09-13T07:57:18Z</time>
      </trkpt>
      <trkpt lat="45.61351" lon="6.48266">
        <ele>1488.26</ele>
        <time>2020-09-13T07:57:28Z</time>
      </trkpt>
      <trkpt lat="45.61352" lon="6.48274">
        <ele>1490.66</ele>
        <time>2020-09-13T07:57:40Z</time>
      </trkpt>
      <trkpt lat="45.61357" lon="6.48284">
        <ele>1492.58</ele>
        <time>2020-09-13T07:57:50Z</time>
      </trkpt>
      <trkpt lat="45.61361" lon="6.48289">
        <ele>1495.47</ele>
        <time>2020-09-13T07:58:04Z</time>
      </trkpt>
      <trkpt lat="45.61364" lon="6.483">
        <ele>1498.35</ele>
        <time>2020-09-13T07:58:16Z</time>
      </trkpt>
      <trkpt lat="45.61372" lon="6.48309">
        <ele>1500.76</ele>
        <time>2020-09-13T07:58:30Z</time>
      </trkpt>
      <trkpt lat="45.61381" lon="6.48321">
        <ele>1503.64</ele>
        <time>2020-09-13T07:58:44Z</time>
      </trkpt>
      <trkpt lat="45.61385" lon="6.4833">
        <ele>1506.52</ele>
        <time>2020-09-13T07:58:57Z</time>
      </trkpt>
      <trkpt lat="45.61386" lon="6.48354">
        <ele>1507.48</ele>
        <time>2020-09-13T07:59:09Z</time>
      </trkpt>
      <trkpt lat="45.61389" lon="6.48361">
        <ele>1510.37</ele>
        <time>2020-09-13T07:59:25Z</time>
      </trkpt>
      <trkpt lat="45.61387" lon="6.48367">
        <ele>1511.81</ele>
        <time>2020-09-13T07:59:31Z</time>
      </trkpt>
      <trkpt lat="45.61375" lon="6.48375">
        <ele>1512.77</ele>
        <time>2020-09-13T07:59:36Z</time>
      </trkpt>
      <trkpt lat="45.6136" lon="6.4838">
        <ele>1516.14</ele>
        <time>2020-09-13T07:59:51Z</time>
      </trkpt>
      <trkpt lat="45.61359" lon="6.48379">
        <ele>1519.02</ele>
        <time>2020-09-13T08:00:07Z</time>
      </trkpt>
      <trkpt lat="45.61359" lon="6.48382">
        <ele>1520.46</ele>
        <time>2020-09-13T08:00:12Z</time>
      </trkpt>
      <trkpt lat="45.61361" lon="6.48388">
        <ele>1520.94</ele>
        <time>2020-09-13T08:00:17Z</time>
      </trkpt>
      <trkpt lat="45.61372" lon="6.48398">
        <ele>1523.35</ele>
        <time>2020-09-13T08:00:32Z</time>
      </trkpt>
      <trkpt lat="45.61369" lon="6.48406">
        <ele>1526.71</ele>
        <time>2020-09-13T08:00:44Z</time>
      </trkpt>
      <trkpt lat="45.6137" lon="6.48414">
        <ele>1529.59</ele>
        <time>2020-09-13T08:00:55Z</time>
      </trkpt>
      <trkpt lat="45.61368" lon="6.48418">
        <ele>1529.11</ele>
        <time>2020-09-13T08:00:58Z</time>
      </trkpt>
      <trkpt lat="45.61366" lon="6.48422">
        <ele>1531.04</ele>
        <time>2020-09-13T08:01:02Z</time>
      </trkpt>
      <trkpt lat="45.61364" lon="6.48426">
        <ele>1532</ele>
        <time>2020-09-13T08:01:07Z</time>
      </trkpt>
      <trkpt lat="45.61357" lon="6.48437">
        <ele>1534.4</ele>
        <time>2020-09-13T08:01:19Z</time>
      </trkpt>
      <trkpt lat="45.61355" lon="6.48448">
        <ele>1537.29</ele>
        <time>2020-09-13T08:01:33Z</time>
      </trkpt>
      <trkpt lat="45.61347" lon="6.48459">
        <ele>1540.65</ele>
        <time>2020-09-13T08:01:43Z</time>
      </trkpt>
      <trkpt lat="45.61342" lon="6.48462">
        <ele>1540.65</ele>
        <time>2020-09-13T08:01:50Z</time>
      </trkpt>
      <trkpt lat="45.61327" lon="6.48464">
        <ele>1544.01</ele>
        <time>2020-09-13T08:02:05Z</time>
      </trkpt>
      <trkpt lat="45.61327" lon="6.48464">
        <ele>1544.01</ele>
        <time>2020-09-13T08:02:06Z</time>
      </trkpt>
      <trkpt lat="45.61327" lon="6.48465">
        <ele>1546.42</ele>
        <time>2020-09-13T08:02:19Z</time>
      </trkpt>
      <trkpt lat="45.61322" lon="6.48467">
        <ele>1547.38</ele>
        <time>2020-09-13T08:02:22Z</time>
      </trkpt>
      <trkpt lat="45.6132" lon="6.48467">
        <ele>1547.86</ele>
        <time>2020-09-13T08:02:26Z</time>
      </trkpt>
      <trkpt lat="45.61309" lon="6.48466">
        <ele>1547.86</ele>
        <time>2020-09-13T08:02:40Z</time>
      </trkpt>
      <trkpt lat="45.61308" lon="6.4847">
        <ele>1549.3</ele>
        <time>2020-09-13T08:02:57Z</time>
      </trkpt>
      <trkpt lat="45.61302" lon="6.4847">
        <ele>1551.71</ele>
        <time>2020-09-13T08:03:09Z</time>
      </trkpt>
      <trkpt lat="45.61292" lon="6.4848">
        <ele>1554.59</ele>
        <time>2020-09-13T08:03:24Z</time>
      </trkpt>
      <trkpt lat="45.61287" lon="6.48485">
        <ele>1556.99</ele>
        <time>2020-09-13T08:03:36Z</time>
      </trkpt>
      <trkpt lat="45.61286" lon="6.48488">
        <ele>1557.47</ele>
        <time>2020-09-13T08:03:40Z</time>
      </trkpt>
      <trkpt lat="45.61283" lon="6.48493">
        <ele>1557.95</ele>
        <time>2020-09-13T08:03:45Z</time>
      </trkpt>
      <trkpt lat="45.61273" lon="6.48502">
        <ele>1560.36</ele>
        <time>2020-09-13T08:03:58Z</time>
      </trkpt>
      <trkpt lat="45.61269" lon="6.48505">
        <ele>1562.76</ele>
        <time>2020-09-13T08:04:09Z</time>
      </trkpt>
      <trkpt lat="45.6126" lon="6.4851">
        <ele>1565.16</ele>
        <time>2020-09-13T08:04:22Z</time>
      </trkpt>
      <trkpt lat="45.61254" lon="6.48514">
        <ele>1566.61</ele>
        <time>2020-09-13T08:04:28Z</time>
      </trkpt>
      <trkpt lat="45.61247" lon="6.48523">
        <ele>1569.01</ele>
        <time>2020-09-13T08:04:41Z</time>
      </trkpt>
      <trkpt lat="45.61241" lon="6.48524">
        <ele>1571.89</ele>
        <time>2020-09-13T08:04:54Z</time>
      </trkpt>
      <trkpt lat="45.61234" lon="6.48533">
        <ele>1574.3</ele>
        <time>2020-09-13T08:05:06Z</time>
      </trkpt>
      <trkpt lat="45.61226" lon="6.48537">
        <ele>1576.7</ele>
        <time>2020-09-13T08:05:16Z</time>
      </trkpt>
      <trkpt lat="45.61218" lon="6.48542">
        <ele>1580.06</ele>
        <time>2020-09-13T08:05:29Z</time>
      </trkpt>
      <trkpt lat="45.61211" lon="6.48549">
        <ele>1581.51</ele>
        <time>2020-09-13T08:05:38Z</time>
      </trkpt>
      <trkpt lat="45.61206" lon="6.4855">
        <ele>1582.47</ele>
        <time>2020-09-13T08:05:43Z</time>
      </trkpt>
      <trkpt lat="45.61203" lon="6.4854">
        <ele>1582.95</ele>
        <time>2020-09-13T08:05:48Z</time>
      </trkpt>
      <trkpt lat="45.61201" lon="6.48526">
        <ele>1585.83</ele>
        <time>2020-09-13T08:06:03Z</time>
      </trkpt>
      <trkpt lat="45.61201" lon="6.48527">
        <ele>1585.83</ele>
        <time>2020-09-13T08:06:05Z</time>
      </trkpt>
      <trkpt lat="45.61198" lon="6.48532">
        <ele>1586.79</ele>
        <time>2020-09-13T08:06:10Z</time>
      </trkpt>
      <trkpt lat="45.61196" lon="6.48538">
        <ele>1587.75</ele>
        <time>2020-09-13T08:06:15Z</time>
      </trkpt>
      <trkpt lat="45.61192" lon="6.48546">
        <ele>1589.68</ele>
        <time>2020-09-13T08:06:26Z</time>
      </trkpt>
      <trkpt lat="45.61192" lon="6.48549">
        <ele>1591.12</ele>
        <time>2020-09-13T08:06:46Z</time>
      </trkpt>
      <trkpt lat="45.61187" lon="6.48557">
        <ele>1592.08</ele>
        <time>2020-09-13T08:06:53Z</time>
      </trkpt>
      <trkpt lat="45.61184" lon="6.48565">
        <ele>1593.52</ele>
        <time>2020-09-13T08:07:01Z</time>
      </trkpt>
      <trkpt lat="45.61177" lon="6.48577">
        <ele>1596.41</ele>
        <time>2020-09-13T08:07:13Z</time>
      </trkpt>
      <trkpt lat="45.6117" lon="6.48576">
        <ele>1597.85</ele>
        <time>2020-09-13T08:07:21Z</time>
      </trkpt>
      <trkpt lat="45.61165" lon="6.48576">
        <ele>1599.77</ele>
        <time>2020-09-13T08:07:27Z</time>
      </trkpt>
      <trkpt lat="45.61162" lon="6.4858">
        <ele>1600.73</ele>
        <time>2020-09-13T08:07:33Z</time>
      </trkpt>
      <trkpt lat="45.6116" lon="6.48578">
        <ele>1601.21</ele>
        <time>2020-09-13T08:07:36Z</time>
      </trkpt>
      <trkpt lat="45.61157" lon="6.48567">
        <ele>1604.1</ele>
        <time>2020-09-13T08:07:48Z</time>
      </trkpt>
      <trkpt lat="45.61156" lon="6.48569">
        <ele>1604.58</ele>
        <time>2020-09-13T08:07:51Z</time>
      </trkpt>
      <trkpt lat="45.61155" lon="6.48572">
        <ele>1606.5</ele>
        <time>2020-09-13T08:08:04Z</time>
      </trkpt>
      <trkpt lat="45.61156" lon="6.4857">
        <ele>1606.5</ele>
        <time>2020-09-13T08:08:30Z</time>
      </trkpt>
      <trkpt lat="45.61155" lon="6.48571">
        <ele>1606.5</ele>
        <time>2020-09-13T08:08:36Z</time>
      </trkpt>
      <trkpt lat="45.61145" lon="6.48574">
        <ele>1609.38</ele>
        <time>2020-09-13T08:08:46Z</time>
      </trkpt>
      <trkpt lat="45.61144" lon="6.48573">
        <ele>1609.38</ele>
        <time>2020-09-13T08:08:49Z</time>
      </trkpt>
      <trkpt lat="45.6114" lon="6.48565">
        <ele>1612.27</ele>
        <time>2020-09-13T08:09:00Z</time>
      </trkpt>
      <trkpt lat="45.61138" lon="6.48567">
        <ele>1613.23</ele>
        <time>2020-09-13T08:09:02Z</time>
      </trkpt>
      <trkpt lat="45.61132" lon="6.48569">
        <ele>1615.15</ele>
        <time>2020-09-13T08:09:12Z</time>
      </trkpt>
      <trkpt lat="45.61127" lon="6.48568">
        <ele>1617.56</ele>
        <time>2020-09-13T08:09:25Z</time>
      </trkpt>
      <trkpt lat="45.61124" lon="6.48567">
        <ele>1618.52</ele>
        <time>2020-09-13T08:09:29Z</time>
      </trkpt>
      <trkpt lat="45.61122" lon="6.48564">
        <ele>1619</ele>
        <time>2020-09-13T08:09:32Z</time>
      </trkpt>
      <trkpt lat="45.61119" lon="6.48558">
        <ele>1621.88</ele>
        <time>2020-09-13T08:09:43Z</time>
      </trkpt>
      <trkpt lat="45.61118" lon="6.48559">
        <ele>1622.36</ele>
        <time>2020-09-13T08:09:45Z</time>
      </trkpt>
      <trkpt lat="45.6111" lon="6.48562">
        <ele>1624.77</ele>
        <time>2020-09-13T08:09:56Z</time>
      </trkpt>
      <trkpt lat="45.61108" lon="6.48562">
        <ele>1625.73</ele>
        <time>2020-09-13T08:10:00Z</time>
      </trkpt>
      <trkpt lat="45.61105" lon="6.48554">
        <ele>1627.65</ele>
        <time>2020-09-13T08:10:13Z</time>
      </trkpt>
      <trkpt lat="45.611" lon="6.48554">
        <ele>1629.57</ele>
        <time>2020-09-13T08:10:24Z</time>
      </trkpt>
      <trkpt lat="45.611" lon="6.48554">
        <ele>1630.05</ele>
        <time>2020-09-13T08:10:26Z</time>
      </trkpt>
      <trkpt lat="45.61095" lon="6.48552">
        <ele>1631.98</ele>
        <time>2020-09-13T08:10:36Z</time>
      </trkpt>
      <trkpt lat="45.61093" lon="6.4855">
        <ele>1632.94</ele>
        <time>2020-09-13T08:10:40Z</time>
      </trkpt>
      <trkpt lat="45.61088" lon="6.4855">
        <ele>1633.9</ele>
        <time>2020-09-13T08:10:45Z</time>
      </trkpt>
      <trkpt lat="45.61084" lon="6.48555">
        <ele>1636.78</ele>
        <time>2020-09-13T08:10:58Z</time>
      </trkpt>
      <trkpt lat="45.61086" lon="6.48561">
        <ele>1638.7</ele>
        <time>2020-09-13T08:11:10Z</time>
      </trkpt>
      <trkpt lat="45.61082" lon="6.48568">
        <ele>1638.22</ele>
        <time>2020-09-13T08:11:24Z</time>
      </trkpt>
      <trkpt lat="45.61082" lon="6.48574">
        <ele>1641.11</ele>
        <time>2020-09-13T08:11:47Z</time>
      </trkpt>
      <trkpt lat="45.61079" lon="6.48584">
        <ele>1643.03</ele>
        <time>2020-09-13T08:11:58Z</time>
      </trkpt>
      <trkpt lat="45.61068" lon="6.48574">
        <ele>1644.95</ele>
        <time>2020-09-13T08:12:09Z</time>
      </trkpt>
      <trkpt lat="45.6106" lon="6.48557">
        <ele>1647.36</ele>
        <time>2020-09-13T08:12:22Z</time>
      </trkpt>
      <trkpt lat="45.61054" lon="6.48548">
        <ele>1650.24</ele>
        <time>2020-09-13T08:12:34Z</time>
      </trkpt>
      <trkpt lat="45.61053" lon="6.48542">
        <ele>1651.2</ele>
        <time>2020-09-13T08:12:38Z</time>
      </trkpt>
      <trkpt lat="45.61051" lon="6.48532">
        <ele>1652.64</ele>
        <time>2020-09-13T08:12:50Z</time>
      </trkpt>
      <trkpt lat="45.61047" lon="6.48519">
        <ele>1655.05</ele>
        <time>2020-09-13T08:13:01Z</time>
      </trkpt>
      <trkpt lat="45.61048" lon="6.48518">
        <ele>1655.05</ele>
        <time>2020-09-13T08:13:02Z</time>
      </trkpt>
      <trkpt lat="45.61049" lon="6.48509">
        <ele>1657.45</ele>
        <time>2020-09-13T08:13:11Z</time>
      </trkpt>
      <trkpt lat="45.61049" lon="6.48503">
        <ele>1658.41</ele>
        <time>2020-09-13T08:13:16Z</time>
      </trkpt>
      <trkpt lat="45.61046" lon="6.48504">
        <ele>1660.33</ele>
        <time>2020-09-13T08:13:28Z</time>
      </trkpt>
      <trkpt lat="45.61045" lon="6.48503">
        <ele>1660.33</ele>
        <time>2020-09-13T08:13:35Z</time>
      </trkpt>
      <trkpt lat="45.61041" lon="6.48503">
        <ele>1661.3</ele>
        <time>2020-09-13T08:13:40Z</time>
      </trkpt>
      <trkpt lat="45.61033" lon="6.4851">
        <ele>1663.22</ele>
        <time>2020-09-13T08:13:51Z</time>
      </trkpt>
      <trkpt lat="45.61032" lon="6.4851">
        <ele>1664.18</ele>
        <time>2020-09-13T08:13:56Z</time>
      </trkpt>
      <trkpt lat="45.61028" lon="6.48513">
        <ele>1664.66</ele>
        <time>2020-09-13T08:14:00Z</time>
      </trkpt>
      <trkpt lat="45.6102" lon="6.48506">
        <ele>1666.58</ele>
        <time>2020-09-13T08:14:09Z</time>
      </trkpt>
      <trkpt lat="45.61019" lon="6.48504">
        <ele>1667.06</ele>
        <time>2020-09-13T08:14:12Z</time>
      </trkpt>
      <trkpt lat="45.61019" lon="6.485">
        <ele>1668.02</ele>
        <time>2020-09-13T08:14:17Z</time>
      </trkpt>
      <trkpt lat="45.61017" lon="6.48496">
        <ele>1668.99</ele>
        <time>2020-09-13T08:14:21Z</time>
      </trkpt>
      <trkpt lat="45.61014" lon="6.48486">
        <ele>1671.39</ele>
        <time>2020-09-13T08:14:32Z</time>
      </trkpt>
      <trkpt lat="45.6101" lon="6.4849">
        <ele>1672.83</ele>
        <time>2020-09-13T08:14:41Z</time>
      </trkpt>
      <trkpt lat="45.61007" lon="6.48493">
        <ele>1673.31</ele>
        <time>2020-09-13T08:14:46Z</time>
      </trkpt>
      <trkpt lat="45.61" lon="6.48501">
        <ele>1674.75</ele>
        <time>2020-09-13T08:14:52Z</time>
      </trkpt>
      <trkpt lat="45.60997" lon="6.48506">
        <ele>1676.2</ele>
        <time>2020-09-13T08:15:01Z</time>
      </trkpt>
      <trkpt lat="45.60996" lon="6.48508">
        <ele>1676.2</ele>
        <time>2020-09-13T08:15:03Z</time>
      </trkpt>
      <trkpt lat="45.60989" lon="6.48523">
        <ele>1677.64</ele>
        <time>2020-09-13T08:15:13Z</time>
      </trkpt>
      <trkpt lat="45.60989" lon="6.48524">
        <ele>1678.12</ele>
        <time>2020-09-13T08:15:14Z</time>
      </trkpt>
      <trkpt lat="45.60985" lon="6.48529">
        <ele>1679.08</ele>
        <time>2020-09-13T08:15:20Z</time>
      </trkpt>
      <trkpt lat="45.6098" lon="6.48536">
        <ele>1681.48</ele>
        <time>2020-09-13T08:15:31Z</time>
      </trkpt>
      <trkpt lat="45.60978" lon="6.48536">
        <ele>1681.96</ele>
        <time>2020-09-13T08:15:33Z</time>
      </trkpt>
      <trkpt lat="45.60969" lon="6.48523">
        <ele>1683.89</ele>
        <time>2020-09-13T08:15:46Z</time>
      </trkpt>
      <trkpt lat="45.60968" lon="6.48523">
        <ele>1684.37</ele>
        <time>2020-09-13T08:15:48Z</time>
      </trkpt>
      <trkpt lat="45.60968" lon="6.48528">
        <ele>1685.33</ele>
        <time>2020-09-13T08:15:53Z</time>
      </trkpt>
      <trkpt lat="45.60965" lon="6.48537">
        <ele>1687.25</ele>
        <time>2020-09-13T08:16:03Z</time>
      </trkpt>
      <trkpt lat="45.60963" lon="6.48544">
        <ele>1688.69</ele>
        <time>2020-09-13T08:16:10Z</time>
      </trkpt>
      <trkpt lat="45.6096" lon="6.48544">
        <ele>1689.65</ele>
        <time>2020-09-13T08:16:15Z</time>
      </trkpt>
      <trkpt lat="45.60958" lon="6.48539">
        <ele>1690.14</ele>
        <time>2020-09-13T08:16:20Z</time>
      </trkpt>
      <trkpt lat="45.60953" lon="6.48534">
        <ele>1692.54</ele>
        <time>2020-09-13T08:16:32Z</time>
      </trkpt>
      <trkpt lat="45.60947" lon="6.48533">
        <ele>1693.98</ele>
        <time>2020-09-13T08:16:39Z</time>
      </trkpt>
      <trkpt lat="45.60944" lon="6.48537">
        <ele>1695.42</ele>
        <time>2020-09-13T08:16:46Z</time>
      </trkpt>
      <trkpt lat="45.60943" lon="6.48538">
        <ele>1695.9</ele>
        <time>2020-09-13T08:16:49Z</time>
      </trkpt>
      <trkpt lat="45.60936" lon="6.48544">
        <ele>1697.83</ele>
        <time>2020-09-13T08:17:00Z</time>
      </trkpt>
      <trkpt lat="45.60933" lon="6.48549">
        <ele>1699.75</ele>
        <time>2020-09-13T08:17:09Z</time>
      </trkpt>
      <trkpt lat="45.60932" lon="6.48554">
        <ele>1700.71</ele>
        <time>2020-09-13T08:17:14Z</time>
      </trkpt>
      <trkpt lat="45.60936" lon="6.48562">
        <ele>1702.63</ele>
        <time>2020-09-13T08:17:24Z</time>
      </trkpt>
      <trkpt lat="45.60936" lon="6.48568">
        <ele>1703.59</ele>
        <time>2020-09-13T08:17:28Z</time>
      </trkpt>
      <trkpt lat="45.60939" lon="6.48581">
        <ele>1705.04</ele>
        <time>2020-09-13T08:17:38Z</time>
      </trkpt>
      <trkpt lat="45.60939" lon="6.48592">
        <ele>1706.96</ele>
        <time>2020-09-13T08:17:48Z</time>
      </trkpt>
      <trkpt lat="45.60937" lon="6.48599">
        <ele>1708.88</ele>
        <time>2020-09-13T08:17:56Z</time>
      </trkpt>
      <trkpt lat="45.60935" lon="6.48604">
        <ele>1710.32</ele>
        <time>2020-09-13T08:18:04Z</time>
      </trkpt>
      <trkpt lat="45.60935" lon="6.48614">
        <ele>1711.76</ele>
        <time>2020-09-13T08:18:13Z</time>
      </trkpt>
      <trkpt lat="45.60937" lon="6.48623">
        <ele>1714.17</ele>
        <time>2020-09-13T08:18:23Z</time>
      </trkpt>
      <trkpt lat="45.60942" lon="6.48629">
        <ele>1716.57</ele>
        <time>2020-09-13T08:18:35Z</time>
      </trkpt>
      <trkpt lat="45.60944" lon="6.48637">
        <ele>1718.97</ele>
        <time>2020-09-13T08:18:47Z</time>
      </trkpt>
      <trkpt lat="45.60943" lon="6.48641">
        <ele>1721.38</ele>
        <time>2020-09-13T08:18:58Z</time>
      </trkpt>
      <trkpt lat="45.60949" lon="6.48646">
        <ele>1722.34</ele>
        <time>2020-09-13T08:19:05Z</time>
      </trkpt>
      <trkpt lat="45.60952" lon="6.48653">
        <ele>1724.74</ele>
        <time>2020-09-13T08:19:16Z</time>
      </trkpt>
      <trkpt lat="45.60952" lon="6.48653">
        <ele>1724.74</ele>
        <time>2020-09-13T08:19:24Z</time>
      </trkpt>
      <trkpt lat="45.60952" lon="6.48662">
        <ele>1726.67</ele>
        <time>2020-09-13T08:19:35Z</time>
      </trkpt>
      <trkpt lat="45.60952" lon="6.48671">
        <ele>1729.07</ele>
        <time>2020-09-13T08:19:46Z</time>
      </trkpt>
      <trkpt lat="45.60952" lon="6.48672">
        <ele>1728.59</ele>
        <time>2020-09-13T08:19:48Z</time>
      </trkpt>
      <trkpt lat="45.60943" lon="6.48671">
        <ele>1730.51</ele>
        <time>2020-09-13T08:19:59Z</time>
      </trkpt>
      <trkpt lat="45.60933" lon="6.48668">
        <ele>1733.39</ele>
        <time>2020-09-13T08:20:11Z</time>
      </trkpt>
      <trkpt lat="45.60922" lon="6.48664">
        <ele>1735.32</ele>
        <time>2020-09-13T08:20:24Z</time>
      </trkpt>
      <trkpt lat="45.60913" lon="6.4866">
        <ele>1737.72</ele>
        <time>2020-09-13T08:20:37Z</time>
      </trkpt>
      <trkpt lat="45.60906" lon="6.48662">
        <ele>1740.12</ele>
        <time>2020-09-13T08:20:50Z</time>
      </trkpt>
      <trkpt lat="45.60898" lon="6.4866">
        <ele>1743.01</ele>
        <time>2020-09-13T08:21:01Z</time>
      </trkpt>
      <trkpt lat="45.60893" lon="6.48659">
        <ele>1743.49</ele>
        <time>2020-09-13T08:21:06Z</time>
      </trkpt>
      <trkpt lat="45.60884" lon="6.48655">
        <ele>1745.89</ele>
        <time>2020-09-13T08:21:18Z</time>
      </trkpt>
      <trkpt lat="45.60875" lon="6.48653">
        <ele>1748.29</ele>
        <time>2020-09-13T08:21:30Z</time>
      </trkpt>
      <trkpt lat="45.60867" lon="6.48649">
        <ele>1750.7</ele>
        <time>2020-09-13T08:21:41Z</time>
      </trkpt>
      <trkpt lat="45.60866" lon="6.48651">
        <ele>1753.1</ele>
        <time>2020-09-13T08:21:51Z</time>
      </trkpt>
      <trkpt lat="45.60869" lon="6.4865">
        <ele>1754.06</ele>
        <time>2020-09-13T08:22:08Z</time>
      </trkpt>
      <trkpt lat="45.60869" lon="6.48649">
        <ele>1753.58</ele>
        <time>2020-09-13T08:22:10Z</time>
      </trkpt>
      <trkpt lat="45.60869" lon="6.48656">
        <ele>1754.54</ele>
        <time>2020-09-13T08:22:19Z</time>
      </trkpt>
      <trkpt lat="45.60867" lon="6.48658">
        <ele>1755.5</ele>
        <time>2020-09-13T08:22:22Z</time>
      </trkpt>
      <trkpt lat="45.60865" lon="6.48658">
        <ele>1756.95</ele>
        <time>2020-09-13T08:22:27Z</time>
      </trkpt>
      <trkpt lat="45.60867" lon="6.48661">
        <ele>1757.91</ele>
        <time>2020-09-13T08:22:33Z</time>
      </trkpt>
      <trkpt lat="45.6087" lon="6.48666">
        <ele>1760.31</ele>
        <time>2020-09-13T08:22:41Z</time>
      </trkpt>
      <trkpt lat="45.60877" lon="6.48675">
        <ele>1761.75</ele>
        <time>2020-09-13T08:22:52Z</time>
      </trkpt>
      <trkpt lat="45.60879" lon="6.48678">
        <ele>1762.23</ele>
        <time>2020-09-13T08:22:56Z</time>
      </trkpt>
      <trkpt lat="45.60881" lon="6.48679">
        <ele>1763.2</ele>
        <time>2020-09-13T08:23:00Z</time>
      </trkpt>
      <trkpt lat="45.60888" lon="6.48685">
        <ele>1764.64</ele>
        <time>2020-09-13T08:23:09Z</time>
      </trkpt>
      <trkpt lat="45.60894" lon="6.48698">
        <ele>1767.04</ele>
        <time>2020-09-13T08:23:21Z</time>
      </trkpt>
      <trkpt lat="45.60896" lon="6.48704">
        <ele>1769.44</ele>
        <time>2020-09-13T08:23:30Z</time>
      </trkpt>
      <trkpt lat="45.60896" lon="6.48705">
        <ele>1769.44</ele>
        <time>2020-09-13T08:23:31Z</time>
      </trkpt>
      <trkpt lat="45.609" lon="6.4871">
        <ele>1770.41</ele>
        <time>2020-09-13T08:23:37Z</time>
      </trkpt>
      <trkpt lat="45.609" lon="6.48719">
        <ele>1772.33</ele>
        <time>2020-09-13T08:23:50Z</time>
      </trkpt>
      <trkpt lat="45.609" lon="6.48721">
        <ele>1772.33</ele>
        <time>2020-09-13T08:24:00Z</time>
      </trkpt>
      <trkpt lat="45.60901" lon="6.48726">
        <ele>1773.29</ele>
        <time>2020-09-13T08:24:05Z</time>
      </trkpt>
      <trkpt lat="45.60901" lon="6.48731">
        <ele>1774.25</ele>
        <time>2020-09-13T08:24:10Z</time>
      </trkpt>
      <trkpt lat="45.60902" lon="6.48739">
        <ele>1776.17</ele>
        <time>2020-09-13T08:24:17Z</time>
      </trkpt>
      <trkpt lat="45.60904" lon="6.48744">
        <ele>1776.65</ele>
        <time>2020-09-13T08:24:21Z</time>
      </trkpt>
      <trkpt lat="45.60907" lon="6.48752">
        <ele>1778.1</ele>
        <time>2020-09-13T08:24:27Z</time>
      </trkpt>
      <trkpt lat="45.60907" lon="6.48755">
        <ele>1778.1</ele>
        <time>2020-09-13T08:24:30Z</time>
      </trkpt>
      <trkpt lat="45.60914" lon="6.48767">
        <ele>1779.54</ele>
        <time>2020-09-13T08:24:41Z</time>
      </trkpt>
      <trkpt lat="45.60917" lon="6.48772">
        <ele>1780.02</ele>
        <time>2020-09-13T08:24:46Z</time>
      </trkpt>
      <trkpt lat="45.60917" lon="6.4878">
        <ele>1780.5</ele>
        <time>2020-09-13T08:24:58Z</time>
      </trkpt>
      <trkpt lat="45.60917" lon="6.4878">
        <ele>1780.98</ele>
        <time>2020-09-13T08:25:18Z</time>
      </trkpt>
      <trkpt lat="45.60916" lon="6.48779">
        <ele>1780.98</ele>
        <time>2020-09-13T08:25:44Z</time>
      </trkpt>
      <trkpt lat="45.60916" lon="6.48778">
        <ele>1780.98</ele>
        <time>2020-09-13T08:26:06Z</time>
      </trkpt>
      <trkpt lat="45.60915" lon="6.48778">
        <ele>1780.98</ele>
        <time>2020-09-13T08:26:32Z</time>
      </trkpt>
      <trkpt lat="45.60915" lon="6.48778">
        <ele>1780.98</ele>
        <time>2020-09-13T08:26:57Z</time>
      </trkpt>
      <trkpt lat="45.60909" lon="6.48775">
        <ele>1781.46</ele>
        <time>2020-09-13T08:27:03Z</time>
      </trkpt>
      <trkpt lat="45.60901" lon="6.48772">
        <ele>1781.46</ele>
        <time>2020-09-13T08:27:12Z</time>
      </trkpt>
      <trkpt lat="45.60901" lon="6.48773">
        <ele>1781.46</ele>
        <time>2020-09-13T08:27:31Z</time>
      </trkpt>
      <trkpt lat="45.60899" lon="6.48773">
        <ele>1781.46</ele>
        <time>2020-09-13T08:27:52Z</time>
      </trkpt>
      <trkpt lat="45.60897" lon="6.48772">
        <ele>1781.94</ele>
        <time>2020-09-13T08:27:54Z</time>
      </trkpt>
      <trkpt lat="45.60886" lon="6.48775">
        <ele>1782.9</ele>
        <time>2020-09-13T08:28:05Z</time>
      </trkpt>
      <trkpt lat="45.60883" lon="6.48775">
        <ele>1784.34</ele>
        <time>2020-09-13T08:28:10Z</time>
      </trkpt>
      <trkpt lat="45.60881" lon="6.48773">
        <ele>1785.31</ele>
        <time>2020-09-13T08:28:14Z</time>
      </trkpt>
      <trkpt lat="45.60874" lon="6.48764">
        <ele>1787.23</ele>
        <time>2020-09-13T08:28:24Z</time>
      </trkpt>
      <trkpt lat="45.60872" lon="6.48762">
        <ele>1787.71</ele>
        <time>2020-09-13T08:28:26Z</time>
      </trkpt>
      <trkpt lat="45.60869" lon="6.48755">
        <ele>1789.63</ele>
        <time>2020-09-13T08:28:34Z</time>
      </trkpt>
      <trkpt lat="45.60863" lon="6.48753">
        <ele>1790.11</ele>
        <time>2020-09-13T08:28:47Z</time>
      </trkpt>
      <trkpt lat="45.6086" lon="6.48752">
        <ele>1791.07</ele>
        <time>2020-09-13T08:28:52Z</time>
      </trkpt>
      <trkpt lat="45.6086" lon="6.48753">
        <ele>1791.55</ele>
        <time>2020-09-13T08:28:56Z</time>
      </trkpt>
      <trkpt lat="45.60859" lon="6.48761">
        <ele>1793.48</ele>
        <time>2020-09-13T08:29:04Z</time>
      </trkpt>
      <trkpt lat="45.60862" lon="6.48766">
        <ele>1794.92</ele>
        <time>2020-09-13T08:29:13Z</time>
      </trkpt>
      <trkpt lat="45.60859" lon="6.48772">
        <ele>1795.4</ele>
        <time>2020-09-13T08:29:21Z</time>
      </trkpt>
      <trkpt lat="45.60857" lon="6.48776">
        <ele>1796.36</ele>
        <time>2020-09-13T08:29:26Z</time>
      </trkpt>
      <trkpt lat="45.60854" lon="6.48777">
        <ele>1796.36</ele>
        <time>2020-09-13T08:29:29Z</time>
      </trkpt>
      <trkpt lat="45.60846" lon="6.48784">
        <ele>1798.28</ele>
        <time>2020-09-13T08:29:39Z</time>
      </trkpt>
      <trkpt lat="45.60844" lon="6.48783">
        <ele>1798.28</ele>
        <time>2020-09-13T08:29:50Z</time>
      </trkpt>
      <trkpt lat="45.60843" lon="6.48781">
        <ele>1798.76</ele>
        <time>2020-09-13T08:30:08Z</time>
      </trkpt>
      <trkpt lat="45.6084" lon="6.48769">
        <ele>1798.76</ele>
        <time>2020-09-13T08:30:17Z</time>
      </trkpt>
      <trkpt lat="45.60838" lon="6.48757">
        <ele>1798.76</ele>
        <time>2020-09-13T08:30:24Z</time>
      </trkpt>
      <trkpt lat="45.60831" lon="6.48748">
        <ele>1798.76</ele>
        <time>2020-09-13T08:30:32Z</time>
      </trkpt>
      <trkpt lat="45.60832" lon="6.48745">
        <ele>1798.76</ele>
        <time>2020-09-13T08:30:34Z</time>
      </trkpt>
      <trkpt lat="45.60831" lon="6.48733">
        <ele>1797.32</ele>
        <time>2020-09-13T08:30:46Z</time>
      </trkpt>
      <trkpt lat="45.60831" lon="6.48731">
        <ele>1797.32</ele>
        <time>2020-09-13T08:30:47Z</time>
      </trkpt>
      <trkpt lat="45.60825" lon="6.48719">
        <ele>1800.69</ele>
        <time>2020-09-13T08:31:00Z</time>
      </trkpt>
      <trkpt lat="45.60823" lon="6.48715">
        <ele>1802.13</ele>
        <time>2020-09-13T08:31:10Z</time>
      </trkpt>
      <trkpt lat="45.60819" lon="6.48717">
        <ele>1803.57</ele>
        <time>2020-09-13T08:31:21Z</time>
      </trkpt>
      <trkpt lat="45.60809" lon="6.48721">
        <ele>1805.49</ele>
        <time>2020-09-13T08:31:35Z</time>
      </trkpt>
      <trkpt lat="45.60802" lon="6.48725">
        <ele>1807.42</ele>
        <time>2020-09-13T08:31:42Z</time>
      </trkpt>
      <trkpt lat="45.608" lon="6.48727">
        <ele>1808.86</ele>
        <time>2020-09-13T08:31:46Z</time>
      </trkpt>
      <trkpt lat="45.60795" lon="6.48731">
        <ele>1809.34</ele>
        <time>2020-09-13T08:31:55Z</time>
      </trkpt>
      <trkpt lat="45.60794" lon="6.48733">
        <ele>1810.3</ele>
        <time>2020-09-13T08:31:59Z</time>
      </trkpt>
      <trkpt lat="45.6079" lon="6.48734">
        <ele>1810.3</ele>
        <time>2020-09-13T08:32:03Z</time>
      </trkpt>
      <trkpt lat="45.60789" lon="6.48736">
        <ele>1810.78</ele>
        <time>2020-09-13T08:32:05Z</time>
      </trkpt>
      <trkpt lat="45.60786" lon="6.48738">
        <ele>1811.26</ele>
        <time>2020-09-13T08:32:16Z</time>
      </trkpt>
      <trkpt lat="45.60784" lon="6.48737">
        <ele>1812.22</ele>
        <time>2020-09-13T08:32:19Z</time>
      </trkpt>
      <trkpt lat="45.6078" lon="6.48739">
        <ele>1813.18</ele>
        <time>2020-09-13T08:32:26Z</time>
      </trkpt>
      <trkpt lat="45.60777" lon="6.48749">
        <ele>1814.63</ele>
        <time>2020-09-13T08:32:36Z</time>
      </trkpt>
      <trkpt lat="45.60773" lon="6.48753">
        <ele>1815.59</ele>
        <time>2020-09-13T08:32:41Z</time>
      </trkpt>
      <trkpt lat="45.60769" lon="6.48753">
        <ele>1816.55</ele>
        <time>2020-09-13T08:32:46Z</time>
      </trkpt>
      <trkpt lat="45.60762" lon="6.48755">
        <ele>1817.51</ele>
        <time>2020-09-13T08:32:54Z</time>
      </trkpt>
      <trkpt lat="45.60754" lon="6.48761">
        <ele>1819.91</ele>
        <time>2020-09-13T08:33:06Z</time>
      </trkpt>
      <trkpt lat="45.60751" lon="6.48763">
        <ele>1820.39</ele>
        <time>2020-09-13T08:33:09Z</time>
      </trkpt>
      <trkpt lat="45.60748" lon="6.48765">
        <ele>1820.87</ele>
        <time>2020-09-13T08:33:19Z</time>
      </trkpt>
      <trkpt lat="45.60748" lon="6.48765">
        <ele>1821.35</ele>
        <time>2020-09-13T08:33:26Z</time>
      </trkpt>
      <trkpt lat="45.60747" lon="6.48774">
        <ele>1822.8</ele>
        <time>2020-09-13T08:33:35Z</time>
      </trkpt>
      <trkpt lat="45.60746" lon="6.48778">
        <ele>1823.28</ele>
        <time>2020-09-13T08:33:39Z</time>
      </trkpt>
      <trkpt lat="45.60744" lon="6.48778">
        <ele>1824.72</ele>
        <time>2020-09-13T08:33:44Z</time>
      </trkpt>
      <trkpt lat="45.60743" lon="6.48782">
        <ele>1825.68</ele>
        <time>2020-09-13T08:33:47Z</time>
      </trkpt>
      <trkpt lat="45.60735" lon="6.48793">
        <ele>1827.12</ele>
        <time>2020-09-13T08:33:57Z</time>
      </trkpt>
      <trkpt lat="45.60731" lon="6.48799">
        <ele>1828.08</ele>
        <time>2020-09-13T08:34:03Z</time>
      </trkpt>
      <trkpt lat="45.60728" lon="6.48805">
        <ele>1829.05</ele>
        <time>2020-09-13T08:34:11Z</time>
      </trkpt>
      <trkpt lat="45.6073" lon="6.48812">
        <ele>1830.01</ele>
        <time>2020-09-13T08:34:19Z</time>
      </trkpt>
      <trkpt lat="45.60733" lon="6.48816">
        <ele>1830.01</ele>
        <time>2020-09-13T08:34:24Z</time>
      </trkpt>
      <trkpt lat="45.60734" lon="6.4882">
        <ele>1830.97</ele>
        <time>2020-09-13T08:34:28Z</time>
      </trkpt>
      <trkpt lat="45.60737" lon="6.48827">
        <ele>1832.89</ele>
        <time>2020-09-13T08:34:40Z</time>
      </trkpt>
      <trkpt lat="45.6074" lon="6.48835">
        <ele>1834.81</ele>
        <time>2020-09-13T08:34:53Z</time>
      </trkpt>
      <trkpt lat="45.6074" lon="6.48839">
        <ele>1835.77</ele>
        <time>2020-09-13T08:34:56Z</time>
      </trkpt>
      <trkpt lat="45.60738" lon="6.48842">
        <ele>1835.77</ele>
        <time>2020-09-13T08:34:59Z</time>
      </trkpt>
      <trkpt lat="45.60738" lon="6.48854">
        <ele>1838.66</ele>
        <time>2020-09-13T08:35:11Z</time>
      </trkpt>
      <trkpt lat="45.60737" lon="6.48859">
        <ele>1839.62</ele>
        <time>2020-09-13T08:35:22Z</time>
      </trkpt>
      <trkpt lat="45.60742" lon="6.48865">
        <ele>1840.58</ele>
        <time>2020-09-13T08:35:31Z</time>
      </trkpt>
      <trkpt lat="45.60743" lon="6.48867">
        <ele>1840.58</ele>
        <time>2020-09-13T08:35:34Z</time>
      </trkpt>
      <trkpt lat="45.60747" lon="6.48874">
        <ele>1842.5</ele>
        <time>2020-09-13T08:35:44Z</time>
      </trkpt>
      <trkpt lat="45.60748" lon="6.4888">
        <ele>1843.47</ele>
        <time>2020-09-13T08:35:49Z</time>
      </trkpt>
      <trkpt lat="45.60751" lon="6.48884">
        <ele>1844.43</ele>
        <time>2020-09-13T08:35:53Z</time>
      </trkpt>
      <trkpt lat="45.60751" lon="6.48897">
        <ele>1846.35</ele>
        <time>2020-09-13T08:36:04Z</time>
      </trkpt>
      <trkpt lat="45.60754" lon="6.48902">
        <ele>1848.27</ele>
        <time>2020-09-13T08:36:14Z</time>
      </trkpt>
      <trkpt lat="45.60753" lon="6.48903">
        <ele>1848.75</ele>
        <time>2020-09-13T08:36:26Z</time>
      </trkpt>
      <trkpt lat="45.60753" lon="6.48906">
        <ele>1849.23</ele>
        <time>2020-09-13T08:36:33Z</time>
      </trkpt>
      <trkpt lat="45.6075" lon="6.48908">
        <ele>1849.71</ele>
        <time>2020-09-13T08:36:36Z</time>
      </trkpt>
      <trkpt lat="45.6075" lon="6.48915">
        <ele>1851.64</ele>
        <time>2020-09-13T08:36:46Z</time>
      </trkpt>
      <trkpt lat="45.60754" lon="6.48918">
        <ele>1852.6</ele>
        <time>2020-09-13T08:36:50Z</time>
      </trkpt>
      <trkpt lat="45.60756" lon="6.48929">
        <ele>1855</ele>
        <time>2020-09-13T08:37:02Z</time>
      </trkpt>
      <trkpt lat="45.60754" lon="6.48933">
        <ele>1856.92</ele>
        <time>2020-09-13T08:37:13Z</time>
      </trkpt>
      <trkpt lat="45.60749" lon="6.48939">
        <ele>1858.37</ele>
        <time>2020-09-13T08:37:21Z</time>
      </trkpt>
      <trkpt lat="45.60748" lon="6.48944">
        <ele>1859.33</ele>
        <time>2020-09-13T08:37:29Z</time>
      </trkpt>
      <trkpt lat="45.60751" lon="6.48947">
        <ele>1859.33</ele>
        <time>2020-09-13T08:37:32Z</time>
      </trkpt>
      <trkpt lat="45.60753" lon="6.48948">
        <ele>1859.81</ele>
        <time>2020-09-13T08:37:34Z</time>
      </trkpt>
      <trkpt lat="45.60755" lon="6.48949">
        <ele>1859.81</ele>
        <time>2020-09-13T08:37:36Z</time>
      </trkpt>
      <trkpt lat="45.60761" lon="6.48956">
        <ele>1862.21</ele>
        <time>2020-09-13T08:37:47Z</time>
      </trkpt>
      <trkpt lat="45.60761" lon="6.48959">
        <ele>1862.69</ele>
        <time>2020-09-13T08:37:53Z</time>
      </trkpt>
      <trkpt lat="45.60762" lon="6.4896">
        <ele>1862.69</ele>
        <time>2020-09-13T08:37:55Z</time>
      </trkpt>
      <trkpt lat="45.60765" lon="6.48961">
        <ele>1863.17</ele>
        <time>2020-09-13T08:37:57Z</time>
      </trkpt>
      <trkpt lat="45.60772" lon="6.48963">
        <ele>1864.13</ele>
        <time>2020-09-13T08:38:03Z</time>
      </trkpt>
      <trkpt lat="45.60777" lon="6.48967">
        <ele>1866.06</ele>
        <time>2020-09-13T08:38:13Z</time>
      </trkpt>
      <trkpt lat="45.60782" lon="6.48972">
        <ele>1867.98</ele>
        <time>2020-09-13T08:38:22Z</time>
      </trkpt>
      <trkpt lat="45.60791" lon="6.48968">
        <ele>1869.9</ele>
        <time>2020-09-13T08:38:33Z</time>
      </trkpt>
      <trkpt lat="45.60793" lon="6.48968">
        <ele>1870.86</ele>
        <time>2020-09-13T08:38:38Z</time>
      </trkpt>
      <trkpt lat="45.60794" lon="6.48972">
        <ele>1872.79</ele>
        <time>2020-09-13T08:38:52Z</time>
      </trkpt>
      <trkpt lat="45.60793" lon="6.48974">
        <ele>1873.27</ele>
        <time>2020-09-13T08:38:54Z</time>
      </trkpt>
      <trkpt lat="45.6079" lon="6.48983">
        <ele>1876.15</ele>
        <time>2020-09-13T08:39:08Z</time>
      </trkpt>
      <trkpt lat="45.60791" lon="6.48985">
        <ele>1878.55</ele>
        <time>2020-09-13T08:39:18Z</time>
      </trkpt>
      <trkpt lat="45.60793" lon="6.48988">
        <ele>1879.51</ele>
        <time>2020-09-13T08:39:24Z</time>
      </trkpt>
      <trkpt lat="45.60799" lon="6.48995">
        <ele>1880.96</ele>
        <time>2020-09-13T08:39:37Z</time>
      </trkpt>
      <trkpt lat="45.60798" lon="6.48999">
        <ele>1882.4</ele>
        <time>2020-09-13T08:39:51Z</time>
      </trkpt>
      <trkpt lat="45.60796" lon="6.49006">
        <ele>1885.76</ele>
        <time>2020-09-13T08:40:00Z</time>
      </trkpt>
      <trkpt lat="45.60795" lon="6.49007">
        <ele>1885.76</ele>
        <time>2020-09-13T08:40:02Z</time>
      </trkpt>
      <trkpt lat="45.60794" lon="6.4901">
        <ele>1885.28</ele>
        <time>2020-09-13T08:40:06Z</time>
      </trkpt>
      <trkpt lat="45.60791" lon="6.49014">
        <ele>1886.24</ele>
        <time>2020-09-13T08:40:10Z</time>
      </trkpt>
      <trkpt lat="45.60789" lon="6.49019">
        <ele>1887.69</ele>
        <time>2020-09-13T08:40:17Z</time>
      </trkpt>
      <trkpt lat="45.60782" lon="6.49028">
        <ele>1889.61</ele>
        <time>2020-09-13T08:40:27Z</time>
      </trkpt>
      <trkpt lat="45.60779" lon="6.49029">
        <ele>1889.61</ele>
        <time>2020-09-13T08:40:30Z</time>
      </trkpt>
      <trkpt lat="45.60774" lon="6.49032">
        <ele>1889.13</ele>
        <time>2020-09-13T08:40:35Z</time>
      </trkpt>
      <trkpt lat="45.60763" lon="6.4903">
        <ele>1892.49</ele>
        <time>2020-09-13T08:40:49Z</time>
      </trkpt>
      <trkpt lat="45.60763" lon="6.4903">
        <ele>1892.49</ele>
        <time>2020-09-13T08:40:50Z</time>
      </trkpt>
      <trkpt lat="45.60767" lon="6.49033">
        <ele>1893.93</ele>
        <time>2020-09-13T08:40:55Z</time>
      </trkpt>
      <trkpt lat="45.6077" lon="6.4904">
        <ele>1896.34</ele>
        <time>2020-09-13T08:41:06Z</time>
      </trkpt>
      <trkpt lat="45.6077" lon="6.49044">
        <ele>1897.3</ele>
        <time>2020-09-13T08:41:10Z</time>
      </trkpt>
      <trkpt lat="45.60772" lon="6.49046">
        <ele>1896.82</ele>
        <time>2020-09-13T08:41:13Z</time>
      </trkpt>
      <trkpt lat="45.60774" lon="6.49049">
        <ele>1898.74</ele>
        <time>2020-09-13T08:41:17Z</time>
      </trkpt>
      <trkpt lat="45.60769" lon="6.49046">
        <ele>1899.7</ele>
        <time>2020-09-13T08:41:25Z</time>
      </trkpt>
      <trkpt lat="45.60766" lon="6.49046">
        <ele>1900.18</ele>
        <time>2020-09-13T08:41:29Z</time>
      </trkpt>
      <trkpt lat="45.60758" lon="6.49045">
        <ele>1901.63</ele>
        <time>2020-09-13T08:41:40Z</time>
      </trkpt>
      <trkpt lat="45.60759" lon="6.49053">
        <ele>1904.03</ele>
        <time>2020-09-13T08:41:50Z</time>
      </trkpt>
      <trkpt lat="45.60759" lon="6.49054">
        <ele>1904.03</ele>
        <time>2020-09-13T08:41:51Z</time>
      </trkpt>
      <trkpt lat="45.60762" lon="6.49064">
        <ele>1905.95</ele>
        <time>2020-09-13T08:42:02Z</time>
      </trkpt>
      <trkpt lat="45.60765" lon="6.4907">
        <ele>1906.43</ele>
        <time>2020-09-13T08:42:09Z</time>
      </trkpt>
      <trkpt lat="45.6077" lon="6.49079">
        <ele>1909.8</ele>
        <time>2020-09-13T08:42:17Z</time>
      </trkpt>
      <trkpt lat="45.60772" lon="6.49089">
        <ele>1911.72</ele>
        <time>2020-09-13T08:42:27Z</time>
      </trkpt>
      <trkpt lat="45.60771" lon="6.49098">
        <ele>1913.16</ele>
        <time>2020-09-13T08:42:35Z</time>
      </trkpt>
      <trkpt lat="45.60771" lon="6.49102">
        <ele>1913.64</ele>
        <time>2020-09-13T08:42:39Z</time>
      </trkpt>
      <trkpt lat="45.60775" lon="6.4911">
        <ele>1915.56</ele>
        <time>2020-09-13T08:42:49Z</time>
      </trkpt>
      <trkpt lat="45.60784" lon="6.49117">
        <ele>1917.49</ele>
        <time>2020-09-13T08:42:59Z</time>
      </trkpt>
      <trkpt lat="45.60784" lon="6.4912">
        <ele>1917.01</ele>
        <time>2020-09-13T08:43:13Z</time>
      </trkpt>
      <trkpt lat="45.60789" lon="6.4912">
        <ele>1918.45</ele>
        <time>2020-09-13T08:43:24Z</time>
      </trkpt>
      <trkpt lat="45.60794" lon="6.49121">
        <ele>1920.85</ele>
        <time>2020-09-13T08:43:33Z</time>
      </trkpt>
      <trkpt lat="45.60799" lon="6.49122">
        <ele>1921.81</ele>
        <time>2020-09-13T08:43:39Z</time>
      </trkpt>
      <trkpt lat="45.60804" lon="6.4913">
        <ele>1922.77</ele>
        <time>2020-09-13T08:43:46Z</time>
      </trkpt>
      <trkpt lat="45.60805" lon="6.49134">
        <ele>1922.29</ele>
        <time>2020-09-13T08:43:49Z</time>
      </trkpt>
      <trkpt lat="45.60808" lon="6.49138">
        <ele>1923.74</ele>
        <time>2020-09-13T08:43:54Z</time>
      </trkpt>
      <trkpt lat="45.60811" lon="6.4914">
        <ele>1923.74</ele>
        <time>2020-09-13T08:43:58Z</time>
      </trkpt>
      <trkpt lat="45.60813" lon="6.49145">
        <ele>1923.74</ele>
        <time>2020-09-13T08:44:10Z</time>
      </trkpt>
      <trkpt lat="45.60813" lon="6.49145">
        <ele>1924.22</ele>
        <time>2020-09-13T08:44:13Z</time>
      </trkpt>
      <trkpt lat="45.60822" lon="6.49153">
        <ele>1924.7</ele>
        <time>2020-09-13T08:44:24Z</time>
      </trkpt>
      <trkpt lat="45.60826" lon="6.49155">
        <ele>1924.22</ele>
        <time>2020-09-13T08:44:27Z</time>
      </trkpt>
      <trkpt lat="45.6083" lon="6.49159">
        <ele>1924.7</ele>
        <time>2020-09-13T08:44:33Z</time>
      </trkpt>
      <trkpt lat="45.60836" lon="6.4917">
        <ele>1926.62</ele>
        <time>2020-09-13T08:44:42Z</time>
      </trkpt>
      <trkpt lat="45.60837" lon="6.49175">
        <ele>1926.62</ele>
        <time>2020-09-13T08:44:45Z</time>
      </trkpt>
      <trkpt lat="45.6084" lon="6.49179">
        <ele>1926.62</ele>
        <time>2020-09-13T08:44:49Z</time>
      </trkpt>
      <trkpt lat="45.60841" lon="6.49182">
        <ele>1926.62</ele>
        <time>2020-09-13T08:45:04Z</time>
      </trkpt>
      <trkpt lat="45.60838" lon="6.49185">
        <ele>1927.1</ele>
        <time>2020-09-13T08:45:15Z</time>
      </trkpt>
      <trkpt lat="45.6084" lon="6.4919">
        <ele>1927.58</ele>
        <time>2020-09-13T08:45:20Z</time>
      </trkpt>
      <trkpt lat="45.60842" lon="6.49197">
        <ele>1927.58</ele>
        <time>2020-09-13T08:45:24Z</time>
      </trkpt>
      <trkpt lat="45.60841" lon="6.49198">
        <ele>1927.58</ele>
        <time>2020-09-13T08:45:26Z</time>
      </trkpt>
      <trkpt lat="45.60842" lon="6.49208">
        <ele>1928.06</ele>
        <time>2020-09-13T08:45:32Z</time>
      </trkpt>
      <trkpt lat="45.60847" lon="6.49222">
        <ele>1929.5</ele>
        <time>2020-09-13T08:45:45Z</time>
      </trkpt>
      <trkpt lat="45.60848" lon="6.49223">
        <ele>1929.98</ele>
        <time>2020-09-13T08:45:46Z</time>
      </trkpt>
      <trkpt lat="45.6086" lon="6.49227">
        <ele>1928.54</ele>
        <time>2020-09-13T08:45:57Z</time>
      </trkpt>
      <trkpt lat="45.60868" lon="6.49231">
        <ele>1927.58</ele>
        <time>2020-09-13T08:46:05Z</time>
      </trkpt>
      <trkpt lat="45.60869" lon="6.49231">
        <ele>1927.1</ele>
        <time>2020-09-13T08:46:07Z</time>
      </trkpt>
      <trkpt lat="45.60876" lon="6.49229">
        <ele>1926.62</ele>
        <time>2020-09-13T08:46:14Z</time>
      </trkpt>
      <trkpt lat="45.60886" lon="6.49234">
        <ele>1927.58</ele>
        <time>2020-09-13T08:46:25Z</time>
      </trkpt>
      <trkpt lat="45.60887" lon="6.49235">
        <ele>1927.58</ele>
        <time>2020-09-13T08:46:26Z</time>
      </trkpt>
      <trkpt lat="45.6089" lon="6.49235">
        <ele>1927.58</ele>
        <time>2020-09-13T08:46:31Z</time>
      </trkpt>
      <trkpt lat="45.60891" lon="6.49235">
        <ele>1928.06</ele>
        <time>2020-09-13T08:46:47Z</time>
      </trkpt>
      <trkpt lat="45.60894" lon="6.49237">
        <ele>1928.06</ele>
        <time>2020-09-13T08:46:51Z</time>
      </trkpt>
      <trkpt lat="45.60898" lon="6.49239">
        <ele>1927.58</ele>
        <time>2020-09-13T08:46:55Z</time>
      </trkpt>
      <trkpt lat="45.60902" lon="6.49241">
        <ele>1928.06</ele>
        <time>2020-09-13T08:46:59Z</time>
      </trkpt>
      <trkpt lat="45.60904" lon="6.49244">
        <ele>1927.58</ele>
        <time>2020-09-13T08:47:02Z</time>
      </trkpt>
      <trkpt lat="45.60905" lon="6.49246">
        <ele>1927.58</ele>
        <time>2020-09-13T08:47:16Z</time>
      </trkpt>
      <trkpt lat="45.60904" lon="6.49247">
        <ele>1927.58</ele>
        <time>2020-09-13T08:47:18Z</time>
      </trkpt>
      <trkpt lat="45.60903" lon="6.49251">
        <ele>1926.62</ele>
        <time>2020-09-13T08:47:29Z</time>
      </trkpt>
      <trkpt lat="45.609" lon="6.49252">
        <ele>1926.62</ele>
        <time>2020-09-13T08:47:41Z</time>
      </trkpt>
      <trkpt lat="45.60895" lon="6.49248">
        <ele>1927.1</ele>
        <time>2020-09-13T08:47:47Z</time>
      </trkpt>
      <trkpt lat="45.60894" lon="6.4925">
        <ele>1928.06</ele>
        <time>2020-09-13T08:47:49Z</time>
      </trkpt>
      <trkpt lat="45.60892" lon="6.49252">
        <ele>1928.06</ele>
        <time>2020-09-13T08:47:52Z</time>
      </trkpt>
      <trkpt lat="45.60885" lon="6.49256">
        <ele>1928.54</ele>
        <time>2020-09-13T08:47:58Z</time>
      </trkpt>
      <trkpt lat="45.60885" lon="6.49263">
        <ele>1929.98</ele>
        <time>2020-09-13T08:48:04Z</time>
      </trkpt>
      <trkpt lat="45.60881" lon="6.49266">
        <ele>1931.43</ele>
        <time>2020-09-13T08:48:14Z</time>
      </trkpt>
      <trkpt lat="45.60879" lon="6.49269">
        <ele>1931.43</ele>
        <time>2020-09-13T08:48:17Z</time>
      </trkpt>
      <trkpt lat="45.60875" lon="6.49268">
        <ele>1932.39</ele>
        <time>2020-09-13T08:48:22Z</time>
      </trkpt>
      <trkpt lat="45.60872" lon="6.4927">
        <ele>1932.39</ele>
        <time>2020-09-13T08:48:25Z</time>
      </trkpt>
      <trkpt lat="45.60869" lon="6.49274">
        <ele>1933.83</ele>
        <time>2020-09-13T08:48:31Z</time>
      </trkpt>
      <trkpt lat="45.60867" lon="6.49278">
        <ele>1934.79</ele>
        <time>2020-09-13T08:48:40Z</time>
      </trkpt>
      <trkpt lat="45.60864" lon="6.49284">
        <ele>1934.79</ele>
        <time>2020-09-13T08:48:45Z</time>
      </trkpt>
      <trkpt lat="45.60862" lon="6.49282">
        <ele>1935.75</ele>
        <time>2020-09-13T08:48:50Z</time>
      </trkpt>
      <trkpt lat="45.60861" lon="6.49286">
        <ele>1936.23</ele>
        <time>2020-09-13T08:48:54Z</time>
      </trkpt>
      <trkpt lat="45.60861" lon="6.4929">
        <ele>1936.71</ele>
        <time>2020-09-13T08:48:57Z</time>
      </trkpt>
      <trkpt lat="45.60858" lon="6.49302">
        <ele>1937.67</ele>
        <time>2020-09-13T08:49:08Z</time>
      </trkpt>
      <trkpt lat="45.60856" lon="6.49312">
        <ele>1938.16</ele>
        <time>2020-09-13T08:49:14Z</time>
      </trkpt>
      <trkpt lat="45.60854" lon="6.4932">
        <ele>1939.12</ele>
        <time>2020-09-13T08:49:19Z</time>
      </trkpt>
      <trkpt lat="45.60853" lon="6.49332">
        <ele>1939.12</ele>
        <time>2020-09-13T08:49:27Z</time>
      </trkpt>
      <trkpt lat="45.60855" lon="6.49342">
        <ele>1939.6</ele>
        <time>2020-09-13T08:49:33Z</time>
      </trkpt>
      <trkpt lat="45.60855" lon="6.49346">
        <ele>1940.08</ele>
        <time>2020-09-13T08:49:35Z</time>
      </trkpt>
      <trkpt lat="45.60853" lon="6.49352">
        <ele>1940.56</ele>
        <time>2020-09-13T08:49:39Z</time>
      </trkpt>
      <trkpt lat="45.60851" lon="6.49356">
        <ele>1941.52</ele>
        <time>2020-09-13T08:49:43Z</time>
      </trkpt>
      <trkpt lat="45.60849" lon="6.49362">
        <ele>1942</ele>
        <time>2020-09-13T08:49:49Z</time>
      </trkpt>
      <trkpt lat="45.60847" lon="6.49366">
        <ele>1942.96</ele>
        <time>2020-09-13T08:49:55Z</time>
      </trkpt>
      <trkpt lat="45.60846" lon="6.49374">
        <ele>1942.96</ele>
        <time>2020-09-13T08:50:01Z</time>
      </trkpt>
      <trkpt lat="45.60844" lon="6.4938">
        <ele>1943.44</ele>
        <time>2020-09-13T08:50:06Z</time>
      </trkpt>
      <trkpt lat="45.60842" lon="6.49388">
        <ele>1944.4</ele>
        <time>2020-09-13T08:50:12Z</time>
      </trkpt>
      <trkpt lat="45.60847" lon="6.49403">
        <ele>1945.85</ele>
        <time>2020-09-13T08:50:24Z</time>
      </trkpt>
      <trkpt lat="45.60847" lon="6.49408">
        <ele>1945.85</ele>
        <time>2020-09-13T08:50:36Z</time>
      </trkpt>
      <trkpt lat="45.6085" lon="6.49415">
        <ele>1947.29</ele>
        <time>2020-09-13T08:50:45Z</time>
      </trkpt>
      <trkpt lat="45.60848" lon="6.4942">
        <ele>1947.77</ele>
        <time>2020-09-13T08:50:49Z</time>
      </trkpt>
      <trkpt lat="45.60849" lon="6.49428">
        <ele>1949.21</ele>
        <time>2020-09-13T08:50:56Z</time>
      </trkpt>
      <trkpt lat="45.60849" lon="6.49431">
        <ele>1950.17</ele>
        <time>2020-09-13T08:51:00Z</time>
      </trkpt>
      <trkpt lat="45.60853" lon="6.49433">
        <ele>1950.65</ele>
        <time>2020-09-13T08:51:04Z</time>
      </trkpt>
      <trkpt lat="45.60856" lon="6.49436">
        <ele>1951.13</ele>
        <time>2020-09-13T08:51:09Z</time>
      </trkpt>
      <trkpt lat="45.60859" lon="6.49445">
        <ele>1951.61</ele>
        <time>2020-09-13T08:51:15Z</time>
      </trkpt>
      <trkpt lat="45.6086" lon="6.49447">
        <ele>1951.61</ele>
        <time>2020-09-13T08:51:17Z</time>
      </trkpt>
      <trkpt lat="45.60862" lon="6.4946">
        <ele>1951.61</ele>
        <time>2020-09-13T08:51:25Z</time>
      </trkpt>
      <trkpt lat="45.60863" lon="6.49464">
        <ele>1951.61</ele>
        <time>2020-09-13T08:51:27Z</time>
      </trkpt>
      <trkpt lat="45.60864" lon="6.49467">
        <ele>1951.61</ele>
        <time>2020-09-13T08:51:30Z</time>
      </trkpt>
      <trkpt lat="45.60866" lon="6.49469">
        <ele>1952.09</ele>
        <time>2020-09-13T08:51:32Z</time>
      </trkpt>
      <trkpt lat="45.60868" lon="6.49474">
        <ele>1952.09</ele>
        <time>2020-09-13T08:51:36Z</time>
      </trkpt>
      <trkpt lat="45.60872" lon="6.49493">
        <ele>1950.65</ele>
        <time>2020-09-13T08:51:48Z</time>
      </trkpt>
      <trkpt lat="45.60871" lon="6.49503">
        <ele>1951.13</ele>
        <time>2020-09-13T08:51:55Z</time>
      </trkpt>
      <trkpt lat="45.60872" lon="6.49511">
        <ele>1952.09</ele>
        <time>2020-09-13T08:52:03Z</time>
      </trkpt>
      <trkpt lat="45.60876" lon="6.49519">
        <ele>1951.61</ele>
        <time>2020-09-13T08:52:16Z</time>
      </trkpt>
      <trkpt lat="45.60876" lon="6.4952">
        <ele>1951.13</ele>
        <time>2020-09-13T08:52:19Z</time>
      </trkpt>
      <trkpt lat="45.60877" lon="6.49524">
        <ele>1950.65</ele>
        <time>2020-09-13T08:52:22Z</time>
      </trkpt>
      <trkpt lat="45.60879" lon="6.4953">
        <ele>1951.13</ele>
        <time>2020-09-13T08:52:26Z</time>
      </trkpt>
      <trkpt lat="45.60881" lon="6.49535">
        <ele>1951.61</ele>
        <time>2020-09-13T08:52:29Z</time>
      </trkpt>
      <trkpt lat="45.60885" lon="6.49542">
        <ele>1951.13</ele>
        <time>2020-09-13T08:52:37Z</time>
      </trkpt>
      <trkpt lat="45.60892" lon="6.49559">
        <ele>1950.17</ele>
        <time>2020-09-13T08:52:47Z</time>
      </trkpt>
      <trkpt lat="45.60892" lon="6.49562">
        <ele>1950.17</ele>
        <time>2020-09-13T08:52:49Z</time>
      </trkpt>
      <trkpt lat="45.60894" lon="6.49571">
        <ele>1949.69</ele>
        <time>2020-09-13T08:52:54Z</time>
      </trkpt>
      <trkpt lat="45.60901" lon="6.49589">
        <ele>1949.21</ele>
        <time>2020-09-13T08:53:06Z</time>
      </trkpt>
      <trkpt lat="45.60908" lon="6.49603">
        <ele>1948.25</ele>
        <time>2020-09-13T08:53:19Z</time>
      </trkpt>
      <trkpt lat="45.6091" lon="6.49606">
        <ele>1947.77</ele>
        <time>2020-09-13T08:53:22Z</time>
      </trkpt>
      <trkpt lat="45.60919" lon="6.49623">
        <ele>1946.81</ele>
        <time>2020-09-13T08:53:34Z</time>
      </trkpt>
      <trkpt lat="45.60928" lon="6.4963">
        <ele>1946.81</ele>
        <time>2020-09-13T08:53:45Z</time>
      </trkpt>
      <trkpt lat="45.60929" lon="6.49631">
        <ele>1946.81</ele>
        <time>2020-09-13T08:53:46Z</time>
      </trkpt>
      <trkpt lat="45.60939" lon="6.49637">
        <ele>1946.81</ele>
        <time>2020-09-13T08:53:54Z</time>
      </trkpt>
      <trkpt lat="45.60949" lon="6.49645">
        <ele>1948.25</ele>
        <time>2020-09-13T08:54:04Z</time>
      </trkpt>
      <trkpt lat="45.60952" lon="6.49645">
        <ele>1947.77</ele>
        <time>2020-09-13T08:54:09Z</time>
      </trkpt>
      <trkpt lat="45.60959" lon="6.49644">
        <ele>1945.85</ele>
        <time>2020-09-13T08:54:21Z</time>
      </trkpt>
      <trkpt lat="45.60972" lon="6.49649">
        <ele>1944.88</ele>
        <time>2020-09-13T08:54:32Z</time>
      </trkpt>
      <trkpt lat="45.6098" lon="6.49653">
        <ele>1945.36</ele>
        <time>2020-09-13T08:54:39Z</time>
      </trkpt>
      <trkpt lat="45.60988" lon="6.49657">
        <ele>1946.33</ele>
        <time>2020-09-13T08:54:47Z</time>
      </trkpt>
      <trkpt lat="45.61" lon="6.49679">
        <ele>1946.33</ele>
        <time>2020-09-13T08:55:02Z</time>
      </trkpt>
      <trkpt lat="45.61004" lon="6.49689">
        <ele>1945.36</ele>
        <time>2020-09-13T08:55:12Z</time>
      </trkpt>
      <trkpt lat="45.61004" lon="6.49703">
        <ele>1945.36</ele>
        <time>2020-09-13T08:55:23Z</time>
      </trkpt>
      <trkpt lat="45.6101" lon="6.49709">
        <ele>1944.4</ele>
        <time>2020-09-13T08:55:33Z</time>
      </trkpt>
      <trkpt lat="45.61011" lon="6.49709">
        <ele>1943.92</ele>
        <time>2020-09-13T08:55:34Z</time>
      </trkpt>
      <trkpt lat="45.61021" lon="6.49715">
        <ele>1943.92</ele>
        <time>2020-09-13T08:55:42Z</time>
      </trkpt>
      <trkpt lat="45.61021" lon="6.49727">
        <ele>1942</ele>
        <time>2020-09-13T08:55:55Z</time>
      </trkpt>
      <trkpt lat="45.61019" lon="6.49735">
        <ele>1939.6</ele>
        <time>2020-09-13T08:56:08Z</time>
      </trkpt>
      <trkpt lat="45.61019" lon="6.49738">
        <ele>1938.64</ele>
        <time>2020-09-13T08:56:19Z</time>
      </trkpt>
      <trkpt lat="45.61017" lon="6.49744">
        <ele>1936.71</ele>
        <time>2020-09-13T08:56:31Z</time>
      </trkpt>
      <trkpt lat="45.61022" lon="6.49754">
        <ele>1933.83</ele>
        <time>2020-09-13T08:56:45Z</time>
      </trkpt>
      <trkpt lat="45.61023" lon="6.49759">
        <ele>1933.35</ele>
        <time>2020-09-13T08:56:48Z</time>
      </trkpt>
      <trkpt lat="45.61029" lon="6.49764">
        <ele>1931.91</ele>
        <time>2020-09-13T08:56:57Z</time>
      </trkpt>
      <trkpt lat="45.61037" lon="6.49767">
        <ele>1930.46</ele>
        <time>2020-09-13T08:57:05Z</time>
      </trkpt>
      <trkpt lat="45.61048" lon="6.49775">
        <ele>1929.02</ele>
        <time>2020-09-13T08:57:19Z</time>
      </trkpt>
      <trkpt lat="45.61057" lon="6.49783">
        <ele>1928.54</ele>
        <time>2020-09-13T08:57:33Z</time>
      </trkpt>
      <trkpt lat="45.61059" lon="6.49785">
        <ele>1929.02</ele>
        <time>2020-09-13T08:57:35Z</time>
      </trkpt>
      <trkpt lat="45.61063" lon="6.49791">
        <ele>1930.46</ele>
        <time>2020-09-13T08:57:45Z</time>
      </trkpt>
      <trkpt lat="45.61065" lon="6.49791">
        <ele>1931.91</ele>
        <time>2020-09-13T08:57:49Z</time>
      </trkpt>
      <trkpt lat="45.61077" lon="6.49802">
        <ele>1932.39</ele>
        <time>2020-09-13T08:58:01Z</time>
      </trkpt>
      <trkpt lat="45.6108" lon="6.49818">
        <ele>1932.87</ele>
        <time>2020-09-13T08:58:14Z</time>
      </trkpt>
      <trkpt lat="45.61083" lon="6.4983">
        <ele>1929.98</ele>
        <time>2020-09-13T08:58:29Z</time>
      </trkpt>
      <trkpt lat="45.61084" lon="6.49833">
        <ele>1929.5</ele>
        <time>2020-09-13T08:58:32Z</time>
      </trkpt>
      <trkpt lat="45.61087" lon="6.49846">
        <ele>1929.02</ele>
        <time>2020-09-13T08:58:43Z</time>
      </trkpt>
      <trkpt lat="45.61093" lon="6.49851">
        <ele>1929.98</ele>
        <time>2020-09-13T08:58:48Z</time>
      </trkpt>
      <trkpt lat="45.61106" lon="6.49869">
        <ele>1929.02</ele>
        <time>2020-09-13T08:59:03Z</time>
      </trkpt>
      <trkpt lat="45.61115" lon="6.49881">
        <ele>1929.98</ele>
        <time>2020-09-13T08:59:16Z</time>
      </trkpt>
      <trkpt lat="45.61118" lon="6.49889">
        <ele>1929.5</ele>
        <time>2020-09-13T08:59:22Z</time>
      </trkpt>
      <trkpt lat="45.61126" lon="6.49884">
        <ele>1928.54</ele>
        <time>2020-09-13T08:59:32Z</time>
      </trkpt>
      <trkpt lat="45.61129" lon="6.4988">
        <ele>1928.06</ele>
        <time>2020-09-13T08:59:36Z</time>
      </trkpt>
      <trkpt lat="45.61143" lon="6.49885">
        <ele>1926.62</ele>
        <time>2020-09-13T08:59:50Z</time>
      </trkpt>
      <trkpt lat="45.61153" lon="6.49884">
        <ele>1926.14</ele>
        <time>2020-09-13T08:59:59Z</time>
      </trkpt>
      <trkpt lat="45.61167" lon="6.49895">
        <ele>1925.18</ele>
        <time>2020-09-13T09:00:11Z</time>
      </trkpt>
      <trkpt lat="45.61173" lon="6.49896">
        <ele>1924.22</ele>
        <time>2020-09-13T09:00:17Z</time>
      </trkpt>
      <trkpt lat="45.61179" lon="6.49898">
        <ele>1923.74</ele>
        <time>2020-09-13T09:00:25Z</time>
      </trkpt>
      <trkpt lat="45.61189" lon="6.499">
        <ele>1922.29</ele>
        <time>2020-09-13T09:00:36Z</time>
      </trkpt>
      <trkpt lat="45.61198" lon="6.49903">
        <ele>1921.81</ele>
        <time>2020-09-13T09:00:42Z</time>
      </trkpt>
      <trkpt lat="45.61208" lon="6.49906">
        <ele>1920.85</ele>
        <time>2020-09-13T09:00:52Z</time>
      </trkpt>
      <trkpt lat="45.6121" lon="6.49907">
        <ele>1921.33</ele>
        <time>2020-09-13T09:00:54Z</time>
      </trkpt>
      <trkpt lat="45.61216" lon="6.49916">
        <ele>1920.37</ele>
        <time>2020-09-13T09:01:02Z</time>
      </trkpt>
      <trkpt lat="45.61228" lon="6.49917">
        <ele>1919.89</ele>
        <time>2020-09-13T09:01:13Z</time>
      </trkpt>
      <trkpt lat="45.61229" lon="6.49918">
        <ele>1919.41</ele>
        <time>2020-09-13T09:01:16Z</time>
      </trkpt>
      <trkpt lat="45.61234" lon="6.49919">
        <ele>1918.93</ele>
        <time>2020-09-13T09:01:20Z</time>
      </trkpt>
      <trkpt lat="45.6124" lon="6.49925">
        <ele>1918.45</ele>
        <time>2020-09-13T09:01:27Z</time>
      </trkpt>
      <trkpt lat="45.61255" lon="6.49928">
        <ele>1918.93</ele>
        <time>2020-09-13T09:01:39Z</time>
      </trkpt>
      <trkpt lat="45.61267" lon="6.49935">
        <ele>1918.45</ele>
        <time>2020-09-13T09:01:51Z</time>
      </trkpt>
      <trkpt lat="45.61269" lon="6.49935">
        <ele>1917.97</ele>
        <time>2020-09-13T09:02:10Z</time>
      </trkpt>
      <trkpt lat="45.61276" lon="6.49941">
        <ele>1917.97</ele>
        <time>2020-09-13T09:02:15Z</time>
      </trkpt>
      <trkpt lat="45.61283" lon="6.49941">
        <ele>1918.45</ele>
        <time>2020-09-13T09:02:20Z</time>
      </trkpt>
      <trkpt lat="45.61291" lon="6.49948">
        <ele>1916.53</ele>
        <time>2020-09-13T09:02:30Z</time>
      </trkpt>
      <trkpt lat="45.61293" lon="6.49949">
        <ele>1916.04</ele>
        <time>2020-09-13T09:02:32Z</time>
      </trkpt>
      <trkpt lat="45.61302" lon="6.4997">
        <ele>1914.6</ele>
        <time>2020-09-13T09:02:45Z</time>
      </trkpt>
      <trkpt lat="45.61314" lon="6.49969">
        <ele>1916.04</ele>
        <time>2020-09-13T09:02:57Z</time>
      </trkpt>
      <trkpt lat="45.61318" lon="6.49968">
        <ele>1919.89</ele>
        <time>2020-09-13T09:03:06Z</time>
      </trkpt>
      <trkpt lat="45.61325" lon="6.49968">
        <ele>1920.37</ele>
        <time>2020-09-13T09:03:18Z</time>
      </trkpt>
      <trkpt lat="45.61327" lon="6.49968">
        <ele>1920.85</ele>
        <time>2020-09-13T09:03:20Z</time>
      </trkpt>
      <trkpt lat="45.61329" lon="6.4997">
        <ele>1921.33</ele>
        <time>2020-09-13T09:03:22Z</time>
      </trkpt>
      <trkpt lat="45.61341" lon="6.49977">
        <ele>1922.29</ele>
        <time>2020-09-13T09:03:33Z</time>
      </trkpt>
      <trkpt lat="45.61345" lon="6.49982">
        <ele>1922.29</ele>
        <time>2020-09-13T09:03:40Z</time>
      </trkpt>
      <trkpt lat="45.6135" lon="6.49987">
        <ele>1922.29</ele>
        <time>2020-09-13T09:03:46Z</time>
      </trkpt>
      <trkpt lat="45.61363" lon="6.49992">
        <ele>1922.77</ele>
        <time>2020-09-13T09:03:57Z</time>
      </trkpt>
      <trkpt lat="45.61374" lon="6.49999">
        <ele>1923.74</ele>
        <time>2020-09-13T09:04:09Z</time>
      </trkpt>
      <trkpt lat="45.61387" lon="6.50003">
        <ele>1923.74</ele>
        <time>2020-09-13T09:04:21Z</time>
      </trkpt>
      <trkpt lat="45.61392" lon="6.50003">
        <ele>1924.22</ele>
        <time>2020-09-13T09:04:27Z</time>
      </trkpt>
      <trkpt lat="45.61396" lon="6.50003">
        <ele>1924.7</ele>
        <time>2020-09-13T09:04:32Z</time>
      </trkpt>
      <trkpt lat="45.61407" lon="6.50004">
        <ele>1926.62</ele>
        <time>2020-09-13T09:04:44Z</time>
      </trkpt>
      <trkpt lat="45.61419" lon="6.49998">
        <ele>1928.54</ele>
        <time>2020-09-13T09:04:56Z</time>
      </trkpt>
      <trkpt lat="45.61421" lon="6.49996">
        <ele>1929.98</ele>
        <time>2020-09-13T09:05:00Z</time>
      </trkpt>
      <trkpt lat="45.61424" lon="6.49995">
        <ele>1930.95</ele>
        <time>2020-09-13T09:05:04Z</time>
      </trkpt>
      <trkpt lat="45.61431" lon="6.49999">
        <ele>1932.87</ele>
        <time>2020-09-13T09:05:13Z</time>
      </trkpt>
      <trkpt lat="45.61442" lon="6.49998">
        <ele>1935.27</ele>
        <time>2020-09-13T09:05:25Z</time>
      </trkpt>
      <trkpt lat="45.61446" lon="6.49997">
        <ele>1936.71</ele>
        <time>2020-09-13T09:05:36Z</time>
      </trkpt>
      <trkpt lat="45.61451" lon="6.49998">
        <ele>1939.12</ele>
        <time>2020-09-13T09:05:50Z</time>
      </trkpt>
      <trkpt lat="45.6146" lon="6.49998">
        <ele>1941.04</ele>
        <time>2020-09-13T09:06:02Z</time>
      </trkpt>
      <trkpt lat="45.6146" lon="6.49998">
        <ele>1942.48</ele>
        <time>2020-09-13T09:06:04Z</time>
      </trkpt>
      <trkpt lat="45.61461" lon="6.49997">
        <ele>1942</ele>
        <time>2020-09-13T09:06:10Z</time>
      </trkpt>
      <trkpt lat="45.61471" lon="6.49995">
        <ele>1945.36</ele>
        <time>2020-09-13T09:06:24Z</time>
      </trkpt>
      <trkpt lat="45.61474" lon="6.49999">
        <ele>1947.29</ele>
        <time>2020-09-13T09:06:33Z</time>
      </trkpt>
      <trkpt lat="45.61475" lon="6.50007">
        <ele>1948.73</ele>
        <time>2020-09-13T09:06:39Z</time>
      </trkpt>
      <trkpt lat="45.61474" lon="6.50011">
        <ele>1949.69</ele>
        <time>2020-09-13T09:06:44Z</time>
      </trkpt>
      <trkpt lat="45.61474" lon="6.5002">
        <ele>1951.13</ele>
        <time>2020-09-13T09:06:57Z</time>
      </trkpt>
      <trkpt lat="45.61474" lon="6.5002">
        <ele>1951.13</ele>
        <time>2020-09-13T09:07:14Z</time>
      </trkpt>
      <trkpt lat="45.61473" lon="6.5002">
        <ele>1951.13</ele>
        <time>2020-09-13T09:07:28Z</time>
      </trkpt>
      <trkpt lat="45.61473" lon="6.50019">
        <ele>1953.06</ele>
        <time>2020-09-13T09:07:50Z</time>
      </trkpt>
      <trkpt lat="45.61472" lon="6.50019">
        <ele>1948.25</ele>
        <time>2020-09-13T09:08:16Z</time>
      </trkpt>
      <trkpt lat="45.61472" lon="6.50019">
        <ele>1954.5</ele>
        <time>2020-09-13T09:08:17Z</time>
      </trkpt>
      <trkpt lat="45.61472" lon="6.50019">
        <ele>1950.17</ele>
        <time>2020-09-13T09:08:18Z</time>
      </trkpt>
      <trkpt lat="45.61473" lon="6.50019">
        <ele>1951.13</ele>
        <time>2020-09-13T09:08:36Z</time>
      </trkpt>
      <trkpt lat="45.61473" lon="6.5002">
        <ele>1951.61</ele>
        <time>2020-09-13T09:08:55Z</time>
      </trkpt>
      <trkpt lat="45.61473" lon="6.5002">
        <ele>1951.61</ele>
        <time>2020-09-13T09:09:19Z</time>
      </trkpt>
      <trkpt lat="45.61473" lon="6.5002">
        <ele>1951.61</ele>
        <time>2020-09-13T09:09:47Z</time>
      </trkpt>
      <trkpt lat="45.61473" lon="6.5002">
        <ele>1951.13</ele>
        <time>2020-09-13T09:10:08Z</time>
      </trkpt>
      <trkpt lat="45.61473" lon="6.50021">
        <ele>1951.13</ele>
        <time>2020-09-13T09:10:24Z</time>
      </trkpt>
      <trkpt lat="45.61472" lon="6.50028">
        <ele>1949.21</ele>
        <time>2020-09-13T09:10:36Z</time>
      </trkpt>
      <trkpt lat="45.61475" lon="6.50029">
        <ele>1946.81</ele>
        <time>2020-09-13T09:10:46Z</time>
      </trkpt>
      <trkpt lat="45.61478" lon="6.50036">
        <ele>1944.88</ele>
        <time>2020-09-13T09:10:57Z</time>
      </trkpt>
      <trkpt lat="45.61478" lon="6.50047">
        <ele>1941.52</ele>
        <time>2020-09-13T09:11:08Z</time>
      </trkpt>
      <trkpt lat="45.61478" lon="6.50061">
        <ele>1938.16</ele>
        <time>2020-09-13T09:11:21Z</time>
      </trkpt>
      <trkpt lat="45.61479" lon="6.50068">
        <ele>1936.71</ele>
        <time>2020-09-13T09:11:28Z</time>
      </trkpt>
      <trkpt lat="45.61474" lon="6.50083">
        <ele>1934.31</ele>
        <time>2020-09-13T09:11:38Z</time>
      </trkpt>
      <trkpt lat="45.61471" lon="6.50098">
        <ele>1932.87</ele>
        <time>2020-09-13T09:11:47Z</time>
      </trkpt>
      <trkpt lat="45.61472" lon="6.50105">
        <ele>1931.43</ele>
        <time>2020-09-13T09:11:55Z</time>
      </trkpt>
      <trkpt lat="45.61473" lon="6.50115">
        <ele>1929.02</ele>
        <time>2020-09-13T09:12:06Z</time>
      </trkpt>
      <trkpt lat="45.61473" lon="6.50119">
        <ele>1928.06</ele>
        <time>2020-09-13T09:12:09Z</time>
      </trkpt>
      <trkpt lat="45.61471" lon="6.50126">
        <ele>1927.1</ele>
        <time>2020-09-13T09:12:22Z</time>
      </trkpt>
      <trkpt lat="45.61472" lon="6.50128">
        <ele>1926.62</ele>
        <time>2020-09-13T09:12:25Z</time>
      </trkpt>
      <trkpt lat="45.61477" lon="6.50147">
        <ele>1925.18</ele>
        <time>2020-09-13T09:12:37Z</time>
      </trkpt>
      <trkpt lat="45.61477" lon="6.50148">
        <ele>1925.66</ele>
        <time>2020-09-13T09:12:38Z</time>
      </trkpt>
      <trkpt lat="45.61479" lon="6.50154">
        <ele>1925.66</ele>
        <time>2020-09-13T09:12:43Z</time>
      </trkpt>
      <trkpt lat="45.61483" lon="6.50161">
        <ele>1923.74</ele>
        <time>2020-09-13T09:12:48Z</time>
      </trkpt>
      <trkpt lat="45.61484" lon="6.50167">
        <ele>1923.74</ele>
        <time>2020-09-13T09:12:52Z</time>
      </trkpt>
      <trkpt lat="45.61487" lon="6.50179">
        <ele>1922.77</ele>
        <time>2020-09-13T09:13:01Z</time>
      </trkpt>
      <trkpt lat="45.61489" lon="6.50185">
        <ele>1922.77</ele>
        <time>2020-09-13T09:13:07Z</time>
      </trkpt>
      <trkpt lat="45.61492" lon="6.50195">
        <ele>1923.25</ele>
        <time>2020-09-13T09:13:17Z</time>
      </trkpt>
      <trkpt lat="45.61491" lon="6.50196">
        <ele>1923.25</ele>
        <time>2020-09-13T09:13:19Z</time>
      </trkpt>
      <trkpt lat="45.61488" lon="6.50198">
        <ele>1923.74</ele>
        <time>2020-09-13T09:13:22Z</time>
      </trkpt>
      <trkpt lat="45.61483" lon="6.5021">
        <ele>1924.7</ele>
        <time>2020-09-13T09:13:34Z</time>
      </trkpt>
      <trkpt lat="45.61483" lon="6.5021">
        <ele>1924.22</ele>
        <time>2020-09-13T09:13:35Z</time>
      </trkpt>
      <trkpt lat="45.61483" lon="6.50214">
        <ele>1924.22</ele>
        <time>2020-09-13T09:13:38Z</time>
      </trkpt>
      <trkpt lat="45.6148" lon="6.50224">
        <ele>1923.25</ele>
        <time>2020-09-13T09:13:47Z</time>
      </trkpt>
      <trkpt lat="45.61479" lon="6.50227">
        <ele>1923.25</ele>
        <time>2020-09-13T09:13:50Z</time>
      </trkpt>
      <trkpt lat="45.61478" lon="6.50241">
        <ele>1924.22</ele>
        <time>2020-09-13T09:14:03Z</time>
      </trkpt>
      <trkpt lat="45.61478" lon="6.50252">
        <ele>1926.62</ele>
        <time>2020-09-13T09:14:15Z</time>
      </trkpt>
      <trkpt lat="45.6148" lon="6.50255">
        <ele>1927.58</ele>
        <time>2020-09-13T09:14:26Z</time>
      </trkpt>
      <trkpt lat="45.61482" lon="6.50258">
        <ele>1927.58</ele>
        <time>2020-09-13T09:14:30Z</time>
      </trkpt>
      <trkpt lat="45.61483" lon="6.50266">
        <ele>1928.54</ele>
        <time>2020-09-13T09:14:43Z</time>
      </trkpt>
      <trkpt lat="45.61484" lon="6.50267">
        <ele>1928.54</ele>
        <time>2020-09-13T09:14:45Z</time>
      </trkpt>
      <trkpt lat="45.61491" lon="6.50283">
        <ele>1929.02</ele>
        <time>2020-09-13T09:14:59Z</time>
      </trkpt>
      <trkpt lat="45.61494" lon="6.50295">
        <ele>1929.5</ele>
        <time>2020-09-13T09:15:11Z</time>
      </trkpt>
      <trkpt lat="45.61497" lon="6.50302">
        <ele>1929.5</ele>
        <time>2020-09-13T09:15:18Z</time>
      </trkpt>
      <trkpt lat="45.615" lon="6.5031">
        <ele>1929.5</ele>
        <time>2020-09-13T09:15:25Z</time>
      </trkpt>
      <trkpt lat="45.61505" lon="6.50325">
        <ele>1929.98</ele>
        <time>2020-09-13T09:15:37Z</time>
      </trkpt>
      <trkpt lat="45.61507" lon="6.50332">
        <ele>1929.98</ele>
        <time>2020-09-13T09:15:46Z</time>
      </trkpt>
      <trkpt lat="45.61508" lon="6.50332">
        <ele>1929.98</ele>
        <time>2020-09-13T09:15:57Z</time>
      </trkpt>
      <trkpt lat="45.61511" lon="6.50333">
        <ele>1929.98</ele>
        <time>2020-09-13T09:16:00Z</time>
      </trkpt>
      <trkpt lat="45.61512" lon="6.50339">
        <ele>1930.95</ele>
        <time>2020-09-13T09:16:15Z</time>
      </trkpt>
      <trkpt lat="45.61515" lon="6.50344">
        <ele>1930.95</ele>
        <time>2020-09-13T09:16:23Z</time>
      </trkpt>
      <trkpt lat="45.61523" lon="6.50353">
        <ele>1930.46</ele>
        <time>2020-09-13T09:16:35Z</time>
      </trkpt>
      <trkpt lat="45.61525" lon="6.50354">
        <ele>1930.46</ele>
        <time>2020-09-13T09:16:50Z</time>
      </trkpt>
      <trkpt lat="45.6153" lon="6.50359">
        <ele>1929.5</ele>
        <time>2020-09-13T09:17:02Z</time>
      </trkpt>
      <trkpt lat="45.61534" lon="6.50363">
        <ele>1929.98</ele>
        <time>2020-09-13T09:17:13Z</time>
      </trkpt>
      <trkpt lat="45.61534" lon="6.50364">
        <ele>1929.98</ele>
        <time>2020-09-13T09:17:27Z</time>
      </trkpt>
      <trkpt lat="45.61533" lon="6.50369">
        <ele>1932.39</ele>
        <time>2020-09-13T09:17:42Z</time>
      </trkpt>
      <trkpt lat="45.61532" lon="6.50375">
        <ele>1933.83</ele>
        <time>2020-09-13T09:17:52Z</time>
      </trkpt>
      <trkpt lat="45.61532" lon="6.50378">
        <ele>1935.27</ele>
        <time>2020-09-13T09:18:02Z</time>
      </trkpt>
      <trkpt lat="45.61532" lon="6.50383">
        <ele>1937.67</ele>
        <time>2020-09-13T09:18:14Z</time>
      </trkpt>
      <trkpt lat="45.61534" lon="6.50388">
        <ele>1940.08</ele>
        <time>2020-09-13T09:18:26Z</time>
      </trkpt>
      <trkpt lat="45.61534" lon="6.5039">
        <ele>1940.08</ele>
        <time>2020-09-13T09:18:39Z</time>
      </trkpt>
      <trkpt lat="45.61534" lon="6.50399">
        <ele>1942.48</ele>
        <time>2020-09-13T09:18:51Z</time>
      </trkpt>
      <trkpt lat="45.61534" lon="6.50408">
        <ele>1945.85</ele>
        <time>2020-09-13T09:19:04Z</time>
      </trkpt>
      <trkpt lat="45.61537" lon="6.50413">
        <ele>1948.25</ele>
        <time>2020-09-13T09:19:16Z</time>
      </trkpt>
      <trkpt lat="45.61536" lon="6.50422">
        <ele>1950.65</ele>
        <time>2020-09-13T09:19:27Z</time>
      </trkpt>
      <trkpt lat="45.61534" lon="6.50426">
        <ele>1951.61</ele>
        <time>2020-09-13T09:19:40Z</time>
      </trkpt>
      <trkpt lat="45.61531" lon="6.50433">
        <ele>1953.06</ele>
        <time>2020-09-13T09:19:47Z</time>
      </trkpt>
      <trkpt lat="45.61528" lon="6.50436">
        <ele>1954.02</ele>
        <time>2020-09-13T09:19:54Z</time>
      </trkpt>
      <trkpt lat="45.61528" lon="6.50438">
        <ele>1954.02</ele>
        <time>2020-09-13T09:19:57Z</time>
      </trkpt>
      <trkpt lat="45.61525" lon="6.50439">
        <ele>1954.98</ele>
        <time>2020-09-13T09:20:10Z</time>
      </trkpt>
      <trkpt lat="45.61526" lon="6.50437">
        <ele>1954.98</ele>
        <time>2020-09-13T09:20:25Z</time>
      </trkpt>
      <trkpt lat="45.61525" lon="6.50446">
        <ele>1954.02</ele>
        <time>2020-09-13T09:20:33Z</time>
      </trkpt>
      <trkpt lat="45.61525" lon="6.5045">
        <ele>1954.02</ele>
        <time>2020-09-13T09:20:35Z</time>
      </trkpt>
      <trkpt lat="45.61523" lon="6.50456">
        <ele>1954.02</ele>
        <time>2020-09-13T09:20:39Z</time>
      </trkpt>
      <trkpt lat="45.61527" lon="6.50469">
        <ele>1954.5</ele>
        <time>2020-09-13T09:20:50Z</time>
      </trkpt>
      <trkpt lat="45.61532" lon="6.50483">
        <ele>1955.94</ele>
        <time>2020-09-13T09:21:01Z</time>
      </trkpt>
      <trkpt lat="45.61537" lon="6.50496">
        <ele>1956.42</ele>
        <time>2020-09-13T09:21:12Z</time>
      </trkpt>
      <trkpt lat="45.61538" lon="6.50506">
        <ele>1956.42</ele>
        <time>2020-09-13T09:21:21Z</time>
      </trkpt>
      <trkpt lat="45.61538" lon="6.50509">
        <ele>1956.42</ele>
        <time>2020-09-13T09:21:25Z</time>
      </trkpt>
      <trkpt lat="45.61539" lon="6.50513">
        <ele>1955.46</ele>
        <time>2020-09-13T09:21:28Z</time>
      </trkpt>
      <trkpt lat="45.6154" lon="6.50517">
        <ele>1956.42</ele>
        <time>2020-09-13T09:21:37Z</time>
      </trkpt>
      <trkpt lat="45.61544" lon="6.50521">
        <ele>1956.42</ele>
        <time>2020-09-13T09:21:43Z</time>
      </trkpt>
      <trkpt lat="45.61551" lon="6.50523">
        <ele>1958.82</ele>
        <time>2020-09-13T09:21:54Z</time>
      </trkpt>
      <trkpt lat="45.61553" lon="6.50527">
        <ele>1959.78</ele>
        <time>2020-09-13T09:21:59Z</time>
      </trkpt>
      <trkpt lat="45.61561" lon="6.50527">
        <ele>1963.63</ele>
        <time>2020-09-13T09:22:14Z</time>
      </trkpt>
      <trkpt lat="45.61566" lon="6.50527">
        <ele>1965.55</ele>
        <time>2020-09-13T09:22:22Z</time>
      </trkpt>
      <trkpt lat="45.61575" lon="6.50527">
        <ele>1966.99</ele>
        <time>2020-09-13T09:22:35Z</time>
      </trkpt>
      <trkpt lat="45.61577" lon="6.50529">
        <ele>1968.44</ele>
        <time>2020-09-13T09:22:39Z</time>
      </trkpt>
      <trkpt lat="45.61586" lon="6.50539">
        <ele>1970.84</ele>
        <time>2020-09-13T09:22:52Z</time>
      </trkpt>
      <trkpt lat="45.61586" lon="6.5054">
        <ele>1971.32</ele>
        <time>2020-09-13T09:22:53Z</time>
      </trkpt>
      <trkpt lat="45.61589" lon="6.50549">
        <ele>1971.8</ele>
        <time>2020-09-13T09:22:59Z</time>
      </trkpt>
      <trkpt lat="45.61591" lon="6.50561">
        <ele>1973.24</ele>
        <time>2020-09-13T09:23:08Z</time>
      </trkpt>
      <trkpt lat="45.61597" lon="6.50575">
        <ele>1973.24</ele>
        <time>2020-09-13T09:23:19Z</time>
      </trkpt>
      <trkpt lat="45.61598" lon="6.50584">
        <ele>1973.72</ele>
        <time>2020-09-13T09:23:26Z</time>
      </trkpt>
      <trkpt lat="45.61601" lon="6.50592">
        <ele>1974.2</ele>
        <time>2020-09-13T09:23:32Z</time>
      </trkpt>
      <trkpt lat="45.61603" lon="6.50603">
        <ele>1973.72</ele>
        <time>2020-09-13T09:23:40Z</time>
      </trkpt>
      <trkpt lat="45.61604" lon="6.50608">
        <ele>1974.69</ele>
        <time>2020-09-13T09:23:49Z</time>
      </trkpt>
      <trkpt lat="45.61609" lon="6.50613">
        <ele>1977.57</ele>
        <time>2020-09-13T09:24:01Z</time>
      </trkpt>
      <trkpt lat="45.61613" lon="6.50617">
        <ele>1979.01</ele>
        <time>2020-09-13T09:24:06Z</time>
      </trkpt>
      <trkpt lat="45.61616" lon="6.50619">
        <ele>1979.49</ele>
        <time>2020-09-13T09:24:09Z</time>
      </trkpt>
      <trkpt lat="45.6162" lon="6.50624">
        <ele>1979.97</ele>
        <time>2020-09-13T09:24:16Z</time>
      </trkpt>
      <trkpt lat="45.61625" lon="6.50626">
        <ele>1981.9</ele>
        <time>2020-09-13T09:24:28Z</time>
      </trkpt>
      <trkpt lat="45.61629" lon="6.50629">
        <ele>1982.38</ele>
        <time>2020-09-13T09:24:34Z</time>
      </trkpt>
      <trkpt lat="45.61633" lon="6.50635">
        <ele>1982.86</ele>
        <time>2020-09-13T09:24:39Z</time>
      </trkpt>
      <trkpt lat="45.61637" lon="6.50642">
        <ele>1984.3</ele>
        <time>2020-09-13T09:24:50Z</time>
      </trkpt>
      <trkpt lat="45.61641" lon="6.50644">
        <ele>1985.74</ele>
        <time>2020-09-13T09:24:56Z</time>
      </trkpt>
      <trkpt lat="45.61651" lon="6.50651">
        <ele>1987.18</ele>
        <time>2020-09-13T09:25:08Z</time>
      </trkpt>
      <trkpt lat="45.61655" lon="6.50656">
        <ele>1988.62</ele>
        <time>2020-09-13T09:25:19Z</time>
      </trkpt>
      <trkpt lat="45.61658" lon="6.5066">
        <ele>1990.07</ele>
        <time>2020-09-13T09:25:32Z</time>
      </trkpt>
      <trkpt lat="45.61659" lon="6.5066">
        <ele>1990.55</ele>
        <time>2020-09-13T09:25:37Z</time>
      </trkpt>
      <trkpt lat="45.61667" lon="6.50668">
        <ele>1991.99</ele>
        <time>2020-09-13T09:25:49Z</time>
      </trkpt>
      <trkpt lat="45.61673" lon="6.50674">
        <ele>1994.39</ele>
        <time>2020-09-13T09:26:00Z</time>
      </trkpt>
      <trkpt lat="45.61678" lon="6.50676">
        <ele>1996.32</ele>
        <time>2020-09-13T09:26:10Z</time>
      </trkpt>
      <trkpt lat="45.61685" lon="6.50682">
        <ele>1999.2</ele>
        <time>2020-09-13T09:26:23Z</time>
      </trkpt>
      <trkpt lat="45.61687" lon="6.50681">
        <ele>1999.68</ele>
        <time>2020-09-13T09:26:28Z</time>
      </trkpt>
      <trkpt lat="45.61695" lon="6.50683">
        <ele>2002.08</ele>
        <time>2020-09-13T09:26:40Z</time>
      </trkpt>
      <trkpt lat="45.61696" lon="6.50684">
        <ele>2002.08</ele>
        <time>2020-09-13T09:26:42Z</time>
      </trkpt>
      <trkpt lat="45.61703" lon="6.50682">
        <ele>2003.04</ele>
        <time>2020-09-13T09:26:55Z</time>
      </trkpt>
      <trkpt lat="45.61707" lon="6.50682">
        <ele>2003.52</ele>
        <time>2020-09-13T09:27:02Z</time>
      </trkpt>
      <trkpt lat="45.6171" lon="6.50681">
        <ele>2005.45</ele>
        <time>2020-09-13T09:27:12Z</time>
      </trkpt>
      <trkpt lat="45.61719" lon="6.50683">
        <ele>2006.41</ele>
        <time>2020-09-13T09:27:26Z</time>
      </trkpt>
      <trkpt lat="45.61724" lon="6.50688">
        <ele>2007.85</ele>
        <time>2020-09-13T09:27:36Z</time>
      </trkpt>
      <trkpt lat="45.61731" lon="6.50692">
        <ele>2010.25</ele>
        <time>2020-09-13T09:27:48Z</time>
      </trkpt>
      <trkpt lat="45.61736" lon="6.50698">
        <ele>2012.18</ele>
        <time>2020-09-13T09:27:59Z</time>
      </trkpt>
      <trkpt lat="45.61739" lon="6.50698">
        <ele>2013.14</ele>
        <time>2020-09-13T09:28:04Z</time>
      </trkpt>
      <trkpt lat="45.61747" lon="6.50702">
        <ele>2014.1</ele>
        <time>2020-09-13T09:28:13Z</time>
      </trkpt>
      <trkpt lat="45.61753" lon="6.5071">
        <ele>2015.54</ele>
        <time>2020-09-13T09:28:23Z</time>
      </trkpt>
      <trkpt lat="45.61761" lon="6.5072">
        <ele>2018.43</ele>
        <time>2020-09-13T09:28:35Z</time>
      </trkpt>
      <trkpt lat="45.61762" lon="6.5072">
        <ele>2018.91</ele>
        <time>2020-09-13T09:28:55Z</time>
      </trkpt>
      <trkpt lat="45.61767" lon="6.50722">
        <ele>2020.83</ele>
        <time>2020-09-13T09:29:05Z</time>
      </trkpt>
      <trkpt lat="45.61774" lon="6.50725">
        <ele>2022.27</ele>
        <time>2020-09-13T09:29:14Z</time>
      </trkpt>
      <trkpt lat="45.61777" lon="6.50726">
        <ele>2022.75</ele>
        <time>2020-09-13T09:29:18Z</time>
      </trkpt>
      <trkpt lat="45.61787" lon="6.50727">
        <ele>2024.67</ele>
        <time>2020-09-13T09:29:28Z</time>
      </trkpt>
      <trkpt lat="45.61788" lon="6.50727">
        <ele>2025.15</ele>
        <time>2020-09-13T09:29:29Z</time>
      </trkpt>
      <trkpt lat="45.61791" lon="6.5073">
        <ele>2025.15</ele>
        <time>2020-09-13T09:29:32Z</time>
      </trkpt>
      <trkpt lat="45.61795" lon="6.50738">
        <ele>2027.08</ele>
        <time>2020-09-13T09:29:41Z</time>
      </trkpt>
      <trkpt lat="45.61799" lon="6.50744">
        <ele>2029.48</ele>
        <time>2020-09-13T09:29:53Z</time>
      </trkpt>
      <trkpt lat="45.618" lon="6.50749">
        <ele>2030.92</ele>
        <time>2020-09-13T09:30:07Z</time>
      </trkpt>
      <trkpt lat="45.61807" lon="6.50756">
        <ele>2033.81</ele>
        <time>2020-09-13T09:30:18Z</time>
      </trkpt>
      <trkpt lat="45.61815" lon="6.50767">
        <ele>2036.21</ele>
        <time>2020-09-13T09:30:31Z</time>
      </trkpt>
      <trkpt lat="45.61819" lon="6.50772">
        <ele>2037.65</ele>
        <time>2020-09-13T09:30:38Z</time>
      </trkpt>
      <trkpt lat="45.61826" lon="6.50781">
        <ele>2039.57</ele>
        <time>2020-09-13T09:30:51Z</time>
      </trkpt>
      <trkpt lat="45.61828" lon="6.50784">
        <ele>2040.54</ele>
        <time>2020-09-13T09:30:55Z</time>
      </trkpt>
      <trkpt lat="45.61836" lon="6.5079">
        <ele>2042.46</ele>
        <time>2020-09-13T09:31:08Z</time>
      </trkpt>
      <trkpt lat="45.61839" lon="6.50795">
        <ele>2043.42</ele>
        <time>2020-09-13T09:31:14Z</time>
      </trkpt>
      <trkpt lat="45.61846" lon="6.50805">
        <ele>2045.82</ele>
        <time>2020-09-13T09:31:27Z</time>
      </trkpt>
      <trkpt lat="45.61853" lon="6.50816">
        <ele>2047.26</ele>
        <time>2020-09-13T09:31:39Z</time>
      </trkpt>
      <trkpt lat="45.61856" lon="6.50821">
        <ele>2048.23</ele>
        <time>2020-09-13T09:31:46Z</time>
      </trkpt>
      <trkpt lat="45.61859" lon="6.50829">
        <ele>2048.71</ele>
        <time>2020-09-13T09:31:54Z</time>
      </trkpt>
      <trkpt lat="45.61862" lon="6.50832">
        <ele>2048.71</ele>
        <time>2020-09-13T09:32:08Z</time>
      </trkpt>
      <trkpt lat="45.61861" lon="6.50832">
        <ele>2048.23</ele>
        <time>2020-09-13T09:32:29Z</time>
      </trkpt>
      <trkpt lat="45.61861" lon="6.50832">
        <ele>2049.19</ele>
        <time>2020-09-13T09:32:32Z</time>
      </trkpt>
      <trkpt lat="45.6186" lon="6.50832">
        <ele>2049.19</ele>
        <time>2020-09-13T09:32:53Z</time>
      </trkpt>
      <trkpt lat="45.6186" lon="6.50832">
        <ele>2049.19</ele>
        <time>2020-09-13T09:33:25Z</time>
      </trkpt>
      <trkpt lat="45.6186" lon="6.50831">
        <ele>2049.67</ele>
        <time>2020-09-13T09:33:40Z</time>
      </trkpt>
      <trkpt lat="45.6186" lon="6.50832">
        <ele>2049.67</ele>
        <time>2020-09-13T09:33:56Z</time>
      </trkpt>
      <trkpt lat="45.6186" lon="6.50833">
        <ele>2049.67</ele>
        <time>2020-09-13T09:34:19Z</time>
      </trkpt>
      <trkpt lat="45.6186" lon="6.50833">
        <ele>2049.67</ele>
        <time>2020-09-13T09:34:39Z</time>
      </trkpt>
      <trkpt lat="45.61862" lon="6.50834">
        <ele>2049.67</ele>
        <time>2020-09-13T09:34:59Z</time>
      </trkpt>
      <trkpt lat="45.61862" lon="6.50833">
        <ele>2049.67</ele>
        <time>2020-09-13T09:35:25Z</time>
      </trkpt>
      <trkpt lat="45.6186" lon="6.50831">
        <ele>2049.67</ele>
        <time>2020-09-13T09:35:45Z</time>
      </trkpt>
      <trkpt lat="45.6186" lon="6.50831">
        <ele>2043.42</ele>
        <time>2020-09-13T09:36:04Z</time>
      </trkpt>
      <trkpt lat="45.6186" lon="6.50831">
        <ele>2053.99</ele>
        <time>2020-09-13T09:36:05Z</time>
      </trkpt>
      <trkpt lat="45.6186" lon="6.50831">
        <ele>2052.07</ele>
        <time>2020-09-13T09:36:06Z</time>
      </trkpt>
      <trkpt lat="45.61858" lon="6.50831">
        <ele>2050.15</ele>
        <time>2020-09-13T09:36:27Z</time>
      </trkpt>
      <trkpt lat="45.61859" lon="6.50832">
        <ele>2050.15</ele>
        <time>2020-09-13T09:36:45Z</time>
      </trkpt>
      <trkpt lat="45.6186" lon="6.50831">
        <ele>2050.15</ele>
        <time>2020-09-13T09:37:01Z</time>
      </trkpt>
      <trkpt lat="45.61861" lon="6.50831">
        <ele>2050.15</ele>
        <time>2020-09-13T09:37:28Z</time>
      </trkpt>
      <trkpt lat="45.61861" lon="6.5083">
        <ele>2050.63</ele>
        <time>2020-09-13T09:37:53Z</time>
      </trkpt>
      <trkpt lat="45.61861" lon="6.50831">
        <ele>2050.63</ele>
        <time>2020-09-13T09:38:07Z</time>
      </trkpt>
      <trkpt lat="45.61862" lon="6.50834">
        <ele>2050.63</ele>
        <time>2020-09-13T09:38:09Z</time>
      </trkpt>
      <trkpt lat="45.61871" lon="6.50845">
        <ele>2051.11</ele>
        <time>2020-09-13T09:38:20Z</time>
      </trkpt>
      <trkpt lat="45.61871" lon="6.50845">
        <ele>2051.59</ele>
        <time>2020-09-13T09:38:21Z</time>
      </trkpt>
      <trkpt lat="45.61876" lon="6.5085">
        <ele>2052.07</ele>
        <time>2020-09-13T09:38:26Z</time>
      </trkpt>
      <trkpt lat="45.61884" lon="6.50857">
        <ele>2053.99</ele>
        <time>2020-09-13T09:38:37Z</time>
      </trkpt>
      <trkpt lat="45.61887" lon="6.50863">
        <ele>2054.47</ele>
        <time>2020-09-13T09:38:42Z</time>
      </trkpt>
      <trkpt lat="45.61892" lon="6.50863">
        <ele>2055.92</ele>
        <time>2020-09-13T09:38:46Z</time>
      </trkpt>
      <trkpt lat="45.61896" lon="6.50868">
        <ele>2054.96</ele>
        <time>2020-09-13T09:38:52Z</time>
      </trkpt>
      <trkpt lat="45.61899" lon="6.50871">
        <ele>2056.88</ele>
        <time>2020-09-13T09:38:57Z</time>
      </trkpt>
      <trkpt lat="45.61902" lon="6.50876">
        <ele>2057.36</ele>
        <time>2020-09-13T09:39:01Z</time>
      </trkpt>
      <trkpt lat="45.61905" lon="6.50884">
        <ele>2057.84</ele>
        <time>2020-09-13T09:39:07Z</time>
      </trkpt>
      <trkpt lat="45.61906" lon="6.50895">
        <ele>2059.76</ele>
        <time>2020-09-13T09:39:15Z</time>
      </trkpt>
      <trkpt lat="45.61912" lon="6.50901">
        <ele>2060.72</ele>
        <time>2020-09-13T09:39:27Z</time>
      </trkpt>
      <trkpt lat="45.61915" lon="6.50905">
        <ele>2061.2</ele>
        <time>2020-09-13T09:39:32Z</time>
      </trkpt>
      <trkpt lat="45.61922" lon="6.50909">
        <ele>2064.09</ele>
        <time>2020-09-13T09:39:41Z</time>
      </trkpt>
      <trkpt lat="45.61924" lon="6.50911">
        <ele>2062.65</ele>
        <time>2020-09-13T09:39:43Z</time>
      </trkpt>
      <trkpt lat="45.61926" lon="6.50914">
        <ele>2063.61</ele>
        <time>2020-09-13T09:39:47Z</time>
      </trkpt>
      <trkpt lat="45.61931" lon="6.5092">
        <ele>2066.01</ele>
        <time>2020-09-13T09:39:57Z</time>
      </trkpt>
      <trkpt lat="45.61934" lon="6.50923">
        <ele>2065.53</ele>
        <time>2020-09-13T09:40:01Z</time>
      </trkpt>
      <trkpt lat="45.61938" lon="6.50924">
        <ele>2066.01</ele>
        <time>2020-09-13T09:40:07Z</time>
      </trkpt>
      <trkpt lat="45.61942" lon="6.50925">
        <ele>2066.01</ele>
        <time>2020-09-13T09:40:11Z</time>
      </trkpt>
      <trkpt lat="45.61947" lon="6.5093">
        <ele>2068.41</ele>
        <time>2020-09-13T09:40:19Z</time>
      </trkpt>
      <trkpt lat="45.61953" lon="6.50936">
        <ele>2069.86</ele>
        <time>2020-09-13T09:40:29Z</time>
      </trkpt>
      <trkpt lat="45.61956" lon="6.50938">
        <ele>2070.82</ele>
        <time>2020-09-13T09:40:33Z</time>
      </trkpt>
      <trkpt lat="45.61962" lon="6.50944">
        <ele>2071.3</ele>
        <time>2020-09-13T09:40:40Z</time>
      </trkpt>
      <trkpt lat="45.61965" lon="6.50948">
        <ele>2071.3</ele>
        <time>2020-09-13T09:40:44Z</time>
      </trkpt>
      <trkpt lat="45.61967" lon="6.50949">
        <ele>2072.26</ele>
        <time>2020-09-13T09:40:46Z</time>
      </trkpt>
      <trkpt lat="45.61969" lon="6.50951">
        <ele>2072.26</ele>
        <time>2020-09-13T09:40:49Z</time>
      </trkpt>
      <trkpt lat="45.61973" lon="6.50953">
        <ele>2072.26</ele>
        <time>2020-09-13T09:40:54Z</time>
      </trkpt>
      <trkpt lat="45.61977" lon="6.50957">
        <ele>2073.22</ele>
        <time>2020-09-13T09:40:58Z</time>
      </trkpt>
      <trkpt lat="45.61987" lon="6.50969">
        <ele>2074.66</ele>
        <time>2020-09-13T09:41:10Z</time>
      </trkpt>
      <trkpt lat="45.61988" lon="6.5097">
        <ele>2074.18</ele>
        <time>2020-09-13T09:41:12Z</time>
      </trkpt>
      <trkpt lat="45.61992" lon="6.50974">
        <ele>2074.18</ele>
        <time>2020-09-13T09:41:17Z</time>
      </trkpt>
      <trkpt lat="45.61998" lon="6.5098">
        <ele>2074.18</ele>
        <time>2020-09-13T09:41:24Z</time>
      </trkpt>
      <trkpt lat="45.62004" lon="6.50985">
        <ele>2074.18</ele>
        <time>2020-09-13T09:41:29Z</time>
      </trkpt>
      <trkpt lat="45.62006" lon="6.50988">
        <ele>2074.18</ele>
        <time>2020-09-13T09:41:31Z</time>
      </trkpt>
      <trkpt lat="45.6201" lon="6.50993">
        <ele>2073.22</ele>
        <time>2020-09-13T09:41:35Z</time>
      </trkpt>
      <trkpt lat="45.62014" lon="6.50995">
        <ele>2073.22</ele>
        <time>2020-09-13T09:41:39Z</time>
      </trkpt>
      <trkpt lat="45.62026" lon="6.51004">
        <ele>2073.7</ele>
        <time>2020-09-13T09:41:50Z</time>
      </trkpt>
      <trkpt lat="45.62028" lon="6.51005">
        <ele>2073.7</ele>
        <time>2020-09-13T09:41:52Z</time>
      </trkpt>
      <trkpt lat="45.6203" lon="6.51008">
        <ele>2074.18</ele>
        <time>2020-09-13T09:41:55Z</time>
      </trkpt>
      <trkpt lat="45.62032" lon="6.51009">
        <ele>2075.14</ele>
        <time>2020-09-13T09:42:03Z</time>
      </trkpt>
      <trkpt lat="45.62035" lon="6.5101">
        <ele>2074.66</ele>
        <time>2020-09-13T09:42:13Z</time>
      </trkpt>
      <trkpt lat="45.62034" lon="6.5101">
        <ele>2075.14</ele>
        <time>2020-09-13T09:42:33Z</time>
      </trkpt>
      <trkpt lat="45.62034" lon="6.5101">
        <ele>2074.66</ele>
        <time>2020-09-13T09:42:44Z</time>
      </trkpt>
      <trkpt lat="45.62035" lon="6.51011">
        <ele>2074.66</ele>
        <time>2020-09-13T09:42:46Z</time>
      </trkpt>
      <trkpt lat="45.62034" lon="6.51016">
        <ele>2073.22</ele>
        <time>2020-09-13T09:42:51Z</time>
      </trkpt>
      <trkpt lat="45.62036" lon="6.51023">
        <ele>2071.3</ele>
        <time>2020-09-13T09:43:02Z</time>
      </trkpt>
      <trkpt lat="45.62037" lon="6.51027">
        <ele>2069.86</ele>
        <time>2020-09-13T09:43:14Z</time>
      </trkpt>
      <trkpt lat="45.62037" lon="6.51034">
        <ele>2067.93</ele>
        <time>2020-09-13T09:43:23Z</time>
      </trkpt>
      <trkpt lat="45.62038" lon="6.5104">
        <ele>2065.53</ele>
        <time>2020-09-13T09:43:34Z</time>
      </trkpt>
      <trkpt lat="45.62041" lon="6.5104">
        <ele>2063.61</ele>
        <time>2020-09-13T09:43:48Z</time>
      </trkpt>
      <trkpt lat="45.62041" lon="6.51041">
        <ele>2063.61</ele>
        <time>2020-09-13T09:43:49Z</time>
      </trkpt>
      <trkpt lat="45.62045" lon="6.51047">
        <ele>2061.2</ele>
        <time>2020-09-13T09:44:05Z</time>
      </trkpt>
      <trkpt lat="45.62045" lon="6.51054">
        <ele>2059.28</ele>
        <time>2020-09-13T09:44:16Z</time>
      </trkpt>
      <trkpt lat="45.62048" lon="6.51056">
        <ele>2055.92</ele>
        <time>2020-09-13T09:44:28Z</time>
      </trkpt>
      <trkpt lat="45.6205" lon="6.51061">
        <ele>2053.99</ele>
        <time>2020-09-13T09:44:41Z</time>
      </trkpt>
      <trkpt lat="45.62051" lon="6.51063">
        <ele>2052.55</ele>
        <time>2020-09-13T09:44:47Z</time>
      </trkpt>
      <trkpt lat="45.62051" lon="6.51067">
        <ele>2051.11</ele>
        <time>2020-09-13T09:44:50Z</time>
      </trkpt>
      <trkpt lat="45.62053" lon="6.51075">
        <ele>2048.71</ele>
        <time>2020-09-13T09:45:02Z</time>
      </trkpt>
      <trkpt lat="45.62055" lon="6.51079">
        <ele>2047.75</ele>
        <time>2020-09-13T09:45:08Z</time>
      </trkpt>
      <trkpt lat="45.62055" lon="6.51087">
        <ele>2045.82</ele>
        <time>2020-09-13T09:45:15Z</time>
      </trkpt>
      <trkpt lat="45.62058" lon="6.51094">
        <ele>2041.98</ele>
        <time>2020-09-13T09:45:28Z</time>
      </trkpt>
      <trkpt lat="45.6206" lon="6.51106">
        <ele>2039.09</ele>
        <time>2020-09-13T09:45:41Z</time>
      </trkpt>
      <trkpt lat="45.62061" lon="6.51107">
        <ele>2038.61</ele>
        <time>2020-09-13T09:45:42Z</time>
      </trkpt>
      <trkpt lat="45.62062" lon="6.51109">
        <ele>2038.13</ele>
        <time>2020-09-13T09:45:45Z</time>
      </trkpt>
      <trkpt lat="45.62063" lon="6.51113">
        <ele>2037.17</ele>
        <time>2020-09-13T09:45:48Z</time>
      </trkpt>
      <trkpt lat="45.62063" lon="6.51115">
        <ele>2036.69</ele>
        <time>2020-09-13T09:45:50Z</time>
      </trkpt>
      <trkpt lat="45.62064" lon="6.5112">
        <ele>2035.73</ele>
        <time>2020-09-13T09:45:53Z</time>
      </trkpt>
      <trkpt lat="45.62067" lon="6.51127">
        <ele>2032.36</ele>
        <time>2020-09-13T09:46:05Z</time>
      </trkpt>
      <trkpt lat="45.62067" lon="6.51128">
        <ele>2031.4</ele>
        <time>2020-09-13T09:46:09Z</time>
      </trkpt>
      <trkpt lat="45.62067" lon="6.51136">
        <ele>2029</ele>
        <time>2020-09-13T09:46:20Z</time>
      </trkpt>
      <trkpt lat="45.62068" lon="6.51136">
        <ele>2028.52</ele>
        <time>2020-09-13T09:46:22Z</time>
      </trkpt>
      <trkpt lat="45.62069" lon="6.51135">
        <ele>2028.04</ele>
        <time>2020-09-13T09:46:24Z</time>
      </trkpt>
      <trkpt lat="45.62074" lon="6.51127">
        <ele>2024.67</ele>
        <time>2020-09-13T09:46:36Z</time>
      </trkpt>
      <trkpt lat="45.62075" lon="6.51125">
        <ele>2022.27</ele>
        <time>2020-09-13T09:46:44Z</time>
      </trkpt>
      <trkpt lat="45.62081" lon="6.51123">
        <ele>2020.35</ele>
        <time>2020-09-13T09:46:56Z</time>
      </trkpt>
      <trkpt lat="45.62086" lon="6.51119">
        <ele>2016.98</ele>
        <time>2020-09-13T09:47:07Z</time>
      </trkpt>
      <trkpt lat="45.6209" lon="6.51119">
        <ele>2014.58</ele>
        <time>2020-09-13T09:47:16Z</time>
      </trkpt>
      <trkpt lat="45.62091" lon="6.51118">
        <ele>2014.1</ele>
        <time>2020-09-13T09:47:18Z</time>
      </trkpt>
      <trkpt lat="45.62096" lon="6.51122">
        <ele>2011.7</ele>
        <time>2020-09-13T09:47:31Z</time>
      </trkpt>
      <trkpt lat="45.62099" lon="6.51127">
        <ele>2009.29</ele>
        <time>2020-09-13T09:47:41Z</time>
      </trkpt>
      <trkpt lat="45.62099" lon="6.5113">
        <ele>2008.33</ele>
        <time>2020-09-13T09:47:49Z</time>
      </trkpt>
      <trkpt lat="45.62102" lon="6.51131">
        <ele>2005.93</ele>
        <time>2020-09-13T09:48:00Z</time>
      </trkpt>
      <trkpt lat="45.62107" lon="6.51135">
        <ele>2004.01</ele>
        <time>2020-09-13T09:48:10Z</time>
      </trkpt>
      <trkpt lat="45.62107" lon="6.51136">
        <ele>2004.01</ele>
        <time>2020-09-13T09:48:11Z</time>
      </trkpt>
      <trkpt lat="45.62106" lon="6.51137">
        <ele>2003.04</ele>
        <time>2020-09-13T09:48:15Z</time>
      </trkpt>
      <trkpt lat="45.62109" lon="6.51147">
        <ele>2001.12</ele>
        <time>2020-09-13T09:48:24Z</time>
      </trkpt>
      <trkpt lat="45.62111" lon="6.51164">
        <ele>1998.24</ele>
        <time>2020-09-13T09:48:36Z</time>
      </trkpt>
      <trkpt lat="45.62111" lon="6.51172">
        <ele>1997.28</ele>
        <time>2020-09-13T09:48:41Z</time>
      </trkpt>
      <trkpt lat="45.6211" lon="6.5118">
        <ele>1996.8</ele>
        <time>2020-09-13T09:48:45Z</time>
      </trkpt>
      <trkpt lat="45.62109" lon="6.51188">
        <ele>1995.35</ele>
        <time>2020-09-13T09:48:52Z</time>
      </trkpt>
      <trkpt lat="45.62109" lon="6.51192">
        <ele>1995.35</ele>
        <time>2020-09-13T09:48:55Z</time>
      </trkpt>
      <trkpt lat="45.6211" lon="6.51209">
        <ele>1993.43</ele>
        <time>2020-09-13T09:49:03Z</time>
      </trkpt>
      <trkpt lat="45.6211" lon="6.51213">
        <ele>1992.95</ele>
        <time>2020-09-13T09:49:06Z</time>
      </trkpt>
      <trkpt lat="45.6211" lon="6.51223">
        <ele>1991.99</ele>
        <time>2020-09-13T09:49:13Z</time>
      </trkpt>
      <trkpt lat="45.62111" lon="6.51226">
        <ele>1991.99</ele>
        <time>2020-09-13T09:49:15Z</time>
      </trkpt>
      <trkpt lat="45.6211" lon="6.51228">
        <ele>1990.07</ele>
        <time>2020-09-13T09:49:21Z</time>
      </trkpt>
      <trkpt lat="45.62113" lon="6.51217">
        <ele>1988.14</ele>
        <time>2020-09-13T09:49:30Z</time>
      </trkpt>
      <trkpt lat="45.62115" lon="6.51214">
        <ele>1987.18</ele>
        <time>2020-09-13T09:49:33Z</time>
      </trkpt>
      <trkpt lat="45.62119" lon="6.51204">
        <ele>1986.22</ele>
        <time>2020-09-13T09:49:39Z</time>
      </trkpt>
      <trkpt lat="45.62121" lon="6.512">
        <ele>1985.74</ele>
        <time>2020-09-13T09:49:43Z</time>
      </trkpt>
      <trkpt lat="45.62124" lon="6.51192">
        <ele>1984.3</ele>
        <time>2020-09-13T09:49:49Z</time>
      </trkpt>
      <trkpt lat="45.6213" lon="6.51183">
        <ele>1981.9</ele>
        <time>2020-09-13T09:49:59Z</time>
      </trkpt>
      <trkpt lat="45.62141" lon="6.51164">
        <ele>1978.53</ele>
        <time>2020-09-13T09:50:12Z</time>
      </trkpt>
      <trkpt lat="45.6215" lon="6.51153">
        <ele>1976.61</ele>
        <time>2020-09-13T09:50:24Z</time>
      </trkpt>
      <trkpt lat="45.62155" lon="6.51147">
        <ele>1975.65</ele>
        <time>2020-09-13T09:50:38Z</time>
      </trkpt>
      <trkpt lat="45.62156" lon="6.51146">
        <ele>1975.17</ele>
        <time>2020-09-13T09:50:39Z</time>
      </trkpt>
      <trkpt lat="45.62162" lon="6.5115">
        <ele>1973.24</ele>
        <time>2020-09-13T09:50:48Z</time>
      </trkpt>
      <trkpt lat="45.62162" lon="6.51166">
        <ele>1971.32</ele>
        <time>2020-09-13T09:50:57Z</time>
      </trkpt>
      <trkpt lat="45.6216" lon="6.51172">
        <ele>1970.84</ele>
        <time>2020-09-13T09:51:01Z</time>
      </trkpt>
      <trkpt lat="45.62161" lon="6.51183">
        <ele>1969.4</ele>
        <time>2020-09-13T09:51:08Z</time>
      </trkpt>
      <trkpt lat="45.62159" lon="6.51194">
        <ele>1968.44</ele>
        <time>2020-09-13T09:51:13Z</time>
      </trkpt>
      <trkpt lat="45.62159" lon="6.51191">
        <ele>1966.51</ele>
        <time>2020-09-13T09:51:21Z</time>
      </trkpt>
      <trkpt lat="45.62166" lon="6.51174">
        <ele>1964.59</ele>
        <time>2020-09-13T09:51:33Z</time>
      </trkpt>
      <trkpt lat="45.62167" lon="6.51174">
        <ele>1964.11</ele>
        <time>2020-09-13T09:51:34Z</time>
      </trkpt>
      <trkpt lat="45.62177" lon="6.51168">
        <ele>1961.71</ele>
        <time>2020-09-13T09:51:44Z</time>
      </trkpt>
      <trkpt lat="45.62177" lon="6.51173">
        <ele>1961.71</ele>
        <time>2020-09-13T09:51:46Z</time>
      </trkpt>
      <trkpt lat="45.62175" lon="6.51188">
        <ele>1960.27</ele>
        <time>2020-09-13T09:51:55Z</time>
      </trkpt>
      <trkpt lat="45.62175" lon="6.51196">
        <ele>1958.34</ele>
        <time>2020-09-13T09:52:00Z</time>
      </trkpt>
      <trkpt lat="45.62178" lon="6.51207">
        <ele>1954.98</ele>
        <time>2020-09-13T09:52:11Z</time>
      </trkpt>
      <trkpt lat="45.62179" lon="6.51215">
        <ele>1953.54</ele>
        <time>2020-09-13T09:52:17Z</time>
      </trkpt>
      <trkpt lat="45.62182" lon="6.51216">
        <ele>1951.13</ele>
        <time>2020-09-13T09:52:29Z</time>
      </trkpt>
      <trkpt lat="45.62182" lon="6.51219">
        <ele>1951.13</ele>
        <time>2020-09-13T09:52:31Z</time>
      </trkpt>
      <trkpt lat="45.62181" lon="6.51231">
        <ele>1947.77</ele>
        <time>2020-09-13T09:52:40Z</time>
      </trkpt>
      <trkpt lat="45.62181" lon="6.51239">
        <ele>1946.81</ele>
        <time>2020-09-13T09:52:44Z</time>
      </trkpt>
      <trkpt lat="45.62182" lon="6.51243">
        <ele>1946.33</ele>
        <time>2020-09-13T09:52:46Z</time>
      </trkpt>
      <trkpt lat="45.62182" lon="6.51254">
        <ele>1943.92</ele>
        <time>2020-09-13T09:52:54Z</time>
      </trkpt>
      <trkpt lat="45.62183" lon="6.5126">
        <ele>1942</ele>
        <time>2020-09-13T09:53:04Z</time>
      </trkpt>
      <trkpt lat="45.62182" lon="6.51269">
        <ele>1941.04</ele>
        <time>2020-09-13T09:53:09Z</time>
      </trkpt>
      <trkpt lat="45.62183" lon="6.51274">
        <ele>1939.12</ele>
        <time>2020-09-13T09:53:14Z</time>
      </trkpt>
      <trkpt lat="45.62185" lon="6.51287">
        <ele>1935.27</ele>
        <time>2020-09-13T09:53:28Z</time>
      </trkpt>
      <trkpt lat="45.62186" lon="6.51292">
        <ele>1933.35</ele>
        <time>2020-09-13T09:53:35Z</time>
      </trkpt>
      <trkpt lat="45.62187" lon="6.51295">
        <ele>1931.91</ele>
        <time>2020-09-13T09:53:39Z</time>
      </trkpt>
      <trkpt lat="45.62188" lon="6.51305">
        <ele>1929.5</ele>
        <time>2020-09-13T09:53:50Z</time>
      </trkpt>
      <trkpt lat="45.62189" lon="6.51305">
        <ele>1929.5</ele>
        <time>2020-09-13T09:53:51Z</time>
      </trkpt>
      <trkpt lat="45.6219" lon="6.51313">
        <ele>1926.62</ele>
        <time>2020-09-13T09:54:02Z</time>
      </trkpt>
      <trkpt lat="45.6219" lon="6.51325">
        <ele>1923.25</ele>
        <time>2020-09-13T09:54:13Z</time>
      </trkpt>
      <trkpt lat="45.6219" lon="6.51329">
        <ele>1921.81</ele>
        <time>2020-09-13T09:54:18Z</time>
      </trkpt>
      <trkpt lat="45.62189" lon="6.51334">
        <ele>1919.41</ele>
        <time>2020-09-13T09:54:28Z</time>
      </trkpt>
      <trkpt lat="45.62192" lon="6.51333">
        <ele>1917.01</ele>
        <time>2020-09-13T09:54:40Z</time>
      </trkpt>
      <trkpt lat="45.62195" lon="6.51342">
        <ele>1914.6</ele>
        <time>2020-09-13T09:54:52Z</time>
      </trkpt>
      <trkpt lat="45.62196" lon="6.51346">
        <ele>1912.68</ele>
        <time>2020-09-13T09:54:59Z</time>
      </trkpt>
      <trkpt lat="45.62196" lon="6.51353">
        <ele>1910.76</ele>
        <time>2020-09-13T09:55:08Z</time>
      </trkpt>
      <trkpt lat="45.62193" lon="6.51358">
        <ele>1907.87</ele>
        <time>2020-09-13T09:55:21Z</time>
      </trkpt>
      <trkpt lat="45.62194" lon="6.51364">
        <ele>1904.99</ele>
        <time>2020-09-13T09:55:33Z</time>
      </trkpt>
      <trkpt lat="45.62194" lon="6.51366">
        <ele>1904.51</ele>
        <time>2020-09-13T09:55:35Z</time>
      </trkpt>
      <trkpt lat="45.62194" lon="6.51373">
        <ele>1901.63</ele>
        <time>2020-09-13T09:55:47Z</time>
      </trkpt>
      <trkpt lat="45.62194" lon="6.51379">
        <ele>1899.7</ele>
        <time>2020-09-13T09:55:59Z</time>
      </trkpt>
      <trkpt lat="45.62194" lon="6.51387">
        <ele>1897.3</ele>
        <time>2020-09-13T09:56:11Z</time>
      </trkpt>
      <trkpt lat="45.62198" lon="6.51393">
        <ele>1895.38</ele>
        <time>2020-09-13T09:56:22Z</time>
      </trkpt>
      <trkpt lat="45.62198" lon="6.51393">
        <ele>1895.38</ele>
        <time>2020-09-13T09:56:24Z</time>
      </trkpt>
      <trkpt lat="45.62198" lon="6.51398">
        <ele>1894.42</ele>
        <time>2020-09-13T09:56:29Z</time>
      </trkpt>
      <trkpt lat="45.62201" lon="6.51401">
        <ele>1892.01</ele>
        <time>2020-09-13T09:56:41Z</time>
      </trkpt>
      <trkpt lat="45.62205" lon="6.51405">
        <ele>1890.57</ele>
        <time>2020-09-13T09:56:52Z</time>
      </trkpt>
      <trkpt lat="45.62212" lon="6.51415">
        <ele>1887.21</ele>
        <time>2020-09-13T09:57:06Z</time>
      </trkpt>
      <trkpt lat="45.62216" lon="6.51425">
        <ele>1884.8</ele>
        <time>2020-09-13T09:57:20Z</time>
      </trkpt>
      <trkpt lat="45.62216" lon="6.51427">
        <ele>1884.32</ele>
        <time>2020-09-13T09:57:21Z</time>
      </trkpt>
      <trkpt lat="45.62219" lon="6.51437">
        <ele>1881.92</ele>
        <time>2020-09-13T09:57:27Z</time>
      </trkpt>
      <trkpt lat="45.62219" lon="6.51443">
        <ele>1880.96</ele>
        <time>2020-09-13T09:57:32Z</time>
      </trkpt>
      <trkpt lat="45.62219" lon="6.51456">
        <ele>1880</ele>
        <time>2020-09-13T09:57:37Z</time>
      </trkpt>
      <trkpt lat="45.6222" lon="6.51469">
        <ele>1876.63</ele>
        <time>2020-09-13T09:57:48Z</time>
      </trkpt>
      <trkpt lat="45.62223" lon="6.51478">
        <ele>1874.71</ele>
        <time>2020-09-13T09:57:57Z</time>
      </trkpt>
      <trkpt lat="45.62222" lon="6.51482">
        <ele>1873.75</ele>
        <time>2020-09-13T09:58:00Z</time>
      </trkpt>
      <trkpt lat="45.62224" lon="6.51491">
        <ele>1871.82</ele>
        <time>2020-09-13T09:58:07Z</time>
      </trkpt>
      <trkpt lat="45.6222" lon="6.51504">
        <ele>1868.46</ele>
        <time>2020-09-13T09:58:17Z</time>
      </trkpt>
      <trkpt lat="45.6222" lon="6.51506">
        <ele>1867.98</ele>
        <time>2020-09-13T09:58:19Z</time>
      </trkpt>
      <trkpt lat="45.6222" lon="6.5151">
        <ele>1867.02</ele>
        <time>2020-09-13T09:58:22Z</time>
      </trkpt>
      <trkpt lat="45.62219" lon="6.51513">
        <ele>1866.54</ele>
        <time>2020-09-13T09:58:25Z</time>
      </trkpt>
      <trkpt lat="45.62221" lon="6.51519">
        <ele>1865.09</ele>
        <time>2020-09-13T09:58:30Z</time>
      </trkpt>
      <trkpt lat="45.6222" lon="6.51522">
        <ele>1865.09</ele>
        <time>2020-09-13T09:58:33Z</time>
      </trkpt>
      <trkpt lat="45.62217" lon="6.51535">
        <ele>1863.17</ele>
        <time>2020-09-13T09:58:40Z</time>
      </trkpt>
      <trkpt lat="45.62221" lon="6.51549">
        <ele>1860.29</ele>
        <time>2020-09-13T09:58:50Z</time>
      </trkpt>
      <trkpt lat="45.62222" lon="6.51556">
        <ele>1858.85</ele>
        <time>2020-09-13T09:58:55Z</time>
      </trkpt>
      <trkpt lat="45.62221" lon="6.51565">
        <ele>1856.44</ele>
        <time>2020-09-13T09:59:06Z</time>
      </trkpt>
      <trkpt lat="45.62222" lon="6.51571">
        <ele>1855.48</ele>
        <time>2020-09-13T09:59:11Z</time>
      </trkpt>
      <trkpt lat="45.62225" lon="6.5158">
        <ele>1853.56</ele>
        <time>2020-09-13T09:59:19Z</time>
      </trkpt>
      <trkpt lat="45.62225" lon="6.51589">
        <ele>1851.64</ele>
        <time>2020-09-13T09:59:30Z</time>
      </trkpt>
      <trkpt lat="45.62224" lon="6.51589">
        <ele>1851.64</ele>
        <time>2020-09-13T09:59:32Z</time>
      </trkpt>
      <trkpt lat="45.62229" lon="6.51595">
        <ele>1850.68</ele>
        <time>2020-09-13T09:59:43Z</time>
      </trkpt>
      <trkpt lat="45.62233" lon="6.51605">
        <ele>1850.68</ele>
        <time>2020-09-13T09:59:55Z</time>
      </trkpt>
      <trkpt lat="45.62239" lon="6.51611">
        <ele>1849.71</ele>
        <time>2020-09-13T10:00:05Z</time>
      </trkpt>
      <trkpt lat="45.62252" lon="6.5163">
        <ele>1846.83</ele>
        <time>2020-09-13T10:00:19Z</time>
      </trkpt>
      <trkpt lat="45.62254" lon="6.51631">
        <ele>1845.87</ele>
        <time>2020-09-13T10:00:22Z</time>
      </trkpt>
      <trkpt lat="45.62261" lon="6.51646">
        <ele>1843.95</ele>
        <time>2020-09-13T10:00:35Z</time>
      </trkpt>
      <trkpt lat="45.62263" lon="6.51644">
        <ele>1843.95</ele>
        <time>2020-09-13T10:00:38Z</time>
      </trkpt>
      <trkpt lat="45.62264" lon="6.51644">
        <ele>1843.47</ele>
        <time>2020-09-13T10:00:40Z</time>
      </trkpt>
      <trkpt lat="45.62271" lon="6.51651">
        <ele>1841.54</ele>
        <time>2020-09-13T10:00:51Z</time>
      </trkpt>
      <trkpt lat="45.62278" lon="6.51664">
        <ele>1841.06</ele>
        <time>2020-09-13T10:01:02Z</time>
      </trkpt>
      <trkpt lat="45.62278" lon="6.51664">
        <ele>1840.58</ele>
        <time>2020-09-13T10:01:03Z</time>
      </trkpt>
      <trkpt lat="45.62281" lon="6.51668">
        <ele>1840.1</ele>
        <time>2020-09-13T10:01:16Z</time>
      </trkpt>
      <trkpt lat="45.62283" lon="6.5167">
        <ele>1840.58</ele>
        <time>2020-09-13T10:01:31Z</time>
      </trkpt>
      <trkpt lat="45.6228" lon="6.51667">
        <ele>1840.58</ele>
        <time>2020-09-13T10:01:45Z</time>
      </trkpt>
      <trkpt lat="45.62284" lon="6.51678">
        <ele>1842.5</ele>
        <time>2020-09-13T10:01:56Z</time>
      </trkpt>
      <trkpt lat="45.62289" lon="6.51687">
        <ele>1843.47</ele>
        <time>2020-09-13T10:02:06Z</time>
      </trkpt>
      <trkpt lat="45.62297" lon="6.51698">
        <ele>1844.91</ele>
        <time>2020-09-13T10:02:18Z</time>
      </trkpt>
      <trkpt lat="45.62298" lon="6.51698">
        <ele>1844.91</ele>
        <time>2020-09-13T10:02:19Z</time>
      </trkpt>
      <trkpt lat="45.62302" lon="6.517">
        <ele>1844.91</ele>
        <time>2020-09-13T10:02:23Z</time>
      </trkpt>
      <trkpt lat="45.62311" lon="6.51717">
        <ele>1845.87</ele>
        <time>2020-09-13T10:02:36Z</time>
      </trkpt>
      <trkpt lat="45.62312" lon="6.5172">
        <ele>1845.87</ele>
        <time>2020-09-13T10:02:38Z</time>
      </trkpt>
      <trkpt lat="45.6232" lon="6.51735">
        <ele>1847.31</ele>
        <time>2020-09-13T10:02:52Z</time>
      </trkpt>
      <trkpt lat="45.62322" lon="6.51737">
        <ele>1847.79</ele>
        <time>2020-09-13T10:02:56Z</time>
      </trkpt>
      <trkpt lat="45.62328" lon="6.51748">
        <ele>1848.75</ele>
        <time>2020-09-13T10:03:08Z</time>
      </trkpt>
      <trkpt lat="45.62329" lon="6.51752">
        <ele>1848.75</ele>
        <time>2020-09-13T10:03:10Z</time>
      </trkpt>
      <trkpt lat="45.62337" lon="6.51769">
        <ele>1849.23</ele>
        <time>2020-09-13T10:03:20Z</time>
      </trkpt>
      <trkpt lat="45.62345" lon="6.51784">
        <ele>1851.64</ele>
        <time>2020-09-13T10:03:34Z</time>
      </trkpt>
      <trkpt lat="45.62348" lon="6.51799">
        <ele>1852.6</ele>
        <time>2020-09-13T10:03:46Z</time>
      </trkpt>
      <trkpt lat="45.62348" lon="6.51819">
        <ele>1854.52</ele>
        <time>2020-09-13T10:03:58Z</time>
      </trkpt>
      <trkpt lat="45.62349" lon="6.51834">
        <ele>1856.44</ele>
        <time>2020-09-13T10:04:09Z</time>
      </trkpt>
      <trkpt lat="45.62349" lon="6.5184">
        <ele>1857.89</ele>
        <time>2020-09-13T10:04:18Z</time>
      </trkpt>
      <trkpt lat="45.62352" lon="6.51849">
        <ele>1856.92</ele>
        <time>2020-09-13T10:04:32Z</time>
      </trkpt>
      <trkpt lat="45.62354" lon="6.51861">
        <ele>1856.92</ele>
        <time>2020-09-13T10:04:43Z</time>
      </trkpt>
      <trkpt lat="45.62354" lon="6.51862">
        <ele>1858.37</ele>
        <time>2020-09-13T10:04:46Z</time>
      </trkpt>
      <trkpt lat="45.6235" lon="6.51868">
        <ele>1860.29</ele>
        <time>2020-09-13T10:04:57Z</time>
      </trkpt>
      <trkpt lat="45.62347" lon="6.51878">
        <ele>1861.73</ele>
        <time>2020-09-13T10:05:12Z</time>
      </trkpt>
      <trkpt lat="45.62348" lon="6.5188">
        <ele>1861.73</ele>
        <time>2020-09-13T10:05:16Z</time>
      </trkpt>
      <trkpt lat="45.6235" lon="6.51898">
        <ele>1863.17</ele>
        <time>2020-09-13T10:05:28Z</time>
      </trkpt>
      <trkpt lat="45.62348" lon="6.51904">
        <ele>1863.65</ele>
        <time>2020-09-13T10:05:43Z</time>
      </trkpt>
      <trkpt lat="45.62348" lon="6.51908">
        <ele>1865.09</ele>
        <time>2020-09-13T10:05:52Z</time>
      </trkpt>
      <trkpt lat="45.62346" lon="6.51915">
        <ele>1867.02</ele>
        <time>2020-09-13T10:06:04Z</time>
      </trkpt>
      <trkpt lat="45.62349" lon="6.51921">
        <ele>1868.46</ele>
        <time>2020-09-13T10:06:11Z</time>
      </trkpt>
      <trkpt lat="45.62346" lon="6.51934">
        <ele>1869.42</ele>
        <time>2020-09-13T10:06:21Z</time>
      </trkpt>
      <trkpt lat="45.62347" lon="6.51945">
        <ele>1871.34</ele>
        <time>2020-09-13T10:06:33Z</time>
      </trkpt>
      <trkpt lat="45.62347" lon="6.51954">
        <ele>1871.82</ele>
        <time>2020-09-13T10:06:41Z</time>
      </trkpt>
      <trkpt lat="45.62348" lon="6.51959">
        <ele>1872.3</ele>
        <time>2020-09-13T10:06:44Z</time>
      </trkpt>
      <trkpt lat="45.62343" lon="6.51965">
        <ele>1874.71</ele>
        <time>2020-09-13T10:06:54Z</time>
      </trkpt>
      <trkpt lat="45.6234" lon="6.51971">
        <ele>1876.15</ele>
        <time>2020-09-13T10:07:05Z</time>
      </trkpt>
      <trkpt lat="45.62336" lon="6.51979">
        <ele>1877.59</ele>
        <time>2020-09-13T10:07:16Z</time>
      </trkpt>
      <trkpt lat="45.62332" lon="6.51985">
        <ele>1879.51</ele>
        <time>2020-09-13T10:07:27Z</time>
      </trkpt>
      <trkpt lat="45.62334" lon="6.51991">
        <ele>1880.48</ele>
        <time>2020-09-13T10:07:33Z</time>
      </trkpt>
      <trkpt lat="45.62327" lon="6.51993">
        <ele>1881.44</ele>
        <time>2020-09-13T10:07:42Z</time>
      </trkpt>
      <trkpt lat="45.62325" lon="6.52001">
        <ele>1883.36</ele>
        <time>2020-09-13T10:07:53Z</time>
      </trkpt>
      <trkpt lat="45.62326" lon="6.52009">
        <ele>1885.28</ele>
        <time>2020-09-13T10:08:03Z</time>
      </trkpt>
      <trkpt lat="45.62327" lon="6.52015">
        <ele>1888.17</ele>
        <time>2020-09-13T10:08:14Z</time>
      </trkpt>
      <trkpt lat="45.62327" lon="6.52021">
        <ele>1889.13</ele>
        <time>2020-09-13T10:08:23Z</time>
      </trkpt>
      <trkpt lat="45.62326" lon="6.52022">
        <ele>1889.13</ele>
        <time>2020-09-13T10:08:25Z</time>
      </trkpt>
      <trkpt lat="45.62325" lon="6.52028">
        <ele>1890.57</ele>
        <time>2020-09-13T10:08:38Z</time>
      </trkpt>
      <trkpt lat="45.62324" lon="6.52032">
        <ele>1891.53</ele>
        <time>2020-09-13T10:08:44Z</time>
      </trkpt>
      <trkpt lat="45.62322" lon="6.52036">
        <ele>1892.49</ele>
        <time>2020-09-13T10:08:51Z</time>
      </trkpt>
      <trkpt lat="45.62325" lon="6.52041">
        <ele>1892.97</ele>
        <time>2020-09-13T10:08:54Z</time>
      </trkpt>
      <trkpt lat="45.62326" lon="6.52047">
        <ele>1893.45</ele>
        <time>2020-09-13T10:08:58Z</time>
      </trkpt>
      <trkpt lat="45.62324" lon="6.52056">
        <ele>1895.38</ele>
        <time>2020-09-13T10:09:10Z</time>
      </trkpt>
      <trkpt lat="45.62323" lon="6.52065">
        <ele>1897.3</ele>
        <time>2020-09-13T10:09:21Z</time>
      </trkpt>
      <trkpt lat="45.62325" lon="6.5207">
        <ele>1899.22</ele>
        <time>2020-09-13T10:09:31Z</time>
      </trkpt>
      <trkpt lat="45.62325" lon="6.5207">
        <ele>1899.22</ele>
        <time>2020-09-13T10:09:32Z</time>
      </trkpt>
      <trkpt lat="45.62324" lon="6.52073">
        <ele>1900.18</ele>
        <time>2020-09-13T10:09:36Z</time>
      </trkpt>
      <trkpt lat="45.62323" lon="6.5208">
        <ele>1902.11</ele>
        <time>2020-09-13T10:09:47Z</time>
      </trkpt>
      <trkpt lat="45.62319" lon="6.52084">
        <ele>1903.55</ele>
        <time>2020-09-13T10:09:56Z</time>
      </trkpt>
      <trkpt lat="45.62317" lon="6.52087">
        <ele>1904.99</ele>
        <time>2020-09-13T10:10:07Z</time>
      </trkpt>
      <trkpt lat="45.62317" lon="6.52094">
        <ele>1907.39</ele>
        <time>2020-09-13T10:10:17Z</time>
      </trkpt>
      <trkpt lat="45.62319" lon="6.52101">
        <ele>1908.83</ele>
        <time>2020-09-13T10:10:27Z</time>
      </trkpt>
      <trkpt lat="45.62317" lon="6.52103">
        <ele>1910.76</ele>
        <time>2020-09-13T10:10:38Z</time>
      </trkpt>
      <trkpt lat="45.62317" lon="6.52106">
        <ele>1910.76</ele>
        <time>2020-09-13T10:10:42Z</time>
      </trkpt>
      <trkpt lat="45.62313" lon="6.52114">
        <ele>1913.64</ele>
        <time>2020-09-13T10:10:53Z</time>
      </trkpt>
      <trkpt lat="45.62313" lon="6.52119">
        <ele>1916.04</ele>
        <time>2020-09-13T10:11:05Z</time>
      </trkpt>
      <trkpt lat="45.62313" lon="6.52121">
        <ele>1916.53</ele>
        <time>2020-09-13T10:11:08Z</time>
      </trkpt>
      <trkpt lat="45.62312" lon="6.52127">
        <ele>1917.01</ele>
        <time>2020-09-13T10:11:14Z</time>
      </trkpt>
      <trkpt lat="45.62312" lon="6.52129">
        <ele>1918.45</ele>
        <time>2020-09-13T10:11:24Z</time>
      </trkpt>
      <trkpt lat="45.62312" lon="6.5213">
        <ele>1918.45</ele>
        <time>2020-09-13T10:11:25Z</time>
      </trkpt>
      <trkpt lat="45.62309" lon="6.52139">
        <ele>1920.37</ele>
        <time>2020-09-13T10:11:37Z</time>
      </trkpt>
      <trkpt lat="45.62305" lon="6.52141">
        <ele>1921.81</ele>
        <time>2020-09-13T10:11:46Z</time>
      </trkpt>
      <trkpt lat="45.62305" lon="6.52142">
        <ele>1922.29</ele>
        <time>2020-09-13T10:11:49Z</time>
      </trkpt>
      <trkpt lat="45.62307" lon="6.52149">
        <ele>1923.25</ele>
        <time>2020-09-13T10:11:57Z</time>
      </trkpt>
      <trkpt lat="45.62307" lon="6.52153">
        <ele>1925.18</ele>
        <time>2020-09-13T10:12:03Z</time>
      </trkpt>
      <trkpt lat="45.62307" lon="6.52162">
        <ele>1926.14</ele>
        <time>2020-09-13T10:12:13Z</time>
      </trkpt>
      <trkpt lat="45.62307" lon="6.52162">
        <ele>1926.62</ele>
        <time>2020-09-13T10:12:14Z</time>
      </trkpt>
      <trkpt lat="45.62306" lon="6.52175">
        <ele>1929.02</ele>
        <time>2020-09-13T10:12:26Z</time>
      </trkpt>
      <trkpt lat="45.62306" lon="6.52178">
        <ele>1929.5</ele>
        <time>2020-09-13T10:12:30Z</time>
      </trkpt>
      <trkpt lat="45.62303" lon="6.5218">
        <ele>1930.46</ele>
        <time>2020-09-13T10:12:36Z</time>
      </trkpt>
      <trkpt lat="45.62302" lon="6.5218">
        <ele>1931.43</ele>
        <time>2020-09-13T10:12:45Z</time>
      </trkpt>
      <trkpt lat="45.62299" lon="6.52186">
        <ele>1933.35</ele>
        <time>2020-09-13T10:12:55Z</time>
      </trkpt>
      <trkpt lat="45.62298" lon="6.52196">
        <ele>1935.27</ele>
        <time>2020-09-13T10:13:05Z</time>
      </trkpt>
      <trkpt lat="45.62297" lon="6.52201">
        <ele>1937.19</ele>
        <time>2020-09-13T10:13:17Z</time>
      </trkpt>
      <trkpt lat="45.62295" lon="6.52203">
        <ele>1938.16</ele>
        <time>2020-09-13T10:13:26Z</time>
      </trkpt>
      <trkpt lat="45.62292" lon="6.52207">
        <ele>1940.56</ele>
        <time>2020-09-13T10:13:37Z</time>
      </trkpt>
      <trkpt lat="45.62291" lon="6.5221">
        <ele>1942</ele>
        <time>2020-09-13T10:13:48Z</time>
      </trkpt>
      <trkpt lat="45.6229" lon="6.52219">
        <ele>1943.92</ele>
        <time>2020-09-13T10:13:59Z</time>
      </trkpt>
      <trkpt lat="45.62286" lon="6.52225">
        <ele>1945.85</ele>
        <time>2020-09-13T10:14:10Z</time>
      </trkpt>
      <trkpt lat="45.62287" lon="6.52228">
        <ele>1946.81</ele>
        <time>2020-09-13T10:14:22Z</time>
      </trkpt>
      <trkpt lat="45.62285" lon="6.52236">
        <ele>1948.73</ele>
        <time>2020-09-13T10:14:33Z</time>
      </trkpt>
      <trkpt lat="45.62287" lon="6.52248">
        <ele>1951.13</ele>
        <time>2020-09-13T10:14:44Z</time>
      </trkpt>
      <trkpt lat="45.62287" lon="6.52252">
        <ele>1952.57</ele>
        <time>2020-09-13T10:14:51Z</time>
      </trkpt>
      <trkpt lat="45.62288" lon="6.52253">
        <ele>1952.09</ele>
        <time>2020-09-13T10:14:53Z</time>
      </trkpt>
      <trkpt lat="45.62289" lon="6.5226">
        <ele>1954.98</ele>
        <time>2020-09-13T10:15:05Z</time>
      </trkpt>
      <trkpt lat="45.6229" lon="6.52265">
        <ele>1956.42</ele>
        <time>2020-09-13T10:15:14Z</time>
      </trkpt>
      <trkpt lat="45.62287" lon="6.52274">
        <ele>1958.82</ele>
        <time>2020-09-13T10:15:24Z</time>
      </trkpt>
      <trkpt lat="45.62286" lon="6.52276">
        <ele>1959.3</ele>
        <time>2020-09-13T10:15:36Z</time>
      </trkpt>
      <trkpt lat="45.62283" lon="6.52276">
        <ele>1961.71</ele>
        <time>2020-09-13T10:15:47Z</time>
      </trkpt>
      <trkpt lat="45.62278" lon="6.52275">
        <ele>1962.67</ele>
        <time>2020-09-13T10:15:52Z</time>
      </trkpt>
      <trkpt lat="45.62271" lon="6.52278">
        <ele>1964.11</ele>
        <time>2020-09-13T10:16:05Z</time>
      </trkpt>
      <trkpt lat="45.62273" lon="6.52278">
        <ele>1963.63</ele>
        <time>2020-09-13T10:16:11Z</time>
      </trkpt>
      <trkpt lat="45.62269" lon="6.52281">
        <ele>1963.63</ele>
        <time>2020-09-13T10:16:14Z</time>
      </trkpt>
      <trkpt lat="45.62263" lon="6.52282">
        <ele>1964.59</ele>
        <time>2020-09-13T10:16:18Z</time>
      </trkpt>
      <trkpt lat="45.62254" lon="6.52286">
        <ele>1964.59</ele>
        <time>2020-09-13T10:16:30Z</time>
      </trkpt>
      <trkpt lat="45.62249" lon="6.52291">
        <ele>1964.11</ele>
        <time>2020-09-13T10:16:42Z</time>
      </trkpt>
      <trkpt lat="45.62248" lon="6.52291">
        <ele>1964.11</ele>
        <time>2020-09-13T10:16:48Z</time>
      </trkpt>
      <trkpt lat="45.62246" lon="6.52299">
        <ele>1964.59</ele>
        <time>2020-09-13T10:16:54Z</time>
      </trkpt>
      <trkpt lat="45.62239" lon="6.52309">
        <ele>1964.59</ele>
        <time>2020-09-13T10:17:05Z</time>
      </trkpt>
      <trkpt lat="45.62235" lon="6.52314">
        <ele>1964.59</ele>
        <time>2020-09-13T10:17:11Z</time>
      </trkpt>
      <trkpt lat="45.62235" lon="6.52326">
        <ele>1964.59</ele>
        <time>2020-09-13T10:17:22Z</time>
      </trkpt>
      <trkpt lat="45.62232" lon="6.52326">
        <ele>1964.59</ele>
        <time>2020-09-13T10:17:38Z</time>
      </trkpt>
      <trkpt lat="45.62231" lon="6.52328">
        <ele>1964.11</ele>
        <time>2020-09-13T10:17:41Z</time>
      </trkpt>
      <trkpt lat="45.62227" lon="6.52341">
        <ele>1961.71</ele>
        <time>2020-09-13T10:17:52Z</time>
      </trkpt>
      <trkpt lat="45.62226" lon="6.52347">
        <ele>1962.19</ele>
        <time>2020-09-13T10:17:59Z</time>
      </trkpt>
      <trkpt lat="45.62224" lon="6.5235">
        <ele>1962.67</ele>
        <time>2020-09-13T10:18:04Z</time>
      </trkpt>
      <trkpt lat="45.62225" lon="6.52352">
        <ele>1963.15</ele>
        <time>2020-09-13T10:18:07Z</time>
      </trkpt>
      <trkpt lat="45.62229" lon="6.5236">
        <ele>1964.59</ele>
        <time>2020-09-13T10:18:16Z</time>
      </trkpt>
      <trkpt lat="45.62229" lon="6.52371">
        <ele>1964.59</ele>
        <time>2020-09-13T10:18:26Z</time>
      </trkpt>
      <trkpt lat="45.62228" lon="6.52379">
        <ele>1965.55</ele>
        <time>2020-09-13T10:18:40Z</time>
      </trkpt>
      <trkpt lat="45.62228" lon="6.52381">
        <ele>1965.07</ele>
        <time>2020-09-13T10:18:41Z</time>
      </trkpt>
      <trkpt lat="45.62227" lon="6.52386">
        <ele>1966.51</ele>
        <time>2020-09-13T10:18:43Z</time>
      </trkpt>
      <trkpt lat="45.62227" lon="6.52393">
        <ele>1966.51</ele>
        <time>2020-09-13T10:18:47Z</time>
      </trkpt>
      <trkpt lat="45.62231" lon="6.5241">
        <ele>1965.55</ele>
        <time>2020-09-13T10:18:56Z</time>
      </trkpt>
      <trkpt lat="45.62232" lon="6.52413">
        <ele>1966.03</ele>
        <time>2020-09-13T10:18:58Z</time>
      </trkpt>
      <trkpt lat="45.62243" lon="6.52423">
        <ele>1964.59</ele>
        <time>2020-09-13T10:19:10Z</time>
      </trkpt>
      <trkpt lat="45.62258" lon="6.52426">
        <ele>1963.63</ele>
        <time>2020-09-13T10:19:22Z</time>
      </trkpt>
      <trkpt lat="45.62266" lon="6.52434">
        <ele>1964.59</ele>
        <time>2020-09-13T10:19:29Z</time>
      </trkpt>
      <trkpt lat="45.6227" lon="6.52435">
        <ele>1964.59</ele>
        <time>2020-09-13T10:19:32Z</time>
      </trkpt>
      <trkpt lat="45.62274" lon="6.52441">
        <ele>1964.11</ele>
        <time>2020-09-13T10:19:39Z</time>
      </trkpt>
      <trkpt lat="45.62275" lon="6.52445">
        <ele>1964.59</ele>
        <time>2020-09-13T10:19:42Z</time>
      </trkpt>
      <trkpt lat="45.62274" lon="6.52454">
        <ele>1964.59</ele>
        <time>2020-09-13T10:19:47Z</time>
      </trkpt>
      <trkpt lat="45.6227" lon="6.52472">
        <ele>1963.63</ele>
        <time>2020-09-13T10:19:58Z</time>
      </trkpt>
      <trkpt lat="45.62269" lon="6.52478">
        <ele>1962.67</ele>
        <time>2020-09-13T10:20:02Z</time>
      </trkpt>
      <trkpt lat="45.62267" lon="6.52483">
        <ele>1963.15</ele>
        <time>2020-09-13T10:20:07Z</time>
      </trkpt>
      <trkpt lat="45.62263" lon="6.52489">
        <ele>1964.59</ele>
        <time>2020-09-13T10:20:13Z</time>
      </trkpt>
      <trkpt lat="45.62258" lon="6.52493">
        <ele>1964.59</ele>
        <time>2020-09-13T10:20:17Z</time>
      </trkpt>
      <trkpt lat="45.62259" lon="6.52508">
        <ele>1966.51</ele>
        <time>2020-09-13T10:20:28Z</time>
      </trkpt>
      <trkpt lat="45.6226" lon="6.5251">
        <ele>1966.99</ele>
        <time>2020-09-13T10:20:30Z</time>
      </trkpt>
      <trkpt lat="45.62255" lon="6.52522">
        <ele>1968.44</ele>
        <time>2020-09-13T10:20:40Z</time>
      </trkpt>
      <trkpt lat="45.62255" lon="6.52523">
        <ele>1968.44</ele>
        <time>2020-09-13T10:20:41Z</time>
      </trkpt>
      <trkpt lat="45.6226" lon="6.52531">
        <ele>1969.4</ele>
        <time>2020-09-13T10:20:53Z</time>
      </trkpt>
      <trkpt lat="45.62257" lon="6.52534">
        <ele>1968.92</ele>
        <time>2020-09-13T10:20:58Z</time>
      </trkpt>
      <trkpt lat="45.62255" lon="6.52541">
        <ele>1969.4</ele>
        <time>2020-09-13T10:21:04Z</time>
      </trkpt>
      <trkpt lat="45.62255" lon="6.52548">
        <ele>1969.88</ele>
        <time>2020-09-13T10:21:08Z</time>
      </trkpt>
      <trkpt lat="45.62254" lon="6.52552">
        <ele>1969.88</ele>
        <time>2020-09-13T10:21:11Z</time>
      </trkpt>
      <trkpt lat="45.62253" lon="6.52553">
        <ele>1970.84</ele>
        <time>2020-09-13T10:21:14Z</time>
      </trkpt>
      <trkpt lat="45.62255" lon="6.5256">
        <ele>1971.8</ele>
        <time>2020-09-13T10:21:22Z</time>
      </trkpt>
      <trkpt lat="45.62252" lon="6.52567">
        <ele>1973.72</ele>
        <time>2020-09-13T10:21:33Z</time>
      </trkpt>
      <trkpt lat="45.62254" lon="6.52572">
        <ele>1975.65</ele>
        <time>2020-09-13T10:21:43Z</time>
      </trkpt>
      <trkpt lat="45.62255" lon="6.52579">
        <ele>1976.61</ele>
        <time>2020-09-13T10:21:53Z</time>
      </trkpt>
      <trkpt lat="45.62255" lon="6.5259">
        <ele>1977.57</ele>
        <time>2020-09-13T10:22:03Z</time>
      </trkpt>
      <trkpt lat="45.62257" lon="6.52601">
        <ele>1978.53</ele>
        <time>2020-09-13T10:22:16Z</time>
      </trkpt>
      <trkpt lat="45.62259" lon="6.5261">
        <ele>1979.01</ele>
        <time>2020-09-13T10:22:24Z</time>
      </trkpt>
      <trkpt lat="45.62257" lon="6.52612">
        <ele>1979.97</ele>
        <time>2020-09-13T10:22:35Z</time>
      </trkpt>
      <trkpt lat="45.62258" lon="6.52617">
        <ele>1980.93</ele>
        <time>2020-09-13T10:22:44Z</time>
      </trkpt>
      <trkpt lat="45.62258" lon="6.52619">
        <ele>1981.41</ele>
        <time>2020-09-13T10:22:52Z</time>
      </trkpt>
      <trkpt lat="45.62257" lon="6.52623">
        <ele>1981.41</ele>
        <time>2020-09-13T10:22:56Z</time>
      </trkpt>
      <trkpt lat="45.62254" lon="6.52633">
        <ele>1982.38</ele>
        <time>2020-09-13T10:23:06Z</time>
      </trkpt>
      <trkpt lat="45.62258" lon="6.52637">
        <ele>1984.78</ele>
        <time>2020-09-13T10:23:20Z</time>
      </trkpt>
      <trkpt lat="45.6226" lon="6.52642">
        <ele>1985.26</ele>
        <time>2020-09-13T10:23:23Z</time>
      </trkpt>
      <trkpt lat="45.62261" lon="6.52647">
        <ele>1986.22</ele>
        <time>2020-09-13T10:23:30Z</time>
      </trkpt>
      <trkpt lat="45.62261" lon="6.52652">
        <ele>1985.74</ele>
        <time>2020-09-13T10:23:35Z</time>
      </trkpt>
      <trkpt lat="45.62252" lon="6.52651">
        <ele>1987.66</ele>
        <time>2020-09-13T10:23:49Z</time>
      </trkpt>
      <trkpt lat="45.62248" lon="6.5265">
        <ele>1988.62</ele>
        <time>2020-09-13T10:23:58Z</time>
      </trkpt>
      <trkpt lat="45.62245" lon="6.5265">
        <ele>1989.1</ele>
        <time>2020-09-13T10:24:02Z</time>
      </trkpt>
      <trkpt lat="45.62238" lon="6.52653">
        <ele>1991.51</ele>
        <time>2020-09-13T10:24:12Z</time>
      </trkpt>
      <trkpt lat="45.62238" lon="6.52654">
        <ele>1991.99</ele>
        <time>2020-09-13T10:24:16Z</time>
      </trkpt>
      <trkpt lat="45.62232" lon="6.52654">
        <ele>1993.43</ele>
        <time>2020-09-13T10:24:27Z</time>
      </trkpt>
      <trkpt lat="45.62228" lon="6.52655">
        <ele>1994.39</ele>
        <time>2020-09-13T10:24:32Z</time>
      </trkpt>
      <trkpt lat="45.62227" lon="6.52655">
        <ele>1994.39</ele>
        <time>2020-09-13T10:24:34Z</time>
      </trkpt>
      <trkpt lat="45.62221" lon="6.52656">
        <ele>1995.35</ele>
        <time>2020-09-13T10:24:44Z</time>
      </trkpt>
      <trkpt lat="45.62219" lon="6.52657">
        <ele>1996.8</ele>
        <time>2020-09-13T10:24:55Z</time>
      </trkpt>
      <trkpt lat="45.62219" lon="6.52657">
        <ele>1997.28</ele>
        <time>2020-09-13T10:24:56Z</time>
      </trkpt>
      <trkpt lat="45.62217" lon="6.52658">
        <ele>1997.76</ele>
        <time>2020-09-13T10:25:00Z</time>
      </trkpt>
      <trkpt lat="45.62209" lon="6.52656">
        <ele>1999.2</ele>
        <time>2020-09-13T10:25:08Z</time>
      </trkpt>
      <trkpt lat="45.62208" lon="6.52658">
        <ele>1999.68</ele>
        <time>2020-09-13T10:25:12Z</time>
      </trkpt>
      <trkpt lat="45.62204" lon="6.52663">
        <ele>2000.64</ele>
        <time>2020-09-13T10:25:22Z</time>
      </trkpt>
      <trkpt lat="45.62202" lon="6.5267">
        <ele>2001.6</ele>
        <time>2020-09-13T10:25:35Z</time>
      </trkpt>
      <trkpt lat="45.62208" lon="6.52679">
        <ele>2002.56</ele>
        <time>2020-09-13T10:25:46Z</time>
      </trkpt>
      <trkpt lat="45.62211" lon="6.52687">
        <ele>2003.04</ele>
        <time>2020-09-13T10:25:51Z</time>
      </trkpt>
      <trkpt lat="45.62212" lon="6.52697">
        <ele>2003.52</ele>
        <time>2020-09-13T10:25:59Z</time>
      </trkpt>
      <trkpt lat="45.62211" lon="6.52701">
        <ele>2004.01</ele>
        <time>2020-09-13T10:26:02Z</time>
      </trkpt>
      <trkpt lat="45.6221" lon="6.52703">
        <ele>2004.01</ele>
        <time>2020-09-13T10:26:04Z</time>
      </trkpt>
      <trkpt lat="45.62202" lon="6.52714">
        <ele>2004.49</ele>
        <time>2020-09-13T10:26:15Z</time>
      </trkpt>
      <trkpt lat="45.62202" lon="6.52714">
        <ele>2004.49</ele>
        <time>2020-09-13T10:26:16Z</time>
      </trkpt>
      <trkpt lat="45.62204" lon="6.52724">
        <ele>2004.49</ele>
        <time>2020-09-13T10:26:23Z</time>
      </trkpt>
      <trkpt lat="45.62201" lon="6.52733">
        <ele>2004.97</ele>
        <time>2020-09-13T10:26:29Z</time>
      </trkpt>
      <trkpt lat="45.62197" lon="6.52747">
        <ele>2003.04</ele>
        <time>2020-09-13T10:26:43Z</time>
      </trkpt>
      <trkpt lat="45.62196" lon="6.52749">
        <ele>2002.56</ele>
        <time>2020-09-13T10:26:45Z</time>
      </trkpt>
      <trkpt lat="45.62192" lon="6.5276">
        <ele>2002.08</ele>
        <time>2020-09-13T10:26:57Z</time>
      </trkpt>
      <trkpt lat="45.62194" lon="6.52764">
        <ele>2002.56</ele>
        <time>2020-09-13T10:27:05Z</time>
      </trkpt>
      <trkpt lat="45.62192" lon="6.52767">
        <ele>2002.56</ele>
        <time>2020-09-13T10:27:08Z</time>
      </trkpt>
      <trkpt lat="45.62191" lon="6.5277">
        <ele>2002.56</ele>
        <time>2020-09-13T10:27:11Z</time>
      </trkpt>
      <trkpt lat="45.62189" lon="6.52772">
        <ele>2002.56</ele>
        <time>2020-09-13T10:27:15Z</time>
      </trkpt>
      <trkpt lat="45.62187" lon="6.52782">
        <ele>2004.49</ele>
        <time>2020-09-13T10:27:24Z</time>
      </trkpt>
      <trkpt lat="45.62186" lon="6.52784">
        <ele>2005.93</ele>
        <time>2020-09-13T10:27:28Z</time>
      </trkpt>
      <trkpt lat="45.62182" lon="6.52788">
        <ele>2006.89</ele>
        <time>2020-09-13T10:27:35Z</time>
      </trkpt>
      <trkpt lat="45.62179" lon="6.52791">
        <ele>2008.33</ele>
        <time>2020-09-13T10:27:41Z</time>
      </trkpt>
      <trkpt lat="45.62177" lon="6.52791">
        <ele>2009.29</ele>
        <time>2020-09-13T10:27:52Z</time>
      </trkpt>
      <trkpt lat="45.62177" lon="6.52792">
        <ele>2009.29</ele>
        <time>2020-09-13T10:27:57Z</time>
      </trkpt>
      <trkpt lat="45.62177" lon="6.52794">
        <ele>2010.25</ele>
        <time>2020-09-13T10:28:00Z</time>
      </trkpt>
      <trkpt lat="45.62174" lon="6.52799">
        <ele>2011.22</ele>
        <time>2020-09-13T10:28:06Z</time>
      </trkpt>
      <trkpt lat="45.62173" lon="6.52802">
        <ele>2011.22</ele>
        <time>2020-09-13T10:28:09Z</time>
      </trkpt>
      <trkpt lat="45.62167" lon="6.52805">
        <ele>2013.14</ele>
        <time>2020-09-13T10:28:16Z</time>
      </trkpt>
      <trkpt lat="45.62165" lon="6.5281">
        <ele>2013.62</ele>
        <time>2020-09-13T10:28:23Z</time>
      </trkpt>
      <trkpt lat="45.62169" lon="6.52818">
        <ele>2014.58</ele>
        <time>2020-09-13T10:28:35Z</time>
      </trkpt>
      <trkpt lat="45.62169" lon="6.52816">
        <ele>2015.06</ele>
        <time>2020-09-13T10:28:54Z</time>
      </trkpt>
      <trkpt lat="45.62168" lon="6.52815">
        <ele>2014.58</ele>
        <time>2020-09-13T10:28:56Z</time>
      </trkpt>
      <trkpt lat="45.62162" lon="6.52814">
        <ele>2014.58</ele>
        <time>2020-09-13T10:29:01Z</time>
      </trkpt>
      <trkpt lat="45.62158" lon="6.52819">
        <ele>2015.06</ele>
        <time>2020-09-13T10:29:07Z</time>
      </trkpt>
      <trkpt lat="45.62152" lon="6.52821">
        <ele>2016.02</ele>
        <time>2020-09-13T10:29:15Z</time>
      </trkpt>
      <trkpt lat="45.62149" lon="6.52831">
        <ele>2017.94</ele>
        <time>2020-09-13T10:29:26Z</time>
      </trkpt>
      <trkpt lat="45.62149" lon="6.52832">
        <ele>2017.94</ele>
        <time>2020-09-13T10:29:27Z</time>
      </trkpt>
      <trkpt lat="45.62141" lon="6.52837">
        <ele>2019.87</ele>
        <time>2020-09-13T10:29:36Z</time>
      </trkpt>
      <trkpt lat="45.62134" lon="6.52838">
        <ele>2021.31</ele>
        <time>2020-09-13T10:29:44Z</time>
      </trkpt>
      <trkpt lat="45.6213" lon="6.52844">
        <ele>2022.27</ele>
        <time>2020-09-13T10:29:51Z</time>
      </trkpt>
      <trkpt lat="45.62126" lon="6.52843">
        <ele>2024.19</ele>
        <time>2020-09-13T10:30:02Z</time>
      </trkpt>
      <trkpt lat="45.62124" lon="6.52844">
        <ele>2023.71</ele>
        <time>2020-09-13T10:30:12Z</time>
      </trkpt>
      <trkpt lat="45.62122" lon="6.52846">
        <ele>2024.67</ele>
        <time>2020-09-13T10:30:15Z</time>
      </trkpt>
      <trkpt lat="45.6212" lon="6.52846">
        <ele>2025.64</ele>
        <time>2020-09-13T10:30:18Z</time>
      </trkpt>
      <trkpt lat="45.62119" lon="6.52847">
        <ele>2026.6</ele>
        <time>2020-09-13T10:30:23Z</time>
      </trkpt>
      <trkpt lat="45.6212" lon="6.5285">
        <ele>2027.08</ele>
        <time>2020-09-13T10:30:28Z</time>
      </trkpt>
      <trkpt lat="45.62118" lon="6.52852">
        <ele>2028.52</ele>
        <time>2020-09-13T10:30:37Z</time>
      </trkpt>
      <trkpt lat="45.62117" lon="6.52858">
        <ele>2030.92</ele>
        <time>2020-09-13T10:30:48Z</time>
      </trkpt>
      <trkpt lat="45.62117" lon="6.5286">
        <ele>2031.4</ele>
        <time>2020-09-13T10:31:01Z</time>
      </trkpt>
      <trkpt lat="45.62118" lon="6.52866">
        <ele>2032.36</ele>
        <time>2020-09-13T10:31:08Z</time>
      </trkpt>
      <trkpt lat="45.62119" lon="6.52874">
        <ele>2034.77</ele>
        <time>2020-09-13T10:31:17Z</time>
      </trkpt>
      <trkpt lat="45.62119" lon="6.52876">
        <ele>2034.77</ele>
        <time>2020-09-13T10:31:20Z</time>
      </trkpt>
      <trkpt lat="45.62122" lon="6.52882">
        <ele>2036.69</ele>
        <time>2020-09-13T10:31:30Z</time>
      </trkpt>
      <trkpt lat="45.62122" lon="6.52883">
        <ele>2037.17</ele>
        <time>2020-09-13T10:31:36Z</time>
      </trkpt>
      <trkpt lat="45.6212" lon="6.52892">
        <ele>2038.61</ele>
        <time>2020-09-13T10:31:46Z</time>
      </trkpt>
      <trkpt lat="45.6212" lon="6.52899">
        <ele>2040.54</ele>
        <time>2020-09-13T10:31:56Z</time>
      </trkpt>
      <trkpt lat="45.62121" lon="6.52907">
        <ele>2042.46</ele>
        <time>2020-09-13T10:32:05Z</time>
      </trkpt>
      <trkpt lat="45.62122" lon="6.52913">
        <ele>2043.9</ele>
        <time>2020-09-13T10:32:19Z</time>
      </trkpt>
      <trkpt lat="45.62121" lon="6.52918">
        <ele>2045.82</ele>
        <time>2020-09-13T10:32:30Z</time>
      </trkpt>
      <trkpt lat="45.62126" lon="6.52919">
        <ele>2047.75</ele>
        <time>2020-09-13T10:32:41Z</time>
      </trkpt>
      <trkpt lat="45.62129" lon="6.52917">
        <ele>2048.71</ele>
        <time>2020-09-13T10:32:47Z</time>
      </trkpt>
      <trkpt lat="45.62134" lon="6.5292">
        <ele>2049.67</ele>
        <time>2020-09-13T10:32:58Z</time>
      </trkpt>
      <trkpt lat="45.62135" lon="6.5292">
        <ele>2050.15</ele>
        <time>2020-09-13T10:33:18Z</time>
      </trkpt>
      <trkpt lat="45.62135" lon="6.52923">
        <ele>2050.63</ele>
        <time>2020-09-13T10:33:21Z</time>
      </trkpt>
      <trkpt lat="45.62139" lon="6.52933">
        <ele>2052.07</ele>
        <time>2020-09-13T10:33:31Z</time>
      </trkpt>
      <trkpt lat="45.62143" lon="6.52947">
        <ele>2053.99</ele>
        <time>2020-09-13T10:33:43Z</time>
      </trkpt>
      <trkpt lat="45.6214" lon="6.52959">
        <ele>2055.44</ele>
        <time>2020-09-13T10:33:52Z</time>
      </trkpt>
      <trkpt lat="45.6214" lon="6.52959">
        <ele>2055.92</ele>
        <time>2020-09-13T10:33:53Z</time>
      </trkpt>
      <trkpt lat="45.62138" lon="6.52962">
        <ele>2055.92</ele>
        <time>2020-09-13T10:33:57Z</time>
      </trkpt>
      <trkpt lat="45.62138" lon="6.52966">
        <ele>2056.88</ele>
        <time>2020-09-13T10:34:01Z</time>
      </trkpt>
      <trkpt lat="45.62137" lon="6.5297">
        <ele>2057.84</ele>
        <time>2020-09-13T10:34:05Z</time>
      </trkpt>
      <trkpt lat="45.62137" lon="6.52983">
        <ele>2058.32</ele>
        <time>2020-09-13T10:34:12Z</time>
      </trkpt>
      <trkpt lat="45.62138" lon="6.52987">
        <ele>2058.8</ele>
        <time>2020-09-13T10:34:16Z</time>
      </trkpt>
      <trkpt lat="45.62139" lon="6.5299">
        <ele>2059.28</ele>
        <time>2020-09-13T10:34:20Z</time>
      </trkpt>
      <trkpt lat="45.62139" lon="6.52999">
        <ele>2060.24</ele>
        <time>2020-09-13T10:34:29Z</time>
      </trkpt>
      <trkpt lat="45.62139" lon="6.53006">
        <ele>2060.72</ele>
        <time>2020-09-13T10:34:36Z</time>
      </trkpt>
      <trkpt lat="45.62138" lon="6.53009">
        <ele>2061.68</ele>
        <time>2020-09-13T10:34:39Z</time>
      </trkpt>
      <trkpt lat="45.62142" lon="6.53018">
        <ele>2062.65</ele>
        <time>2020-09-13T10:34:48Z</time>
      </trkpt>
      <trkpt lat="45.62146" lon="6.53026">
        <ele>2062.17</ele>
        <time>2020-09-13T10:34:58Z</time>
      </trkpt>
      <trkpt lat="45.62148" lon="6.53041">
        <ele>2063.61</ele>
        <time>2020-09-13T10:35:12Z</time>
      </trkpt>
      <trkpt lat="45.62149" lon="6.53047">
        <ele>2064.57</ele>
        <time>2020-09-13T10:35:21Z</time>
      </trkpt>
      <trkpt lat="45.62148" lon="6.53052">
        <ele>2065.05</ele>
        <time>2020-09-13T10:35:25Z</time>
      </trkpt>
      <trkpt lat="45.62151" lon="6.53064">
        <ele>2065.53</ele>
        <time>2020-09-13T10:35:35Z</time>
      </trkpt>
      <trkpt lat="45.62152" lon="6.53066">
        <ele>2065.53</ele>
        <time>2020-09-13T10:35:37Z</time>
      </trkpt>
      <trkpt lat="45.6215" lon="6.53071">
        <ele>2066.97</ele>
        <time>2020-09-13T10:35:45Z</time>
      </trkpt>
      <trkpt lat="45.62152" lon="6.53083">
        <ele>2066.49</ele>
        <time>2020-09-13T10:35:55Z</time>
      </trkpt>
      <trkpt lat="45.62153" lon="6.53086">
        <ele>2066.97</ele>
        <time>2020-09-13T10:36:00Z</time>
      </trkpt>
      <trkpt lat="45.62155" lon="6.53095">
        <ele>2068.89</ele>
        <time>2020-09-13T10:36:12Z</time>
      </trkpt>
      <trkpt lat="45.62155" lon="6.53097">
        <ele>2070.82</ele>
        <time>2020-09-13T10:36:17Z</time>
      </trkpt>
      <trkpt lat="45.62152" lon="6.53107">
        <ele>2071.78</ele>
        <time>2020-09-13T10:36:28Z</time>
      </trkpt>
      <trkpt lat="45.62151" lon="6.53112">
        <ele>2072.26</ele>
        <time>2020-09-13T10:36:36Z</time>
      </trkpt>
      <trkpt lat="45.62153" lon="6.53126">
        <ele>2074.66</ele>
        <time>2020-09-13T10:36:48Z</time>
      </trkpt>
      <trkpt lat="45.62151" lon="6.5313">
        <ele>2075.62</ele>
        <time>2020-09-13T10:36:53Z</time>
      </trkpt>
      <trkpt lat="45.62149" lon="6.53135">
        <ele>2077.07</ele>
        <time>2020-09-13T10:37:04Z</time>
      </trkpt>
      <trkpt lat="45.62149" lon="6.53142">
        <ele>2079.95</ele>
        <time>2020-09-13T10:37:15Z</time>
      </trkpt>
      <trkpt lat="45.62146" lon="6.53147">
        <ele>2080.43</ele>
        <time>2020-09-13T10:37:33Z</time>
      </trkpt>
      <trkpt lat="45.62146" lon="6.53156">
        <ele>2082.35</ele>
        <time>2020-09-13T10:37:46Z</time>
      </trkpt>
      <trkpt lat="45.62147" lon="6.5316">
        <ele>2083.31</ele>
        <time>2020-09-13T10:37:52Z</time>
      </trkpt>
      <trkpt lat="45.6215" lon="6.53169">
        <ele>2084.76</ele>
        <time>2020-09-13T10:38:01Z</time>
      </trkpt>
      <trkpt lat="45.62151" lon="6.53173">
        <ele>2085.72</ele>
        <time>2020-09-13T10:38:07Z</time>
      </trkpt>
      <trkpt lat="45.62152" lon="6.53181">
        <ele>2087.16</ele>
        <time>2020-09-13T10:38:17Z</time>
      </trkpt>
      <trkpt lat="45.62152" lon="6.53189">
        <ele>2088.6</ele>
        <time>2020-09-13T10:38:26Z</time>
      </trkpt>
      <trkpt lat="45.62153" lon="6.53194">
        <ele>2088.6</ele>
        <time>2020-09-13T10:38:29Z</time>
      </trkpt>
      <trkpt lat="45.62155" lon="6.53198">
        <ele>2088.6</ele>
        <time>2020-09-13T10:38:32Z</time>
      </trkpt>
      <trkpt lat="45.62155" lon="6.53208">
        <ele>2087.64</ele>
        <time>2020-09-13T10:38:43Z</time>
      </trkpt>
      <trkpt lat="45.62155" lon="6.53213">
        <ele>2085.72</ele>
        <time>2020-09-13T10:38:49Z</time>
      </trkpt>
      <trkpt lat="45.62153" lon="6.53215">
        <ele>2085.72</ele>
        <time>2020-09-13T10:38:51Z</time>
      </trkpt>
      <trkpt lat="45.62153" lon="6.53224">
        <ele>2084.76</ele>
        <time>2020-09-13T10:38:57Z</time>
      </trkpt>
      <trkpt lat="45.62154" lon="6.53228">
        <ele>2084.76</ele>
        <time>2020-09-13T10:39:00Z</time>
      </trkpt>
      <trkpt lat="45.62163" lon="6.5324">
        <ele>2083.79</ele>
        <time>2020-09-13T10:39:12Z</time>
      </trkpt>
      <trkpt lat="45.62164" lon="6.53243">
        <ele>2083.79</ele>
        <time>2020-09-13T10:39:14Z</time>
      </trkpt>
      <trkpt lat="45.62165" lon="6.53259">
        <ele>2085.24</ele>
        <time>2020-09-13T10:39:26Z</time>
      </trkpt>
      <trkpt lat="45.62165" lon="6.5326">
        <ele>2085.72</ele>
        <time>2020-09-13T10:39:28Z</time>
      </trkpt>
      <trkpt lat="45.62162" lon="6.53264">
        <ele>2086.2</ele>
        <time>2020-09-13T10:39:32Z</time>
      </trkpt>
      <trkpt lat="45.62159" lon="6.53266">
        <ele>2087.16</ele>
        <time>2020-09-13T10:39:36Z</time>
      </trkpt>
      <trkpt lat="45.62158" lon="6.53271">
        <ele>2089.08</ele>
        <time>2020-09-13T10:39:42Z</time>
      </trkpt>
      <trkpt lat="45.62156" lon="6.53275">
        <ele>2088.6</ele>
        <time>2020-09-13T10:39:55Z</time>
      </trkpt>
      <trkpt lat="45.62157" lon="6.53277">
        <ele>2088.12</ele>
        <time>2020-09-13T10:39:57Z</time>
      </trkpt>
      <trkpt lat="45.62158" lon="6.53289">
        <ele>2087.64</ele>
        <time>2020-09-13T10:40:08Z</time>
      </trkpt>
      <trkpt lat="45.62158" lon="6.53291">
        <ele>2087.64</ele>
        <time>2020-09-13T10:40:10Z</time>
      </trkpt>
      <trkpt lat="45.62158" lon="6.53294">
        <ele>2086.68</ele>
        <time>2020-09-13T10:40:14Z</time>
      </trkpt>
      <trkpt lat="45.62161" lon="6.53303">
        <ele>2085.72</ele>
        <time>2020-09-13T10:40:24Z</time>
      </trkpt>
      <trkpt lat="45.62161" lon="6.5331">
        <ele>2086.2</ele>
        <time>2020-09-13T10:40:33Z</time>
      </trkpt>
      <trkpt lat="45.62163" lon="6.53313">
        <ele>2086.2</ele>
        <time>2020-09-13T10:40:39Z</time>
      </trkpt>
      <trkpt lat="45.62166" lon="6.53318">
        <ele>2086.68</ele>
        <time>2020-09-13T10:40:44Z</time>
      </trkpt>
      <trkpt lat="45.62169" lon="6.53333">
        <ele>2088.12</ele>
        <time>2020-09-13T10:40:52Z</time>
      </trkpt>
      <trkpt lat="45.62171" lon="6.53339">
        <ele>2087.64</ele>
        <time>2020-09-13T10:40:57Z</time>
      </trkpt>
      <trkpt lat="45.62173" lon="6.53349">
        <ele>2086.68</ele>
        <time>2020-09-13T10:41:08Z</time>
      </trkpt>
      <trkpt lat="45.62174" lon="6.5335">
        <ele>2086.2</ele>
        <time>2020-09-13T10:41:10Z</time>
      </trkpt>
      <trkpt lat="45.62174" lon="6.53354">
        <ele>2084.76</ele>
        <time>2020-09-13T10:41:14Z</time>
      </trkpt>
      <trkpt lat="45.62175" lon="6.53356">
        <ele>2084.76</ele>
        <time>2020-09-13T10:41:16Z</time>
      </trkpt>
      <trkpt lat="45.62173" lon="6.53367">
        <ele>2083.31</ele>
        <time>2020-09-13T10:41:24Z</time>
      </trkpt>
      <trkpt lat="45.62172" lon="6.53383">
        <ele>2081.87</ele>
        <time>2020-09-13T10:41:37Z</time>
      </trkpt>
      <trkpt lat="45.6217" lon="6.53383">
        <ele>2082.35</ele>
        <time>2020-09-13T10:41:44Z</time>
      </trkpt>
      <trkpt lat="45.62168" lon="6.53376">
        <ele>2084.28</ele>
        <time>2020-09-13T10:41:52Z</time>
      </trkpt>
      <trkpt lat="45.62163" lon="6.53375">
        <ele>2085.24</ele>
        <time>2020-09-13T10:41:57Z</time>
      </trkpt>
      <trkpt lat="45.62159" lon="6.53369">
        <ele>2085.72</ele>
        <time>2020-09-13T10:42:02Z</time>
      </trkpt>
      <trkpt lat="45.62157" lon="6.53368">
        <ele>2084.76</ele>
        <time>2020-09-13T10:42:13Z</time>
      </trkpt>
      <trkpt lat="45.62157" lon="6.5337">
        <ele>2084.28</ele>
        <time>2020-09-13T10:42:18Z</time>
      </trkpt>
      <trkpt lat="45.62155" lon="6.53378">
        <ele>2082.83</ele>
        <time>2020-09-13T10:42:24Z</time>
      </trkpt>
      <trkpt lat="45.62149" lon="6.53384">
        <ele>2081.39</ele>
        <time>2020-09-13T10:42:34Z</time>
      </trkpt>
      <trkpt lat="45.6215" lon="6.53387">
        <ele>2081.87</ele>
        <time>2020-09-13T10:42:36Z</time>
      </trkpt>
      <trkpt lat="45.62144" lon="6.534">
        <ele>2080.91</ele>
        <time>2020-09-13T10:42:47Z</time>
      </trkpt>
      <trkpt lat="45.62144" lon="6.534">
        <ele>2080.43</ele>
        <time>2020-09-13T10:42:48Z</time>
      </trkpt>
      <trkpt lat="45.62142" lon="6.53405">
        <ele>2079.95</ele>
        <time>2020-09-13T10:42:52Z</time>
      </trkpt>
      <trkpt lat="45.6214" lon="6.53417">
        <ele>2080.43</ele>
        <time>2020-09-13T10:43:02Z</time>
      </trkpt>
      <trkpt lat="45.62136" lon="6.5343">
        <ele>2080.91</ele>
        <time>2020-09-13T10:43:12Z</time>
      </trkpt>
      <trkpt lat="45.62134" lon="6.53437">
        <ele>2081.39</ele>
        <time>2020-09-13T10:43:16Z</time>
      </trkpt>
      <trkpt lat="45.62127" lon="6.53448">
        <ele>2081.39</ele>
        <time>2020-09-13T10:43:27Z</time>
      </trkpt>
      <trkpt lat="45.62123" lon="6.5346">
        <ele>2081.87</ele>
        <time>2020-09-13T10:43:34Z</time>
      </trkpt>
      <trkpt lat="45.62122" lon="6.53468">
        <ele>2081.87</ele>
        <time>2020-09-13T10:43:40Z</time>
      </trkpt>
      <trkpt lat="45.62121" lon="6.53471">
        <ele>2080.91</ele>
        <time>2020-09-13T10:43:43Z</time>
      </trkpt>
      <trkpt lat="45.6212" lon="6.53474">
        <ele>2080.91</ele>
        <time>2020-09-13T10:43:45Z</time>
      </trkpt>
      <trkpt lat="45.62119" lon="6.53478">
        <ele>2080.43</ele>
        <time>2020-09-13T10:43:48Z</time>
      </trkpt>
      <trkpt lat="45.62115" lon="6.53485">
        <ele>2080.43</ele>
        <time>2020-09-13T10:43:54Z</time>
      </trkpt>
      <trkpt lat="45.62115" lon="6.5349">
        <ele>2080.43</ele>
        <time>2020-09-13T10:43:58Z</time>
      </trkpt>
      <trkpt lat="45.62114" lon="6.53494">
        <ele>2080.91</ele>
        <time>2020-09-13T10:44:04Z</time>
      </trkpt>
      <trkpt lat="45.62113" lon="6.53498">
        <ele>2080.91</ele>
        <time>2020-09-13T10:44:06Z</time>
      </trkpt>
      <trkpt lat="45.62111" lon="6.535">
        <ele>2080.91</ele>
        <time>2020-09-13T10:44:08Z</time>
      </trkpt>
      <trkpt lat="45.62104" lon="6.5351">
        <ele>2080.43</ele>
        <time>2020-09-13T10:44:18Z</time>
      </trkpt>
      <trkpt lat="45.62103" lon="6.53517">
        <ele>2080.91</ele>
        <time>2020-09-13T10:44:24Z</time>
      </trkpt>
      <trkpt lat="45.62102" lon="6.53525">
        <ele>2081.39</ele>
        <time>2020-09-13T10:44:29Z</time>
      </trkpt>
      <trkpt lat="45.62101" lon="6.53535">
        <ele>2080.43</ele>
        <time>2020-09-13T10:44:36Z</time>
      </trkpt>
      <trkpt lat="45.62098" lon="6.53539">
        <ele>2081.87</ele>
        <time>2020-09-13T10:44:40Z</time>
      </trkpt>
      <trkpt lat="45.62098" lon="6.53541">
        <ele>2081.87</ele>
        <time>2020-09-13T10:44:42Z</time>
      </trkpt>
      <trkpt lat="45.62098" lon="6.53551">
        <ele>2080.91</ele>
        <time>2020-09-13T10:44:48Z</time>
      </trkpt>
      <trkpt lat="45.62099" lon="6.53572">
        <ele>2079.47</ele>
        <time>2020-09-13T10:44:59Z</time>
      </trkpt>
      <trkpt lat="45.62102" lon="6.5358">
        <ele>2078.51</ele>
        <time>2020-09-13T10:45:05Z</time>
      </trkpt>
      <trkpt lat="45.62103" lon="6.53581">
        <ele>2078.51</ele>
        <time>2020-09-13T10:45:10Z</time>
      </trkpt>
      <trkpt lat="45.62105" lon="6.53583">
        <ele>2078.03</ele>
        <time>2020-09-13T10:45:12Z</time>
      </trkpt>
      <trkpt lat="45.62106" lon="6.53586">
        <ele>2077.07</ele>
        <time>2020-09-13T10:45:15Z</time>
      </trkpt>
      <trkpt lat="45.62109" lon="6.53588">
        <ele>2078.51</ele>
        <time>2020-09-13T10:45:20Z</time>
      </trkpt>
      <trkpt lat="45.6211" lon="6.53592">
        <ele>2078.99</ele>
        <time>2020-09-13T10:45:24Z</time>
      </trkpt>
      <trkpt lat="45.62115" lon="6.53595">
        <ele>2081.39</ele>
        <time>2020-09-13T10:45:37Z</time>
      </trkpt>
      <trkpt lat="45.62116" lon="6.53597">
        <ele>2080.91</ele>
        <time>2020-09-13T10:45:57Z</time>
      </trkpt>
      <trkpt lat="45.62116" lon="6.53598">
        <ele>2080.91</ele>
        <time>2020-09-13T10:46:19Z</time>
      </trkpt>
      <trkpt lat="45.62116" lon="6.53599">
        <ele>2080.91</ele>
        <time>2020-09-13T10:46:41Z</time>
      </trkpt>
      <trkpt lat="45.62117" lon="6.53599">
        <ele>2080.91</ele>
        <time>2020-09-13T10:46:56Z</time>
      </trkpt>
      <trkpt lat="45.62117" lon="6.53599">
        <ele>2080.91</ele>
        <time>2020-09-13T10:47:14Z</time>
      </trkpt>
      <trkpt lat="45.62112" lon="6.53605">
        <ele>2080.43</ele>
        <time>2020-09-13T10:47:21Z</time>
      </trkpt>
      <trkpt lat="45.62115" lon="6.53613">
        <ele>2080.91</ele>
        <time>2020-09-13T10:47:31Z</time>
      </trkpt>
      <trkpt lat="45.62117" lon="6.53619">
        <ele>2081.39</ele>
        <time>2020-09-13T10:47:41Z</time>
      </trkpt>
      <trkpt lat="45.62119" lon="6.53621">
        <ele>2080.91</ele>
        <time>2020-09-13T10:47:43Z</time>
      </trkpt>
      <trkpt lat="45.62119" lon="6.53633">
        <ele>2079.95</ele>
        <time>2020-09-13T10:47:52Z</time>
      </trkpt>
      <trkpt lat="45.6212" lon="6.53635">
        <ele>2081.87</ele>
        <time>2020-09-13T10:47:54Z</time>
      </trkpt>
      <trkpt lat="45.6212" lon="6.53637">
        <ele>2081.87</ele>
        <time>2020-09-13T10:47:56Z</time>
      </trkpt>
      <trkpt lat="45.62122" lon="6.53642">
        <ele>2083.31</ele>
        <time>2020-09-13T10:48:00Z</time>
      </trkpt>
      <trkpt lat="45.62122" lon="6.53643">
        <ele>2082.35</ele>
        <time>2020-09-13T10:48:01Z</time>
      </trkpt>
      <trkpt lat="45.6213" lon="6.53643">
        <ele>2083.79</ele>
        <time>2020-09-13T10:48:12Z</time>
      </trkpt>
      <trkpt lat="45.62132" lon="6.53647">
        <ele>2082.35</ele>
        <time>2020-09-13T10:48:18Z</time>
      </trkpt>
      <trkpt lat="45.62139" lon="6.53648">
        <ele>2082.83</ele>
        <time>2020-09-13T10:48:25Z</time>
      </trkpt>
      <trkpt lat="45.62141" lon="6.53649">
        <ele>2083.31</ele>
        <time>2020-09-13T10:48:27Z</time>
      </trkpt>
      <trkpt lat="45.62144" lon="6.53651">
        <ele>2082.83</ele>
        <time>2020-09-13T10:48:33Z</time>
      </trkpt>
      <trkpt lat="45.62147" lon="6.53652">
        <ele>2084.76</ele>
        <time>2020-09-13T10:48:35Z</time>
      </trkpt>
      <trkpt lat="45.62149" lon="6.53661">
        <ele>2087.16</ele>
        <time>2020-09-13T10:48:46Z</time>
      </trkpt>
      <trkpt lat="45.6215" lon="6.53664">
        <ele>2088.6</ele>
        <time>2020-09-13T10:48:49Z</time>
      </trkpt>
      <trkpt lat="45.6215" lon="6.53668">
        <ele>2088.6</ele>
        <time>2020-09-13T10:49:00Z</time>
      </trkpt>
      <trkpt lat="45.62152" lon="6.53669">
        <ele>2090.52</ele>
        <time>2020-09-13T10:49:10Z</time>
      </trkpt>
      <trkpt lat="45.62153" lon="6.53664">
        <ele>2091</ele>
        <time>2020-09-13T10:49:21Z</time>
      </trkpt>
      <trkpt lat="45.62154" lon="6.53664">
        <ele>2091</ele>
        <time>2020-09-13T10:49:34Z</time>
      </trkpt>
      <trkpt lat="45.62154" lon="6.53666">
        <ele>2090.52</ele>
        <time>2020-09-13T10:49:40Z</time>
      </trkpt>
      <trkpt lat="45.62155" lon="6.53682">
        <ele>2091.49</ele>
        <time>2020-09-13T10:49:50Z</time>
      </trkpt>
      <trkpt lat="45.62155" lon="6.53683">
        <ele>2091.97</ele>
        <time>2020-09-13T10:49:51Z</time>
      </trkpt>
      <trkpt lat="45.62162" lon="6.53697">
        <ele>2093.41</ele>
        <time>2020-09-13T10:50:04Z</time>
      </trkpt>
      <trkpt lat="45.62162" lon="6.53701">
        <ele>2093.41</ele>
        <time>2020-09-13T10:50:07Z</time>
      </trkpt>
      <trkpt lat="45.62163" lon="6.53709">
        <ele>2093.89</ele>
        <time>2020-09-13T10:50:13Z</time>
      </trkpt>
      <trkpt lat="45.62168" lon="6.53728">
        <ele>2092.45</ele>
        <time>2020-09-13T10:50:23Z</time>
      </trkpt>
      <trkpt lat="45.62162" lon="6.53739">
        <ele>2092.93</ele>
        <time>2020-09-13T10:50:34Z</time>
      </trkpt>
      <trkpt lat="45.62165" lon="6.53744">
        <ele>2092.93</ele>
        <time>2020-09-13T10:50:39Z</time>
      </trkpt>
      <trkpt lat="45.62167" lon="6.5375">
        <ele>2092.45</ele>
        <time>2020-09-13T10:50:43Z</time>
      </trkpt>
      <trkpt lat="45.62166" lon="6.53754">
        <ele>2092.45</ele>
        <time>2020-09-13T10:50:46Z</time>
      </trkpt>
      <trkpt lat="45.62157" lon="6.5376">
        <ele>2092.45</ele>
        <time>2020-09-13T10:50:52Z</time>
      </trkpt>
      <trkpt lat="45.62155" lon="6.53763">
        <ele>2092.93</ele>
        <time>2020-09-13T10:50:56Z</time>
      </trkpt>
      <trkpt lat="45.62153" lon="6.53777">
        <ele>2093.41</ele>
        <time>2020-09-13T10:51:09Z</time>
      </trkpt>
      <trkpt lat="45.62151" lon="6.53779">
        <ele>2093.41</ele>
        <time>2020-09-13T10:51:11Z</time>
      </trkpt>
      <trkpt lat="45.6215" lon="6.53784">
        <ele>2093.41</ele>
        <time>2020-09-13T10:51:14Z</time>
      </trkpt>
      <trkpt lat="45.62151" lon="6.53797">
        <ele>2093.89</ele>
        <time>2020-09-13T10:51:22Z</time>
      </trkpt>
      <trkpt lat="45.62154" lon="6.53809">
        <ele>2094.37</ele>
        <time>2020-09-13T10:51:31Z</time>
      </trkpt>
      <trkpt lat="45.62157" lon="6.53831">
        <ele>2094.37</ele>
        <time>2020-09-13T10:51:42Z</time>
      </trkpt>
      <trkpt lat="45.62158" lon="6.53833">
        <ele>2094.37</ele>
        <time>2020-09-13T10:51:43Z</time>
      </trkpt>
      <trkpt lat="45.62161" lon="6.53838">
        <ele>2093.89</ele>
        <time>2020-09-13T10:51:48Z</time>
      </trkpt>
      <trkpt lat="45.62163" lon="6.53846">
        <ele>2093.89</ele>
        <time>2020-09-13T10:51:54Z</time>
      </trkpt>
      <trkpt lat="45.62161" lon="6.53864">
        <ele>2093.89</ele>
        <time>2020-09-13T10:52:05Z</time>
      </trkpt>
      <trkpt lat="45.6216" lon="6.53867">
        <ele>2094.85</ele>
        <time>2020-09-13T10:52:08Z</time>
      </trkpt>
      <trkpt lat="45.6216" lon="6.53873">
        <ele>2096.77</ele>
        <time>2020-09-13T10:52:18Z</time>
      </trkpt>
      <trkpt lat="45.6216" lon="6.53874">
        <ele>2097.25</ele>
        <time>2020-09-13T10:52:19Z</time>
      </trkpt>
      <trkpt lat="45.62162" lon="6.53881">
        <ele>2096.77</ele>
        <time>2020-09-13T10:52:25Z</time>
      </trkpt>
      <trkpt lat="45.62167" lon="6.53885">
        <ele>2097.73</ele>
        <time>2020-09-13T10:52:40Z</time>
      </trkpt>
      <trkpt lat="45.62166" lon="6.53885">
        <ele>2098.21</ele>
        <time>2020-09-13T10:52:46Z</time>
      </trkpt>
      <trkpt lat="45.62166" lon="6.53892">
        <ele>2098.21</ele>
        <time>2020-09-13T10:52:59Z</time>
      </trkpt>
      <trkpt lat="45.62166" lon="6.53892">
        <ele>2101.58</ele>
        <time>2020-09-13T10:53:12Z</time>
      </trkpt>
      <trkpt lat="45.62168" lon="6.53894">
        <ele>2097.73</ele>
        <time>2020-09-13T10:53:16Z</time>
      </trkpt>
      <trkpt lat="45.62165" lon="6.539">
        <ele>2099.66</ele>
        <time>2020-09-13T10:53:22Z</time>
      </trkpt>
      <trkpt lat="45.62164" lon="6.53908">
        <ele>2100.62</ele>
        <time>2020-09-13T10:53:31Z</time>
      </trkpt>
      <trkpt lat="45.62164" lon="6.53909">
        <ele>2100.62</ele>
        <time>2020-09-13T10:53:32Z</time>
      </trkpt>
      <trkpt lat="45.62165" lon="6.53912">
        <ele>2101.58</ele>
        <time>2020-09-13T10:53:36Z</time>
      </trkpt>
      <trkpt lat="45.62168" lon="6.53919">
        <ele>2102.54</ele>
        <time>2020-09-13T10:53:48Z</time>
      </trkpt>
      <trkpt lat="45.62166" lon="6.53922">
        <ele>2103.5</ele>
        <time>2020-09-13T10:53:54Z</time>
      </trkpt>
      <trkpt lat="45.62163" lon="6.53929">
        <ele>2103.5</ele>
        <time>2020-09-13T10:54:00Z</time>
      </trkpt>
      <trkpt lat="45.62161" lon="6.53938">
        <ele>2103.98</ele>
        <time>2020-09-13T10:54:06Z</time>
      </trkpt>
      <trkpt lat="45.62159" lon="6.53943">
        <ele>2104.94</ele>
        <time>2020-09-13T10:54:12Z</time>
      </trkpt>
      <trkpt lat="45.6216" lon="6.53954">
        <ele>2105.42</ele>
        <time>2020-09-13T10:54:24Z</time>
      </trkpt>
      <trkpt lat="45.6216" lon="6.53957">
        <ele>2106.39</ele>
        <time>2020-09-13T10:54:27Z</time>
      </trkpt>
      <trkpt lat="45.62157" lon="6.53962">
        <ele>2107.35</ele>
        <time>2020-09-13T10:54:32Z</time>
      </trkpt>
      <trkpt lat="45.62165" lon="6.53969">
        <ele>2109.27</ele>
        <time>2020-09-13T10:54:43Z</time>
      </trkpt>
      <trkpt lat="45.62164" lon="6.5397">
        <ele>2109.75</ele>
        <time>2020-09-13T10:54:56Z</time>
      </trkpt>
      <trkpt lat="45.62166" lon="6.53972">
        <ele>2109.75</ele>
        <time>2020-09-13T10:54:58Z</time>
      </trkpt>
      <trkpt lat="45.62165" lon="6.53978">
        <ele>2111.67</ele>
        <time>2020-09-13T10:55:09Z</time>
      </trkpt>
      <trkpt lat="45.62167" lon="6.5398">
        <ele>2112.63</ele>
        <time>2020-09-13T10:55:16Z</time>
      </trkpt>
      <trkpt lat="45.62164" lon="6.53983">
        <ele>2113.6</ele>
        <time>2020-09-13T10:55:26Z</time>
      </trkpt>
      <trkpt lat="45.62162" lon="6.53988">
        <ele>2115.04</ele>
        <time>2020-09-13T10:55:36Z</time>
      </trkpt>
      <trkpt lat="45.62161" lon="6.53992">
        <ele>2115.52</ele>
        <time>2020-09-13T10:55:40Z</time>
      </trkpt>
      <trkpt lat="45.62158" lon="6.53996">
        <ele>2117.44</ele>
        <time>2020-09-13T10:55:51Z</time>
      </trkpt>
      <trkpt lat="45.62157" lon="6.53998">
        <ele>2117.92</ele>
        <time>2020-09-13T10:55:55Z</time>
      </trkpt>
      <trkpt lat="45.62162" lon="6.54001">
        <ele>2118.88</ele>
        <time>2020-09-13T10:56:08Z</time>
      </trkpt>
      <trkpt lat="45.62166" lon="6.54002">
        <ele>2121.29</ele>
        <time>2020-09-13T10:56:20Z</time>
      </trkpt>
      <trkpt lat="45.62167" lon="6.5401">
        <ele>2123.21</ele>
        <time>2020-09-13T10:56:28Z</time>
      </trkpt>
      <trkpt lat="45.62166" lon="6.54018">
        <ele>2123.69</ele>
        <time>2020-09-13T10:56:34Z</time>
      </trkpt>
      <trkpt lat="45.62167" lon="6.54022">
        <ele>2123.21</ele>
        <time>2020-09-13T10:56:40Z</time>
      </trkpt>
      <trkpt lat="45.6217" lon="6.54026">
        <ele>2124.17</ele>
        <time>2020-09-13T10:56:44Z</time>
      </trkpt>
      <trkpt lat="45.62169" lon="6.54035">
        <ele>2123.69</ele>
        <time>2020-09-13T10:56:50Z</time>
      </trkpt>
      <trkpt lat="45.62167" lon="6.5404">
        <ele>2124.65</ele>
        <time>2020-09-13T10:56:54Z</time>
      </trkpt>
      <trkpt lat="45.62165" lon="6.54047">
        <ele>2124.17</ele>
        <time>2020-09-13T10:56:59Z</time>
      </trkpt>
      <trkpt lat="45.62159" lon="6.54058">
        <ele>2125.61</ele>
        <time>2020-09-13T10:57:09Z</time>
      </trkpt>
      <trkpt lat="45.62156" lon="6.54064">
        <ele>2126.57</ele>
        <time>2020-09-13T10:57:15Z</time>
      </trkpt>
      <trkpt lat="45.62162" lon="6.54074">
        <ele>2126.57</ele>
        <time>2020-09-13T10:57:23Z</time>
      </trkpt>
      <trkpt lat="45.62161" lon="6.54084">
        <ele>2126.57</ele>
        <time>2020-09-13T10:57:27Z</time>
      </trkpt>
      <trkpt lat="45.62162" lon="6.54087">
        <ele>2125.61</ele>
        <time>2020-09-13T10:57:31Z</time>
      </trkpt>
      <trkpt lat="45.62176" lon="6.54103">
        <ele>2125.61</ele>
        <time>2020-09-13T10:57:44Z</time>
      </trkpt>
      <trkpt lat="45.62177" lon="6.54106">
        <ele>2124.65</ele>
        <time>2020-09-13T10:57:46Z</time>
      </trkpt>
      <trkpt lat="45.62179" lon="6.54127">
        <ele>2125.61</ele>
        <time>2020-09-13T10:57:58Z</time>
      </trkpt>
      <trkpt lat="45.62182" lon="6.5414">
        <ele>2126.57</ele>
        <time>2020-09-13T10:58:08Z</time>
      </trkpt>
      <trkpt lat="45.62183" lon="6.54146">
        <ele>2128.02</ele>
        <time>2020-09-13T10:58:11Z</time>
      </trkpt>
      <trkpt lat="45.62183" lon="6.54152">
        <ele>2128.02</ele>
        <time>2020-09-13T10:58:15Z</time>
      </trkpt>
      <trkpt lat="45.62179" lon="6.54169">
        <ele>2128.5</ele>
        <time>2020-09-13T10:58:28Z</time>
      </trkpt>
      <trkpt lat="45.62175" lon="6.54176">
        <ele>2128.98</ele>
        <time>2020-09-13T10:58:34Z</time>
      </trkpt>
      <trkpt lat="45.62176" lon="6.54184">
        <ele>2129.46</ele>
        <time>2020-09-13T10:58:39Z</time>
      </trkpt>
      <trkpt lat="45.62174" lon="6.54189">
        <ele>2129.46</ele>
        <time>2020-09-13T10:58:43Z</time>
      </trkpt>
      <trkpt lat="45.62172" lon="6.542">
        <ele>2128.98</ele>
        <time>2020-09-13T10:58:47Z</time>
      </trkpt>
      <trkpt lat="45.62173" lon="6.54206">
        <ele>2128.98</ele>
        <time>2020-09-13T10:58:52Z</time>
      </trkpt>
      <trkpt lat="45.62176" lon="6.54224">
        <ele>2129.46</ele>
        <time>2020-09-13T10:59:04Z</time>
      </trkpt>
      <trkpt lat="45.62174" lon="6.54224">
        <ele>2130.42</ele>
        <time>2020-09-13T10:59:14Z</time>
      </trkpt>
      <trkpt lat="45.62178" lon="6.54229">
        <ele>2132.34</ele>
        <time>2020-09-13T10:59:27Z</time>
      </trkpt>
      <trkpt lat="45.62173" lon="6.54243">
        <ele>2130.9</ele>
        <time>2020-09-13T10:59:40Z</time>
      </trkpt>
      <trkpt lat="45.62171" lon="6.54247">
        <ele>2129.46</ele>
        <time>2020-09-13T10:59:46Z</time>
      </trkpt>
      <trkpt lat="45.62165" lon="6.54256">
        <ele>2127.53</ele>
        <time>2020-09-13T10:59:56Z</time>
      </trkpt>
      <trkpt lat="45.62163" lon="6.54262">
        <ele>2127.53</ele>
        <time>2020-09-13T11:00:00Z</time>
      </trkpt>
      <trkpt lat="45.62165" lon="6.54277">
        <ele>2127.53</ele>
        <time>2020-09-13T11:00:09Z</time>
      </trkpt>
      <trkpt lat="45.62165" lon="6.54286">
        <ele>2127.53</ele>
        <time>2020-09-13T11:00:19Z</time>
      </trkpt>
      <trkpt lat="45.62171" lon="6.54299">
        <ele>2129.46</ele>
        <time>2020-09-13T11:00:29Z</time>
      </trkpt>
      <trkpt lat="45.62168" lon="6.5431">
        <ele>2131.86</ele>
        <time>2020-09-13T11:00:40Z</time>
      </trkpt>
      <trkpt lat="45.62167" lon="6.54314">
        <ele>2131.86</ele>
        <time>2020-09-13T11:00:52Z</time>
      </trkpt>
      <trkpt lat="45.62168" lon="6.5432">
        <ele>2134.26</ele>
        <time>2020-09-13T11:01:03Z</time>
      </trkpt>
      <trkpt lat="45.62162" lon="6.54327">
        <ele>2135.23</ele>
        <time>2020-09-13T11:01:14Z</time>
      </trkpt>
      <trkpt lat="45.62162" lon="6.54328">
        <ele>2136.19</ele>
        <time>2020-09-13T11:01:16Z</time>
      </trkpt>
      <trkpt lat="45.62168" lon="6.54334">
        <ele>2137.15</ele>
        <time>2020-09-13T11:01:26Z</time>
      </trkpt>
      <trkpt lat="45.62169" lon="6.54337">
        <ele>2137.15</ele>
        <time>2020-09-13T11:01:29Z</time>
      </trkpt>
      <trkpt lat="45.62171" lon="6.54338">
        <ele>2137.63</ele>
        <time>2020-09-13T11:01:33Z</time>
      </trkpt>
      <trkpt lat="45.62179" lon="6.54341">
        <ele>2139.07</ele>
        <time>2020-09-13T11:01:44Z</time>
      </trkpt>
      <trkpt lat="45.62183" lon="6.54343">
        <ele>2140.51</ele>
        <time>2020-09-13T11:01:55Z</time>
      </trkpt>
      <trkpt lat="45.6218" lon="6.5435">
        <ele>2142.44</ele>
        <time>2020-09-13T11:02:06Z</time>
      </trkpt>
      <trkpt lat="45.62183" lon="6.54354">
        <ele>2143.4</ele>
        <time>2020-09-13T11:02:11Z</time>
      </trkpt>
      <trkpt lat="45.62181" lon="6.54365">
        <ele>2145.32</ele>
        <time>2020-09-13T11:02:21Z</time>
      </trkpt>
      <trkpt lat="45.62177" lon="6.54371">
        <ele>2145.8</ele>
        <time>2020-09-13T11:02:27Z</time>
      </trkpt>
      <trkpt lat="45.62181" lon="6.54385">
        <ele>2147.72</ele>
        <time>2020-09-13T11:02:37Z</time>
      </trkpt>
      <trkpt lat="45.62182" lon="6.54386">
        <ele>2147.72</ele>
        <time>2020-09-13T11:02:39Z</time>
      </trkpt>
      <trkpt lat="45.62184" lon="6.5439">
        <ele>2148.2</ele>
        <time>2020-09-13T11:02:44Z</time>
      </trkpt>
      <trkpt lat="45.62187" lon="6.54405">
        <ele>2150.13</ele>
        <time>2020-09-13T11:02:58Z</time>
      </trkpt>
      <trkpt lat="45.62186" lon="6.54406">
        <ele>2151.09</ele>
        <time>2020-09-13T11:03:00Z</time>
      </trkpt>
      <trkpt lat="45.62186" lon="6.54415">
        <ele>2151.09</ele>
        <time>2020-09-13T11:03:06Z</time>
      </trkpt>
      <trkpt lat="45.62186" lon="6.54427">
        <ele>2152.05</ele>
        <time>2020-09-13T11:03:14Z</time>
      </trkpt>
      <trkpt lat="45.62182" lon="6.5443">
        <ele>2152.53</ele>
        <time>2020-09-13T11:03:24Z</time>
      </trkpt>
      <trkpt lat="45.62182" lon="6.54437">
        <ele>2153.97</ele>
        <time>2020-09-13T11:03:31Z</time>
      </trkpt>
      <trkpt lat="45.62182" lon="6.5444">
        <ele>2154.45</ele>
        <time>2020-09-13T11:03:35Z</time>
      </trkpt>
      <trkpt lat="45.62185" lon="6.5445">
        <ele>2156.37</ele>
        <time>2020-09-13T11:03:46Z</time>
      </trkpt>
      <trkpt lat="45.62188" lon="6.54453">
        <ele>2157.34</ele>
        <time>2020-09-13T11:03:51Z</time>
      </trkpt>
      <trkpt lat="45.62192" lon="6.54461">
        <ele>2160.7</ele>
        <time>2020-09-13T11:04:00Z</time>
      </trkpt>
      <trkpt lat="45.62193" lon="6.54462">
        <ele>2159.74</ele>
        <time>2020-09-13T11:04:01Z</time>
      </trkpt>
      <trkpt lat="45.62195" lon="6.54465">
        <ele>2160.7</ele>
        <time>2020-09-13T11:04:05Z</time>
      </trkpt>
      <trkpt lat="45.62197" lon="6.54477">
        <ele>2159.74</ele>
        <time>2020-09-13T11:04:16Z</time>
      </trkpt>
      <trkpt lat="45.62199" lon="6.54492">
        <ele>2158.3</ele>
        <time>2020-09-13T11:04:26Z</time>
      </trkpt>
      <trkpt lat="45.622" lon="6.54494">
        <ele>2158.3</ele>
        <time>2020-09-13T11:04:27Z</time>
      </trkpt>
      <trkpt lat="45.622" lon="6.54505">
        <ele>2158.3</ele>
        <time>2020-09-13T11:04:34Z</time>
      </trkpt>
      <trkpt lat="45.62202" lon="6.54507">
        <ele>2158.78</ele>
        <time>2020-09-13T11:04:37Z</time>
      </trkpt>
      <trkpt lat="45.62203" lon="6.54511">
        <ele>2159.26</ele>
        <time>2020-09-13T11:04:43Z</time>
      </trkpt>
      <trkpt lat="45.62206" lon="6.54513">
        <ele>2160.22</ele>
        <time>2020-09-13T11:04:52Z</time>
      </trkpt>
      <trkpt lat="45.62204" lon="6.54519">
        <ele>2159.74</ele>
        <time>2020-09-13T11:04:57Z</time>
      </trkpt>
      <trkpt lat="45.62196" lon="6.54525">
        <ele>2156.86</ele>
        <time>2020-09-13T11:05:10Z</time>
      </trkpt>
      <trkpt lat="45.62195" lon="6.54536">
        <ele>2154.45</ele>
        <time>2020-09-13T11:05:21Z</time>
      </trkpt>
      <trkpt lat="45.62196" lon="6.54541">
        <ele>2153.49</ele>
        <time>2020-09-13T11:05:27Z</time>
      </trkpt>
      <trkpt lat="45.62197" lon="6.54544">
        <ele>2153.97</ele>
        <time>2020-09-13T11:05:29Z</time>
      </trkpt>
      <trkpt lat="45.62198" lon="6.54562">
        <ele>2152.05</ele>
        <time>2020-09-13T11:05:39Z</time>
      </trkpt>
      <trkpt lat="45.62201" lon="6.54573">
        <ele>2152.05</ele>
        <time>2020-09-13T11:05:49Z</time>
      </trkpt>
      <trkpt lat="45.62201" lon="6.54575">
        <ele>2151.57</ele>
        <time>2020-09-13T11:05:50Z</time>
      </trkpt>
      <trkpt lat="45.62199" lon="6.54589">
        <ele>2151.09</ele>
        <time>2020-09-13T11:06:00Z</time>
      </trkpt>
      <trkpt lat="45.622" lon="6.54603">
        <ele>2148.2</ele>
        <time>2020-09-13T11:06:13Z</time>
      </trkpt>
      <trkpt lat="45.62199" lon="6.54607">
        <ele>2148.2</ele>
        <time>2020-09-13T11:06:16Z</time>
      </trkpt>
      <trkpt lat="45.62198" lon="6.54613">
        <ele>2145.8</ele>
        <time>2020-09-13T11:06:27Z</time>
      </trkpt>
      <trkpt lat="45.62197" lon="6.54618">
        <ele>2144.84</ele>
        <time>2020-09-13T11:06:31Z</time>
      </trkpt>
      <trkpt lat="45.62199" lon="6.54626">
        <ele>2142.44</ele>
        <time>2020-09-13T11:06:43Z</time>
      </trkpt>
      <trkpt lat="45.62199" lon="6.5463">
        <ele>2141.47</ele>
        <time>2020-09-13T11:06:46Z</time>
      </trkpt>
      <trkpt lat="45.62202" lon="6.54644">
        <ele>2139.07</ele>
        <time>2020-09-13T11:06:58Z</time>
      </trkpt>
      <trkpt lat="45.62202" lon="6.54647">
        <ele>2137.63</ele>
        <time>2020-09-13T11:07:04Z</time>
      </trkpt>
      <trkpt lat="45.62204" lon="6.54655">
        <ele>2137.63</ele>
        <time>2020-09-13T11:07:08Z</time>
      </trkpt>
      <trkpt lat="45.62203" lon="6.54671">
        <ele>2137.15</ele>
        <time>2020-09-13T11:07:23Z</time>
      </trkpt>
      <trkpt lat="45.62202" lon="6.54675">
        <ele>2135.23</ele>
        <time>2020-09-13T11:07:32Z</time>
      </trkpt>
      <trkpt lat="45.62203" lon="6.54676">
        <ele>2135.23</ele>
        <time>2020-09-13T11:07:46Z</time>
      </trkpt>
      <trkpt lat="45.62203" lon="6.54682">
        <ele>2133.3</ele>
        <time>2020-09-13T11:07:56Z</time>
      </trkpt>
      <trkpt lat="45.62206" lon="6.54686">
        <ele>2130.9</ele>
        <time>2020-09-13T11:08:06Z</time>
      </trkpt>
      <trkpt lat="45.62208" lon="6.54694">
        <ele>2129.46</ele>
        <time>2020-09-13T11:08:19Z</time>
      </trkpt>
      <trkpt lat="45.62208" lon="6.54701">
        <ele>2128.02</ele>
        <time>2020-09-13T11:08:25Z</time>
      </trkpt>
      <trkpt lat="45.62209" lon="6.54706">
        <ele>2128.98</ele>
        <time>2020-09-13T11:08:28Z</time>
      </trkpt>
      <trkpt lat="45.62212" lon="6.54715">
        <ele>2127.05</ele>
        <time>2020-09-13T11:08:38Z</time>
      </trkpt>
      <trkpt lat="45.62212" lon="6.54716">
        <ele>2126.57</ele>
        <time>2020-09-13T11:08:39Z</time>
      </trkpt>
      <trkpt lat="45.62211" lon="6.54721">
        <ele>2125.61</ele>
        <time>2020-09-13T11:08:45Z</time>
      </trkpt>
      <trkpt lat="45.62212" lon="6.54733">
        <ele>2125.61</ele>
        <time>2020-09-13T11:08:55Z</time>
      </trkpt>
      <trkpt lat="45.62212" lon="6.54738">
        <ele>2123.21</ele>
        <time>2020-09-13T11:09:03Z</time>
      </trkpt>
      <trkpt lat="45.62218" lon="6.54748">
        <ele>2124.65</ele>
        <time>2020-09-13T11:09:14Z</time>
      </trkpt>
      <trkpt lat="45.62221" lon="6.54751">
        <ele>2124.65</ele>
        <time>2020-09-13T11:09:16Z</time>
      </trkpt>
      <trkpt lat="45.62222" lon="6.54756">
        <ele>2124.17</ele>
        <time>2020-09-13T11:09:20Z</time>
      </trkpt>
      <trkpt lat="45.62225" lon="6.54779">
        <ele>2122.25</ele>
        <time>2020-09-13T11:09:33Z</time>
      </trkpt>
      <trkpt lat="45.62226" lon="6.5479">
        <ele>2121.29</ele>
        <time>2020-09-13T11:09:40Z</time>
      </trkpt>
      <trkpt lat="45.62227" lon="6.54801">
        <ele>2121.29</ele>
        <time>2020-09-13T11:09:47Z</time>
      </trkpt>
      <trkpt lat="45.62236" lon="6.54819">
        <ele>2119.36</ele>
        <time>2020-09-13T11:09:56Z</time>
      </trkpt>
      <trkpt lat="45.62237" lon="6.54822">
        <ele>2118.88</ele>
        <time>2020-09-13T11:09:57Z</time>
      </trkpt>
      <trkpt lat="45.62243" lon="6.54836">
        <ele>2118.4</ele>
        <time>2020-09-13T11:10:11Z</time>
      </trkpt>
      <trkpt lat="45.62253" lon="6.54845">
        <ele>2117.92</ele>
        <time>2020-09-13T11:10:21Z</time>
      </trkpt>
      <trkpt lat="45.62257" lon="6.54847">
        <ele>2117.92</ele>
        <time>2020-09-13T11:10:23Z</time>
      </trkpt>
      <trkpt lat="45.62266" lon="6.54863">
        <ele>2118.88</ele>
        <time>2020-09-13T11:10:38Z</time>
      </trkpt>
      <trkpt lat="45.62265" lon="6.5487">
        <ele>2118.88</ele>
        <time>2020-09-13T11:10:51Z</time>
      </trkpt>
      <trkpt lat="45.62265" lon="6.5488">
        <ele>2117.44</ele>
        <time>2020-09-13T11:11:01Z</time>
      </trkpt>
      <trkpt lat="45.62264" lon="6.54888">
        <ele>2116</ele>
        <time>2020-09-13T11:11:05Z</time>
      </trkpt>
      <trkpt lat="45.62264" lon="6.54892">
        <ele>2115.52</ele>
        <time>2020-09-13T11:11:07Z</time>
      </trkpt>
      <trkpt lat="45.62269" lon="6.54908">
        <ele>2116</ele>
        <time>2020-09-13T11:11:18Z</time>
      </trkpt>
      <trkpt lat="45.62271" lon="6.54913">
        <ele>2116.48</ele>
        <time>2020-09-13T11:11:22Z</time>
      </trkpt>
      <trkpt lat="45.62275" lon="6.54919">
        <ele>2116.96</ele>
        <time>2020-09-13T11:11:31Z</time>
      </trkpt>
      <trkpt lat="45.62283" lon="6.54932">
        <ele>2119.84</ele>
        <time>2020-09-13T11:11:44Z</time>
      </trkpt>
      <trkpt lat="45.62286" lon="6.54939">
        <ele>2120.81</ele>
        <time>2020-09-13T11:11:50Z</time>
      </trkpt>
      <trkpt lat="45.62289" lon="6.54945">
        <ele>2122.73</ele>
        <time>2020-09-13T11:11:57Z</time>
      </trkpt>
      <trkpt lat="45.62288" lon="6.54949">
        <ele>2122.73</ele>
        <time>2020-09-13T11:12:10Z</time>
      </trkpt>
      <trkpt lat="45.62291" lon="6.54956">
        <ele>2126.09</ele>
        <time>2020-09-13T11:12:20Z</time>
      </trkpt>
      <trkpt lat="45.62293" lon="6.54965">
        <ele>2127.05</ele>
        <time>2020-09-13T11:12:31Z</time>
      </trkpt>
      <trkpt lat="45.62293" lon="6.54969">
        <ele>2128.98</ele>
        <time>2020-09-13T11:12:36Z</time>
      </trkpt>
      <trkpt lat="45.62295" lon="6.5498">
        <ele>2128.98</ele>
        <time>2020-09-13T11:12:46Z</time>
      </trkpt>
      <trkpt lat="45.62294" lon="6.54987">
        <ele>2129.94</ele>
        <time>2020-09-13T11:12:50Z</time>
      </trkpt>
      <trkpt lat="45.62296" lon="6.55">
        <ele>2128.98</ele>
        <time>2020-09-13T11:13:00Z</time>
      </trkpt>
      <trkpt lat="45.62303" lon="6.55018">
        <ele>2130.42</ele>
        <time>2020-09-13T11:13:13Z</time>
      </trkpt>
      <trkpt lat="45.62303" lon="6.55031">
        <ele>2132.34</ele>
        <time>2020-09-13T11:13:24Z</time>
      </trkpt>
      <trkpt lat="45.62301" lon="6.55044">
        <ele>2131.86</ele>
        <time>2020-09-13T11:13:34Z</time>
      </trkpt>
      <trkpt lat="45.62301" lon="6.55057">
        <ele>2132.34</ele>
        <time>2020-09-13T11:13:46Z</time>
      </trkpt>
      <trkpt lat="45.62303" lon="6.55061">
        <ele>2132.34</ele>
        <time>2020-09-13T11:13:50Z</time>
      </trkpt>
      <trkpt lat="45.62309" lon="6.5507">
        <ele>2133.3</ele>
        <time>2020-09-13T11:14:02Z</time>
      </trkpt>
      <trkpt lat="45.62315" lon="6.55077">
        <ele>2134.26</ele>
        <time>2020-09-13T11:14:11Z</time>
      </trkpt>
      <trkpt lat="45.62324" lon="6.55078">
        <ele>2132.82</ele>
        <time>2020-09-13T11:14:21Z</time>
      </trkpt>
      <trkpt lat="45.62325" lon="6.55089">
        <ele>2131.38</ele>
        <time>2020-09-13T11:14:29Z</time>
      </trkpt>
      <trkpt lat="45.62325" lon="6.55104">
        <ele>2128.5</ele>
        <time>2020-09-13T11:14:42Z</time>
      </trkpt>
      <trkpt lat="45.62328" lon="6.55109">
        <ele>2127.05</ele>
        <time>2020-09-13T11:14:52Z</time>
      </trkpt>
      <trkpt lat="45.62335" lon="6.55123">
        <ele>2125.61</ele>
        <time>2020-09-13T11:15:04Z</time>
      </trkpt>
      <trkpt lat="45.62335" lon="6.55128">
        <ele>2125.13</ele>
        <time>2020-09-13T11:15:11Z</time>
      </trkpt>
      <trkpt lat="45.62339" lon="6.5514">
        <ele>2125.13</ele>
        <time>2020-09-13T11:15:21Z</time>
      </trkpt>
      <trkpt lat="45.62339" lon="6.55141">
        <ele>2124.65</ele>
        <time>2020-09-13T11:15:22Z</time>
      </trkpt>
      <trkpt lat="45.62343" lon="6.55147">
        <ele>2126.09</ele>
        <time>2020-09-13T11:15:34Z</time>
      </trkpt>
      <trkpt lat="45.62348" lon="6.55156">
        <ele>2126.57</ele>
        <time>2020-09-13T11:15:46Z</time>
      </trkpt>
      <trkpt lat="45.6235" lon="6.55161">
        <ele>2129.46</ele>
        <time>2020-09-13T11:15:54Z</time>
      </trkpt>
      <trkpt lat="45.62353" lon="6.55169">
        <ele>2130.42</ele>
        <time>2020-09-13T11:16:06Z</time>
      </trkpt>
      <trkpt lat="45.62354" lon="6.55169">
        <ele>2129.94</ele>
        <time>2020-09-13T11:16:08Z</time>
      </trkpt>
      <trkpt lat="45.62356" lon="6.55166">
        <ele>2130.9</ele>
        <time>2020-09-13T11:16:12Z</time>
      </trkpt>
      <trkpt lat="45.6236" lon="6.55173">
        <ele>2128.98</ele>
        <time>2020-09-13T11:16:23Z</time>
      </trkpt>
      <trkpt lat="45.62365" lon="6.55179">
        <ele>2127.05</ele>
        <time>2020-09-13T11:16:30Z</time>
      </trkpt>
      <trkpt lat="45.62374" lon="6.55202">
        <ele>2127.05</ele>
        <time>2020-09-13T11:16:44Z</time>
      </trkpt>
      <trkpt lat="45.62381" lon="6.55213">
        <ele>2126.09</ele>
        <time>2020-09-13T11:16:57Z</time>
      </trkpt>
      <trkpt lat="45.62389" lon="6.55228">
        <ele>2123.69</ele>
        <time>2020-09-13T11:17:13Z</time>
      </trkpt>
      <trkpt lat="45.62394" lon="6.55242">
        <ele>2122.25</ele>
        <time>2020-09-13T11:17:26Z</time>
      </trkpt>
      <trkpt lat="45.62396" lon="6.55252">
        <ele>2121.29</ele>
        <time>2020-09-13T11:17:37Z</time>
      </trkpt>
      <trkpt lat="45.62396" lon="6.55254">
        <ele>2120.81</ele>
        <time>2020-09-13T11:17:38Z</time>
      </trkpt>
      <trkpt lat="45.62398" lon="6.55262">
        <ele>2120.32</ele>
        <time>2020-09-13T11:17:43Z</time>
      </trkpt>
      <trkpt lat="45.62407" lon="6.55276">
        <ele>2117.92</ele>
        <time>2020-09-13T11:17:55Z</time>
      </trkpt>
      <trkpt lat="45.62406" lon="6.55279">
        <ele>2117.44</ele>
        <time>2020-09-13T11:17:57Z</time>
      </trkpt>
      <trkpt lat="45.62413" lon="6.55302">
        <ele>2116.48</ele>
        <time>2020-09-13T11:18:11Z</time>
      </trkpt>
      <trkpt lat="45.62412" lon="6.55308">
        <ele>2116.96</ele>
        <time>2020-09-13T11:18:14Z</time>
      </trkpt>
      <trkpt lat="45.62413" lon="6.55318">
        <ele>2117.92</ele>
        <time>2020-09-13T11:18:20Z</time>
      </trkpt>
      <trkpt lat="45.62414" lon="6.55323">
        <ele>2118.4</ele>
        <time>2020-09-13T11:18:24Z</time>
      </trkpt>
      <trkpt lat="45.62417" lon="6.55327">
        <ele>2118.4</ele>
        <time>2020-09-13T11:18:28Z</time>
      </trkpt>
      <trkpt lat="45.62422" lon="6.55345">
        <ele>2119.36</ele>
        <time>2020-09-13T11:18:40Z</time>
      </trkpt>
      <trkpt lat="45.62424" lon="6.55352">
        <ele>2119.36</ele>
        <time>2020-09-13T11:18:47Z</time>
      </trkpt>
      <trkpt lat="45.62429" lon="6.55366">
        <ele>2119.84</ele>
        <time>2020-09-13T11:18:59Z</time>
      </trkpt>
      <trkpt lat="45.62431" lon="6.55381">
        <ele>2119.36</ele>
        <time>2020-09-13T11:19:07Z</time>
      </trkpt>
      <trkpt lat="45.62437" lon="6.55403">
        <ele>2119.84</ele>
        <time>2020-09-13T11:19:18Z</time>
      </trkpt>
      <trkpt lat="45.62437" lon="6.55405">
        <ele>2119.84</ele>
        <time>2020-09-13T11:19:20Z</time>
      </trkpt>
      <trkpt lat="45.62437" lon="6.55409">
        <ele>2119.84</ele>
        <time>2020-09-13T11:19:23Z</time>
      </trkpt>
      <trkpt lat="45.62436" lon="6.5542">
        <ele>2119.36</ele>
        <time>2020-09-13T11:19:31Z</time>
      </trkpt>
      <trkpt lat="45.62437" lon="6.55435">
        <ele>2119.36</ele>
        <time>2020-09-13T11:19:39Z</time>
      </trkpt>
      <trkpt lat="45.62439" lon="6.55449">
        <ele>2118.88</ele>
        <time>2020-09-13T11:19:51Z</time>
      </trkpt>
      <trkpt lat="45.6244" lon="6.55449">
        <ele>2118.88</ele>
        <time>2020-09-13T11:20:08Z</time>
      </trkpt>
      <trkpt lat="45.62439" lon="6.55451">
        <ele>2118.88</ele>
        <time>2020-09-13T11:20:24Z</time>
      </trkpt>
      <trkpt lat="45.62435" lon="6.55441">
        <ele>2118.88</ele>
        <time>2020-09-13T11:20:43Z</time>
      </trkpt>
      <trkpt lat="45.62438" lon="6.55427">
        <ele>2120.81</ele>
        <time>2020-09-13T11:20:54Z</time>
      </trkpt>
      <trkpt lat="45.62438" lon="6.55424">
        <ele>2119.84</ele>
        <time>2020-09-13T11:21:17Z</time>
      </trkpt>
      <trkpt lat="45.6244" lon="6.5542">
        <ele>2120.32</ele>
        <time>2020-09-13T11:21:29Z</time>
      </trkpt>
      <trkpt lat="45.62439" lon="6.55421">
        <ele>2119.84</ele>
        <time>2020-09-13T11:21:32Z</time>
      </trkpt>
      <trkpt lat="45.62437" lon="6.55429">
        <ele>2119.36</ele>
        <time>2020-09-13T11:21:36Z</time>
      </trkpt>
      <trkpt lat="45.62436" lon="6.55433">
        <ele>2119.36</ele>
        <time>2020-09-13T11:21:39Z</time>
      </trkpt>
      <trkpt lat="45.62429" lon="6.55442">
        <ele>2118.88</ele>
        <time>2020-09-13T11:21:47Z</time>
      </trkpt>
      <trkpt lat="45.62427" lon="6.55444">
        <ele>2119.36</ele>
        <time>2020-09-13T11:21:49Z</time>
      </trkpt>
      <trkpt lat="45.62418" lon="6.5545">
        <ele>2119.84</ele>
        <time>2020-09-13T11:21:58Z</time>
      </trkpt>
      <trkpt lat="45.62415" lon="6.55454">
        <ele>2120.81</ele>
        <time>2020-09-13T11:22:04Z</time>
      </trkpt>
      <trkpt lat="45.62413" lon="6.55457">
        <ele>2122.25</ele>
        <time>2020-09-13T11:22:13Z</time>
      </trkpt>
      <trkpt lat="45.62413" lon="6.55467">
        <ele>2123.69</ele>
        <time>2020-09-13T11:22:25Z</time>
      </trkpt>
      <trkpt lat="45.62415" lon="6.55472">
        <ele>2124.65</ele>
        <time>2020-09-13T11:22:36Z</time>
      </trkpt>
      <trkpt lat="45.62417" lon="6.55474">
        <ele>2125.13</ele>
        <time>2020-09-13T11:22:47Z</time>
      </trkpt>
      <trkpt lat="45.62419" lon="6.55476">
        <ele>2125.61</ele>
        <time>2020-09-13T11:23:00Z</time>
      </trkpt>
      <trkpt lat="45.62419" lon="6.55476">
        <ele>2125.61</ele>
        <time>2020-09-13T11:23:04Z</time>
      </trkpt>
      <trkpt lat="45.62422" lon="6.5548">
        <ele>2125.13</ele>
        <time>2020-09-13T11:23:10Z</time>
      </trkpt>
      <trkpt lat="45.62426" lon="6.55491">
        <ele>2125.61</ele>
        <time>2020-09-13T11:23:21Z</time>
      </trkpt>
      <trkpt lat="45.62426" lon="6.55493">
        <ele>2125.61</ele>
        <time>2020-09-13T11:23:34Z</time>
      </trkpt>
      <trkpt lat="45.62427" lon="6.55495">
        <ele>2126.09</ele>
        <time>2020-09-13T11:23:39Z</time>
      </trkpt>
      <trkpt lat="45.62425" lon="6.55498">
        <ele>2127.53</ele>
        <time>2020-09-13T11:23:47Z</time>
      </trkpt>
      <trkpt lat="45.62424" lon="6.55503">
        <ele>2128.98</ele>
        <time>2020-09-13T11:23:52Z</time>
      </trkpt>
      <trkpt lat="45.62425" lon="6.55509">
        <ele>2128.98</ele>
        <time>2020-09-13T11:23:57Z</time>
      </trkpt>
      <trkpt lat="45.62425" lon="6.55518">
        <ele>2130.42</ele>
        <time>2020-09-13T11:24:04Z</time>
      </trkpt>
      <trkpt lat="45.62421" lon="6.55533">
        <ele>2131.38</ele>
        <time>2020-09-13T11:24:16Z</time>
      </trkpt>
      <trkpt lat="45.62423" lon="6.55544">
        <ele>2131.86</ele>
        <time>2020-09-13T11:24:31Z</time>
      </trkpt>
      <trkpt lat="45.62422" lon="6.55542">
        <ele>2131.38</ele>
        <time>2020-09-13T11:24:50Z</time>
      </trkpt>
      <trkpt lat="45.62422" lon="6.55543">
        <ele>2131.38</ele>
        <time>2020-09-13T11:25:23Z</time>
      </trkpt>
      <trkpt lat="45.62422" lon="6.55543">
        <ele>2131.86</ele>
        <time>2020-09-13T11:25:48Z</time>
      </trkpt>
      <trkpt lat="45.62422" lon="6.55543">
        <ele>2131.38</ele>
        <time>2020-09-13T11:26:20Z</time>
      </trkpt>
      <trkpt lat="45.62422" lon="6.55543">
        <ele>2131.86</ele>
        <time>2020-09-13T11:26:50Z</time>
      </trkpt>
      <trkpt lat="45.62422" lon="6.55543">
        <ele>2131.86</ele>
        <time>2020-09-13T11:27:22Z</time>
      </trkpt>
      <trkpt lat="45.62422" lon="6.55543">
        <ele>2131.86</ele>
        <time>2020-09-13T11:27:56Z</time>
      </trkpt>
      <trkpt lat="45.62422" lon="6.55543">
        <ele>2131.86</ele>
        <time>2020-09-13T11:28:31Z</time>
      </trkpt>
      <trkpt lat="45.62422" lon="6.55543">
        <ele>2131.86</ele>
        <time>2020-09-13T11:29:08Z</time>
      </trkpt>
      <trkpt lat="45.62422" lon="6.55543">
        <ele>2131.86</ele>
        <time>2020-09-13T11:29:48Z</time>
      </trkpt>
      <trkpt lat="45.62422" lon="6.55543">
        <ele>2132.34</ele>
        <time>2020-09-13T11:30:27Z</time>
      </trkpt>
      <trkpt lat="45.62422" lon="6.55543">
        <ele>2132.34</ele>
        <time>2020-09-13T11:31:04Z</time>
      </trkpt>
      <trkpt lat="45.62422" lon="6.55543">
        <ele>2132.34</ele>
        <time>2020-09-13T11:31:41Z</time>
      </trkpt>
      <trkpt lat="45.62422" lon="6.55543">
        <ele>2132.34</ele>
        <time>2020-09-13T11:32:23Z</time>
      </trkpt>
      <trkpt lat="45.62421" lon="6.55543">
        <ele>2132.34</ele>
        <time>2020-09-13T11:32:51Z</time>
      </trkpt>
      <trkpt lat="45.62421" lon="6.55543">
        <ele>2131.86</ele>
        <time>2020-09-13T11:33:18Z</time>
      </trkpt>
      <trkpt lat="45.62421" lon="6.55543">
        <ele>2131.86</ele>
        <time>2020-09-13T11:33:51Z</time>
      </trkpt>
      <trkpt lat="45.62421" lon="6.55543">
        <ele>2132.34</ele>
        <time>2020-09-13T11:34:35Z</time>
      </trkpt>
      <trkpt lat="45.62421" lon="6.55543">
        <ele>2131.86</ele>
        <time>2020-09-13T11:35:06Z</time>
      </trkpt>
      <trkpt lat="45.62421" lon="6.55543">
        <ele>2131.86</ele>
        <time>2020-09-13T11:35:45Z</time>
      </trkpt>
      <trkpt lat="45.62421" lon="6.55543">
        <ele>2131.86</ele>
        <time>2020-09-13T11:36:27Z</time>
      </trkpt>
      <trkpt lat="45.62421" lon="6.55543">
        <ele>2131.86</ele>
        <time>2020-09-13T11:36:52Z</time>
      </trkpt>
      <trkpt lat="45.62421" lon="6.55542">
        <ele>2131.86</ele>
        <time>2020-09-13T11:37:30Z</time>
      </trkpt>
      <trkpt lat="45.62421" lon="6.55542">
        <ele>2131.86</ele>
        <time>2020-09-13T11:37:59Z</time>
      </trkpt>
      <trkpt lat="45.62421" lon="6.55542">
        <ele>2131.86</ele>
        <time>2020-09-13T11:38:35Z</time>
      </trkpt>
      <trkpt lat="45.62421" lon="6.55543">
        <ele>2131.86</ele>
        <time>2020-09-13T11:39:04Z</time>
      </trkpt>
      <trkpt lat="45.62421" lon="6.55543">
        <ele>2131.86</ele>
        <time>2020-09-13T11:39:31Z</time>
      </trkpt>
      <trkpt lat="45.62421" lon="6.55543">
        <ele>2131.86</ele>
        <time>2020-09-13T11:39:58Z</time>
      </trkpt>
      <trkpt lat="45.62421" lon="6.55544">
        <ele>2131.86</ele>
        <time>2020-09-13T11:40:14Z</time>
      </trkpt>
      <trkpt lat="45.62422" lon="6.55545">
        <ele>2132.34</ele>
        <time>2020-09-13T11:40:38Z</time>
      </trkpt>
      <trkpt lat="45.62422" lon="6.55547">
        <ele>2131.86</ele>
        <time>2020-09-13T11:41:01Z</time>
      </trkpt>
      <trkpt lat="45.62422" lon="6.55546">
        <ele>2132.34</ele>
        <time>2020-09-13T11:41:33Z</time>
      </trkpt>
      <trkpt lat="45.62423" lon="6.55548">
        <ele>2132.34</ele>
        <time>2020-09-13T11:42:01Z</time>
      </trkpt>
      <trkpt lat="45.62423" lon="6.55547">
        <ele>2131.86</ele>
        <time>2020-09-13T11:42:28Z</time>
      </trkpt>
      <trkpt lat="45.62423" lon="6.55548">
        <ele>2131.86</ele>
        <time>2020-09-13T11:42:57Z</time>
      </trkpt>
      <trkpt lat="45.62422" lon="6.55547">
        <ele>2131.86</ele>
        <time>2020-09-13T11:43:30Z</time>
      </trkpt>
      <trkpt lat="45.62422" lon="6.55547">
        <ele>2131.86</ele>
        <time>2020-09-13T11:43:54Z</time>
      </trkpt>
      <trkpt lat="45.62423" lon="6.55547">
        <ele>2131.86</ele>
        <time>2020-09-13T11:44:27Z</time>
      </trkpt>
      <trkpt lat="45.62423" lon="6.55549">
        <ele>2131.86</ele>
        <time>2020-09-13T11:45:01Z</time>
      </trkpt>
      <trkpt lat="45.62424" lon="6.5555">
        <ele>2131.38</ele>
        <time>2020-09-13T11:45:19Z</time>
      </trkpt>
      <trkpt lat="45.62424" lon="6.5555">
        <ele>2131.86</ele>
        <time>2020-09-13T11:45:56Z</time>
      </trkpt>
      <trkpt lat="45.62424" lon="6.55549">
        <ele>2131.86</ele>
        <time>2020-09-13T11:46:32Z</time>
      </trkpt>
      <trkpt lat="45.62424" lon="6.55548">
        <ele>2131.38</ele>
        <time>2020-09-13T11:47:06Z</time>
      </trkpt>
      <trkpt lat="45.62423" lon="6.55547">
        <ele>2131.38</ele>
        <time>2020-09-13T11:47:32Z</time>
      </trkpt>
      <trkpt lat="45.62423" lon="6.55547">
        <ele>2131.38</ele>
        <time>2020-09-13T11:48:03Z</time>
      </trkpt>
      <trkpt lat="45.62423" lon="6.55546">
        <ele>2131.38</ele>
        <time>2020-09-13T11:48:43Z</time>
      </trkpt>
      <trkpt lat="45.62422" lon="6.55546">
        <ele>2130.9</ele>
        <time>2020-09-13T11:49:18Z</time>
      </trkpt>
      <trkpt lat="45.62422" lon="6.55546">
        <ele>2130.9</ele>
        <time>2020-09-13T11:49:47Z</time>
      </trkpt>
      <trkpt lat="45.62422" lon="6.55546">
        <ele>2130.9</ele>
        <time>2020-09-13T11:50:13Z</time>
      </trkpt>
      <trkpt lat="45.62422" lon="6.55546">
        <ele>2130.9</ele>
        <time>2020-09-13T11:50:45Z</time>
      </trkpt>
      <trkpt lat="45.62421" lon="6.55545">
        <ele>2130.9</ele>
        <time>2020-09-13T11:51:12Z</time>
      </trkpt>
      <trkpt lat="45.62421" lon="6.55545">
        <ele>2130.9</ele>
        <time>2020-09-13T11:51:39Z</time>
      </trkpt>
      <trkpt lat="45.62421" lon="6.55545">
        <ele>2130.9</ele>
        <time>2020-09-13T11:52:13Z</time>
      </trkpt>
      <trkpt lat="45.62421" lon="6.55545">
        <ele>2130.9</ele>
        <time>2020-09-13T11:52:44Z</time>
      </trkpt>
      <trkpt lat="45.62421" lon="6.55544">
        <ele>2130.42</ele>
        <time>2020-09-13T11:53:09Z</time>
      </trkpt>
      <trkpt lat="45.62422" lon="6.55544">
        <ele>2130.9</ele>
        <time>2020-09-13T11:53:35Z</time>
      </trkpt>
      <trkpt lat="45.62422" lon="6.55544">
        <ele>2130.42</ele>
        <time>2020-09-13T11:54:06Z</time>
      </trkpt>
      <trkpt lat="45.62422" lon="6.55544">
        <ele>2130.42</ele>
        <time>2020-09-13T11:54:34Z</time>
      </trkpt>
      <trkpt lat="45.62422" lon="6.55544">
        <ele>2130.42</ele>
        <time>2020-09-13T11:55:12Z</time>
      </trkpt>
      <trkpt lat="45.62423" lon="6.55544">
        <ele>2130.42</ele>
        <time>2020-09-13T11:55:48Z</time>
      </trkpt>
      <trkpt lat="45.62423" lon="6.55544">
        <ele>2130.9</ele>
        <time>2020-09-13T11:56:15Z</time>
      </trkpt>
      <trkpt lat="45.62423" lon="6.55544">
        <ele>2130.42</ele>
        <time>2020-09-13T11:56:44Z</time>
      </trkpt>
      <trkpt lat="45.62423" lon="6.55545">
        <ele>2130.9</ele>
        <time>2020-09-13T11:57:16Z</time>
      </trkpt>
      <trkpt lat="45.62423" lon="6.55545">
        <ele>2130.9</ele>
        <time>2020-09-13T11:57:47Z</time>
      </trkpt>
      <trkpt lat="45.62424" lon="6.55545">
        <ele>2130.9</ele>
        <time>2020-09-13T11:58:11Z</time>
      </trkpt>
      <trkpt lat="45.62424" lon="6.55545">
        <ele>2130.9</ele>
        <time>2020-09-13T11:58:33Z</time>
      </trkpt>
      <trkpt lat="45.62424" lon="6.55545">
        <ele>2130.9</ele>
        <time>2020-09-13T11:59:09Z</time>
      </trkpt>
      <trkpt lat="45.62424" lon="6.55545">
        <ele>2130.9</ele>
        <time>2020-09-13T11:59:34Z</time>
      </trkpt>
      <trkpt lat="45.62424" lon="6.55545">
        <ele>2130.9</ele>
        <time>2020-09-13T12:00:07Z</time>
      </trkpt>
      <trkpt lat="45.62424" lon="6.55545">
        <ele>2130.9</ele>
        <time>2020-09-13T12:00:35Z</time>
      </trkpt>
      <trkpt lat="45.62424" lon="6.55544">
        <ele>2130.9</ele>
        <time>2020-09-13T12:01:05Z</time>
      </trkpt>
      <trkpt lat="45.62424" lon="6.55544">
        <ele>2130.9</ele>
        <time>2020-09-13T12:01:34Z</time>
      </trkpt>
      <trkpt lat="45.62423" lon="6.55544">
        <ele>2130.9</ele>
        <time>2020-09-13T12:01:53Z</time>
      </trkpt>
      <trkpt lat="45.62423" lon="6.55544">
        <ele>2131.38</ele>
        <time>2020-09-13T12:02:13Z</time>
      </trkpt>
      <trkpt lat="45.62423" lon="6.55544">
        <ele>2131.38</ele>
        <time>2020-09-13T12:02:28Z</time>
      </trkpt>
      <trkpt lat="45.62422" lon="6.55544">
        <ele>2131.38</ele>
        <time>2020-09-13T12:02:51Z</time>
      </trkpt>
      <trkpt lat="45.62423" lon="6.55543">
        <ele>2131.38</ele>
        <time>2020-09-13T12:03:11Z</time>
      </trkpt>
      <trkpt lat="45.62424" lon="6.55544">
        <ele>2131.38</ele>
        <time>2020-09-13T12:03:26Z</time>
      </trkpt>
      <trkpt lat="45.62424" lon="6.55543">
        <ele>2131.38</ele>
        <time>2020-09-13T12:03:57Z</time>
      </trkpt>
      <trkpt lat="45.62423" lon="6.55542">
        <ele>2130.42</ele>
        <time>2020-09-13T12:04:13Z</time>
      </trkpt>
      <trkpt lat="45.62423" lon="6.55542">
        <ele>2130.9</ele>
        <time>2020-09-13T12:04:27Z</time>
      </trkpt>
      <trkpt lat="45.62423" lon="6.55543">
        <ele>2131.86</ele>
        <time>2020-09-13T12:04:47Z</time>
      </trkpt>
      <trkpt lat="45.62422" lon="6.55542">
        <ele>2131.86</ele>
        <time>2020-09-13T12:05:03Z</time>
      </trkpt>
      <trkpt lat="45.62422" lon="6.55542">
        <ele>2130.9</ele>
        <time>2020-09-13T12:05:18Z</time>
      </trkpt>
      <trkpt lat="45.62423" lon="6.55542">
        <ele>2130.42</ele>
        <time>2020-09-13T12:05:41Z</time>
      </trkpt>
      <trkpt lat="45.62422" lon="6.5554">
        <ele>2131.38</ele>
        <time>2020-09-13T12:05:48Z</time>
      </trkpt>
      <trkpt lat="45.62421" lon="6.55532">
        <ele>2130.9</ele>
        <time>2020-09-13T12:05:56Z</time>
      </trkpt>
      <trkpt lat="45.62422" lon="6.55528">
        <ele>2130.42</ele>
        <time>2020-09-13T12:05:59Z</time>
      </trkpt>
      <trkpt lat="45.62421" lon="6.5552">
        <ele>2130.42</ele>
        <time>2020-09-13T12:06:07Z</time>
      </trkpt>
      <trkpt lat="45.62421" lon="6.55516">
        <ele>2129.94</ele>
        <time>2020-09-13T12:06:10Z</time>
      </trkpt>
      <trkpt lat="45.62421" lon="6.55495">
        <ele>2127.53</ele>
        <time>2020-09-13T12:06:23Z</time>
      </trkpt>
      <trkpt lat="45.6242" lon="6.55489">
        <ele>2126.09</ele>
        <time>2020-09-13T12:06:30Z</time>
      </trkpt>
      <trkpt lat="45.62419" lon="6.55486">
        <ele>2125.61</ele>
        <time>2020-09-13T12:06:32Z</time>
      </trkpt>
      <trkpt lat="45.62415" lon="6.55479">
        <ele>2125.13</ele>
        <time>2020-09-13T12:06:36Z</time>
      </trkpt>
      <trkpt lat="45.62414" lon="6.55467">
        <ele>2123.69</ele>
        <time>2020-09-13T12:06:41Z</time>
      </trkpt>
      <trkpt lat="45.62416" lon="6.55462">
        <ele>2121.29</ele>
        <time>2020-09-13T12:06:49Z</time>
      </trkpt>
      <trkpt lat="45.62423" lon="6.55454">
        <ele>2119.36</ele>
        <time>2020-09-13T12:06:58Z</time>
      </trkpt>
      <trkpt lat="45.62424" lon="6.55453">
        <ele>2119.36</ele>
        <time>2020-09-13T12:06:59Z</time>
      </trkpt>
      <trkpt lat="45.62425" lon="6.55443">
        <ele>2118.4</ele>
        <time>2020-09-13T12:07:06Z</time>
      </trkpt>
      <trkpt lat="45.6243" lon="6.55438">
        <ele>2117.92</ele>
        <time>2020-09-13T12:07:13Z</time>
      </trkpt>
      <trkpt lat="45.62428" lon="6.55429">
        <ele>2117.44</ele>
        <time>2020-09-13T12:07:18Z</time>
      </trkpt>
      <trkpt lat="45.62428" lon="6.55423">
        <ele>2117.92</ele>
        <time>2020-09-13T12:07:29Z</time>
      </trkpt>
      <trkpt lat="45.62428" lon="6.55424">
        <ele>2117.92</ele>
        <time>2020-09-13T12:07:53Z</time>
      </trkpt>
      <trkpt lat="45.62428" lon="6.55425">
        <ele>2117.92</ele>
        <time>2020-09-13T12:08:11Z</time>
      </trkpt>
      <trkpt lat="45.62429" lon="6.55425">
        <ele>2117.92</ele>
        <time>2020-09-13T12:08:31Z</time>
      </trkpt>
      <trkpt lat="45.62429" lon="6.55423">
        <ele>2118.4</ele>
        <time>2020-09-13T12:08:37Z</time>
      </trkpt>
      <trkpt lat="45.62429" lon="6.55419">
        <ele>2118.4</ele>
        <time>2020-09-13T12:08:39Z</time>
      </trkpt>
      <trkpt lat="45.62431" lon="6.55393">
        <ele>2118.4</ele>
        <time>2020-09-13T12:08:52Z</time>
      </trkpt>
      <trkpt lat="45.62431" lon="6.55392">
        <ele>2118.4</ele>
        <time>2020-09-13T12:08:53Z</time>
      </trkpt>
      <trkpt lat="45.62427" lon="6.55377">
        <ele>2117.92</ele>
        <time>2020-09-13T12:09:01Z</time>
      </trkpt>
      <trkpt lat="45.62423" lon="6.55358">
        <ele>2117.92</ele>
        <time>2020-09-13T12:09:13Z</time>
      </trkpt>
      <trkpt lat="45.62423" lon="6.55354">
        <ele>2117.44</ele>
        <time>2020-09-13T12:09:15Z</time>
      </trkpt>
      <trkpt lat="45.62421" lon="6.55343">
        <ele>2117.44</ele>
        <time>2020-09-13T12:09:20Z</time>
      </trkpt>
      <trkpt lat="45.62417" lon="6.55332">
        <ele>2117.44</ele>
        <time>2020-09-13T12:09:27Z</time>
      </trkpt>
      <trkpt lat="45.62413" lon="6.55313">
        <ele>2116.48</ele>
        <time>2020-09-13T12:09:39Z</time>
      </trkpt>
      <trkpt lat="45.62411" lon="6.55294">
        <ele>2115.04</ele>
        <time>2020-09-13T12:09:51Z</time>
      </trkpt>
      <trkpt lat="45.62405" lon="6.5528">
        <ele>2116</ele>
        <time>2020-09-13T12:10:00Z</time>
      </trkpt>
      <trkpt lat="45.624" lon="6.55272">
        <ele>2116</ele>
        <time>2020-09-13T12:10:07Z</time>
      </trkpt>
      <trkpt lat="45.62396" lon="6.55259">
        <ele>2118.88</ele>
        <time>2020-09-13T12:10:19Z</time>
      </trkpt>
      <trkpt lat="45.62396" lon="6.55253">
        <ele>2119.84</ele>
        <time>2020-09-13T12:10:23Z</time>
      </trkpt>
      <trkpt lat="45.62394" lon="6.55244">
        <ele>2120.81</ele>
        <time>2020-09-13T12:10:35Z</time>
      </trkpt>
      <trkpt lat="45.6239" lon="6.55236">
        <ele>2120.81</ele>
        <time>2020-09-13T12:10:43Z</time>
      </trkpt>
      <trkpt lat="45.62389" lon="6.55228">
        <ele>2121.29</ele>
        <time>2020-09-13T12:10:50Z</time>
      </trkpt>
      <trkpt lat="45.62388" lon="6.55226">
        <ele>2121.29</ele>
        <time>2020-09-13T12:10:53Z</time>
      </trkpt>
      <trkpt lat="45.62384" lon="6.55218">
        <ele>2122.73</ele>
        <time>2020-09-13T12:11:03Z</time>
      </trkpt>
      <trkpt lat="45.62383" lon="6.55213">
        <ele>2124.65</ele>
        <time>2020-09-13T12:11:14Z</time>
      </trkpt>
      <trkpt lat="45.62378" lon="6.55206">
        <ele>2125.13</ele>
        <time>2020-09-13T12:11:26Z</time>
      </trkpt>
      <trkpt lat="45.62374" lon="6.55201">
        <ele>2126.57</ele>
        <time>2020-09-13T12:11:31Z</time>
      </trkpt>
      <trkpt lat="45.6237" lon="6.55194">
        <ele>2126.09</ele>
        <time>2020-09-13T12:11:36Z</time>
      </trkpt>
      <trkpt lat="45.62365" lon="6.55178">
        <ele>2125.61</ele>
        <time>2020-09-13T12:11:48Z</time>
      </trkpt>
      <trkpt lat="45.62363" lon="6.55175">
        <ele>2125.61</ele>
        <time>2020-09-13T12:11:53Z</time>
      </trkpt>
      <trkpt lat="45.6236" lon="6.55169">
        <ele>2128.5</ele>
        <time>2020-09-13T12:12:04Z</time>
      </trkpt>
      <trkpt lat="45.62353" lon="6.55165">
        <ele>2129.94</ele>
        <time>2020-09-13T12:12:15Z</time>
      </trkpt>
      <trkpt lat="45.62353" lon="6.55165">
        <ele>2129.46</ele>
        <time>2020-09-13T12:12:17Z</time>
      </trkpt>
      <trkpt lat="45.62352" lon="6.55166">
        <ele>2128.5</ele>
        <time>2020-09-13T12:12:27Z</time>
      </trkpt>
      <trkpt lat="45.62352" lon="6.55167">
        <ele>2127.53</ele>
        <time>2020-09-13T12:12:30Z</time>
      </trkpt>
      <trkpt lat="45.62346" lon="6.55164">
        <ele>2127.05</ele>
        <time>2020-09-13T12:12:40Z</time>
      </trkpt>
      <trkpt lat="45.62346" lon="6.55156">
        <ele>2126.09</ele>
        <time>2020-09-13T12:12:52Z</time>
      </trkpt>
      <trkpt lat="45.62341" lon="6.55147">
        <ele>2124.65</ele>
        <time>2020-09-13T12:13:04Z</time>
      </trkpt>
      <trkpt lat="45.6234" lon="6.55143">
        <ele>2123.69</ele>
        <time>2020-09-13T12:13:08Z</time>
      </trkpt>
      <trkpt lat="45.62339" lon="6.55139">
        <ele>2124.17</ele>
        <time>2020-09-13T12:13:11Z</time>
      </trkpt>
      <trkpt lat="45.62339" lon="6.55136">
        <ele>2125.13</ele>
        <time>2020-09-13T12:13:14Z</time>
      </trkpt>
      <trkpt lat="45.62335" lon="6.55127">
        <ele>2124.17</ele>
        <time>2020-09-13T12:13:26Z</time>
      </trkpt>
      <trkpt lat="45.62333" lon="6.55122">
        <ele>2125.13</ele>
        <time>2020-09-13T12:13:30Z</time>
      </trkpt>
      <trkpt lat="45.62326" lon="6.55113">
        <ele>2125.13</ele>
        <time>2020-09-13T12:13:42Z</time>
      </trkpt>
      <trkpt lat="45.6232" lon="6.55109">
        <ele>2127.05</ele>
        <time>2020-09-13T12:13:54Z</time>
      </trkpt>
      <trkpt lat="45.62321" lon="6.551">
        <ele>2128.5</ele>
        <time>2020-09-13T12:14:05Z</time>
      </trkpt>
      <trkpt lat="45.62322" lon="6.55092">
        <ele>2132.34</ele>
        <time>2020-09-13T12:14:17Z</time>
      </trkpt>
      <trkpt lat="45.6232" lon="6.55086">
        <ele>2132.34</ele>
        <time>2020-09-13T12:14:27Z</time>
      </trkpt>
      <trkpt lat="45.62317" lon="6.55084">
        <ele>2133.78</ele>
        <time>2020-09-13T12:14:33Z</time>
      </trkpt>
      <trkpt lat="45.62311" lon="6.55076">
        <ele>2132.82</ele>
        <time>2020-09-13T12:14:44Z</time>
      </trkpt>
      <trkpt lat="45.62307" lon="6.55068">
        <ele>2132.82</ele>
        <time>2020-09-13T12:14:50Z</time>
      </trkpt>
      <trkpt lat="45.62303" lon="6.55063">
        <ele>2131.38</ele>
        <time>2020-09-13T12:14:55Z</time>
      </trkpt>
      <trkpt lat="45.62298" lon="6.55054">
        <ele>2130.9</ele>
        <time>2020-09-13T12:15:07Z</time>
      </trkpt>
      <trkpt lat="45.62296" lon="6.55052">
        <ele>2131.38</ele>
        <time>2020-09-13T12:15:10Z</time>
      </trkpt>
      <trkpt lat="45.62299" lon="6.55041">
        <ele>2130.42</ele>
        <time>2020-09-13T12:15:17Z</time>
      </trkpt>
      <trkpt lat="45.62299" lon="6.55033">
        <ele>2130.42</ele>
        <time>2020-09-13T12:15:23Z</time>
      </trkpt>
      <trkpt lat="45.62299" lon="6.55021">
        <ele>2129.46</ele>
        <time>2020-09-13T12:15:32Z</time>
      </trkpt>
      <trkpt lat="45.62292" lon="6.55008">
        <ele>2128.02</ele>
        <time>2020-09-13T12:15:41Z</time>
      </trkpt>
      <trkpt lat="45.62289" lon="6.54995">
        <ele>2128.02</ele>
        <time>2020-09-13T12:15:49Z</time>
      </trkpt>
      <trkpt lat="45.62288" lon="6.5499">
        <ele>2128.02</ele>
        <time>2020-09-13T12:15:58Z</time>
      </trkpt>
      <trkpt lat="45.62286" lon="6.54973">
        <ele>2126.09</ele>
        <time>2020-09-13T12:16:10Z</time>
      </trkpt>
      <trkpt lat="45.62285" lon="6.54961">
        <ele>2123.69</ele>
        <time>2020-09-13T12:16:21Z</time>
      </trkpt>
      <trkpt lat="45.62283" lon="6.54955">
        <ele>2122.25</ele>
        <time>2020-09-13T12:16:27Z</time>
      </trkpt>
      <trkpt lat="45.62283" lon="6.54939">
        <ele>2119.36</ele>
        <time>2020-09-13T12:16:39Z</time>
      </trkpt>
      <trkpt lat="45.6228" lon="6.54928">
        <ele>2117.44</ele>
        <time>2020-09-13T12:16:51Z</time>
      </trkpt>
      <trkpt lat="45.62277" lon="6.54925">
        <ele>2116.48</ele>
        <time>2020-09-13T12:16:55Z</time>
      </trkpt>
      <trkpt lat="45.62272" lon="6.54907">
        <ele>2115.52</ele>
        <time>2020-09-13T12:17:05Z</time>
      </trkpt>
      <trkpt lat="45.62265" lon="6.549">
        <ele>2114.56</ele>
        <time>2020-09-13T12:17:16Z</time>
      </trkpt>
      <trkpt lat="45.62262" lon="6.54884">
        <ele>2114.56</ele>
        <time>2020-09-13T12:17:26Z</time>
      </trkpt>
      <trkpt lat="45.62264" lon="6.5487">
        <ele>2116.96</ele>
        <time>2020-09-13T12:17:39Z</time>
      </trkpt>
      <trkpt lat="45.62266" lon="6.54864">
        <ele>2116.96</ele>
        <time>2020-09-13T12:17:45Z</time>
      </trkpt>
      <trkpt lat="45.62258" lon="6.54852">
        <ele>2117.44</ele>
        <time>2020-09-13T12:17:57Z</time>
      </trkpt>
      <trkpt lat="45.62257" lon="6.54852">
        <ele>2117.44</ele>
        <time>2020-09-13T12:17:59Z</time>
      </trkpt>
      <trkpt lat="45.62244" lon="6.54845">
        <ele>2117.44</ele>
        <time>2020-09-13T12:18:09Z</time>
      </trkpt>
      <trkpt lat="45.62233" lon="6.54835">
        <ele>2118.4</ele>
        <time>2020-09-13T12:18:19Z</time>
      </trkpt>
      <trkpt lat="45.62232" lon="6.54831">
        <ele>2117.92</ele>
        <time>2020-09-13T12:18:23Z</time>
      </trkpt>
      <trkpt lat="45.62228" lon="6.54818">
        <ele>2118.4</ele>
        <time>2020-09-13T12:18:32Z</time>
      </trkpt>
      <trkpt lat="45.62227" lon="6.54799">
        <ele>2120.81</ele>
        <time>2020-09-13T12:18:45Z</time>
      </trkpt>
      <trkpt lat="45.62225" lon="6.54794">
        <ele>2121.29</ele>
        <time>2020-09-13T12:18:49Z</time>
      </trkpt>
      <trkpt lat="45.62224" lon="6.54776">
        <ele>2122.25</ele>
        <time>2020-09-13T12:19:03Z</time>
      </trkpt>
      <trkpt lat="45.62221" lon="6.54769">
        <ele>2122.25</ele>
        <time>2020-09-13T12:19:09Z</time>
      </trkpt>
      <trkpt lat="45.62215" lon="6.54755">
        <ele>2124.65</ele>
        <time>2020-09-13T12:19:21Z</time>
      </trkpt>
      <trkpt lat="45.62214" lon="6.54755">
        <ele>2125.13</ele>
        <time>2020-09-13T12:19:22Z</time>
      </trkpt>
      <trkpt lat="45.62212" lon="6.5475">
        <ele>2124.65</ele>
        <time>2020-09-13T12:19:25Z</time>
      </trkpt>
      <trkpt lat="45.62207" lon="6.54736">
        <ele>2118.88</ele>
        <time>2020-09-13T12:19:35Z</time>
      </trkpt>
      <trkpt lat="45.62207" lon="6.54735">
        <ele>2127.05</ele>
        <time>2020-09-13T12:19:36Z</time>
      </trkpt>
      <trkpt lat="45.62208" lon="6.54733">
        <ele>2123.69</ele>
        <time>2020-09-13T12:19:37Z</time>
      </trkpt>
      <trkpt lat="45.62212" lon="6.54727">
        <ele>2126.09</ele>
        <time>2020-09-13T12:19:45Z</time>
      </trkpt>
      <trkpt lat="45.62212" lon="6.54711">
        <ele>2125.13</ele>
        <time>2020-09-13T12:19:57Z</time>
      </trkpt>
      <trkpt lat="45.62211" lon="6.54705">
        <ele>2128.98</ele>
        <time>2020-09-13T12:20:04Z</time>
      </trkpt>
      <trkpt lat="45.62211" lon="6.547">
        <ele>2128.5</ele>
        <time>2020-09-13T12:20:16Z</time>
      </trkpt>
      <trkpt lat="45.6221" lon="6.54697">
        <ele>2131.86</ele>
        <time>2020-09-13T12:20:26Z</time>
      </trkpt>
      <trkpt lat="45.6221" lon="6.54693">
        <ele>2131.86</ele>
        <time>2020-09-13T12:20:31Z</time>
      </trkpt>
      <trkpt lat="45.62208" lon="6.54686">
        <ele>2133.78</ele>
        <time>2020-09-13T12:20:43Z</time>
      </trkpt>
      <trkpt lat="45.62209" lon="6.54682">
        <ele>2134.26</ele>
        <time>2020-09-13T12:20:57Z</time>
      </trkpt>
      <trkpt lat="45.62208" lon="6.54682">
        <ele>2137.15</ele>
        <time>2020-09-13T12:20:58Z</time>
      </trkpt>
      <trkpt lat="45.62208" lon="6.54682">
        <ele>2133.78</ele>
        <time>2020-09-13T12:20:59Z</time>
      </trkpt>
      <trkpt lat="45.62207" lon="6.54682">
        <ele>2138.11</ele>
        <time>2020-09-13T12:21:00Z</time>
      </trkpt>
      <trkpt lat="45.62206" lon="6.54683">
        <ele>2136.67</ele>
        <time>2020-09-13T12:21:03Z</time>
      </trkpt>
      <trkpt lat="45.62204" lon="6.54675">
        <ele>2137.63</ele>
        <time>2020-09-13T12:21:14Z</time>
      </trkpt>
      <trkpt lat="45.62203" lon="6.54673">
        <ele>2137.63</ele>
        <time>2020-09-13T12:21:17Z</time>
      </trkpt>
      <trkpt lat="45.62201" lon="6.54666">
        <ele>2139.07</ele>
        <time>2020-09-13T12:21:28Z</time>
      </trkpt>
      <trkpt lat="45.62203" lon="6.54656">
        <ele>2139.55</ele>
        <time>2020-09-13T12:21:39Z</time>
      </trkpt>
      <trkpt lat="45.62201" lon="6.54648">
        <ele>2139.07</ele>
        <time>2020-09-13T12:21:45Z</time>
      </trkpt>
      <trkpt lat="45.62195" lon="6.54634">
        <ele>2139.07</ele>
        <time>2020-09-13T12:21:58Z</time>
      </trkpt>
      <trkpt lat="45.62195" lon="6.54628">
        <ele>2140.99</ele>
        <time>2020-09-13T12:22:09Z</time>
      </trkpt>
      <trkpt lat="45.62194" lon="6.54625">
        <ele>2145.32</ele>
        <time>2020-09-13T12:22:16Z</time>
      </trkpt>
      <trkpt lat="45.62193" lon="6.54624">
        <ele>2142.44</ele>
        <time>2020-09-13T12:22:17Z</time>
      </trkpt>
      <trkpt lat="45.62189" lon="6.54622">
        <ele>2145.8</ele>
        <time>2020-09-13T12:22:30Z</time>
      </trkpt>
      <trkpt lat="45.62189" lon="6.54622">
        <ele>2141.95</ele>
        <time>2020-09-13T12:22:31Z</time>
      </trkpt>
      <trkpt lat="45.62189" lon="6.54621">
        <ele>2146.28</ele>
        <time>2020-09-13T12:22:32Z</time>
      </trkpt>
      <trkpt lat="45.6219" lon="6.54618">
        <ele>2145.32</ele>
        <time>2020-09-13T12:22:37Z</time>
      </trkpt>
      <trkpt lat="45.62194" lon="6.54613">
        <ele>2146.28</ele>
        <time>2020-09-13T12:22:47Z</time>
      </trkpt>
      <trkpt lat="45.62195" lon="6.54611">
        <ele>2149.65</ele>
        <time>2020-09-13T12:22:54Z</time>
      </trkpt>
      <trkpt lat="45.62198" lon="6.54606">
        <ele>2149.65</ele>
        <time>2020-09-13T12:23:03Z</time>
      </trkpt>
      <trkpt lat="45.622" lon="6.54597">
        <ele>2153.01</ele>
        <time>2020-09-13T12:23:15Z</time>
      </trkpt>
      <trkpt lat="45.62197" lon="6.54589">
        <ele>2153.49</ele>
        <time>2020-09-13T12:23:26Z</time>
      </trkpt>
      <trkpt lat="45.62195" lon="6.54581">
        <ele>2154.45</ele>
        <time>2020-09-13T12:23:33Z</time>
      </trkpt>
      <trkpt lat="45.62191" lon="6.54574">
        <ele>2153.01</ele>
        <time>2020-09-13T12:23:42Z</time>
      </trkpt>
      <trkpt lat="45.62183" lon="6.54564">
        <ele>2150.13</ele>
        <time>2020-09-13T12:23:53Z</time>
      </trkpt>
      <trkpt lat="45.62181" lon="6.54561">
        <ele>2150.61</ele>
        <time>2020-09-13T12:23:56Z</time>
      </trkpt>
      <trkpt lat="45.62178" lon="6.54553">
        <ele>2149.16</ele>
        <time>2020-09-13T12:24:00Z</time>
      </trkpt>
      <trkpt lat="45.62174" lon="6.54547">
        <ele>2148.68</ele>
        <time>2020-09-13T12:24:06Z</time>
      </trkpt>
      <trkpt lat="45.6217" lon="6.54541">
        <ele>2147.24</ele>
        <time>2020-09-13T12:24:14Z</time>
      </trkpt>
      <trkpt lat="45.62168" lon="6.54527">
        <ele>2146.28</ele>
        <time>2020-09-13T12:24:26Z</time>
      </trkpt>
      <trkpt lat="45.62161" lon="6.5452">
        <ele>2145.8</ele>
        <time>2020-09-13T12:24:38Z</time>
      </trkpt>
      <trkpt lat="45.62159" lon="6.54518">
        <ele>2146.28</ele>
        <time>2020-09-13T12:24:41Z</time>
      </trkpt>
      <trkpt lat="45.62155" lon="6.54517">
        <ele>2145.8</ele>
        <time>2020-09-13T12:24:45Z</time>
      </trkpt>
      <trkpt lat="45.62151" lon="6.54505">
        <ele>2145.8</ele>
        <time>2020-09-13T12:24:57Z</time>
      </trkpt>
      <trkpt lat="45.62154" lon="6.54512">
        <ele>2144.36</ele>
        <time>2020-09-13T12:25:05Z</time>
      </trkpt>
      <trkpt lat="45.6215" lon="6.54509">
        <ele>2142.92</ele>
        <time>2020-09-13T12:25:13Z</time>
      </trkpt>
      <trkpt lat="45.62147" lon="6.54498">
        <ele>2143.88</ele>
        <time>2020-09-13T12:25:25Z</time>
      </trkpt>
      <trkpt lat="45.62149" lon="6.54495">
        <ele>2145.32</ele>
        <time>2020-09-13T12:25:27Z</time>
      </trkpt>
      <trkpt lat="45.62149" lon="6.54488">
        <ele>2146.76</ele>
        <time>2020-09-13T12:25:32Z</time>
      </trkpt>
      <trkpt lat="45.62151" lon="6.54479">
        <ele>2147.24</ele>
        <time>2020-09-13T12:25:43Z</time>
      </trkpt>
      <trkpt lat="45.6215" lon="6.54478">
        <ele>2147.72</ele>
        <time>2020-09-13T12:25:44Z</time>
      </trkpt>
      <trkpt lat="45.62152" lon="6.54461">
        <ele>2147.72</ele>
        <time>2020-09-13T12:25:57Z</time>
      </trkpt>
      <trkpt lat="45.62152" lon="6.54455">
        <ele>2147.24</ele>
        <time>2020-09-13T12:26:01Z</time>
      </trkpt>
      <trkpt lat="45.62152" lon="6.54449">
        <ele>2150.13</ele>
        <time>2020-09-13T12:26:06Z</time>
      </trkpt>
      <trkpt lat="45.62158" lon="6.54439">
        <ele>2151.09</ele>
        <time>2020-09-13T12:26:19Z</time>
      </trkpt>
      <trkpt lat="45.62162" lon="6.54434">
        <ele>2152.05</ele>
        <time>2020-09-13T12:26:28Z</time>
      </trkpt>
      <trkpt lat="45.62166" lon="6.54431">
        <ele>2152.53</ele>
        <time>2020-09-13T12:26:43Z</time>
      </trkpt>
      <trkpt lat="45.62171" lon="6.5442">
        <ele>2152.53</ele>
        <time>2020-09-13T12:26:55Z</time>
      </trkpt>
      <trkpt lat="45.62175" lon="6.54417">
        <ele>2152.53</ele>
        <time>2020-09-13T12:26:59Z</time>
      </trkpt>
      <trkpt lat="45.62176" lon="6.54413">
        <ele>2152.53</ele>
        <time>2020-09-13T12:27:03Z</time>
      </trkpt>
      <trkpt lat="45.62178" lon="6.54404">
        <ele>2152.53</ele>
        <time>2020-09-13T12:27:10Z</time>
      </trkpt>
      <trkpt lat="45.6218" lon="6.54397">
        <ele>2152.05</ele>
        <time>2020-09-13T12:27:16Z</time>
      </trkpt>
      <trkpt lat="45.62179" lon="6.54386">
        <ele>2152.05</ele>
        <time>2020-09-13T12:27:24Z</time>
      </trkpt>
      <trkpt lat="45.62173" lon="6.54373">
        <ele>2149.65</ele>
        <time>2020-09-13T12:27:37Z</time>
      </trkpt>
      <trkpt lat="45.62174" lon="6.54371">
        <ele>2149.16</ele>
        <time>2020-09-13T12:27:47Z</time>
      </trkpt>
      <trkpt lat="45.62176" lon="6.54368">
        <ele>2149.16</ele>
        <time>2020-09-13T12:27:50Z</time>
      </trkpt>
      <trkpt lat="45.62179" lon="6.54356">
        <ele>2147.24</ele>
        <time>2020-09-13T12:28:01Z</time>
      </trkpt>
      <trkpt lat="45.62185" lon="6.54336">
        <ele>2145.8</ele>
        <time>2020-09-13T12:28:13Z</time>
      </trkpt>
      <trkpt lat="45.62182" lon="6.54328">
        <ele>2145.32</ele>
        <time>2020-09-13T12:28:19Z</time>
      </trkpt>
      <trkpt lat="45.62177" lon="6.54326">
        <ele>2143.4</ele>
        <time>2020-09-13T12:28:30Z</time>
      </trkpt>
      <trkpt lat="45.62174" lon="6.54324">
        <ele>2142.92</ele>
        <time>2020-09-13T12:28:33Z</time>
      </trkpt>
      <trkpt lat="45.62174" lon="6.54317">
        <ele>2140.51</ele>
        <time>2020-09-13T12:28:43Z</time>
      </trkpt>
      <trkpt lat="45.62173" lon="6.54317">
        <ele>2140.03</ele>
        <time>2020-09-13T12:28:44Z</time>
      </trkpt>
      <trkpt lat="45.62169" lon="6.5431">
        <ele>2137.63</ele>
        <time>2020-09-13T12:28:57Z</time>
      </trkpt>
      <trkpt lat="45.62168" lon="6.54308">
        <ele>2136.67</ele>
        <time>2020-09-13T12:28:59Z</time>
      </trkpt>
      <trkpt lat="45.62169" lon="6.54295">
        <ele>2135.23</ele>
        <time>2020-09-13T12:29:11Z</time>
      </trkpt>
      <trkpt lat="45.62167" lon="6.54285">
        <ele>2133.78</ele>
        <time>2020-09-13T12:29:21Z</time>
      </trkpt>
      <trkpt lat="45.62165" lon="6.5428">
        <ele>2133.3</ele>
        <time>2020-09-13T12:29:26Z</time>
      </trkpt>
      <trkpt lat="45.6216" lon="6.54268">
        <ele>2131.86</ele>
        <time>2020-09-13T12:29:39Z</time>
      </trkpt>
      <trkpt lat="45.62161" lon="6.54263">
        <ele>2131.38</ele>
        <time>2020-09-13T12:29:42Z</time>
      </trkpt>
      <trkpt lat="45.62161" lon="6.54243">
        <ele>2131.86</ele>
        <time>2020-09-13T12:29:53Z</time>
      </trkpt>
      <trkpt lat="45.62164" lon="6.54233">
        <ele>2132.82</ele>
        <time>2020-09-13T12:30:06Z</time>
      </trkpt>
      <trkpt lat="45.62165" lon="6.54231">
        <ele>2132.34</ele>
        <time>2020-09-13T12:30:12Z</time>
      </trkpt>
      <trkpt lat="45.62167" lon="6.54229">
        <ele>2132.82</ele>
        <time>2020-09-13T12:30:15Z</time>
      </trkpt>
      <trkpt lat="45.6217" lon="6.54223">
        <ele>2134.74</ele>
        <time>2020-09-13T12:30:27Z</time>
      </trkpt>
      <trkpt lat="45.62169" lon="6.54209">
        <ele>2136.19</ele>
        <time>2020-09-13T12:30:38Z</time>
      </trkpt>
      <trkpt lat="45.62171" lon="6.54201">
        <ele>2134.74</ele>
        <time>2020-09-13T12:30:44Z</time>
      </trkpt>
      <trkpt lat="45.62175" lon="6.54182">
        <ele>2135.23</ele>
        <time>2020-09-13T12:30:55Z</time>
      </trkpt>
      <trkpt lat="45.62176" lon="6.54177">
        <ele>2135.23</ele>
        <time>2020-09-13T12:30:59Z</time>
      </trkpt>
      <trkpt lat="45.62178" lon="6.54156">
        <ele>2133.78</ele>
        <time>2020-09-13T12:31:14Z</time>
      </trkpt>
      <trkpt lat="45.6218" lon="6.54151">
        <ele>2134.74</ele>
        <time>2020-09-13T12:31:19Z</time>
      </trkpt>
      <trkpt lat="45.62181" lon="6.54141">
        <ele>2131.86</ele>
        <time>2020-09-13T12:31:28Z</time>
      </trkpt>
      <trkpt lat="45.62175" lon="6.5412">
        <ele>2130.9</ele>
        <time>2020-09-13T12:31:41Z</time>
      </trkpt>
      <trkpt lat="45.62171" lon="6.54103">
        <ele>2131.38</ele>
        <time>2020-09-13T12:31:52Z</time>
      </trkpt>
      <trkpt lat="45.6217" lon="6.5409">
        <ele>2130.42</ele>
        <time>2020-09-13T12:32:03Z</time>
      </trkpt>
      <trkpt lat="45.62173" lon="6.54074">
        <ele>2132.82</ele>
        <time>2020-09-13T12:32:13Z</time>
      </trkpt>
      <trkpt lat="45.6217" lon="6.54073">
        <ele>2133.3</ele>
        <time>2020-09-13T12:32:17Z</time>
      </trkpt>
      <trkpt lat="45.62164" lon="6.54067">
        <ele>2133.78</ele>
        <time>2020-09-13T12:32:26Z</time>
      </trkpt>
      <trkpt lat="45.62167" lon="6.54055">
        <ele>2131.86</ele>
        <time>2020-09-13T12:32:36Z</time>
      </trkpt>
      <trkpt lat="45.62166" lon="6.54051">
        <ele>2131.38</ele>
        <time>2020-09-13T12:32:40Z</time>
      </trkpt>
      <trkpt lat="45.62162" lon="6.5405">
        <ele>2130.9</ele>
        <time>2020-09-13T12:32:44Z</time>
      </trkpt>
      <trkpt lat="45.62164" lon="6.5404">
        <ele>2130.42</ele>
        <time>2020-09-13T12:32:53Z</time>
      </trkpt>
      <trkpt lat="45.62163" lon="6.54035">
        <ele>2129.46</ele>
        <time>2020-09-13T12:32:57Z</time>
      </trkpt>
      <trkpt lat="45.62162" lon="6.54031">
        <ele>2129.94</ele>
        <time>2020-09-13T12:33:00Z</time>
      </trkpt>
      <trkpt lat="45.62164" lon="6.54027">
        <ele>2129.46</ele>
        <time>2020-09-13T12:33:03Z</time>
      </trkpt>
      <trkpt lat="45.62166" lon="6.54025">
        <ele>2128.98</ele>
        <time>2020-09-13T12:33:05Z</time>
      </trkpt>
      <trkpt lat="45.62167" lon="6.54018">
        <ele>2130.42</ele>
        <time>2020-09-13T12:33:14Z</time>
      </trkpt>
      <trkpt lat="45.62167" lon="6.54005">
        <ele>2127.53</ele>
        <time>2020-09-13T12:33:25Z</time>
      </trkpt>
      <trkpt lat="45.62167" lon="6.54003">
        <ele>2127.53</ele>
        <time>2020-09-13T12:33:26Z</time>
      </trkpt>
      <trkpt lat="45.62167" lon="6.54004">
        <ele>2127.05</ele>
        <time>2020-09-13T12:33:39Z</time>
      </trkpt>
      <trkpt lat="45.62164" lon="6.54001">
        <ele>2126.09</ele>
        <time>2020-09-13T12:34:03Z</time>
      </trkpt>
      <trkpt lat="45.62161" lon="6.54001">
        <ele>2123.69</ele>
        <time>2020-09-13T12:34:10Z</time>
      </trkpt>
      <trkpt lat="45.62162" lon="6.53992">
        <ele>2121.29</ele>
        <time>2020-09-13T12:34:19Z</time>
      </trkpt>
      <trkpt lat="45.62162" lon="6.53984">
        <ele>2118.88</ele>
        <time>2020-09-13T12:34:31Z</time>
      </trkpt>
      <trkpt lat="45.62161" lon="6.53983">
        <ele>2119.36</ele>
        <time>2020-09-13T12:34:32Z</time>
      </trkpt>
      <trkpt lat="45.62162" lon="6.53974">
        <ele>2116.48</ele>
        <time>2020-09-13T12:34:44Z</time>
      </trkpt>
      <trkpt lat="45.62162" lon="6.53969">
        <ele>2114.56</ele>
        <time>2020-09-13T12:34:56Z</time>
      </trkpt>
      <trkpt lat="45.62159" lon="6.53966">
        <ele>2113.6</ele>
        <time>2020-09-13T12:35:02Z</time>
      </trkpt>
      <trkpt lat="45.62158" lon="6.53963">
        <ele>2113.12</ele>
        <time>2020-09-13T12:35:17Z</time>
      </trkpt>
      <trkpt lat="45.62155" lon="6.53958">
        <ele>2112.15</ele>
        <time>2020-09-13T12:35:28Z</time>
      </trkpt>
      <trkpt lat="45.62157" lon="6.53953">
        <ele>2111.67</ele>
        <time>2020-09-13T12:35:33Z</time>
      </trkpt>
      <trkpt lat="45.62155" lon="6.53946">
        <ele>2110.71</ele>
        <time>2020-09-13T12:35:38Z</time>
      </trkpt>
      <trkpt lat="45.62155" lon="6.53942">
        <ele>2110.71</ele>
        <time>2020-09-13T12:35:40Z</time>
      </trkpt>
      <trkpt lat="45.62158" lon="6.53935">
        <ele>2110.23</ele>
        <time>2020-09-13T12:35:46Z</time>
      </trkpt>
      <trkpt lat="45.62161" lon="6.53924">
        <ele>2109.27</ele>
        <time>2020-09-13T12:35:53Z</time>
      </trkpt>
      <trkpt lat="45.62167" lon="6.53914">
        <ele>2107.83</ele>
        <time>2020-09-13T12:36:04Z</time>
      </trkpt>
      <trkpt lat="45.62168" lon="6.53913">
        <ele>2107.83</ele>
        <time>2020-09-13T12:36:18Z</time>
      </trkpt>
      <trkpt lat="45.62168" lon="6.53914">
        <ele>2107.83</ele>
        <time>2020-09-13T12:36:20Z</time>
      </trkpt>
      <trkpt lat="45.62164" lon="6.53906">
        <ele>2106.39</ele>
        <time>2020-09-13T12:36:30Z</time>
      </trkpt>
      <trkpt lat="45.62164" lon="6.53899">
        <ele>2105.42</ele>
        <time>2020-09-13T12:36:36Z</time>
      </trkpt>
      <trkpt lat="45.62161" lon="6.53887">
        <ele>2104.46</ele>
        <time>2020-09-13T12:36:46Z</time>
      </trkpt>
      <trkpt lat="45.62158" lon="6.53878">
        <ele>2103.02</ele>
        <time>2020-09-13T12:36:57Z</time>
      </trkpt>
      <trkpt lat="45.62156" lon="6.53875">
        <ele>2101.58</ele>
        <time>2020-09-13T12:37:04Z</time>
      </trkpt>
      <trkpt lat="45.62159" lon="6.53861">
        <ele>2099.66</ele>
        <time>2020-09-13T12:37:16Z</time>
      </trkpt>
      <trkpt lat="45.62159" lon="6.53849">
        <ele>2100.14</ele>
        <time>2020-09-13T12:37:25Z</time>
      </trkpt>
      <trkpt lat="45.62159" lon="6.53848">
        <ele>2100.14</ele>
        <time>2020-09-13T12:37:27Z</time>
      </trkpt>
      <trkpt lat="45.62159" lon="6.53842">
        <ele>2099.66</ele>
        <time>2020-09-13T12:37:32Z</time>
      </trkpt>
      <trkpt lat="45.62157" lon="6.53839">
        <ele>2099.18</ele>
        <time>2020-09-13T12:37:36Z</time>
      </trkpt>
      <trkpt lat="45.62154" lon="6.53831">
        <ele>2100.14</ele>
        <time>2020-09-13T12:37:42Z</time>
      </trkpt>
      <trkpt lat="45.62156" lon="6.53823">
        <ele>2099.66</ele>
        <time>2020-09-13T12:37:46Z</time>
      </trkpt>
      <trkpt lat="45.62159" lon="6.53811">
        <ele>2099.66</ele>
        <time>2020-09-13T12:37:53Z</time>
      </trkpt>
      <trkpt lat="45.6216" lon="6.53794">
        <ele>2099.18</ele>
        <time>2020-09-13T12:38:04Z</time>
      </trkpt>
      <trkpt lat="45.62158" lon="6.53789">
        <ele>2099.18</ele>
        <time>2020-09-13T12:38:08Z</time>
      </trkpt>
      <trkpt lat="45.6215" lon="6.53778">
        <ele>2098.7</ele>
        <time>2020-09-13T12:38:21Z</time>
      </trkpt>
      <trkpt lat="45.62148" lon="6.53775">
        <ele>2098.7</ele>
        <time>2020-09-13T12:38:23Z</time>
      </trkpt>
      <trkpt lat="45.62153" lon="6.5376">
        <ele>2098.21</ele>
        <time>2020-09-13T12:38:35Z</time>
      </trkpt>
      <trkpt lat="45.62155" lon="6.53759">
        <ele>2098.21</ele>
        <time>2020-09-13T12:38:38Z</time>
      </trkpt>
      <trkpt lat="45.62161" lon="6.53756">
        <ele>2098.21</ele>
        <time>2020-09-13T12:38:42Z</time>
      </trkpt>
      <trkpt lat="45.62164" lon="6.53748">
        <ele>2097.25</ele>
        <time>2020-09-13T12:38:50Z</time>
      </trkpt>
      <trkpt lat="45.6216" lon="6.53736">
        <ele>2098.21</ele>
        <time>2020-09-13T12:39:01Z</time>
      </trkpt>
      <trkpt lat="45.6216" lon="6.53734">
        <ele>2098.21</ele>
        <time>2020-09-13T12:39:03Z</time>
      </trkpt>
      <trkpt lat="45.62163" lon="6.53724">
        <ele>2098.7</ele>
        <time>2020-09-13T12:39:08Z</time>
      </trkpt>
      <trkpt lat="45.62162" lon="6.53702">
        <ele>2098.21</ele>
        <time>2020-09-13T12:39:22Z</time>
      </trkpt>
      <trkpt lat="45.62162" lon="6.53702">
        <ele>2098.21</ele>
        <time>2020-09-13T12:39:23Z</time>
      </trkpt>
      <trkpt lat="45.62157" lon="6.53695">
        <ele>2098.21</ele>
        <time>2020-09-13T12:39:34Z</time>
      </trkpt>
      <trkpt lat="45.62153" lon="6.53684">
        <ele>2097.25</ele>
        <time>2020-09-13T12:39:41Z</time>
      </trkpt>
      <trkpt lat="45.62155" lon="6.53675">
        <ele>2096.29</ele>
        <time>2020-09-13T12:39:47Z</time>
      </trkpt>
      <trkpt lat="45.62156" lon="6.5367">
        <ele>2096.77</ele>
        <time>2020-09-13T12:39:52Z</time>
      </trkpt>
      <trkpt lat="45.62151" lon="6.53672">
        <ele>2094.85</ele>
        <time>2020-09-13T12:40:03Z</time>
      </trkpt>
      <trkpt lat="45.6215" lon="6.53671">
        <ele>2091.97</ele>
        <time>2020-09-13T12:40:17Z</time>
      </trkpt>
      <trkpt lat="45.62147" lon="6.53669">
        <ele>2091.97</ele>
        <time>2020-09-13T12:40:23Z</time>
      </trkpt>
      <trkpt lat="45.62145" lon="6.53665">
        <ele>2090.52</ele>
        <time>2020-09-13T12:40:27Z</time>
      </trkpt>
      <trkpt lat="45.62142" lon="6.53663">
        <ele>2089.56</ele>
        <time>2020-09-13T12:40:30Z</time>
      </trkpt>
      <trkpt lat="45.62134" lon="6.53653">
        <ele>2089.08</ele>
        <time>2020-09-13T12:40:43Z</time>
      </trkpt>
      <trkpt lat="45.62127" lon="6.53651">
        <ele>2089.56</ele>
        <time>2020-09-13T12:40:53Z</time>
      </trkpt>
      <trkpt lat="45.62116" lon="6.53639">
        <ele>2087.64</ele>
        <time>2020-09-13T12:41:05Z</time>
      </trkpt>
      <trkpt lat="45.62115" lon="6.53633">
        <ele>2086.2</ele>
        <time>2020-09-13T12:41:11Z</time>
      </trkpt>
      <trkpt lat="45.6211" lon="6.53614">
        <ele>2086.68</ele>
        <time>2020-09-13T12:41:26Z</time>
      </trkpt>
      <trkpt lat="45.62109" lon="6.53609">
        <ele>2087.16</ele>
        <time>2020-09-13T12:41:29Z</time>
      </trkpt>
      <trkpt lat="45.62104" lon="6.53582">
        <ele>2015.06</ele>
        <time>2020-09-13T12:42:54Z</time>
      </trkpt>
      <trkpt lat="45.62101" lon="6.53579">
        <ele>2015.54</ele>
        <time>2020-09-13T12:42:55Z</time>
      </trkpt>
      <trkpt lat="45.62098" lon="6.5358">
        <ele>2018.91</ele>
        <time>2020-09-13T12:43:09Z</time>
      </trkpt>
      <trkpt lat="45.62099" lon="6.53579">
        <ele>2022.75</ele>
        <time>2020-09-13T12:43:11Z</time>
      </trkpt>
      <trkpt lat="45.62097" lon="6.53577">
        <ele>2028.52</ele>
        <time>2020-09-13T12:43:14Z</time>
      </trkpt>
      <trkpt lat="45.62097" lon="6.53576">
        <ele>2031.88</ele>
        <time>2020-09-13T12:43:16Z</time>
      </trkpt>
      <trkpt lat="45.62096" lon="6.53575">
        <ele>2035.25</ele>
        <time>2020-09-13T12:43:18Z</time>
      </trkpt>
      <trkpt lat="45.62096" lon="6.53574">
        <ele>2037.17</ele>
        <time>2020-09-13T12:43:19Z</time>
      </trkpt>
      <trkpt lat="45.62097" lon="6.53568">
        <ele>2042.46</ele>
        <time>2020-09-13T12:43:23Z</time>
      </trkpt>
      <trkpt lat="45.62096" lon="6.53564">
        <ele>2046.3</ele>
        <time>2020-09-13T12:43:26Z</time>
      </trkpt>
      <trkpt lat="45.62096" lon="6.5356">
        <ele>2049.67</ele>
        <time>2020-09-13T12:43:29Z</time>
      </trkpt>
      <trkpt lat="45.62095" lon="6.53557">
        <ele>2053.03</ele>
        <time>2020-09-13T12:43:32Z</time>
      </trkpt>
      <trkpt lat="45.62095" lon="6.53554">
        <ele>2055.92</ele>
        <time>2020-09-13T12:43:35Z</time>
      </trkpt>
      <trkpt lat="45.62095" lon="6.5355">
        <ele>2059.28</ele>
        <time>2020-09-13T12:43:39Z</time>
      </trkpt>
      <trkpt lat="45.62094" lon="6.53546">
        <ele>2061.68</ele>
        <time>2020-09-13T12:43:42Z</time>
      </trkpt>
      <trkpt lat="45.62096" lon="6.53541">
        <ele>2064.09</ele>
        <time>2020-09-13T12:43:46Z</time>
      </trkpt>
      <trkpt lat="45.62099" lon="6.53529">
        <ele>2067.45</ele>
        <time>2020-09-13T12:43:54Z</time>
      </trkpt>
      <trkpt lat="45.621" lon="6.53519">
        <ele>2068.89</ele>
        <time>2020-09-13T12:44:01Z</time>
      </trkpt>
      <trkpt lat="45.62101" lon="6.53512">
        <ele>2070.34</ele>
        <time>2020-09-13T12:44:05Z</time>
      </trkpt>
      <trkpt lat="45.62102" lon="6.53505">
        <ele>2072.74</ele>
        <time>2020-09-13T12:44:12Z</time>
      </trkpt>
      <trkpt lat="45.62102" lon="6.53503">
        <ele>2072.74</ele>
        <time>2020-09-13T12:44:13Z</time>
      </trkpt>
      <trkpt lat="45.62104" lon="6.53495">
        <ele>2074.18</ele>
        <time>2020-09-13T12:44:18Z</time>
      </trkpt>
      <trkpt lat="45.62109" lon="6.53481">
        <ele>2076.1</ele>
        <time>2020-09-13T12:44:29Z</time>
      </trkpt>
      <trkpt lat="45.6211" lon="6.5348">
        <ele>2076.1</ele>
        <time>2020-09-13T12:44:30Z</time>
      </trkpt>
      <trkpt lat="45.62111" lon="6.53476">
        <ele>2076.59</ele>
        <time>2020-09-13T12:44:33Z</time>
      </trkpt>
      <trkpt lat="45.62112" lon="6.53469">
        <ele>2078.03</ele>
        <time>2020-09-13T12:44:40Z</time>
      </trkpt>
      <trkpt lat="45.62115" lon="6.53457">
        <ele>2078.51</ele>
        <time>2020-09-13T12:44:51Z</time>
      </trkpt>
      <trkpt lat="45.62119" lon="6.53449">
        <ele>2078.99</ele>
        <time>2020-09-13T12:44:59Z</time>
      </trkpt>
      <trkpt lat="45.62124" lon="6.5344">
        <ele>2078.99</ele>
        <time>2020-09-13T12:45:06Z</time>
      </trkpt>
      <trkpt lat="45.62127" lon="6.53431">
        <ele>2079.47</ele>
        <time>2020-09-13T12:45:16Z</time>
      </trkpt>
      <trkpt lat="45.62127" lon="6.53423">
        <ele>2080.91</ele>
        <time>2020-09-13T12:45:28Z</time>
      </trkpt>
      <trkpt lat="45.62128" lon="6.53417">
        <ele>2080.91</ele>
        <time>2020-09-13T12:45:41Z</time>
      </trkpt>
      <trkpt lat="45.62129" lon="6.53408">
        <ele>2079.95</ele>
        <time>2020-09-13T12:45:49Z</time>
      </trkpt>
      <trkpt lat="45.62131" lon="6.53398">
        <ele>2080.43</ele>
        <time>2020-09-13T12:45:59Z</time>
      </trkpt>
      <trkpt lat="45.62131" lon="6.53397">
        <ele>2080.43</ele>
        <time>2020-09-13T12:46:00Z</time>
      </trkpt>
      <trkpt lat="45.6214" lon="6.53386">
        <ele>2079.47</ele>
        <time>2020-09-13T12:46:11Z</time>
      </trkpt>
      <trkpt lat="45.62143" lon="6.53382">
        <ele>2078.51</ele>
        <time>2020-09-13T12:46:16Z</time>
      </trkpt>
      <trkpt lat="45.62148" lon="6.53374">
        <ele>2080.43</ele>
        <time>2020-09-13T12:46:27Z</time>
      </trkpt>
      <trkpt lat="45.62149" lon="6.53366">
        <ele>2082.83</ele>
        <time>2020-09-13T12:46:37Z</time>
      </trkpt>
      <trkpt lat="45.62155" lon="6.5336">
        <ele>2083.79</ele>
        <time>2020-09-13T12:46:47Z</time>
      </trkpt>
      <trkpt lat="45.62158" lon="6.53353">
        <ele>2083.31</ele>
        <time>2020-09-13T12:46:52Z</time>
      </trkpt>
      <trkpt lat="45.6216" lon="6.53347">
        <ele>2083.79</ele>
        <time>2020-09-13T12:46:57Z</time>
      </trkpt>
      <trkpt lat="45.6216" lon="6.53343">
        <ele>2083.79</ele>
        <time>2020-09-13T12:47:00Z</time>
      </trkpt>
      <trkpt lat="45.62158" lon="6.53334">
        <ele>2085.24</ele>
        <time>2020-09-13T12:47:13Z</time>
      </trkpt>
      <trkpt lat="45.62158" lon="6.53325">
        <ele>2085.24</ele>
        <time>2020-09-13T12:47:24Z</time>
      </trkpt>
      <trkpt lat="45.62157" lon="6.53319">
        <ele>2085.24</ele>
        <time>2020-09-13T12:47:39Z</time>
      </trkpt>
      <trkpt lat="45.62155" lon="6.5331">
        <ele>2082.35</ele>
        <time>2020-09-13T12:47:52Z</time>
      </trkpt>
      <trkpt lat="45.62154" lon="6.53303">
        <ele>2085.24</ele>
        <time>2020-09-13T12:48:00Z</time>
      </trkpt>
      <trkpt lat="45.62155" lon="6.53289">
        <ele>2088.12</ele>
        <time>2020-09-13T12:48:12Z</time>
      </trkpt>
      <trkpt lat="45.62152" lon="6.5328">
        <ele>2087.64</ele>
        <time>2020-09-13T12:48:24Z</time>
      </trkpt>
      <trkpt lat="45.62149" lon="6.53274">
        <ele>2087.16</ele>
        <time>2020-09-13T12:48:34Z</time>
      </trkpt>
      <trkpt lat="45.62148" lon="6.5327">
        <ele>2090.52</ele>
        <time>2020-09-13T12:48:40Z</time>
      </trkpt>
      <trkpt lat="45.62147" lon="6.53269">
        <ele>2088.6</ele>
        <time>2020-09-13T12:48:42Z</time>
      </trkpt>
      <trkpt lat="45.62146" lon="6.53263">
        <ele>2088.12</ele>
        <time>2020-09-13T12:48:49Z</time>
      </trkpt>
      <trkpt lat="45.62146" lon="6.53258">
        <ele>2088.6</ele>
        <time>2020-09-13T12:48:54Z</time>
      </trkpt>
      <trkpt lat="45.62146" lon="6.53245">
        <ele>2087.16</ele>
        <time>2020-09-13T12:49:04Z</time>
      </trkpt>
      <trkpt lat="45.62146" lon="6.5324">
        <ele>2086.2</ele>
        <time>2020-09-13T12:49:11Z</time>
      </trkpt>
      <trkpt lat="45.62149" lon="6.53229">
        <ele>2085.72</ele>
        <time>2020-09-13T12:49:17Z</time>
      </trkpt>
      <trkpt lat="45.6215" lon="6.53225">
        <ele>2084.28</ele>
        <time>2020-09-13T12:49:21Z</time>
      </trkpt>
      <trkpt lat="45.62152" lon="6.53215">
        <ele>2086.2</ele>
        <time>2020-09-13T12:49:31Z</time>
      </trkpt>
      <trkpt lat="45.62154" lon="6.53206">
        <ele>2088.12</ele>
        <time>2020-09-13T12:49:43Z</time>
      </trkpt>
      <trkpt lat="45.62155" lon="6.53201">
        <ele>2089.56</ele>
        <time>2020-09-13T12:49:46Z</time>
      </trkpt>
      <trkpt lat="45.62155" lon="6.532">
        <ele>2088.6</ele>
        <time>2020-09-13T12:49:47Z</time>
      </trkpt>
      <trkpt lat="45.62154" lon="6.53192">
        <ele>2089.08</ele>
        <time>2020-09-13T12:49:52Z</time>
      </trkpt>
      <trkpt lat="45.62156" lon="6.53184">
        <ele>2088.6</ele>
        <time>2020-09-13T12:49:56Z</time>
      </trkpt>
      <trkpt lat="45.62153" lon="6.53174">
        <ele>2084.76</ele>
        <time>2020-09-13T12:50:08Z</time>
      </trkpt>
      <trkpt lat="45.62153" lon="6.53173">
        <ele>2084.28</ele>
        <time>2020-09-13T12:50:09Z</time>
      </trkpt>
      <trkpt lat="45.62148" lon="6.53161">
        <ele>2082.35</ele>
        <time>2020-09-13T12:50:16Z</time>
      </trkpt>
      <trkpt lat="45.62148" lon="6.53145">
        <ele>2078.99</ele>
        <time>2020-09-13T12:50:29Z</time>
      </trkpt>
      <trkpt lat="45.62148" lon="6.53134">
        <ele>2076.59</ele>
        <time>2020-09-13T12:50:38Z</time>
      </trkpt>
      <trkpt lat="45.62151" lon="6.53128">
        <ele>2074.66</ele>
        <time>2020-09-13T12:50:45Z</time>
      </trkpt>
      <trkpt lat="45.62152" lon="6.53122">
        <ele>2073.22</ele>
        <time>2020-09-13T12:50:51Z</time>
      </trkpt>
      <trkpt lat="45.6215" lon="6.53116">
        <ele>2072.26</ele>
        <time>2020-09-13T12:50:56Z</time>
      </trkpt>
      <trkpt lat="45.62147" lon="6.53106">
        <ele>2072.74</ele>
        <time>2020-09-13T12:51:07Z</time>
      </trkpt>
      <trkpt lat="45.62145" lon="6.53105">
        <ele>2073.7</ele>
        <time>2020-09-13T12:51:12Z</time>
      </trkpt>
      <trkpt lat="45.62141" lon="6.53093">
        <ele>2076.1</ele>
        <time>2020-09-13T12:51:24Z</time>
      </trkpt>
      <trkpt lat="45.6214" lon="6.53083">
        <ele>2074.66</ele>
        <time>2020-09-13T12:51:35Z</time>
      </trkpt>
      <trkpt lat="45.62138" lon="6.53076">
        <ele>2075.62</ele>
        <time>2020-09-13T12:51:44Z</time>
      </trkpt>
      <trkpt lat="45.62138" lon="6.53071">
        <ele>2075.62</ele>
        <time>2020-09-13T12:51:47Z</time>
      </trkpt>
      <trkpt lat="45.62137" lon="6.53065">
        <ele>2074.66</ele>
        <time>2020-09-13T12:51:51Z</time>
      </trkpt>
      <trkpt lat="45.62134" lon="6.53054">
        <ele>2075.14</ele>
        <time>2020-09-13T12:52:01Z</time>
      </trkpt>
      <trkpt lat="45.62132" lon="6.53053">
        <ele>2075.14</ele>
        <time>2020-09-13T12:52:06Z</time>
      </trkpt>
      <trkpt lat="45.62132" lon="6.53038">
        <ele>2072.74</ele>
        <time>2020-09-13T12:52:16Z</time>
      </trkpt>
      <trkpt lat="45.62132" lon="6.53033">
        <ele>2071.78</ele>
        <time>2020-09-13T12:52:21Z</time>
      </trkpt>
      <trkpt lat="45.62132" lon="6.53018">
        <ele>2069.38</ele>
        <time>2020-09-13T12:52:32Z</time>
      </trkpt>
      <trkpt lat="45.62132" lon="6.53017">
        <ele>2069.38</ele>
        <time>2020-09-13T12:52:33Z</time>
      </trkpt>
      <trkpt lat="45.62131" lon="6.53007">
        <ele>2066.97</ele>
        <time>2020-09-13T12:52:43Z</time>
      </trkpt>
      <trkpt lat="45.62131" lon="6.52999">
        <ele>2066.01</ele>
        <time>2020-09-13T12:52:52Z</time>
      </trkpt>
      <trkpt lat="45.62132" lon="6.52988">
        <ele>2063.13</ele>
        <time>2020-09-13T12:53:03Z</time>
      </trkpt>
      <trkpt lat="45.62133" lon="6.52974">
        <ele>2061.2</ele>
        <time>2020-09-13T12:53:14Z</time>
      </trkpt>
      <trkpt lat="45.62132" lon="6.5296">
        <ele>2059.28</ele>
        <time>2020-09-13T12:53:25Z</time>
      </trkpt>
      <trkpt lat="45.62132" lon="6.52959">
        <ele>2059.28</ele>
        <time>2020-09-13T12:53:27Z</time>
      </trkpt>
      <trkpt lat="45.62134" lon="6.52955">
        <ele>2057.84</ele>
        <time>2020-09-13T12:53:30Z</time>
      </trkpt>
      <trkpt lat="45.62136" lon="6.52951">
        <ele>2057.36</ele>
        <time>2020-09-13T12:53:34Z</time>
      </trkpt>
      <trkpt lat="45.62138" lon="6.52946">
        <ele>2056.4</ele>
        <time>2020-09-13T12:53:39Z</time>
      </trkpt>
      <trkpt lat="45.62138" lon="6.52943">
        <ele>2055.44</ele>
        <time>2020-09-13T12:53:44Z</time>
      </trkpt>
      <trkpt lat="45.62137" lon="6.52939">
        <ele>2053.99</ele>
        <time>2020-09-13T12:53:50Z</time>
      </trkpt>
      <trkpt lat="45.62134" lon="6.52933">
        <ele>2053.51</ele>
        <time>2020-09-13T12:53:57Z</time>
      </trkpt>
      <trkpt lat="45.62135" lon="6.52927">
        <ele>2052.07</ele>
        <time>2020-09-13T12:54:02Z</time>
      </trkpt>
      <trkpt lat="45.62129" lon="6.52924">
        <ele>2051.11</ele>
        <time>2020-09-13T12:54:10Z</time>
      </trkpt>
      <trkpt lat="45.62123" lon="6.52923">
        <ele>2049.19</ele>
        <time>2020-09-13T12:54:22Z</time>
      </trkpt>
      <trkpt lat="45.62122" lon="6.52916">
        <ele>2047.75</ele>
        <time>2020-09-13T12:54:28Z</time>
      </trkpt>
      <trkpt lat="45.62118" lon="6.5291">
        <ele>2045.34</ele>
        <time>2020-09-13T12:54:38Z</time>
      </trkpt>
      <trkpt lat="45.62116" lon="6.529">
        <ele>2043.9</ele>
        <time>2020-09-13T12:54:47Z</time>
      </trkpt>
      <trkpt lat="45.62117" lon="6.52895">
        <ele>2041.5</ele>
        <time>2020-09-13T12:54:56Z</time>
      </trkpt>
      <trkpt lat="45.62118" lon="6.52886">
        <ele>2038.61</ele>
        <time>2020-09-13T12:55:06Z</time>
      </trkpt>
      <trkpt lat="45.62118" lon="6.5288">
        <ele>2037.17</ele>
        <time>2020-09-13T12:55:13Z</time>
      </trkpt>
      <trkpt lat="45.62117" lon="6.52878">
        <ele>2036.69</ele>
        <time>2020-09-13T12:55:15Z</time>
      </trkpt>
      <trkpt lat="45.62117" lon="6.52861">
        <ele>2033.33</ele>
        <time>2020-09-13T12:55:28Z</time>
      </trkpt>
      <trkpt lat="45.6212" lon="6.52854">
        <ele>2030.92</ele>
        <time>2020-09-13T12:55:38Z</time>
      </trkpt>
      <trkpt lat="45.62122" lon="6.52849">
        <ele>2029.48</ele>
        <time>2020-09-13T12:55:44Z</time>
      </trkpt>
      <trkpt lat="45.62125" lon="6.52842">
        <ele>2028.52</ele>
        <time>2020-09-13T12:55:51Z</time>
      </trkpt>
      <trkpt lat="45.62128" lon="6.52836">
        <ele>2027.08</ele>
        <time>2020-09-13T12:55:59Z</time>
      </trkpt>
      <trkpt lat="45.62132" lon="6.52833">
        <ele>2025.64</ele>
        <time>2020-09-13T12:56:06Z</time>
      </trkpt>
      <trkpt lat="45.62135" lon="6.5283">
        <ele>2025.15</ele>
        <time>2020-09-13T12:56:09Z</time>
      </trkpt>
      <trkpt lat="45.62141" lon="6.52822">
        <ele>2023.23</ele>
        <time>2020-09-13T12:56:20Z</time>
      </trkpt>
      <trkpt lat="45.62146" lon="6.52819">
        <ele>2020.35</ele>
        <time>2020-09-13T12:56:33Z</time>
      </trkpt>
      <trkpt lat="45.62153" lon="6.52807">
        <ele>2018.91</ele>
        <time>2020-09-13T12:56:45Z</time>
      </trkpt>
      <trkpt lat="45.62155" lon="6.52803">
        <ele>2018.91</ele>
        <time>2020-09-13T12:56:48Z</time>
      </trkpt>
      <trkpt lat="45.62157" lon="6.528">
        <ele>2017.94</ele>
        <time>2020-09-13T12:56:51Z</time>
      </trkpt>
      <trkpt lat="45.62161" lon="6.52795">
        <ele>2017.94</ele>
        <time>2020-09-13T12:56:55Z</time>
      </trkpt>
      <trkpt lat="45.62169" lon="6.52788">
        <ele>2014.58</ele>
        <time>2020-09-13T12:57:08Z</time>
      </trkpt>
      <trkpt lat="45.6217" lon="6.52788">
        <ele>2014.58</ele>
        <time>2020-09-13T12:57:09Z</time>
      </trkpt>
      <trkpt lat="45.62174" lon="6.52783">
        <ele>2013.62</ele>
        <time>2020-09-13T12:57:14Z</time>
      </trkpt>
      <trkpt lat="45.62177" lon="6.52781">
        <ele>2011.7</ele>
        <time>2020-09-13T12:57:22Z</time>
      </trkpt>
      <trkpt lat="45.62178" lon="6.52777">
        <ele>2010.25</ele>
        <time>2020-09-13T12:57:27Z</time>
      </trkpt>
      <trkpt lat="45.62179" lon="6.52774">
        <ele>2009.29</ele>
        <time>2020-09-13T12:57:29Z</time>
      </trkpt>
      <trkpt lat="45.6218" lon="6.5277">
        <ele>2008.81</ele>
        <time>2020-09-13T12:57:32Z</time>
      </trkpt>
      <trkpt lat="45.62183" lon="6.52767">
        <ele>2007.85</ele>
        <time>2020-09-13T12:57:35Z</time>
      </trkpt>
      <trkpt lat="45.62193" lon="6.52761">
        <ele>2006.41</ele>
        <time>2020-09-13T12:57:47Z</time>
      </trkpt>
      <trkpt lat="45.62196" lon="6.52757">
        <ele>2005.45</ele>
        <time>2020-09-13T12:57:53Z</time>
      </trkpt>
      <trkpt lat="45.62198" lon="6.52755">
        <ele>2004.97</ele>
        <time>2020-09-13T12:57:57Z</time>
      </trkpt>
      <trkpt lat="45.62198" lon="6.52748">
        <ele>2005.45</ele>
        <time>2020-09-13T12:58:03Z</time>
      </trkpt>
      <trkpt lat="45.62201" lon="6.52746">
        <ele>2004.97</ele>
        <time>2020-09-13T12:58:07Z</time>
      </trkpt>
      <trkpt lat="45.62204" lon="6.52743">
        <ele>2005.45</ele>
        <time>2020-09-13T12:58:10Z</time>
      </trkpt>
      <trkpt lat="45.62207" lon="6.52736">
        <ele>2005.45</ele>
        <time>2020-09-13T12:58:13Z</time>
      </trkpt>
      <trkpt lat="45.62216" lon="6.52726">
        <ele>2005.45</ele>
        <time>2020-09-13T12:58:25Z</time>
      </trkpt>
      <trkpt lat="45.62216" lon="6.52725">
        <ele>2006.41</ele>
        <time>2020-09-13T12:58:26Z</time>
      </trkpt>
      <trkpt lat="45.62218" lon="6.52715">
        <ele>2006.41</ele>
        <time>2020-09-13T12:58:32Z</time>
      </trkpt>
      <trkpt lat="45.62221" lon="6.52708">
        <ele>2005.93</ele>
        <time>2020-09-13T12:58:38Z</time>
      </trkpt>
      <trkpt lat="45.62223" lon="6.52701">
        <ele>2006.41</ele>
        <time>2020-09-13T12:58:49Z</time>
      </trkpt>
      <trkpt lat="45.62226" lon="6.52696">
        <ele>2006.89</ele>
        <time>2020-09-13T12:59:00Z</time>
      </trkpt>
      <trkpt lat="45.62226" lon="6.52694">
        <ele>2006.89</ele>
        <time>2020-09-13T12:59:10Z</time>
      </trkpt>
      <trkpt lat="45.62227" lon="6.52689">
        <ele>2008.33</ele>
        <time>2020-09-13T12:59:20Z</time>
      </trkpt>
      <trkpt lat="45.62226" lon="6.52689">
        <ele>2008.33</ele>
        <time>2020-09-13T12:59:21Z</time>
      </trkpt>
      <trkpt lat="45.62222" lon="6.5268">
        <ele>2008.81</ele>
        <time>2020-09-13T12:59:30Z</time>
      </trkpt>
      <trkpt lat="45.62212" lon="6.52673">
        <ele>2007.85</ele>
        <time>2020-09-13T12:59:41Z</time>
      </trkpt>
      <trkpt lat="45.62214" lon="6.52665">
        <ele>2006.41</ele>
        <time>2020-09-13T12:59:52Z</time>
      </trkpt>
      <trkpt lat="45.62213" lon="6.5266">
        <ele>2004.97</ele>
        <time>2020-09-13T12:59:58Z</time>
      </trkpt>
      <trkpt lat="45.62213" lon="6.52657">
        <ele>2004.01</ele>
        <time>2020-09-13T13:00:00Z</time>
      </trkpt>
      <trkpt lat="45.62216" lon="6.52654">
        <ele>2001.6</ele>
        <time>2020-09-13T13:00:07Z</time>
      </trkpt>
      <trkpt lat="45.62223" lon="6.52651">
        <ele>2000.16</ele>
        <time>2020-09-13T13:00:14Z</time>
      </trkpt>
      <trkpt lat="45.6223" lon="6.52647">
        <ele>1997.76</ele>
        <time>2020-09-13T13:00:23Z</time>
      </trkpt>
      <trkpt lat="45.62236" lon="6.52649">
        <ele>1996.8</ele>
        <time>2020-09-13T13:00:29Z</time>
      </trkpt>
      <trkpt lat="45.6224" lon="6.5265">
        <ele>1996.32</ele>
        <time>2020-09-13T13:00:33Z</time>
      </trkpt>
      <trkpt lat="45.62241" lon="6.52651">
        <ele>1995.83</ele>
        <time>2020-09-13T13:00:35Z</time>
      </trkpt>
      <trkpt lat="45.62247" lon="6.52651">
        <ele>1994.39</ele>
        <time>2020-09-13T13:00:45Z</time>
      </trkpt>
      <trkpt lat="45.62249" lon="6.5265">
        <ele>1994.87</ele>
        <time>2020-09-13T13:00:49Z</time>
      </trkpt>
      <trkpt lat="45.62254" lon="6.52652">
        <ele>1993.43</ele>
        <time>2020-09-13T13:00:53Z</time>
      </trkpt>
      <trkpt lat="45.62255" lon="6.52651">
        <ele>1992.95</ele>
        <time>2020-09-13T13:00:56Z</time>
      </trkpt>
      <trkpt lat="45.62255" lon="6.5265">
        <ele>1991.99</ele>
        <time>2020-09-13T13:00:59Z</time>
      </trkpt>
      <trkpt lat="45.62261" lon="6.52646">
        <ele>1990.55</ele>
        <time>2020-09-13T13:01:06Z</time>
      </trkpt>
      <trkpt lat="45.62268" lon="6.52641">
        <ele>1990.07</ele>
        <time>2020-09-13T13:01:16Z</time>
      </trkpt>
      <trkpt lat="45.62277" lon="6.52641">
        <ele>1987.66</ele>
        <time>2020-09-13T13:01:26Z</time>
      </trkpt>
      <trkpt lat="45.62279" lon="6.5264">
        <ele>1988.62</ele>
        <time>2020-09-13T13:01:28Z</time>
      </trkpt>
      <trkpt lat="45.62284" lon="6.52635">
        <ele>1987.18</ele>
        <time>2020-09-13T13:01:36Z</time>
      </trkpt>
      <trkpt lat="45.62288" lon="6.52625">
        <ele>1985.26</ele>
        <time>2020-09-13T13:01:47Z</time>
      </trkpt>
      <trkpt lat="45.62289" lon="6.52622">
        <ele>1984.78</ele>
        <time>2020-09-13T13:01:50Z</time>
      </trkpt>
      <trkpt lat="45.62291" lon="6.52616">
        <ele>1983.82</ele>
        <time>2020-09-13T13:01:57Z</time>
      </trkpt>
      <trkpt lat="45.62293" lon="6.52607">
        <ele>1981.9</ele>
        <time>2020-09-13T13:02:05Z</time>
      </trkpt>
      <trkpt lat="45.62299" lon="6.52593">
        <ele>1980.45</ele>
        <time>2020-09-13T13:02:17Z</time>
      </trkpt>
      <trkpt lat="45.62304" lon="6.52584">
        <ele>1979.49</ele>
        <time>2020-09-13T13:02:27Z</time>
      </trkpt>
      <trkpt lat="45.62308" lon="6.52582">
        <ele>1978.05</ele>
        <time>2020-09-13T13:02:32Z</time>
      </trkpt>
      <trkpt lat="45.62308" lon="6.52579">
        <ele>1977.09</ele>
        <time>2020-09-13T13:02:39Z</time>
      </trkpt>
      <trkpt lat="45.62311" lon="6.52573">
        <ele>1974.69</ele>
        <time>2020-09-13T13:02:51Z</time>
      </trkpt>
      <trkpt lat="45.62304" lon="6.52557">
        <ele>1973.72</ele>
        <time>2020-09-13T13:03:01Z</time>
      </trkpt>
      <trkpt lat="45.62303" lon="6.52553">
        <ele>1972.76</ele>
        <time>2020-09-13T13:03:04Z</time>
      </trkpt>
      <trkpt lat="45.62303" lon="6.5255">
        <ele>1972.76</ele>
        <time>2020-09-13T13:03:06Z</time>
      </trkpt>
      <trkpt lat="45.62294" lon="6.52532">
        <ele>1972.28</ele>
        <time>2020-09-13T13:03:20Z</time>
      </trkpt>
      <trkpt lat="45.6229" lon="6.52525">
        <ele>1972.76</ele>
        <time>2020-09-13T13:03:24Z</time>
      </trkpt>
      <trkpt lat="45.6228" lon="6.52517">
        <ele>1972.28</ele>
        <time>2020-09-13T13:03:34Z</time>
      </trkpt>
      <trkpt lat="45.62276" lon="6.52506">
        <ele>1970.84</ele>
        <time>2020-09-13T13:03:43Z</time>
      </trkpt>
      <trkpt lat="45.62274" lon="6.52501">
        <ele>1970.84</ele>
        <time>2020-09-13T13:03:45Z</time>
      </trkpt>
      <trkpt lat="45.62275" lon="6.52497">
        <ele>1970.36</ele>
        <time>2020-09-13T13:03:48Z</time>
      </trkpt>
      <trkpt lat="45.62275" lon="6.52494">
        <ele>1969.88</ele>
        <time>2020-09-13T13:03:51Z</time>
      </trkpt>
      <trkpt lat="45.62276" lon="6.52491">
        <ele>1968.92</ele>
        <time>2020-09-13T13:03:56Z</time>
      </trkpt>
      <trkpt lat="45.62275" lon="6.52495">
        <ele>1968.92</ele>
        <time>2020-09-13T13:04:02Z</time>
      </trkpt>
      <trkpt lat="45.62272" lon="6.52501">
        <ele>1970.36</ele>
        <time>2020-09-13T13:04:09Z</time>
      </trkpt>
      <trkpt lat="45.62269" lon="6.52504">
        <ele>1970.84</ele>
        <time>2020-09-13T13:04:13Z</time>
      </trkpt>
      <trkpt lat="45.62266" lon="6.52502">
        <ele>1971.32</ele>
        <time>2020-09-13T13:04:17Z</time>
      </trkpt>
      <trkpt lat="45.62263" lon="6.52496">
        <ele>1971.32</ele>
        <time>2020-09-13T13:04:23Z</time>
      </trkpt>
      <trkpt lat="45.62263" lon="6.5249">
        <ele>1970.36</ele>
        <time>2020-09-13T13:04:31Z</time>
      </trkpt>
      <trkpt lat="45.62267" lon="6.52486">
        <ele>1969.88</ele>
        <time>2020-09-13T13:04:34Z</time>
      </trkpt>
      <trkpt lat="45.6227" lon="6.52476">
        <ele>1968.44</ele>
        <time>2020-09-13T13:04:41Z</time>
      </trkpt>
      <trkpt lat="45.6227" lon="6.52456">
        <ele>1969.88</ele>
        <time>2020-09-13T13:04:52Z</time>
      </trkpt>
      <trkpt lat="45.62273" lon="6.52439">
        <ele>1969.4</ele>
        <time>2020-09-13T13:05:01Z</time>
      </trkpt>
      <trkpt lat="45.62274" lon="6.52437">
        <ele>1968.92</ele>
        <time>2020-09-13T13:05:05Z</time>
      </trkpt>
      <trkpt lat="45.62276" lon="6.52426">
        <ele>1969.4</ele>
        <time>2020-09-13T13:05:11Z</time>
      </trkpt>
      <trkpt lat="45.62281" lon="6.52421">
        <ele>1967.48</ele>
        <time>2020-09-13T13:05:21Z</time>
      </trkpt>
      <trkpt lat="45.62286" lon="6.52411">
        <ele>1966.51</ele>
        <time>2020-09-13T13:05:33Z</time>
      </trkpt>
      <trkpt lat="45.62284" lon="6.52395">
        <ele>1967.96</ele>
        <time>2020-09-13T13:05:45Z</time>
      </trkpt>
      <trkpt lat="45.62286" lon="6.52385">
        <ele>1968.92</ele>
        <time>2020-09-13T13:05:51Z</time>
      </trkpt>
      <trkpt lat="45.62288" lon="6.5238">
        <ele>1969.4</ele>
        <time>2020-09-13T13:05:57Z</time>
      </trkpt>
      <trkpt lat="45.62286" lon="6.52375">
        <ele>1970.36</ele>
        <time>2020-09-13T13:06:03Z</time>
      </trkpt>
      <trkpt lat="45.62284" lon="6.5237">
        <ele>1971.32</ele>
        <time>2020-09-13T13:06:07Z</time>
      </trkpt>
      <trkpt lat="45.62284" lon="6.52367">
        <ele>1970.84</ele>
        <time>2020-09-13T13:06:09Z</time>
      </trkpt>
      <trkpt lat="45.62282" lon="6.52365">
        <ele>1971.32</ele>
        <time>2020-09-13T13:06:11Z</time>
      </trkpt>
      <trkpt lat="45.62281" lon="6.52354">
        <ele>1973.24</ele>
        <time>2020-09-13T13:06:24Z</time>
      </trkpt>
      <trkpt lat="45.62283" lon="6.52345">
        <ele>1973.72</ele>
        <time>2020-09-13T13:06:33Z</time>
      </trkpt>
      <trkpt lat="45.62283" lon="6.52345">
        <ele>1973.24</ele>
        <time>2020-09-13T13:06:44Z</time>
      </trkpt>
      <trkpt lat="45.62283" lon="6.52344">
        <ele>1973.72</ele>
        <time>2020-09-13T13:07:00Z</time>
      </trkpt>
      <trkpt lat="45.62283" lon="6.52343">
        <ele>1973.24</ele>
        <time>2020-09-13T13:07:23Z</time>
      </trkpt>
      <trkpt lat="45.62283" lon="6.52341">
        <ele>1974.2</ele>
        <time>2020-09-13T13:07:40Z</time>
      </trkpt>
      <trkpt lat="45.62282" lon="6.5234">
        <ele>1973.72</ele>
        <time>2020-09-13T13:08:04Z</time>
      </trkpt>
      <trkpt lat="45.62282" lon="6.52342">
        <ele>1973.24</ele>
        <time>2020-09-13T13:08:16Z</time>
      </trkpt>
      <trkpt lat="45.62283" lon="6.52344">
        <ele>1973.72</ele>
        <time>2020-09-13T13:08:26Z</time>
      </trkpt>
      <trkpt lat="45.62281" lon="6.5234">
        <ele>1974.2</ele>
        <time>2020-09-13T13:08:39Z</time>
      </trkpt>
      <trkpt lat="45.62281" lon="6.52339">
        <ele>1973.24</ele>
        <time>2020-09-13T13:08:44Z</time>
      </trkpt>
      <trkpt lat="45.62282" lon="6.52339">
        <ele>1974.69</ele>
        <time>2020-09-13T13:08:57Z</time>
      </trkpt>
      <trkpt lat="45.62282" lon="6.52341">
        <ele>1974.69</ele>
        <time>2020-09-13T13:09:12Z</time>
      </trkpt>
      <trkpt lat="45.62283" lon="6.52342">
        <ele>1972.76</ele>
        <time>2020-09-13T13:09:26Z</time>
      </trkpt>
      <trkpt lat="45.62283" lon="6.52342">
        <ele>1977.09</ele>
        <time>2020-09-13T13:09:27Z</time>
      </trkpt>
      <trkpt lat="45.62282" lon="6.52339">
        <ele>1973.24</ele>
        <time>2020-09-13T13:09:32Z</time>
      </trkpt>
      <trkpt lat="45.62282" lon="6.52336">
        <ele>1972.76</ele>
        <time>2020-09-13T13:09:35Z</time>
      </trkpt>
      <trkpt lat="45.62276" lon="6.52329">
        <ele>1969.4</ele>
        <time>2020-09-13T13:09:47Z</time>
      </trkpt>
      <trkpt lat="45.62277" lon="6.52323">
        <ele>1967.96</ele>
        <time>2020-09-13T13:09:53Z</time>
      </trkpt>
      <trkpt lat="45.62279" lon="6.52318">
        <ele>1967.48</ele>
        <time>2020-09-13T13:09:56Z</time>
      </trkpt>
      <trkpt lat="45.62288" lon="6.5231">
        <ele>1964.11</ele>
        <time>2020-09-13T13:10:06Z</time>
      </trkpt>
      <trkpt lat="45.62295" lon="6.52305">
        <ele>1961.23</ele>
        <time>2020-09-13T13:10:18Z</time>
      </trkpt>
      <trkpt lat="45.62296" lon="6.52304">
        <ele>1960.75</ele>
        <time>2020-09-13T13:10:21Z</time>
      </trkpt>
      <trkpt lat="45.623" lon="6.52301">
        <ele>1958.82</ele>
        <time>2020-09-13T13:10:27Z</time>
      </trkpt>
      <trkpt lat="45.623" lon="6.52301">
        <ele>1958.34</ele>
        <time>2020-09-13T13:10:28Z</time>
      </trkpt>
      <trkpt lat="45.62304" lon="6.52296">
        <ele>1957.38</ele>
        <time>2020-09-13T13:10:34Z</time>
      </trkpt>
      <trkpt lat="45.62309" lon="6.52285">
        <ele>1955.94</ele>
        <time>2020-09-13T13:10:44Z</time>
      </trkpt>
      <trkpt lat="45.6231" lon="6.52278">
        <ele>1953.06</ele>
        <time>2020-09-13T13:10:56Z</time>
      </trkpt>
      <trkpt lat="45.62311" lon="6.52276">
        <ele>1952.57</ele>
        <time>2020-09-13T13:10:58Z</time>
      </trkpt>
      <trkpt lat="45.62312" lon="6.52266">
        <ele>1951.61</ele>
        <time>2020-09-13T13:11:05Z</time>
      </trkpt>
      <trkpt lat="45.62314" lon="6.52255">
        <ele>1948.73</ele>
        <time>2020-09-13T13:11:17Z</time>
      </trkpt>
      <trkpt lat="45.62312" lon="6.52248">
        <ele>1946.33</ele>
        <time>2020-09-13T13:11:30Z</time>
      </trkpt>
      <trkpt lat="45.62311" lon="6.52235">
        <ele>1943.44</ele>
        <time>2020-09-13T13:11:42Z</time>
      </trkpt>
      <trkpt lat="45.62308" lon="6.52231">
        <ele>1942.48</ele>
        <time>2020-09-13T13:11:48Z</time>
      </trkpt>
      <trkpt lat="45.62304" lon="6.52226">
        <ele>1941.04</ele>
        <time>2020-09-13T13:11:53Z</time>
      </trkpt>
      <trkpt lat="45.62306" lon="6.52218">
        <ele>1939.6</ele>
        <time>2020-09-13T13:12:00Z</time>
      </trkpt>
      <trkpt lat="45.6231" lon="6.5221">
        <ele>1937.19</ele>
        <time>2020-09-13T13:12:11Z</time>
      </trkpt>
      <trkpt lat="45.62314" lon="6.52203">
        <ele>1934.79</ele>
        <time>2020-09-13T13:12:23Z</time>
      </trkpt>
      <trkpt lat="45.62314" lon="6.52194">
        <ele>1932.87</ele>
        <time>2020-09-13T13:12:34Z</time>
      </trkpt>
      <trkpt lat="45.62317" lon="6.52182">
        <ele>1929.98</ele>
        <time>2020-09-13T13:12:47Z</time>
      </trkpt>
      <trkpt lat="45.6232" lon="6.52169">
        <ele>1927.1</ele>
        <time>2020-09-13T13:13:00Z</time>
      </trkpt>
      <trkpt lat="45.62322" lon="6.5216">
        <ele>1925.66</ele>
        <time>2020-09-13T13:13:09Z</time>
      </trkpt>
      <trkpt lat="45.62324" lon="6.52146">
        <ele>1923.25</ele>
        <time>2020-09-13T13:13:21Z</time>
      </trkpt>
      <trkpt lat="45.62326" lon="6.52137">
        <ele>1920.85</ele>
        <time>2020-09-13T13:13:29Z</time>
      </trkpt>
      <trkpt lat="45.62328" lon="6.52124">
        <ele>1919.89</ele>
        <time>2020-09-13T13:13:41Z</time>
      </trkpt>
      <trkpt lat="45.62332" lon="6.52122">
        <ele>1918.45</ele>
        <time>2020-09-13T13:13:47Z</time>
      </trkpt>
      <trkpt lat="45.62335" lon="6.5211">
        <ele>1915.56</ele>
        <time>2020-09-13T13:14:01Z</time>
      </trkpt>
      <trkpt lat="45.62341" lon="6.52097">
        <ele>1913.64</ele>
        <time>2020-09-13T13:14:14Z</time>
      </trkpt>
      <trkpt lat="45.6235" lon="6.52087">
        <ele>1912.2</ele>
        <time>2020-09-13T13:14:24Z</time>
      </trkpt>
      <trkpt lat="45.62352" lon="6.5208">
        <ele>1909.32</ele>
        <time>2020-09-13T13:14:37Z</time>
      </trkpt>
      <trkpt lat="45.62349" lon="6.52082">
        <ele>1907.87</ele>
        <time>2020-09-13T13:14:49Z</time>
      </trkpt>
      <trkpt lat="45.62349" lon="6.52082">
        <ele>1908.83</ele>
        <time>2020-09-13T13:14:50Z</time>
      </trkpt>
      <trkpt lat="45.6235" lon="6.52075">
        <ele>1905.95</ele>
        <time>2020-09-13T13:15:02Z</time>
      </trkpt>
      <trkpt lat="45.62353" lon="6.5206">
        <ele>1903.07</ele>
        <time>2020-09-13T13:15:14Z</time>
      </trkpt>
      <trkpt lat="45.62357" lon="6.52045">
        <ele>1900.18</ele>
        <time>2020-09-13T13:15:27Z</time>
      </trkpt>
      <trkpt lat="45.6236" lon="6.52036">
        <ele>1898.26</ele>
        <time>2020-09-13T13:15:34Z</time>
      </trkpt>
      <trkpt lat="45.62356" lon="6.52029">
        <ele>1896.34</ele>
        <time>2020-09-13T13:15:45Z</time>
      </trkpt>
      <trkpt lat="45.62357" lon="6.52026">
        <ele>1895.38</ele>
        <time>2020-09-13T13:15:48Z</time>
      </trkpt>
      <trkpt lat="45.62363" lon="6.52013">
        <ele>1892.97</ele>
        <time>2020-09-13T13:16:01Z</time>
      </trkpt>
      <trkpt lat="45.62363" lon="6.5201">
        <ele>1891.53</ele>
        <time>2020-09-13T13:16:06Z</time>
      </trkpt>
      <trkpt lat="45.62364" lon="6.51997">
        <ele>1888.65</ele>
        <time>2020-09-13T13:16:18Z</time>
      </trkpt>
      <trkpt lat="45.62364" lon="6.51994">
        <ele>1887.69</ele>
        <time>2020-09-13T13:16:21Z</time>
      </trkpt>
      <trkpt lat="45.62366" lon="6.51985">
        <ele>1886.72</ele>
        <time>2020-09-13T13:16:26Z</time>
      </trkpt>
      <trkpt lat="45.62367" lon="6.51981">
        <ele>1883.84</ele>
        <time>2020-09-13T13:16:29Z</time>
      </trkpt>
      <trkpt lat="45.62367" lon="6.51978">
        <ele>1885.28</ele>
        <time>2020-09-13T13:16:33Z</time>
      </trkpt>
      <trkpt lat="45.62364" lon="6.51973">
        <ele>1881.44</ele>
        <time>2020-09-13T13:16:44Z</time>
      </trkpt>
      <trkpt lat="45.62364" lon="6.51972">
        <ele>1881.92</ele>
        <time>2020-09-13T13:16:45Z</time>
      </trkpt>
      <trkpt lat="45.62364" lon="6.51961">
        <ele>1879.51</ele>
        <time>2020-09-13T13:16:55Z</time>
      </trkpt>
      <trkpt lat="45.62364" lon="6.51954">
        <ele>1878.55</ele>
        <time>2020-09-13T13:17:00Z</time>
      </trkpt>
      <trkpt lat="45.6236" lon="6.51941">
        <ele>1876.15</ele>
        <time>2020-09-13T13:17:15Z</time>
      </trkpt>
      <trkpt lat="45.62362" lon="6.51927">
        <ele>1873.27</ele>
        <time>2020-09-13T13:17:27Z</time>
      </trkpt>
      <trkpt lat="45.62362" lon="6.51913">
        <ele>1870.86</ele>
        <time>2020-09-13T13:17:39Z</time>
      </trkpt>
      <trkpt lat="45.62365" lon="6.51899">
        <ele>1867.5</ele>
        <time>2020-09-13T13:17:52Z</time>
      </trkpt>
      <trkpt lat="45.62366" lon="6.51891">
        <ele>1865.58</ele>
        <time>2020-09-13T13:18:01Z</time>
      </trkpt>
      <trkpt lat="45.62371" lon="6.51882">
        <ele>1865.09</ele>
        <time>2020-09-13T13:18:14Z</time>
      </trkpt>
      <trkpt lat="45.62373" lon="6.51873">
        <ele>1861.73</ele>
        <time>2020-09-13T13:18:23Z</time>
      </trkpt>
      <trkpt lat="45.62375" lon="6.51871">
        <ele>1861.25</ele>
        <time>2020-09-13T13:18:25Z</time>
      </trkpt>
      <trkpt lat="45.62378" lon="6.51864">
        <ele>1859.81</ele>
        <time>2020-09-13T13:18:31Z</time>
      </trkpt>
      <trkpt lat="45.6238" lon="6.51858">
        <ele>1859.33</ele>
        <time>2020-09-13T13:18:36Z</time>
      </trkpt>
      <trkpt lat="45.62383" lon="6.51851">
        <ele>1853.56</ele>
        <time>2020-09-13T13:18:46Z</time>
      </trkpt>
      <trkpt lat="45.62383" lon="6.5185">
        <ele>1859.33</ele>
        <time>2020-09-13T13:18:47Z</time>
      </trkpt>
      <trkpt lat="45.62382" lon="6.5185">
        <ele>1861.25</ele>
        <time>2020-09-13T13:18:49Z</time>
      </trkpt>
      <trkpt lat="45.62382" lon="6.51851">
        <ele>1858.37</ele>
        <time>2020-09-13T13:18:52Z</time>
      </trkpt>
      <trkpt lat="45.62379" lon="6.51856">
        <ele>1858.37</ele>
        <time>2020-09-13T13:18:58Z</time>
      </trkpt>
      <trkpt lat="45.62377" lon="6.51859">
        <ele>1857.89</ele>
        <time>2020-09-13T13:19:01Z</time>
      </trkpt>
      <trkpt lat="45.62371" lon="6.51866">
        <ele>1855.48</ele>
        <time>2020-09-13T13:19:12Z</time>
      </trkpt>
      <trkpt lat="45.6236" lon="6.51868">
        <ele>1855</ele>
        <time>2020-09-13T13:19:26Z</time>
      </trkpt>
      <trkpt lat="45.62354" lon="6.51868">
        <ele>1855.48</ele>
        <time>2020-09-13T13:19:39Z</time>
      </trkpt>
      <trkpt lat="45.62353" lon="6.51857">
        <ele>1855.48</ele>
        <time>2020-09-13T13:19:49Z</time>
      </trkpt>
      <trkpt lat="45.62354" lon="6.51852">
        <ele>1855</ele>
        <time>2020-09-13T13:19:52Z</time>
      </trkpt>
      <trkpt lat="45.62357" lon="6.51842">
        <ele>1854.52</ele>
        <time>2020-09-13T13:19:57Z</time>
      </trkpt>
      <trkpt lat="45.62356" lon="6.51838">
        <ele>1854.04</ele>
        <time>2020-09-13T13:20:01Z</time>
      </trkpt>
      <trkpt lat="45.62356" lon="6.51835">
        <ele>1854.04</ele>
        <time>2020-09-13T13:20:03Z</time>
      </trkpt>
      <trkpt lat="45.62355" lon="6.51829">
        <ele>1853.08</ele>
        <time>2020-09-13T13:20:06Z</time>
      </trkpt>
      <trkpt lat="45.62352" lon="6.51813">
        <ele>1851.64</ele>
        <time>2020-09-13T13:20:16Z</time>
      </trkpt>
      <trkpt lat="45.62354" lon="6.51805">
        <ele>1850.19</ele>
        <time>2020-09-13T13:20:24Z</time>
      </trkpt>
      <trkpt lat="45.62354" lon="6.51791">
        <ele>1847.79</ele>
        <time>2020-09-13T13:20:36Z</time>
      </trkpt>
      <trkpt lat="45.62356" lon="6.51783">
        <ele>1844.91</ele>
        <time>2020-09-13T13:20:47Z</time>
      </trkpt>
      <trkpt lat="45.62355" lon="6.51767">
        <ele>1841.54</ele>
        <time>2020-09-13T13:20:59Z</time>
      </trkpt>
      <trkpt lat="45.62358" lon="6.51752">
        <ele>1839.14</ele>
        <time>2020-09-13T13:21:09Z</time>
      </trkpt>
      <trkpt lat="45.62362" lon="6.51747">
        <ele>1836.26</ele>
        <time>2020-09-13T13:21:21Z</time>
      </trkpt>
      <trkpt lat="45.62355" lon="6.51735">
        <ele>1833.37</ele>
        <time>2020-09-13T13:21:32Z</time>
      </trkpt>
      <trkpt lat="45.62348" lon="6.51728">
        <ele>1829.53</ele>
        <time>2020-09-13T13:21:44Z</time>
      </trkpt>
      <trkpt lat="45.62342" lon="6.51714">
        <ele>1826.64</ele>
        <time>2020-09-13T13:21:57Z</time>
      </trkpt>
      <trkpt lat="45.62343" lon="6.51708">
        <ele>1824.24</ele>
        <time>2020-09-13T13:22:05Z</time>
      </trkpt>
      <trkpt lat="45.62341" lon="6.517">
        <ele>1821.35</ele>
        <time>2020-09-13T13:22:16Z</time>
      </trkpt>
      <trkpt lat="45.62339" lon="6.51696">
        <ele>1819.91</ele>
        <time>2020-09-13T13:22:20Z</time>
      </trkpt>
      <trkpt lat="45.62337" lon="6.51681">
        <ele>1816.07</ele>
        <time>2020-09-13T13:22:32Z</time>
      </trkpt>
      <trkpt lat="45.62336" lon="6.51678">
        <ele>1815.59</ele>
        <time>2020-09-13T13:22:34Z</time>
      </trkpt>
      <trkpt lat="45.62336" lon="6.51673">
        <ele>1814.63</ele>
        <time>2020-09-13T13:22:39Z</time>
      </trkpt>
      <trkpt lat="45.6234" lon="6.51658">
        <ele>1812.7</ele>
        <time>2020-09-13T13:22:52Z</time>
      </trkpt>
      <trkpt lat="45.62343" lon="6.5165">
        <ele>1810.3</ele>
        <time>2020-09-13T13:23:02Z</time>
      </trkpt>
      <trkpt lat="45.62349" lon="6.51636">
        <ele>1809.34</ele>
        <time>2020-09-13T13:23:12Z</time>
      </trkpt>
      <trkpt lat="45.62352" lon="6.51628">
        <ele>1807.42</ele>
        <time>2020-09-13T13:23:20Z</time>
      </trkpt>
      <trkpt lat="45.62361" lon="6.51612">
        <ele>1805.49</ele>
        <time>2020-09-13T13:23:30Z</time>
      </trkpt>
      <trkpt lat="45.6236" lon="6.51607">
        <ele>1805.49</ele>
        <time>2020-09-13T13:23:34Z</time>
      </trkpt>
      <trkpt lat="45.6236" lon="6.51594">
        <ele>1804.53</ele>
        <time>2020-09-13T13:23:43Z</time>
      </trkpt>
      <trkpt lat="45.62363" lon="6.51588">
        <ele>1803.57</ele>
        <time>2020-09-13T13:23:48Z</time>
      </trkpt>
      <trkpt lat="45.62365" lon="6.51586">
        <ele>1802.13</ele>
        <time>2020-09-13T13:23:51Z</time>
      </trkpt>
      <trkpt lat="45.62366" lon="6.51583">
        <ele>1801.65</ele>
        <time>2020-09-13T13:23:53Z</time>
      </trkpt>
      <trkpt lat="45.62367" lon="6.51581">
        <ele>1800.69</ele>
        <time>2020-09-13T13:23:59Z</time>
      </trkpt>
      <trkpt lat="45.62364" lon="6.51572">
        <ele>1797.32</ele>
        <time>2020-09-13T13:24:12Z</time>
      </trkpt>
      <trkpt lat="45.62363" lon="6.51568">
        <ele>1796.36</ele>
        <time>2020-09-13T13:24:15Z</time>
      </trkpt>
      <trkpt lat="45.62362" lon="6.51559">
        <ele>1793.96</ele>
        <time>2020-09-13T13:24:23Z</time>
      </trkpt>
      <trkpt lat="45.62369" lon="6.51553">
        <ele>1790.59</ele>
        <time>2020-09-13T13:24:36Z</time>
      </trkpt>
      <trkpt lat="45.62373" lon="6.51552">
        <ele>1788.67</ele>
        <time>2020-09-13T13:24:43Z</time>
      </trkpt>
      <trkpt lat="45.62375" lon="6.51545">
        <ele>1785.79</ele>
        <time>2020-09-13T13:24:56Z</time>
      </trkpt>
      <trkpt lat="45.62379" lon="6.51539">
        <ele>1782.9</ele>
        <time>2020-09-13T13:25:09Z</time>
      </trkpt>
      <trkpt lat="45.62384" lon="6.5153">
        <ele>1780.02</ele>
        <time>2020-09-13T13:25:21Z</time>
      </trkpt>
      <trkpt lat="45.62394" lon="6.51531">
        <ele>1777.13</ele>
        <time>2020-09-13T13:25:35Z</time>
      </trkpt>
      <trkpt lat="45.62395" lon="6.5153">
        <ele>1776.65</ele>
        <time>2020-09-13T13:25:37Z</time>
      </trkpt>
      <trkpt lat="45.62398" lon="6.51514">
        <ele>1773.29</ele>
        <time>2020-09-13T13:25:49Z</time>
      </trkpt>
      <trkpt lat="45.624" lon="6.51508">
        <ele>1771.85</ele>
        <time>2020-09-13T13:25:57Z</time>
      </trkpt>
      <trkpt lat="45.62408" lon="6.51512">
        <ele>1769.44</ele>
        <time>2020-09-13T13:26:06Z</time>
      </trkpt>
      <trkpt lat="45.62411" lon="6.51504">
        <ele>1768</ele>
        <time>2020-09-13T13:26:12Z</time>
      </trkpt>
      <trkpt lat="45.62414" lon="6.51502">
        <ele>1767.04</ele>
        <time>2020-09-13T13:26:16Z</time>
      </trkpt>
      <trkpt lat="45.62421" lon="6.51503">
        <ele>1765.12</ele>
        <time>2020-09-13T13:26:22Z</time>
      </trkpt>
      <trkpt lat="45.62428" lon="6.51497">
        <ele>1761.75</ele>
        <time>2020-09-13T13:26:34Z</time>
      </trkpt>
      <trkpt lat="45.62432" lon="6.51492">
        <ele>1758.39</ele>
        <time>2020-09-13T13:26:44Z</time>
      </trkpt>
      <trkpt lat="45.62431" lon="6.51488">
        <ele>1758.39</ele>
        <time>2020-09-13T13:26:48Z</time>
      </trkpt>
      <trkpt lat="45.62442" lon="6.51478">
        <ele>1756.47</ele>
        <time>2020-09-13T13:26:59Z</time>
      </trkpt>
      <trkpt lat="45.62446" lon="6.51465">
        <ele>1755.99</ele>
        <time>2020-09-13T13:27:08Z</time>
      </trkpt>
      <trkpt lat="45.62448" lon="6.51462">
        <ele>1755.02</ele>
        <time>2020-09-13T13:27:11Z</time>
      </trkpt>
      <trkpt lat="45.62457" lon="6.51449">
        <ele>1753.58</ele>
        <time>2020-09-13T13:27:24Z</time>
      </trkpt>
      <trkpt lat="45.62459" lon="6.51445">
        <ele>1752.62</ele>
        <time>2020-09-13T13:27:30Z</time>
      </trkpt>
      <trkpt lat="45.62463" lon="6.51437">
        <ele>1752.14</ele>
        <time>2020-09-13T13:27:35Z</time>
      </trkpt>
      <trkpt lat="45.62467" lon="6.51429">
        <ele>1751.18</ele>
        <time>2020-09-13T13:27:42Z</time>
      </trkpt>
      <trkpt lat="45.62475" lon="6.51417">
        <ele>1748.78</ele>
        <time>2020-09-13T13:27:53Z</time>
      </trkpt>
      <trkpt lat="45.62484" lon="6.51407">
        <ele>1747.81</ele>
        <time>2020-09-13T13:28:03Z</time>
      </trkpt>
      <trkpt lat="45.62493" lon="6.51395">
        <ele>1746.37</ele>
        <time>2020-09-13T13:28:13Z</time>
      </trkpt>
      <trkpt lat="45.62494" lon="6.51391">
        <ele>1745.41</ele>
        <time>2020-09-13T13:28:17Z</time>
      </trkpt>
      <trkpt lat="45.62498" lon="6.51375">
        <ele>1744.45</ele>
        <time>2020-09-13T13:28:29Z</time>
      </trkpt>
      <trkpt lat="45.62498" lon="6.51377">
        <ele>1743.97</ele>
        <time>2020-09-13T13:28:44Z</time>
      </trkpt>
      <trkpt lat="45.62498" lon="6.51378">
        <ele>1743.97</ele>
        <time>2020-09-13T13:29:00Z</time>
      </trkpt>
      <trkpt lat="45.62502" lon="6.5137">
        <ele>1743.49</ele>
        <time>2020-09-13T13:29:07Z</time>
      </trkpt>
      <trkpt lat="45.62503" lon="6.51366">
        <ele>1743.49</ele>
        <time>2020-09-13T13:29:09Z</time>
      </trkpt>
      <trkpt lat="45.62505" lon="6.51363">
        <ele>1743.01</ele>
        <time>2020-09-13T13:29:11Z</time>
      </trkpt>
      <trkpt lat="45.62509" lon="6.51355">
        <ele>1742.53</ele>
        <time>2020-09-13T13:29:18Z</time>
      </trkpt>
      <trkpt lat="45.62516" lon="6.51338">
        <ele>1742.53</ele>
        <time>2020-09-13T13:29:30Z</time>
      </trkpt>
      <trkpt lat="45.62524" lon="6.51325">
        <ele>1741.08</ele>
        <time>2020-09-13T13:29:41Z</time>
      </trkpt>
      <trkpt lat="45.62528" lon="6.51312">
        <ele>1738.68</ele>
        <time>2020-09-13T13:29:53Z</time>
      </trkpt>
      <trkpt lat="45.62532" lon="6.51305">
        <ele>1738.2</ele>
        <time>2020-09-13T13:30:00Z</time>
      </trkpt>
      <trkpt lat="45.62535" lon="6.51289">
        <ele>1736.28</ele>
        <time>2020-09-13T13:30:12Z</time>
      </trkpt>
      <trkpt lat="45.62539" lon="6.51278">
        <ele>1734.84</ele>
        <time>2020-09-13T13:30:22Z</time>
      </trkpt>
      <trkpt lat="45.6254" lon="6.51272">
        <ele>1734.36</ele>
        <time>2020-09-13T13:30:26Z</time>
      </trkpt>
      <trkpt lat="45.62543" lon="6.51259">
        <ele>1733.88</ele>
        <time>2020-09-13T13:30:35Z</time>
      </trkpt>
      <trkpt lat="45.62541" lon="6.51239">
        <ele>1732.91</ele>
        <time>2020-09-13T13:30:47Z</time>
      </trkpt>
      <trkpt lat="45.62541" lon="6.51231">
        <ele>1732.43</ele>
        <time>2020-09-13T13:30:51Z</time>
      </trkpt>
      <trkpt lat="45.62547" lon="6.51214">
        <ele>1730.99</ele>
        <time>2020-09-13T13:30:58Z</time>
      </trkpt>
      <trkpt lat="45.62547" lon="6.51211">
        <ele>1730.51</ele>
        <time>2020-09-13T13:31:00Z</time>
      </trkpt>
      <trkpt lat="45.62547" lon="6.51209">
        <ele>1730.03</ele>
        <time>2020-09-13T13:31:03Z</time>
      </trkpt>
      <trkpt lat="45.62552" lon="6.512">
        <ele>1728.59</ele>
        <time>2020-09-13T13:31:10Z</time>
      </trkpt>
      <trkpt lat="45.62564" lon="6.5119">
        <ele>1726.18</ele>
        <time>2020-09-13T13:31:21Z</time>
      </trkpt>
      <trkpt lat="45.62577" lon="6.51178">
        <ele>1723.78</ele>
        <time>2020-09-13T13:31:32Z</time>
      </trkpt>
      <trkpt lat="45.62582" lon="6.51175">
        <ele>1721.86</ele>
        <time>2020-09-13T13:31:39Z</time>
      </trkpt>
      <trkpt lat="45.62593" lon="6.51163">
        <ele>1719.46</ele>
        <time>2020-09-13T13:31:51Z</time>
      </trkpt>
      <trkpt lat="45.62602" lon="6.51155">
        <ele>1717.53</ele>
        <time>2020-09-13T13:32:02Z</time>
      </trkpt>
      <trkpt lat="45.62603" lon="6.51155">
        <ele>1717.05</ele>
        <time>2020-09-13T13:32:04Z</time>
      </trkpt>
      <trkpt lat="45.62608" lon="6.51151">
        <ele>1716.09</ele>
        <time>2020-09-13T13:32:16Z</time>
      </trkpt>
      <trkpt lat="45.62608" lon="6.51153">
        <ele>1716.09</ele>
        <time>2020-09-13T13:32:33Z</time>
      </trkpt>
      <trkpt lat="45.62608" lon="6.51155">
        <ele>1715.61</ele>
        <time>2020-09-13T13:33:03Z</time>
      </trkpt>
      <trkpt lat="45.62608" lon="6.51154">
        <ele>1715.61</ele>
        <time>2020-09-13T13:33:25Z</time>
      </trkpt>
      <trkpt lat="45.6261" lon="6.51152">
        <ele>1715.13</ele>
        <time>2020-09-13T13:33:38Z</time>
      </trkpt>
      <trkpt lat="45.62616" lon="6.51143">
        <ele>1711.28</ele>
        <time>2020-09-13T13:33:49Z</time>
      </trkpt>
      <trkpt lat="45.62621" lon="6.51139">
        <ele>1709.84</ele>
        <time>2020-09-13T13:33:56Z</time>
      </trkpt>
      <trkpt lat="45.62623" lon="6.51138">
        <ele>1708.88</ele>
        <time>2020-09-13T13:33:59Z</time>
      </trkpt>
      <trkpt lat="45.62631" lon="6.51139">
        <ele>1706</ele>
        <time>2020-09-13T13:34:09Z</time>
      </trkpt>
      <trkpt lat="45.62637" lon="6.51138">
        <ele>1704.07</ele>
        <time>2020-09-13T13:34:15Z</time>
      </trkpt>
      <trkpt lat="45.62641" lon="6.51132">
        <ele>1703.11</ele>
        <time>2020-09-13T13:34:27Z</time>
      </trkpt>
      <trkpt lat="45.62642" lon="6.51121">
        <ele>1701.67</ele>
        <time>2020-09-13T13:34:35Z</time>
      </trkpt>
      <trkpt lat="45.62643" lon="6.51118">
        <ele>1701.67</ele>
        <time>2020-09-13T13:34:37Z</time>
      </trkpt>
      <trkpt lat="45.62645" lon="6.51113">
        <ele>1699.75</ele>
        <time>2020-09-13T13:34:43Z</time>
      </trkpt>
      <trkpt lat="45.62645" lon="6.51106">
        <ele>1697.34</ele>
        <time>2020-09-13T13:34:56Z</time>
      </trkpt>
      <trkpt lat="45.62645" lon="6.51106">
        <ele>1697.34</ele>
        <time>2020-09-13T13:34:57Z</time>
      </trkpt>
      <trkpt lat="45.62644" lon="6.51105">
        <ele>1697.34</ele>
        <time>2020-09-13T13:35:09Z</time>
      </trkpt>
      <trkpt lat="45.62651" lon="6.51101">
        <ele>1694.94</ele>
        <time>2020-09-13T13:35:19Z</time>
      </trkpt>
      <trkpt lat="45.62653" lon="6.51105">
        <ele>1693.5</ele>
        <time>2020-09-13T13:35:31Z</time>
      </trkpt>
      <trkpt lat="45.62656" lon="6.51102">
        <ele>1690.62</ele>
        <time>2020-09-13T13:35:47Z</time>
      </trkpt>
      <trkpt lat="45.62656" lon="6.51102">
        <ele>1689.17</ele>
        <time>2020-09-13T13:35:58Z</time>
      </trkpt>
      <trkpt lat="45.62657" lon="6.511">
        <ele>1689.65</ele>
        <time>2020-09-13T13:36:08Z</time>
      </trkpt>
      <trkpt lat="45.62657" lon="6.511">
        <ele>1688.21</ele>
        <time>2020-09-13T13:36:10Z</time>
      </trkpt>
      <trkpt lat="45.62658" lon="6.51098">
        <ele>1685.81</ele>
        <time>2020-09-13T13:36:27Z</time>
      </trkpt>
      <trkpt lat="45.62659" lon="6.51098">
        <ele>1684.85</ele>
        <time>2020-09-13T13:36:30Z</time>
      </trkpt>
      <trkpt lat="45.62662" lon="6.51097">
        <ele>1682.93</ele>
        <time>2020-09-13T13:36:41Z</time>
      </trkpt>
      <trkpt lat="45.62666" lon="6.51095">
        <ele>1681.48</ele>
        <time>2020-09-13T13:36:51Z</time>
      </trkpt>
      <trkpt lat="45.62668" lon="6.51095">
        <ele>1681</ele>
        <time>2020-09-13T13:37:06Z</time>
      </trkpt>
      <trkpt lat="45.62668" lon="6.51087">
        <ele>1678.6</ele>
        <time>2020-09-13T13:37:14Z</time>
      </trkpt>
      <trkpt lat="45.62672" lon="6.51081">
        <ele>1676.68</ele>
        <time>2020-09-13T13:37:24Z</time>
      </trkpt>
      <trkpt lat="45.62673" lon="6.51077">
        <ele>1675.72</ele>
        <time>2020-09-13T13:37:27Z</time>
      </trkpt>
      <trkpt lat="45.62678" lon="6.51067">
        <ele>1673.79</ele>
        <time>2020-09-13T13:37:36Z</time>
      </trkpt>
      <trkpt lat="45.62685" lon="6.51067">
        <ele>1670.91</ele>
        <time>2020-09-13T13:37:48Z</time>
      </trkpt>
      <trkpt lat="45.62689" lon="6.51064">
        <ele>1668.99</ele>
        <time>2020-09-13T13:37:58Z</time>
      </trkpt>
      <trkpt lat="45.62683" lon="6.51051">
        <ele>1666.58</ele>
        <time>2020-09-13T13:38:10Z</time>
      </trkpt>
      <trkpt lat="45.62678" lon="6.51049">
        <ele>1664.18</ele>
        <time>2020-09-13T13:38:24Z</time>
      </trkpt>
      <trkpt lat="45.62682" lon="6.51041">
        <ele>1663.7</ele>
        <time>2020-09-13T13:38:32Z</time>
      </trkpt>
      <trkpt lat="45.62694" lon="6.51037">
        <ele>1660.33</ele>
        <time>2020-09-13T13:38:47Z</time>
      </trkpt>
      <trkpt lat="45.62695" lon="6.51036">
        <ele>1658.41</ele>
        <time>2020-09-13T13:38:58Z</time>
      </trkpt>
      <trkpt lat="45.62696" lon="6.51031">
        <ele>1657.45</ele>
        <time>2020-09-13T13:39:03Z</time>
      </trkpt>
      <trkpt lat="45.627" lon="6.51028">
        <ele>1656.01</ele>
        <time>2020-09-13T13:39:09Z</time>
      </trkpt>
      <trkpt lat="45.62704" lon="6.51022">
        <ele>1654.09</ele>
        <time>2020-09-13T13:39:21Z</time>
      </trkpt>
      <trkpt lat="45.62706" lon="6.5102">
        <ele>1650.72</ele>
        <time>2020-09-13T13:39:31Z</time>
      </trkpt>
      <trkpt lat="45.62706" lon="6.51018">
        <ele>1651.68</ele>
        <time>2020-09-13T13:39:35Z</time>
      </trkpt>
      <trkpt lat="45.62706" lon="6.51016">
        <ele>1649.76</ele>
        <time>2020-09-13T13:39:48Z</time>
      </trkpt>
      <trkpt lat="45.62706" lon="6.51004">
        <ele>1647.84</ele>
        <time>2020-09-13T13:39:58Z</time>
      </trkpt>
      <trkpt lat="45.62704" lon="6.50999">
        <ele>1647.84</ele>
        <time>2020-09-13T13:40:11Z</time>
      </trkpt>
      <trkpt lat="45.62705" lon="6.50994">
        <ele>1646.4</ele>
        <time>2020-09-13T13:40:24Z</time>
      </trkpt>
      <trkpt lat="45.62706" lon="6.50992">
        <ele>1643.99</ele>
        <time>2020-09-13T13:40:40Z</time>
      </trkpt>
      <trkpt lat="45.62706" lon="6.50991">
        <ele>1643.99</ele>
        <time>2020-09-13T13:40:41Z</time>
      </trkpt>
      <trkpt lat="45.62704" lon="6.50986">
        <ele>1642.07</ele>
        <time>2020-09-13T13:40:54Z</time>
      </trkpt>
      <trkpt lat="45.62703" lon="6.50976">
        <ele>1641.11</ele>
        <time>2020-09-13T13:41:12Z</time>
      </trkpt>
      <trkpt lat="45.62704" lon="6.50971">
        <ele>1640.63</ele>
        <time>2020-09-13T13:41:18Z</time>
      </trkpt>
      <trkpt lat="45.62705" lon="6.50969">
        <ele>1640.15</ele>
        <time>2020-09-13T13:41:23Z</time>
      </trkpt>
      <trkpt lat="45.62708" lon="6.50969">
        <ele>1636.78</ele>
        <time>2020-09-13T13:41:35Z</time>
      </trkpt>
      <trkpt lat="45.6271" lon="6.50969">
        <ele>1637.26</ele>
        <time>2020-09-13T13:41:48Z</time>
      </trkpt>
      <trkpt lat="45.62709" lon="6.50968">
        <ele>1635.82</ele>
        <time>2020-09-13T13:42:00Z</time>
      </trkpt>
      <trkpt lat="45.6271" lon="6.50965">
        <ele>1634.86</ele>
        <time>2020-09-13T13:42:14Z</time>
      </trkpt>
      <trkpt lat="45.62711" lon="6.50965">
        <ele>1633.9</ele>
        <time>2020-09-13T13:42:30Z</time>
      </trkpt>
      <trkpt lat="45.62709" lon="6.50957">
        <ele>1633.42</ele>
        <time>2020-09-13T13:42:44Z</time>
      </trkpt>
      <trkpt lat="45.62716" lon="6.50968">
        <ele>1631.98</ele>
        <time>2020-09-13T13:42:57Z</time>
      </trkpt>
      <trkpt lat="45.62719" lon="6.50976">
        <ele>1630.05</ele>
        <time>2020-09-13T13:43:09Z</time>
      </trkpt>
      <trkpt lat="45.62719" lon="6.50979">
        <ele>1629.09</ele>
        <time>2020-09-13T13:43:15Z</time>
      </trkpt>
      <trkpt lat="45.6272" lon="6.50973">
        <ele>1626.69</ele>
        <time>2020-09-13T13:43:29Z</time>
      </trkpt>
      <trkpt lat="45.62717" lon="6.50978">
        <ele>1624.28</ele>
        <time>2020-09-13T13:43:43Z</time>
      </trkpt>
      <trkpt lat="45.62725" lon="6.5098">
        <ele>1622.36</ele>
        <time>2020-09-13T13:43:52Z</time>
      </trkpt>
      <trkpt lat="45.62732" lon="6.50983">
        <ele>1622.36</ele>
        <time>2020-09-13T13:44:03Z</time>
      </trkpt>
      <trkpt lat="45.62732" lon="6.50981">
        <ele>1622.36</ele>
        <time>2020-09-13T13:44:06Z</time>
      </trkpt>
      <trkpt lat="45.62733" lon="6.50976">
        <ele>1621.4</ele>
        <time>2020-09-13T13:44:12Z</time>
      </trkpt>
      <trkpt lat="45.62732" lon="6.50971">
        <ele>1618.52</ele>
        <time>2020-09-13T13:44:22Z</time>
      </trkpt>
      <trkpt lat="45.62731" lon="6.5097">
        <ele>1618.04</ele>
        <time>2020-09-13T13:44:24Z</time>
      </trkpt>
      <trkpt lat="45.62729" lon="6.50958">
        <ele>1615.63</ele>
        <time>2020-09-13T13:44:36Z</time>
      </trkpt>
      <trkpt lat="45.62726" lon="6.50951">
        <ele>1614.19</ele>
        <time>2020-09-13T13:44:40Z</time>
      </trkpt>
      <trkpt lat="45.62719" lon="6.50941">
        <ele>1611.79</ele>
        <time>2020-09-13T13:44:49Z</time>
      </trkpt>
      <trkpt lat="45.62716" lon="6.50934">
        <ele>1608.42</ele>
        <time>2020-09-13T13:45:00Z</time>
      </trkpt>
      <trkpt lat="45.62714" lon="6.50924">
        <ele>1606.02</ele>
        <time>2020-09-13T13:45:11Z</time>
      </trkpt>
      <trkpt lat="45.62713" lon="6.50919">
        <ele>1605.06</ele>
        <time>2020-09-13T13:45:16Z</time>
      </trkpt>
      <trkpt lat="45.62707" lon="6.5091">
        <ele>1601.21</ele>
        <time>2020-09-13T13:45:25Z</time>
      </trkpt>
      <trkpt lat="45.62707" lon="6.5091">
        <ele>1604.58</ele>
        <time>2020-09-13T13:45:26Z</time>
      </trkpt>
      <trkpt lat="45.62708" lon="6.50901">
        <ele>1601.69</ele>
        <time>2020-09-13T13:45:38Z</time>
      </trkpt>
      <trkpt lat="45.62711" lon="6.50892">
        <ele>1598.81</ele>
        <time>2020-09-13T13:45:49Z</time>
      </trkpt>
      <trkpt lat="45.62709" lon="6.50878">
        <ele>1596.41</ele>
        <time>2020-09-13T13:46:02Z</time>
      </trkpt>
      <trkpt lat="45.62711" lon="6.50873">
        <ele>1596.41</ele>
        <time>2020-09-13T13:46:06Z</time>
      </trkpt>
      <trkpt lat="45.6271" lon="6.5086">
        <ele>1594</ele>
        <time>2020-09-13T13:46:18Z</time>
      </trkpt>
      <trkpt lat="45.62712" lon="6.50856">
        <ele>1595.93</ele>
        <time>2020-09-13T13:46:30Z</time>
      </trkpt>
      <trkpt lat="45.62705" lon="6.50842">
        <ele>1595.45</ele>
        <time>2020-09-13T13:46:45Z</time>
      </trkpt>
      <trkpt lat="45.62705" lon="6.50831">
        <ele>1594.48</ele>
        <time>2020-09-13T13:46:56Z</time>
      </trkpt>
      <trkpt lat="45.62699" lon="6.50824">
        <ele>1596.41</ele>
        <time>2020-09-13T13:47:04Z</time>
      </trkpt>
      <trkpt lat="45.62693" lon="6.50814">
        <ele>1595.93</ele>
        <time>2020-09-13T13:47:12Z</time>
      </trkpt>
      <trkpt lat="45.62694" lon="6.50808">
        <ele>1595.45</ele>
        <time>2020-09-13T13:47:15Z</time>
      </trkpt>
      <trkpt lat="45.62694" lon="6.508">
        <ele>1594.48</ele>
        <time>2020-09-13T13:47:19Z</time>
      </trkpt>
      <trkpt lat="45.62694" lon="6.5079">
        <ele>1594</ele>
        <time>2020-09-13T13:47:24Z</time>
      </trkpt>
      <trkpt lat="45.62695" lon="6.50774">
        <ele>1592.08</ele>
        <time>2020-09-13T13:47:37Z</time>
      </trkpt>
      <trkpt lat="45.62694" lon="6.50769">
        <ele>1589.68</ele>
        <time>2020-09-13T13:47:45Z</time>
      </trkpt>
      <trkpt lat="45.62692" lon="6.50755">
        <ele>1589.2</ele>
        <time>2020-09-13T13:47:58Z</time>
      </trkpt>
      <trkpt lat="45.62692" lon="6.50741">
        <ele>1586.79</ele>
        <time>2020-09-13T13:48:10Z</time>
      </trkpt>
      <trkpt lat="45.62691" lon="6.50738">
        <ele>1584.87</ele>
        <time>2020-09-13T13:48:27Z</time>
      </trkpt>
      <trkpt lat="45.6269" lon="6.50732">
        <ele>1582.95</ele>
        <time>2020-09-13T13:48:40Z</time>
      </trkpt>
      <trkpt lat="45.62687" lon="6.50722">
        <ele>1579.58</ele>
        <time>2020-09-13T13:48:53Z</time>
      </trkpt>
      <trkpt lat="45.62687" lon="6.50714">
        <ele>1576.7</ele>
        <time>2020-09-13T13:49:09Z</time>
      </trkpt>
      <trkpt lat="45.62689" lon="6.50704">
        <ele>1573.33</ele>
        <time>2020-09-13T13:49:22Z</time>
      </trkpt>
      <trkpt lat="45.62691" lon="6.50699">
        <ele>1570.93</ele>
        <time>2020-09-13T13:49:33Z</time>
      </trkpt>
      <trkpt lat="45.62698" lon="6.50698">
        <ele>1568.05</ele>
        <time>2020-09-13T13:49:44Z</time>
      </trkpt>
      <trkpt lat="45.627" lon="6.507">
        <ele>1566.61</ele>
        <time>2020-09-13T13:49:52Z</time>
      </trkpt>
      <trkpt lat="45.62697" lon="6.50696">
        <ele>1564.68</ele>
        <time>2020-09-13T13:50:04Z</time>
      </trkpt>
      <trkpt lat="45.62698" lon="6.50697">
        <ele>1564.2</ele>
        <time>2020-09-13T13:50:05Z</time>
      </trkpt>
      <trkpt lat="45.62706" lon="6.50712">
        <ele>1562.76</ele>
        <time>2020-09-13T13:50:18Z</time>
      </trkpt>
      <trkpt lat="45.62708" lon="6.50717">
        <ele>1559.88</ele>
        <time>2020-09-13T13:50:33Z</time>
      </trkpt>
      <trkpt lat="45.62708" lon="6.50724">
        <ele>1558.43</ele>
        <time>2020-09-13T13:50:46Z</time>
      </trkpt>
      <trkpt lat="45.62706" lon="6.50731">
        <ele>1555.55</ele>
        <time>2020-09-13T13:51:01Z</time>
      </trkpt>
      <trkpt lat="45.62706" lon="6.50731">
        <ele>1552.67</ele>
        <time>2020-09-13T13:51:18Z</time>
      </trkpt>
      <trkpt lat="45.62703" lon="6.50737">
        <ele>1549.3</ele>
        <time>2020-09-13T13:51:34Z</time>
      </trkpt>
      <trkpt lat="45.62708" lon="6.50742">
        <ele>1546.9</ele>
        <time>2020-09-13T13:51:51Z</time>
      </trkpt>
      <trkpt lat="45.62715" lon="6.50752">
        <ele>1544.01</ele>
        <time>2020-09-13T13:52:07Z</time>
      </trkpt>
      <trkpt lat="45.62708" lon="6.50752">
        <ele>1541.61</ele>
        <time>2020-09-13T13:52:25Z</time>
      </trkpt>
      <trkpt lat="45.62712" lon="6.50754">
        <ele>1538.73</ele>
        <time>2020-09-13T13:52:33Z</time>
      </trkpt>
      <trkpt lat="45.62712" lon="6.50754">
        <ele>1542.57</ele>
        <time>2020-09-13T13:52:34Z</time>
      </trkpt>
      <trkpt lat="45.62712" lon="6.50754">
        <ele>1541.13</ele>
        <time>2020-09-13T13:52:35Z</time>
      </trkpt>
      <trkpt lat="45.62713" lon="6.50755">
        <ele>1539.69</ele>
        <time>2020-09-13T13:52:37Z</time>
      </trkpt>
      <trkpt lat="45.62725" lon="6.50761">
        <ele>1536.32</ele>
        <time>2020-09-13T13:52:50Z</time>
      </trkpt>
      <trkpt lat="45.6273" lon="6.5076">
        <ele>1533.92</ele>
        <time>2020-09-13T13:53:03Z</time>
      </trkpt>
      <trkpt lat="45.62733" lon="6.50762">
        <ele>1532.48</ele>
        <time>2020-09-13T13:53:18Z</time>
      </trkpt>
      <trkpt lat="45.62741" lon="6.50765">
        <ele>1531.52</ele>
        <time>2020-09-13T13:53:34Z</time>
      </trkpt>
      <trkpt lat="45.62738" lon="6.50762">
        <ele>1529.59</ele>
        <time>2020-09-13T13:53:48Z</time>
      </trkpt>
      <trkpt lat="45.62738" lon="6.50764">
        <ele>1526.23</ele>
        <time>2020-09-13T13:54:04Z</time>
      </trkpt>
      <trkpt lat="45.62745" lon="6.50769">
        <ele>1523.35</ele>
        <time>2020-09-13T13:54:17Z</time>
      </trkpt>
      <trkpt lat="45.62745" lon="6.50769">
        <ele>1523.35</ele>
        <time>2020-09-13T13:54:18Z</time>
      </trkpt>
      <trkpt lat="45.62744" lon="6.50768">
        <ele>1519.98</ele>
        <time>2020-09-13T13:54:29Z</time>
      </trkpt>
      <trkpt lat="45.62743" lon="6.50769">
        <ele>1518.06</ele>
        <time>2020-09-13T13:54:38Z</time>
      </trkpt>
      <trkpt lat="45.62744" lon="6.50768">
        <ele>1518.06</ele>
        <time>2020-09-13T13:54:40Z</time>
      </trkpt>
      <trkpt lat="45.6275" lon="6.50766">
        <ele>1515.18</ele>
        <time>2020-09-13T13:54:54Z</time>
      </trkpt>
      <trkpt lat="45.62752" lon="6.50774">
        <ele>1512.29</ele>
        <time>2020-09-13T13:55:01Z</time>
      </trkpt>
      <trkpt lat="45.62752" lon="6.5078">
        <ele>1509.41</ele>
        <time>2020-09-13T13:55:10Z</time>
      </trkpt>
      <trkpt lat="45.62752" lon="6.5078">
        <ele>1508.45</ele>
        <time>2020-09-13T13:55:13Z</time>
      </trkpt>
      <trkpt lat="45.62751" lon="6.50773">
        <ele>1507.48</ele>
        <time>2020-09-13T13:55:17Z</time>
      </trkpt>
      <trkpt lat="45.6275" lon="6.5076">
        <ele>1503.64</ele>
        <time>2020-09-13T13:55:29Z</time>
      </trkpt>
      <trkpt lat="45.62749" lon="6.50757">
        <ele>1503.16</ele>
        <time>2020-09-13T13:55:31Z</time>
      </trkpt>
      <trkpt lat="45.62745" lon="6.50751">
        <ele>1501.72</ele>
        <time>2020-09-13T13:55:34Z</time>
      </trkpt>
      <trkpt lat="45.62743" lon="6.50745">
        <ele>1500.76</ele>
        <time>2020-09-13T13:55:40Z</time>
      </trkpt>
      <trkpt lat="45.62744" lon="6.50742">
        <ele>1498.83</ele>
        <time>2020-09-13T13:55:52Z</time>
      </trkpt>
      <trkpt lat="45.62755" lon="6.50756">
        <ele>1496.43</ele>
        <time>2020-09-13T13:56:04Z</time>
      </trkpt>
      <trkpt lat="45.62755" lon="6.50756">
        <ele>1495.95</ele>
        <time>2020-09-13T13:56:06Z</time>
      </trkpt>
      <trkpt lat="45.62756" lon="6.50751">
        <ele>1493.55</ele>
        <time>2020-09-13T13:56:17Z</time>
      </trkpt>
      <trkpt lat="45.62756" lon="6.50761">
        <ele>1490.66</ele>
        <time>2020-09-13T13:56:28Z</time>
      </trkpt>
      <trkpt lat="45.62756" lon="6.50748">
        <ele>1487.3</ele>
        <time>2020-09-13T13:56:42Z</time>
      </trkpt>
      <trkpt lat="45.62757" lon="6.50748">
        <ele>1487.3</ele>
        <time>2020-09-13T13:56:43Z</time>
      </trkpt>
      <trkpt lat="45.62759" lon="6.50746">
        <ele>1486.82</ele>
        <time>2020-09-13T13:56:45Z</time>
      </trkpt>
      <trkpt lat="45.62759" lon="6.5074">
        <ele>1483.93</ele>
        <time>2020-09-13T13:56:53Z</time>
      </trkpt>
      <trkpt lat="45.62759" lon="6.5073">
        <ele>1482.01</ele>
        <time>2020-09-13T13:57:00Z</time>
      </trkpt>
      <trkpt lat="45.62766" lon="6.50738">
        <ele>1479.61</ele>
        <time>2020-09-13T13:57:12Z</time>
      </trkpt>
      <trkpt lat="45.62768" lon="6.50738">
        <ele>1478.65</ele>
        <time>2020-09-13T13:57:14Z</time>
      </trkpt>
      <trkpt lat="45.62769" lon="6.50735">
        <ele>1478.16</ele>
        <time>2020-09-13T13:57:17Z</time>
      </trkpt>
      <trkpt lat="45.62768" lon="6.50734">
        <ele>1477.2</ele>
        <time>2020-09-13T13:57:20Z</time>
      </trkpt>
      <trkpt lat="45.62769" lon="6.50732">
        <ele>1476.24</ele>
        <time>2020-09-13T13:57:23Z</time>
      </trkpt>
      <trkpt lat="45.62769" lon="6.50724">
        <ele>1473.84</ele>
        <time>2020-09-13T13:57:30Z</time>
      </trkpt>
      <trkpt lat="45.62768" lon="6.50719">
        <ele>1473.36</ele>
        <time>2020-09-13T13:57:32Z</time>
      </trkpt>
      <trkpt lat="45.62762" lon="6.50708">
        <ele>1470.47</ele>
        <time>2020-09-13T13:57:44Z</time>
      </trkpt>
      <trkpt lat="45.62759" lon="6.507">
        <ele>1466.63</ele>
        <time>2020-09-13T13:57:56Z</time>
      </trkpt>
      <trkpt lat="45.62757" lon="6.50694">
        <ele>1465.67</ele>
        <time>2020-09-13T13:57:59Z</time>
      </trkpt>
      <trkpt lat="45.62758" lon="6.50683">
        <ele>1464.71</ele>
        <time>2020-09-13T13:58:09Z</time>
      </trkpt>
      <trkpt lat="45.6276" lon="6.50673">
        <ele>1463.74</ele>
        <time>2020-09-13T13:58:19Z</time>
      </trkpt>
      <trkpt lat="45.6276" lon="6.50669">
        <ele>1462.3</ele>
        <time>2020-09-13T13:58:24Z</time>
      </trkpt>
      <trkpt lat="45.62761" lon="6.50665">
        <ele>1461.34</ele>
        <time>2020-09-13T13:58:27Z</time>
      </trkpt>
      <trkpt lat="45.62763" lon="6.50661">
        <ele>1459.9</ele>
        <time>2020-09-13T13:58:31Z</time>
      </trkpt>
      <trkpt lat="45.62762" lon="6.5065">
        <ele>1460.38</ele>
        <time>2020-09-13T13:58:43Z</time>
      </trkpt>
      <trkpt lat="45.62762" lon="6.50645">
        <ele>1459.9</ele>
        <time>2020-09-13T13:58:46Z</time>
      </trkpt>
      <trkpt lat="45.62756" lon="6.5063">
        <ele>1457.5</ele>
        <time>2020-09-13T13:58:56Z</time>
      </trkpt>
      <trkpt lat="45.62756" lon="6.50618">
        <ele>1454.13</ele>
        <time>2020-09-13T13:59:09Z</time>
      </trkpt>
      <trkpt lat="45.62761" lon="6.50619">
        <ele>1450.77</ele>
        <time>2020-09-13T13:59:21Z</time>
      </trkpt>
      <trkpt lat="45.62765" lon="6.5061">
        <ele>1447.4</ele>
        <time>2020-09-13T13:59:34Z</time>
      </trkpt>
      <trkpt lat="45.62767" lon="6.50592">
        <ele>1444.04</ele>
        <time>2020-09-13T13:59:46Z</time>
      </trkpt>
      <trkpt lat="45.62767" lon="6.50592">
        <ele>1443.56</ele>
        <time>2020-09-13T13:59:47Z</time>
      </trkpt>
      <trkpt lat="45.62773" lon="6.50595">
        <ele>1440.19</ele>
        <time>2020-09-13T13:59:59Z</time>
      </trkpt>
      <trkpt lat="45.62774" lon="6.50596">
        <ele>1437.79</ele>
        <time>2020-09-13T14:00:08Z</time>
      </trkpt>
      <trkpt lat="45.62772" lon="6.50586">
        <ele>1435.87</ele>
        <time>2020-09-13T14:00:22Z</time>
      </trkpt>
      <trkpt lat="45.6277" lon="6.50581">
        <ele>1432.5</ele>
        <time>2020-09-13T14:00:34Z</time>
      </trkpt>
      <trkpt lat="45.6277" lon="6.50575">
        <ele>1431.06</ele>
        <time>2020-09-13T14:00:40Z</time>
      </trkpt>
      <trkpt lat="45.62769" lon="6.50572">
        <ele>1431.06</ele>
        <time>2020-09-13T14:00:42Z</time>
      </trkpt>
      <trkpt lat="45.62765" lon="6.50553">
        <ele>1427.7</ele>
        <time>2020-09-13T14:00:58Z</time>
      </trkpt>
      <trkpt lat="45.62762" lon="6.50541">
        <ele>1424.33</ele>
        <time>2020-09-13T14:01:09Z</time>
      </trkpt>
      <trkpt lat="45.62761" lon="6.50531">
        <ele>1421.45</ele>
        <time>2020-09-13T14:01:21Z</time>
      </trkpt>
      <trkpt lat="45.62761" lon="6.50526">
        <ele>1418.56</ele>
        <time>2020-09-13T14:01:31Z</time>
      </trkpt>
      <trkpt lat="45.62766" lon="6.50525">
        <ele>1415.68</ele>
        <time>2020-09-13T14:01:44Z</time>
      </trkpt>
      <trkpt lat="45.62774" lon="6.50525">
        <ele>1412.31</ele>
        <time>2020-09-13T14:01:54Z</time>
      </trkpt>
      <trkpt lat="45.62781" lon="6.50525">
        <ele>1409.91</ele>
        <time>2020-09-13T14:02:06Z</time>
      </trkpt>
      <trkpt lat="45.62786" lon="6.50533">
        <ele>1406.55</ele>
        <time>2020-09-13T14:02:18Z</time>
      </trkpt>
      <trkpt lat="45.62791" lon="6.50539">
        <ele>1403.66</ele>
        <time>2020-09-13T14:02:30Z</time>
      </trkpt>
      <trkpt lat="45.62803" lon="6.50552">
        <ele>1400.3</ele>
        <time>2020-09-13T14:02:44Z</time>
      </trkpt>
      <trkpt lat="45.62804" lon="6.50553">
        <ele>1399.82</ele>
        <time>2020-09-13T14:02:47Z</time>
      </trkpt>
      <trkpt lat="45.62806" lon="6.50542">
        <ele>1395.97</ele>
        <time>2020-09-13T14:02:59Z</time>
      </trkpt>
      <trkpt lat="45.62802" lon="6.50532">
        <ele>1392.61</ele>
        <time>2020-09-13T14:03:11Z</time>
      </trkpt>
      <trkpt lat="45.62804" lon="6.50526">
        <ele>1389.72</ele>
        <time>2020-09-13T14:03:23Z</time>
      </trkpt>
      <trkpt lat="45.62803" lon="6.50521">
        <ele>1387.32</ele>
        <time>2020-09-13T14:03:32Z</time>
      </trkpt>
      <trkpt lat="45.62814" lon="6.50518">
        <ele>1384.44</ele>
        <time>2020-09-13T14:03:42Z</time>
      </trkpt>
      <trkpt lat="45.62817" lon="6.50508">
        <ele>1381.07</ele>
        <time>2020-09-13T14:03:55Z</time>
      </trkpt>
      <trkpt lat="45.62819" lon="6.50502">
        <ele>1378.19</ele>
        <time>2020-09-13T14:04:07Z</time>
      </trkpt>
      <trkpt lat="45.62828" lon="6.50491">
        <ele>1375.78</ele>
        <time>2020-09-13T14:04:19Z</time>
      </trkpt>
      <trkpt lat="45.62828" lon="6.50491">
        <ele>1375.3</ele>
        <time>2020-09-13T14:04:20Z</time>
      </trkpt>
      <trkpt lat="45.62834" lon="6.50499">
        <ele>1372.9</ele>
        <time>2020-09-13T14:04:32Z</time>
      </trkpt>
      <trkpt lat="45.62834" lon="6.50499">
        <ele>1372.9</ele>
        <time>2020-09-13T14:04:33Z</time>
      </trkpt>
      <trkpt lat="45.62838" lon="6.505">
        <ele>1372.42</ele>
        <time>2020-09-13T14:04:36Z</time>
      </trkpt>
      <trkpt lat="45.6285" lon="6.50507">
        <ele>1373.38</ele>
        <time>2020-09-13T14:04:46Z</time>
      </trkpt>
      <trkpt lat="45.6286" lon="6.50511">
        <ele>1373.38</ele>
        <time>2020-09-13T14:04:56Z</time>
      </trkpt>
      <trkpt lat="45.62861" lon="6.50514">
        <ele>1373.86</ele>
        <time>2020-09-13T14:04:58Z</time>
      </trkpt>
      <trkpt lat="45.62865" lon="6.50513">
        <ele>1373.38</ele>
        <time>2020-09-13T14:05:01Z</time>
      </trkpt>
      <trkpt lat="45.62874" lon="6.50506">
        <ele>1373.38</ele>
        <time>2020-09-13T14:05:12Z</time>
      </trkpt>
      <trkpt lat="45.62873" lon="6.50503">
        <ele>1372.42</ele>
        <time>2020-09-13T14:05:15Z</time>
      </trkpt>
      <trkpt lat="45.62871" lon="6.50494">
        <ele>1370.5</ele>
        <time>2020-09-13T14:05:20Z</time>
      </trkpt>
      <trkpt lat="45.62874" lon="6.50497">
        <ele>1370.02</ele>
        <time>2020-09-13T14:05:30Z</time>
      </trkpt>
      <trkpt lat="45.62873" lon="6.50498">
        <ele>1369.54</ele>
        <time>2020-09-13T14:05:34Z</time>
      </trkpt>
      <trkpt lat="45.62872" lon="6.50496">
        <ele>1369.05</ele>
        <time>2020-09-13T14:05:37Z</time>
      </trkpt>
      <trkpt lat="45.62872" lon="6.50492">
        <ele>1368.09</ele>
        <time>2020-09-13T14:05:40Z</time>
      </trkpt>
      <trkpt lat="45.62873" lon="6.50485">
        <ele>1366.65</ele>
        <time>2020-09-13T14:05:45Z</time>
      </trkpt>
      <trkpt lat="45.62879" lon="6.50468">
        <ele>1364.73</ele>
        <time>2020-09-13T14:05:53Z</time>
      </trkpt>
      <trkpt lat="45.62876" lon="6.50451">
        <ele>1361.36</ele>
        <time>2020-09-13T14:06:06Z</time>
      </trkpt>
      <trkpt lat="45.62876" lon="6.50448">
        <ele>1360.88</ele>
        <time>2020-09-13T14:06:08Z</time>
      </trkpt>
      <trkpt lat="45.62876" lon="6.50445">
        <ele>1360.4</ele>
        <time>2020-09-13T14:06:10Z</time>
      </trkpt>
      <trkpt lat="45.62875" lon="6.50431">
        <ele>1357.52</ele>
        <time>2020-09-13T14:06:20Z</time>
      </trkpt>
      <trkpt lat="45.62871" lon="6.50424">
        <ele>1354.63</ele>
        <time>2020-09-13T14:06:27Z</time>
      </trkpt>
      <trkpt lat="45.62869" lon="6.50416">
        <ele>1353.19</ele>
        <time>2020-09-13T14:06:34Z</time>
      </trkpt>
      <trkpt lat="45.62874" lon="6.504">
        <ele>1350.31</ele>
        <time>2020-09-13T14:06:47Z</time>
      </trkpt>
      <trkpt lat="45.62873" lon="6.50391">
        <ele>1348.39</ele>
        <time>2020-09-13T14:06:53Z</time>
      </trkpt>
      <trkpt lat="45.62869" lon="6.50377">
        <ele>1346.46</ele>
        <time>2020-09-13T14:07:07Z</time>
      </trkpt>
      <trkpt lat="45.62866" lon="6.50374">
        <ele>1345.98</ele>
        <time>2020-09-13T14:07:13Z</time>
      </trkpt>
      <trkpt lat="45.62857" lon="6.50365">
        <ele>1344.06</ele>
        <time>2020-09-13T14:07:20Z</time>
      </trkpt>
      <trkpt lat="45.62848" lon="6.50355">
        <ele>1341.18</ele>
        <time>2020-09-13T14:07:31Z</time>
      </trkpt>
      <trkpt lat="45.62847" lon="6.50339">
        <ele>1338.77</ele>
        <time>2020-09-13T14:07:42Z</time>
      </trkpt>
      <trkpt lat="45.62843" lon="6.50319">
        <ele>1337.33</ele>
        <time>2020-09-13T14:07:53Z</time>
      </trkpt>
      <trkpt lat="45.62839" lon="6.50308">
        <ele>1338.29</ele>
        <time>2020-09-13T14:08:01Z</time>
      </trkpt>
      <trkpt lat="45.6284" lon="6.50298">
        <ele>1337.81</ele>
        <time>2020-09-13T14:08:06Z</time>
      </trkpt>
      <trkpt lat="45.6284" lon="6.50277">
        <ele>1336.85</ele>
        <time>2020-09-13T14:08:14Z</time>
      </trkpt>
      <trkpt lat="45.62836" lon="6.50269">
        <ele>1335.41</ele>
        <time>2020-09-13T14:08:22Z</time>
      </trkpt>
      <trkpt lat="45.62831" lon="6.50258">
        <ele>1333.01</ele>
        <time>2020-09-13T14:08:36Z</time>
      </trkpt>
      <trkpt lat="45.6283" lon="6.50257">
        <ele>1332.52</ele>
        <time>2020-09-13T14:08:37Z</time>
      </trkpt>
      <trkpt lat="45.62825" lon="6.50248">
        <ele>1331.56</ele>
        <time>2020-09-13T14:08:42Z</time>
      </trkpt>
      <trkpt lat="45.6281" lon="6.50227">
        <ele>1330.6</ele>
        <time>2020-09-13T14:08:56Z</time>
      </trkpt>
      <trkpt lat="45.6282" lon="6.50216">
        <ele>1330.6</ele>
        <time>2020-09-13T14:09:04Z</time>
      </trkpt>
      <trkpt lat="45.62828" lon="6.50202">
        <ele>1330.6</ele>
        <time>2020-09-13T14:09:13Z</time>
      </trkpt>
      <trkpt lat="45.62836" lon="6.50197">
        <ele>1331.08</ele>
        <time>2020-09-13T14:09:21Z</time>
      </trkpt>
      <trkpt lat="45.6284" lon="6.50197">
        <ele>1331.56</ele>
        <time>2020-09-13T14:09:26Z</time>
      </trkpt>
      <trkpt lat="45.62845" lon="6.50188">
        <ele>1331.56</ele>
        <time>2020-09-13T14:09:32Z</time>
      </trkpt>
      <trkpt lat="45.62848" lon="6.50185">
        <ele>1333.01</ele>
        <time>2020-09-13T14:09:38Z</time>
      </trkpt>
      <trkpt lat="45.62848" lon="6.50186">
        <ele>1327.72</ele>
        <time>2020-09-13T14:09:45Z</time>
      </trkpt>
      <trkpt lat="45.62848" lon="6.50185">
        <ele>1334.93</ele>
        <time>2020-09-13T14:09:46Z</time>
      </trkpt>
      <trkpt lat="45.62848" lon="6.50185">
        <ele>1334.45</ele>
        <time>2020-09-13T14:09:47Z</time>
      </trkpt>
      <trkpt lat="45.62847" lon="6.50184">
        <ele>1332.52</ele>
        <time>2020-09-13T14:09:55Z</time>
      </trkpt>
      <trkpt lat="45.62852" lon="6.50179">
        <ele>1331.08</ele>
        <time>2020-09-13T14:09:58Z</time>
      </trkpt>
      <trkpt lat="45.62855" lon="6.50173">
        <ele>1331.56</ele>
        <time>2020-09-13T14:10:04Z</time>
      </trkpt>
      <trkpt lat="45.62863" lon="6.50162">
        <ele>1331.08</ele>
        <time>2020-09-13T14:10:17Z</time>
      </trkpt>
      <trkpt lat="45.62869" lon="6.50155">
        <ele>1331.08</ele>
        <time>2020-09-13T14:10:25Z</time>
      </trkpt>
      <trkpt lat="45.62868" lon="6.50145">
        <ele>1329.16</ele>
        <time>2020-09-13T14:10:32Z</time>
      </trkpt>
      <trkpt lat="45.62869" lon="6.50138">
        <ele>1328.68</ele>
        <time>2020-09-13T14:10:36Z</time>
      </trkpt>
      <trkpt lat="45.62864" lon="6.50118">
        <ele>1324.83</ele>
        <time>2020-09-13T14:10:48Z</time>
      </trkpt>
      <trkpt lat="45.62861" lon="6.50092">
        <ele>1322.43</ele>
        <time>2020-09-13T14:10:59Z</time>
      </trkpt>
      <trkpt lat="45.62863" lon="6.50092">
        <ele>1320.51</ele>
        <time>2020-09-13T14:11:10Z</time>
      </trkpt>
      <trkpt lat="45.62863" lon="6.50092">
        <ele>1321.95</ele>
        <time>2020-09-13T14:11:11Z</time>
      </trkpt>
      <trkpt lat="45.62857" lon="6.50082">
        <ele>1319.55</ele>
        <time>2020-09-13T14:11:22Z</time>
      </trkpt>
      <trkpt lat="45.62857" lon="6.5008">
        <ele>1319.55</ele>
        <time>2020-09-13T14:11:23Z</time>
      </trkpt>
      <trkpt lat="45.62855" lon="6.50075">
        <ele>1319.07</ele>
        <time>2020-09-13T14:11:25Z</time>
      </trkpt>
      <trkpt lat="45.62856" lon="6.50065">
        <ele>1318.1</ele>
        <time>2020-09-13T14:11:30Z</time>
      </trkpt>
      <trkpt lat="45.62856" lon="6.50057">
        <ele>1317.62</ele>
        <time>2020-09-13T14:11:34Z</time>
      </trkpt>
      <trkpt lat="45.62854" lon="6.50049">
        <ele>1316.66</ele>
        <time>2020-09-13T14:11:46Z</time>
      </trkpt>
      <trkpt lat="45.62855" lon="6.50047">
        <ele>1316.66</ele>
        <time>2020-09-13T14:11:47Z</time>
      </trkpt>
      <trkpt lat="45.6285" lon="6.50029">
        <ele>1314.74</ele>
        <time>2020-09-13T14:11:55Z</time>
      </trkpt>
      <trkpt lat="45.62846" lon="6.50021">
        <ele>1313.3</ele>
        <time>2020-09-13T14:11:59Z</time>
      </trkpt>
      <trkpt lat="45.62845" lon="6.50015">
        <ele>1313.78</ele>
        <time>2020-09-13T14:12:02Z</time>
      </trkpt>
      <trkpt lat="45.62834" lon="6.5">
        <ele>1310.41</ele>
        <time>2020-09-13T14:12:13Z</time>
      </trkpt>
      <trkpt lat="45.62831" lon="6.49994">
        <ele>1309.93</ele>
        <time>2020-09-13T14:12:17Z</time>
      </trkpt>
      <trkpt lat="45.6283" lon="6.4998">
        <ele>1308.01</ele>
        <time>2020-09-13T14:12:27Z</time>
      </trkpt>
      <trkpt lat="45.6283" lon="6.49966">
        <ele>1307.05</ele>
        <time>2020-09-13T14:12:32Z</time>
      </trkpt>
      <trkpt lat="45.62831" lon="6.49941">
        <ele>1305.13</ele>
        <time>2020-09-13T14:12:42Z</time>
      </trkpt>
      <trkpt lat="45.62831" lon="6.49941">
        <ele>1305.13</ele>
        <time>2020-09-13T14:12:44Z</time>
      </trkpt>
      <trkpt lat="45.62836" lon="6.49934">
        <ele>1304.17</ele>
        <time>2020-09-13T14:12:52Z</time>
      </trkpt>
      <trkpt lat="45.62843" lon="6.49922">
        <ele>1303.69</ele>
        <time>2020-09-13T14:13:00Z</time>
      </trkpt>
      <trkpt lat="45.62846" lon="6.4991">
        <ele>1301.76</ele>
        <time>2020-09-13T14:13:11Z</time>
      </trkpt>
      <trkpt lat="45.62846" lon="6.49899">
        <ele>1301.76</ele>
        <time>2020-09-13T14:13:20Z</time>
      </trkpt>
      <trkpt lat="45.62844" lon="6.49893">
        <ele>1300.32</ele>
        <time>2020-09-13T14:13:24Z</time>
      </trkpt>
      <trkpt lat="45.62835" lon="6.49887">
        <ele>1297.44</ele>
        <time>2020-09-13T14:13:32Z</time>
      </trkpt>
      <trkpt lat="45.6283" lon="6.49886">
        <ele>1296.96</ele>
        <time>2020-09-13T14:13:36Z</time>
      </trkpt>
      <trkpt lat="45.62827" lon="6.4988">
        <ele>1295.99</ele>
        <time>2020-09-13T14:13:40Z</time>
      </trkpt>
      <trkpt lat="45.62826" lon="6.49863">
        <ele>1294.55</ele>
        <time>2020-09-13T14:13:46Z</time>
      </trkpt>
      <trkpt lat="45.62823" lon="6.49846">
        <ele>1291.19</ele>
        <time>2020-09-13T14:13:57Z</time>
      </trkpt>
      <trkpt lat="45.62823" lon="6.49846">
        <ele>1290.71</ele>
        <time>2020-09-13T14:13:58Z</time>
      </trkpt>
      <trkpt lat="45.62823" lon="6.49843">
        <ele>1290.23</ele>
        <time>2020-09-13T14:14:00Z</time>
      </trkpt>
      <trkpt lat="45.62819" lon="6.49832">
        <ele>1288.3</ele>
        <time>2020-09-13T14:14:07Z</time>
      </trkpt>
      <trkpt lat="45.62818" lon="6.4981">
        <ele>1285.9</ele>
        <time>2020-09-13T14:14:17Z</time>
      </trkpt>
      <trkpt lat="45.62817" lon="6.49805">
        <ele>1284.94</ele>
        <time>2020-09-13T14:14:28Z</time>
      </trkpt>
      <trkpt lat="45.62819" lon="6.49804">
        <ele>1284.46</ele>
        <time>2020-09-13T14:14:34Z</time>
      </trkpt>
      <trkpt lat="45.62822" lon="6.49805">
        <ele>1284.46</ele>
        <time>2020-09-13T14:14:43Z</time>
      </trkpt>
      <trkpt lat="45.62823" lon="6.49799">
        <ele>1283.98</ele>
        <time>2020-09-13T14:14:48Z</time>
      </trkpt>
      <trkpt lat="45.62826" lon="6.49787">
        <ele>1283.5</ele>
        <time>2020-09-13T14:14:56Z</time>
      </trkpt>
      <trkpt lat="45.62826" lon="6.49783">
        <ele>1282.06</ele>
        <time>2020-09-13T14:14:59Z</time>
      </trkpt>
      <trkpt lat="45.62822" lon="6.49771">
        <ele>1279.65</ele>
        <time>2020-09-13T14:15:08Z</time>
      </trkpt>
      <trkpt lat="45.62814" lon="6.49757">
        <ele>1276.77</ele>
        <time>2020-09-13T14:15:19Z</time>
      </trkpt>
      <trkpt lat="45.62814" lon="6.49755">
        <ele>1276.77</ele>
        <time>2020-09-13T14:15:20Z</time>
      </trkpt>
      <trkpt lat="45.62812" lon="6.4975">
        <ele>1276.29</ele>
        <time>2020-09-13T14:15:23Z</time>
      </trkpt>
      <trkpt lat="45.62814" lon="6.49723">
        <ele>1273.88</ele>
        <time>2020-09-13T14:15:35Z</time>
      </trkpt>
      <trkpt lat="45.62821" lon="6.49704">
        <ele>1272.44</ele>
        <time>2020-09-13T14:15:49Z</time>
      </trkpt>
      <trkpt lat="45.62819" lon="6.49702">
        <ele>1272.44</ele>
        <time>2020-09-13T14:15:52Z</time>
      </trkpt>
      <trkpt lat="45.62817" lon="6.49696">
        <ele>1271.48</ele>
        <time>2020-09-13T14:15:55Z</time>
      </trkpt>
      <trkpt lat="45.62817" lon="6.49681">
        <ele>1269.56</ele>
        <time>2020-09-13T14:16:02Z</time>
      </trkpt>
      <trkpt lat="45.62818" lon="6.4966">
        <ele>1267.64</ele>
        <time>2020-09-13T14:16:10Z</time>
      </trkpt>
      <trkpt lat="45.62816" lon="6.49656">
        <ele>1265.71</ele>
        <time>2020-09-13T14:16:19Z</time>
      </trkpt>
      <trkpt lat="45.62814" lon="6.49657">
        <ele>1265.23</ele>
        <time>2020-09-13T14:16:21Z</time>
      </trkpt>
      <trkpt lat="45.62811" lon="6.49656">
        <ele>1264.75</ele>
        <time>2020-09-13T14:16:23Z</time>
      </trkpt>
      <trkpt lat="45.62792" lon="6.49634">
        <ele>1263.31</ele>
        <time>2020-09-13T14:16:34Z</time>
      </trkpt>
      <trkpt lat="45.62792" lon="6.49633">
        <ele>1262.83</ele>
        <time>2020-09-13T14:16:37Z</time>
      </trkpt>
      <trkpt lat="45.62802" lon="6.49614">
        <ele>1260.91</ele>
        <time>2020-09-13T14:16:49Z</time>
      </trkpt>
      <trkpt lat="45.62802" lon="6.49607">
        <ele>1260.91</ele>
        <time>2020-09-13T14:16:52Z</time>
      </trkpt>
      <trkpt lat="45.62797" lon="6.4958">
        <ele>1259.46</ele>
        <time>2020-09-13T14:17:04Z</time>
      </trkpt>
      <trkpt lat="45.62796" lon="6.49574">
        <ele>1258.02</ele>
        <time>2020-09-13T14:17:14Z</time>
      </trkpt>
      <trkpt lat="45.62796" lon="6.49547">
        <ele>1257.06</ele>
        <time>2020-09-13T14:17:24Z</time>
      </trkpt>
      <trkpt lat="45.62795" lon="6.49522">
        <ele>1256.1</ele>
        <time>2020-09-13T14:17:34Z</time>
      </trkpt>
      <trkpt lat="45.62793" lon="6.49519">
        <ele>1255.14</ele>
        <time>2020-09-13T14:17:42Z</time>
      </trkpt>
      <trkpt lat="45.62791" lon="6.49492">
        <ele>1254.18</ele>
        <time>2020-09-13T14:17:51Z</time>
      </trkpt>
      <trkpt lat="45.62787" lon="6.49468">
        <ele>1252.74</ele>
        <time>2020-09-13T14:18:05Z</time>
      </trkpt>
      <trkpt lat="45.62785" lon="6.49459">
        <ele>1251.77</ele>
        <time>2020-09-13T14:18:09Z</time>
      </trkpt>
      <trkpt lat="45.62777" lon="6.4945">
        <ele>1251.29</ele>
        <time>2020-09-13T14:18:21Z</time>
      </trkpt>
      <trkpt lat="45.62762" lon="6.49423">
        <ele>1249.85</ele>
        <time>2020-09-13T14:18:36Z</time>
      </trkpt>
      <trkpt lat="45.62759" lon="6.49401">
        <ele>1248.89</ele>
        <time>2020-09-13T14:18:49Z</time>
      </trkpt>
      <trkpt lat="45.62758" lon="6.494">
        <ele>1248.41</ele>
        <time>2020-09-13T14:18:51Z</time>
      </trkpt>
      <trkpt lat="45.62756" lon="6.4938">
        <ele>1246.97</ele>
        <time>2020-09-13T14:19:04Z</time>
      </trkpt>
      <trkpt lat="45.62753" lon="6.49367">
        <ele>1246.01</ele>
        <time>2020-09-13T14:19:12Z</time>
      </trkpt>
      <trkpt lat="45.62749" lon="6.49357">
        <ele>1245.53</ele>
        <time>2020-09-13T14:19:17Z</time>
      </trkpt>
      <trkpt lat="45.62747" lon="6.49335">
        <ele>1244.08</ele>
        <time>2020-09-13T14:19:27Z</time>
      </trkpt>
      <trkpt lat="45.62748" lon="6.49328">
        <ele>1243.12</ele>
        <time>2020-09-13T14:19:34Z</time>
      </trkpt>
      <trkpt lat="45.62749" lon="6.49321">
        <ele>1242.64</ele>
        <time>2020-09-13T14:19:38Z</time>
      </trkpt>
      <trkpt lat="45.62751" lon="6.49311">
        <ele>1241.68</ele>
        <time>2020-09-13T14:19:42Z</time>
      </trkpt>
      <trkpt lat="45.6275" lon="6.49299">
        <ele>1240.24</ele>
        <time>2020-09-13T14:19:51Z</time>
      </trkpt>
      <trkpt lat="45.62748" lon="6.49296">
        <ele>1237.83</ele>
        <time>2020-09-13T14:20:03Z</time>
      </trkpt>
      <trkpt lat="45.62749" lon="6.49295">
        <ele>1237.83</ele>
        <time>2020-09-13T14:20:17Z</time>
      </trkpt>
      <trkpt lat="45.62749" lon="6.49294">
        <ele>1237.35</ele>
        <time>2020-09-13T14:20:30Z</time>
      </trkpt>
      <trkpt lat="45.62749" lon="6.49295">
        <ele>1237.35</ele>
        <time>2020-09-13T14:20:43Z</time>
      </trkpt>
      <trkpt lat="45.62749" lon="6.49295">
        <ele>1237.35</ele>
        <time>2020-09-13T14:21:09Z</time>
      </trkpt>
      <trkpt lat="45.62749" lon="6.49296">
        <ele>1236.87</ele>
        <time>2020-09-13T14:21:37Z</time>
      </trkpt>
      <trkpt lat="45.62749" lon="6.49295">
        <ele>1236.39</ele>
        <time>2020-09-13T14:22:03Z</time>
      </trkpt>
      <trkpt lat="45.62748" lon="6.49294">
        <ele>1236.39</ele>
        <time>2020-09-13T14:22:18Z</time>
      </trkpt>
      <trkpt lat="45.62748" lon="6.49294">
        <ele>1235.91</ele>
        <time>2020-09-13T14:22:31Z</time>
      </trkpt>
      <trkpt lat="45.62747" lon="6.49293">
        <ele>1236.39</ele>
        <time>2020-09-13T14:22:33Z</time>
      </trkpt>
      <trkpt lat="45.62746" lon="6.4929">
        <ele>1235.91</ele>
        <time>2020-09-13T14:22:35Z</time>
      </trkpt>
      <trkpt lat="45.62745" lon="6.49282">
        <ele>1235.91</ele>
        <time>2020-09-13T14:22:40Z</time>
      </trkpt>
      <trkpt lat="45.6275" lon="6.49255">
        <ele>1234.95</ele>
        <time>2020-09-13T14:22:53Z</time>
      </trkpt>
      <trkpt lat="45.62752" lon="6.49248">
        <ele>1234.95</ele>
        <time>2020-09-13T14:22:59Z</time>
      </trkpt>
      <trkpt lat="45.62752" lon="6.49246">
        <ele>1234.47</ele>
        <time>2020-09-13T14:23:01Z</time>
      </trkpt>
      <trkpt lat="45.62746" lon="6.4924">
        <ele>1233.99</ele>
        <time>2020-09-13T14:23:05Z</time>
      </trkpt>
      <trkpt lat="45.62748" lon="6.49229">
        <ele>1233.99</ele>
        <time>2020-09-13T14:23:10Z</time>
      </trkpt>
      <trkpt lat="45.62757" lon="6.49213">
        <ele>1232.55</ele>
        <time>2020-09-13T14:23:21Z</time>
      </trkpt>
      <trkpt lat="45.62759" lon="6.49192">
        <ele>1231.11</ele>
        <time>2020-09-13T14:23:31Z</time>
      </trkpt>
      <trkpt lat="45.6276" lon="6.49189">
        <ele>1230.14</ele>
        <time>2020-09-13T14:23:33Z</time>
      </trkpt>
      <trkpt lat="45.6276" lon="6.49179">
        <ele>1228.22</ele>
        <time>2020-09-13T14:23:39Z</time>
      </trkpt>
      <trkpt lat="45.62766" lon="6.49154">
        <ele>1225.34</ele>
        <time>2020-09-13T14:23:53Z</time>
      </trkpt>
      <trkpt lat="45.62775" lon="6.49131">
        <ele>1225.34</ele>
        <time>2020-09-13T14:24:06Z</time>
      </trkpt>
      <trkpt lat="45.62778" lon="6.49099">
        <ele>1225.34</ele>
        <time>2020-09-13T14:24:22Z</time>
      </trkpt>
      <trkpt lat="45.6278" lon="6.49082">
        <ele>1224.38</ele>
        <time>2020-09-13T14:24:33Z</time>
      </trkpt>
      <trkpt lat="45.62774" lon="6.49061">
        <ele>1221.49</ele>
        <time>2020-09-13T14:24:44Z</time>
      </trkpt>
      <trkpt lat="45.62773" lon="6.49032">
        <ele>1221.49</ele>
        <time>2020-09-13T14:25:01Z</time>
      </trkpt>
      <trkpt lat="45.62777" lon="6.4901">
        <ele>1220.05</ele>
        <time>2020-09-13T14:25:12Z</time>
      </trkpt>
      <trkpt lat="45.62783" lon="6.48994">
        <ele>1220.05</ele>
        <time>2020-09-13T14:25:21Z</time>
      </trkpt>
      <trkpt lat="45.62787" lon="6.48973">
        <ele>1217.17</ele>
        <time>2020-09-13T14:25:33Z</time>
      </trkpt>
      <trkpt lat="45.62787" lon="6.48966">
        <ele>1217.17</ele>
        <time>2020-09-13T14:25:39Z</time>
      </trkpt>
      <trkpt lat="45.6279" lon="6.48955">
        <ele>1215.24</ele>
        <time>2020-09-13T14:25:44Z</time>
      </trkpt>
      <trkpt lat="45.62791" lon="6.48941">
        <ele>1214.28</ele>
        <time>2020-09-13T14:25:49Z</time>
      </trkpt>
      <trkpt lat="45.62806" lon="6.48918">
        <ele>1210.92</ele>
        <time>2020-09-13T14:26:03Z</time>
      </trkpt>
      <trkpt lat="45.62813" lon="6.489">
        <ele>1208.03</ele>
        <time>2020-09-13T14:26:17Z</time>
      </trkpt>
      <trkpt lat="45.62819" lon="6.48884">
        <ele>1204.67</ele>
        <time>2020-09-13T14:26:27Z</time>
      </trkpt>
      <trkpt lat="45.6282" lon="6.48881">
        <ele>1204.67</ele>
        <time>2020-09-13T14:26:28Z</time>
      </trkpt>
      <trkpt lat="45.62824" lon="6.48863">
        <ele>1201.79</ele>
        <time>2020-09-13T14:26:39Z</time>
      </trkpt>
      <trkpt lat="45.62827" lon="6.48854">
        <ele>1198.42</ele>
        <time>2020-09-13T14:26:51Z</time>
      </trkpt>
      <trkpt lat="45.62827" lon="6.48852">
        <ele>1197.94</ele>
        <time>2020-09-13T14:26:52Z</time>
      </trkpt>
      <trkpt lat="45.62837" lon="6.48835">
        <ele>1195.06</ele>
        <time>2020-09-13T14:27:02Z</time>
      </trkpt>
      <trkpt lat="45.62841" lon="6.48827">
        <ele>1194.58</ele>
        <time>2020-09-13T14:27:06Z</time>
      </trkpt>
      <trkpt lat="45.62847" lon="6.48804">
        <ele>1191.21</ele>
        <time>2020-09-13T14:27:22Z</time>
      </trkpt>
      <trkpt lat="45.62851" lon="6.48796">
        <ele>1188.33</ele>
        <time>2020-09-13T14:27:31Z</time>
      </trkpt>
      <trkpt lat="45.62851" lon="6.48793">
        <ele>1174.87</ele>
        <time>2020-09-13T14:27:36Z</time>
      </trkpt>
      <trkpt lat="45.62851" lon="6.48793">
        <ele>1187.37</ele>
        <time>2020-09-13T14:27:37Z</time>
      </trkpt>
      <trkpt lat="45.62851" lon="6.48793">
        <ele>1188.33</ele>
        <time>2020-09-13T14:27:39Z</time>
      </trkpt>
      <trkpt lat="45.62852" lon="6.48792">
        <ele>1186.4</ele>
        <time>2020-09-13T14:27:44Z</time>
      </trkpt>
      <trkpt lat="45.62851" lon="6.48791">
        <ele>1189.77</ele>
        <time>2020-09-13T14:27:47Z</time>
      </trkpt>
      <trkpt lat="45.62852" lon="6.4879">
        <ele>1185.44</ele>
        <time>2020-09-13T14:27:55Z</time>
      </trkpt>
      <trkpt lat="45.62852" lon="6.48791">
        <ele>1198.42</ele>
        <time>2020-09-13T14:27:58Z</time>
      </trkpt>
      <trkpt lat="45.62853" lon="6.48791">
        <ele>1189.29</ele>
        <time>2020-09-13T14:27:59Z</time>
      </trkpt>
      <trkpt lat="45.62854" lon="6.48792">
        <ele>1187.85</ele>
        <time>2020-09-13T14:28:01Z</time>
      </trkpt>
      <trkpt lat="45.62857" lon="6.4879">
        <ele>1187.37</ele>
        <time>2020-09-13T14:28:04Z</time>
      </trkpt>
      <trkpt lat="45.62864" lon="6.48784">
        <ele>1184.96</ele>
        <time>2020-09-13T14:28:14Z</time>
      </trkpt>
      <trkpt lat="45.62881" lon="6.48759">
        <ele>1182.56</ele>
        <time>2020-09-13T14:28:28Z</time>
      </trkpt>
      <trkpt lat="45.62891" lon="6.48756">
        <ele>1182.56</ele>
        <time>2020-09-13T14:28:34Z</time>
      </trkpt>
      <trkpt lat="45.62906" lon="6.4875">
        <ele>1181.12</ele>
        <time>2020-09-13T14:28:44Z</time>
      </trkpt>
      <trkpt lat="45.62926" lon="6.48751">
        <ele>1180.16</ele>
        <time>2020-09-13T14:28:59Z</time>
      </trkpt>
      <trkpt lat="45.62933" lon="6.48743">
        <ele>1180.16</ele>
        <time>2020-09-13T14:29:12Z</time>
      </trkpt>
      <trkpt lat="45.62935" lon="6.48729">
        <ele>1180.16</ele>
        <time>2020-09-13T14:29:22Z</time>
      </trkpt>
      <trkpt lat="45.62956" lon="6.48715">
        <ele>1179.67</ele>
        <time>2020-09-13T14:29:39Z</time>
      </trkpt>
      <trkpt lat="45.62969" lon="6.4871">
        <ele>1181.12</ele>
        <time>2020-09-13T14:29:53Z</time>
      </trkpt>
      <trkpt lat="45.62989" lon="6.487">
        <ele>1185.92</ele>
        <time>2020-09-13T14:30:12Z</time>
      </trkpt>
      <trkpt lat="45.62989" lon="6.48701">
        <ele>1185.44</ele>
        <time>2020-09-13T14:30:13Z</time>
      </trkpt>
      <trkpt lat="45.62988" lon="6.48706">
        <ele>1185.92</ele>
        <time>2020-09-13T14:30:25Z</time>
      </trkpt>
      <trkpt lat="45.62989" lon="6.48714">
        <ele>1185.44</ele>
        <time>2020-09-13T14:30:38Z</time>
      </trkpt>
      <trkpt lat="45.62941" lon="6.48719">
        <ele>1187.85</ele>
        <time>2020-09-13T14:30:58Z</time>
      </trkpt>
      <trkpt lat="45.62939" lon="6.48706">
        <ele>1187.85</ele>
        <time>2020-09-13T14:31:14Z</time>
      </trkpt>
      <trkpt lat="45.62936" lon="6.48704">
        <ele>1189.29</ele>
        <time>2020-09-13T14:31:29Z</time>
      </trkpt>
      <trkpt lat="45.62928" lon="6.48693">
        <ele>1191.21</ele>
        <time>2020-09-13T14:31:45Z</time>
      </trkpt>
      <trkpt lat="45.62911" lon="6.48694">
        <ele>1193.13</ele>
        <time>2020-09-13T14:32:01Z</time>
      </trkpt>
      <trkpt lat="45.62851" lon="6.48656">
        <ele>1194.09</ele>
        <time>2020-09-13T14:32:17Z</time>
      </trkpt>
      <trkpt lat="45.62835" lon="6.48631">
        <ele>1196.5</ele>
        <time>2020-09-13T14:32:29Z</time>
      </trkpt>
      <trkpt lat="45.62819" lon="6.48602">
        <ele>1199.38</ele>
        <time>2020-09-13T14:32:46Z</time>
      </trkpt>
      <trkpt lat="45.62839" lon="6.48563">
        <ele>1201.3</ele>
        <time>2020-09-13T14:33:01Z</time>
      </trkpt>
      <trkpt lat="45.62841" lon="6.4856">
        <ele>1201.79</ele>
        <time>2020-09-13T14:33:03Z</time>
      </trkpt>
      <trkpt lat="45.62848" lon="6.4853">
        <ele>1204.67</ele>
        <time>2020-09-13T14:33:22Z</time>
      </trkpt>
      <trkpt lat="45.62853" lon="6.48516">
        <ele>1205.63</ele>
        <time>2020-09-13T14:33:29Z</time>
      </trkpt>
      <trkpt lat="45.62859" lon="6.48495">
        <ele>1207.55</ele>
        <time>2020-09-13T14:33:45Z</time>
      </trkpt>
      <trkpt lat="45.62854" lon="6.48478">
        <ele>1209.48</ele>
        <time>2020-09-13T14:34:03Z</time>
      </trkpt>
      <trkpt lat="45.62843" lon="6.48465">
        <ele>1212.84</ele>
        <time>2020-09-13T14:34:14Z</time>
      </trkpt>
      <trkpt lat="45.62825" lon="6.4845">
        <ele>1214.76</ele>
        <time>2020-09-13T14:34:28Z</time>
      </trkpt>
      <trkpt lat="45.62823" lon="6.48427">
        <ele>1217.17</ele>
        <time>2020-09-13T14:34:44Z</time>
      </trkpt>
      <trkpt lat="45.62821" lon="6.48409">
        <ele>1219.09</ele>
        <time>2020-09-13T14:34:58Z</time>
      </trkpt>
      <trkpt lat="45.62817" lon="6.48384">
        <ele>1220.53</ele>
        <time>2020-09-13T14:35:15Z</time>
      </trkpt>
      <trkpt lat="45.62812" lon="6.48367">
        <ele>1221.01</ele>
        <time>2020-09-13T14:35:25Z</time>
      </trkpt>
      <trkpt lat="45.62806" lon="6.48352">
        <ele>1223.42</ele>
        <time>2020-09-13T14:35:41Z</time>
      </trkpt>
      <trkpt lat="45.62801" lon="6.4834">
        <ele>1226.3</ele>
        <time>2020-09-13T14:35:54Z</time>
      </trkpt>
      <trkpt lat="45.62796" lon="6.4833">
        <ele>1227.26</ele>
        <time>2020-09-13T14:36:00Z</time>
      </trkpt>
      <trkpt lat="45.62792" lon="6.48319">
        <ele>1227.26</ele>
        <time>2020-09-13T14:36:04Z</time>
      </trkpt>
      <trkpt lat="45.62792" lon="6.48309">
        <ele>1226.78</ele>
        <time>2020-09-13T14:36:09Z</time>
      </trkpt>
      <trkpt lat="45.62791" lon="6.48304">
        <ele>1226.78</ele>
        <time>2020-09-13T14:36:12Z</time>
      </trkpt>
      <trkpt lat="45.62787" lon="6.48287">
        <ele>1226.78</ele>
        <time>2020-09-13T14:36:23Z</time>
      </trkpt>
      <trkpt lat="45.62784" lon="6.48278">
        <ele>1226.78</ele>
        <time>2020-09-13T14:36:31Z</time>
      </trkpt>
      <trkpt lat="45.62785" lon="6.48265">
        <ele>1228.22</ele>
        <time>2020-09-13T14:36:39Z</time>
      </trkpt>
      <trkpt lat="45.62782" lon="6.48253">
        <ele>1227.26</ele>
        <time>2020-09-13T14:36:45Z</time>
      </trkpt>
      <trkpt lat="45.62774" lon="6.48216">
        <ele>1225.34</ele>
        <time>2020-09-13T14:37:01Z</time>
      </trkpt>
      <trkpt lat="45.62769" lon="6.48189">
        <ele>1224.38</ele>
        <time>2020-09-13T14:37:17Z</time>
      </trkpt>
      <trkpt lat="45.62766" lon="6.48181">
        <ele>1223.42</ele>
        <time>2020-09-13T14:37:23Z</time>
      </trkpt>
      <trkpt lat="45.62767" lon="6.48163">
        <ele>1220.53</ele>
        <time>2020-09-13T14:37:32Z</time>
      </trkpt>
      <trkpt lat="45.62759" lon="6.48146">
        <ele>1217.17</ele>
        <time>2020-09-13T14:37:46Z</time>
      </trkpt>
      <trkpt lat="45.62752" lon="6.48128">
        <ele>1216.69</ele>
        <time>2020-09-13T14:38:02Z</time>
      </trkpt>
      <trkpt lat="45.62742" lon="6.48122">
        <ele>1214.76</ele>
        <time>2020-09-13T14:38:17Z</time>
      </trkpt>
      <trkpt lat="45.62722" lon="6.48107">
        <ele>1214.76</ele>
        <time>2020-09-13T14:38:32Z</time>
      </trkpt>
      <trkpt lat="45.62719" lon="6.48104">
        <ele>1215.72</ele>
        <time>2020-09-13T14:38:38Z</time>
      </trkpt>
      <trkpt lat="45.62709" lon="6.48087">
        <ele>1216.69</ele>
        <time>2020-09-13T14:38:45Z</time>
      </trkpt>
      <trkpt lat="45.62702" lon="6.48051">
        <ele>1218.61</ele>
        <time>2020-09-13T14:39:01Z</time>
      </trkpt>
      <trkpt lat="45.62698" lon="6.48038">
        <ele>1220.53</ele>
        <time>2020-09-13T14:39:12Z</time>
      </trkpt>
      <trkpt lat="45.62695" lon="6.48012">
        <ele>1221.97</ele>
        <time>2020-09-13T14:39:24Z</time>
      </trkpt>
      <trkpt lat="45.62696" lon="6.47997">
        <ele>1222.93</ele>
        <time>2020-09-13T14:39:33Z</time>
      </trkpt>
      <trkpt lat="45.62707" lon="6.47976">
        <ele>1221.97</ele>
        <time>2020-09-13T14:39:46Z</time>
      </trkpt>
      <trkpt lat="45.62711" lon="6.47965">
        <ele>1221.01</ele>
        <time>2020-09-13T14:39:51Z</time>
      </trkpt>
      <trkpt lat="45.62707" lon="6.47945">
        <ele>1219.09</ele>
        <time>2020-09-13T14:40:00Z</time>
      </trkpt>
      <trkpt lat="45.62702" lon="6.47932">
        <ele>1218.61</ele>
        <time>2020-09-13T14:40:08Z</time>
      </trkpt>
      <trkpt lat="45.62689" lon="6.4793">
        <ele>1217.65</ele>
        <time>2020-09-13T14:40:20Z</time>
      </trkpt>
      <trkpt lat="45.6269" lon="6.47931">
        <ele>1217.17</ele>
        <time>2020-09-13T14:40:40Z</time>
      </trkpt>
      <trkpt lat="45.62692" lon="6.47929">
        <ele>1217.17</ele>
        <time>2020-09-13T14:41:04Z</time>
      </trkpt>
    </trkseg>
  </trk>
</gpx>